<?xml version="1.0" encoding="UTF-8" standalone="no" ?>
<gpx xmlns="http://www.topografix.com/GPX/1/1" xmlns:xsi="http://www.w3.org/2001/XMLSchema-instance" xsi:schemaLocation="http://www.topografix.com/GPX/1/1 http://www.topografix.com/GPX/1/1/gpx.xsd" version="1.1" creator="VisuGPX - https://www.visugpx.com">
  <metadata>
    <name>Des Mouettes aux Cigales 2021</name>
  </metadata>
  <trk>
    <name><![CDATA[Étape 9 : Mâcon - Lyon]]></name>
    <extensions>
      <line xmlns="http://www.topografix.com/GPX/gpx_style/0/2">
        <color>008888</color>
        <width>4</width>
      </line>
    </extensions>
    <trkseg>
      <trkpt lat="46.33052" lon="4.84499">
        <ele>177.080072</ele>
        <time>2021-09-13T06:06:03.000Z</time>
      </trkpt>
      <trkpt lat="46.33058" lon="4.84468">
        <ele>177.080072</ele>
        <time>2021-09-13T06:06:08.000Z</time>
      </trkpt>
      <trkpt lat="46.33063" lon="4.84441">
        <ele>177.080072</ele>
        <time>2021-09-13T06:06:13.000Z</time>
      </trkpt>
      <trkpt lat="46.3305" lon="4.84444">
        <ele>177.080072</ele>
        <time>2021-09-13T06:06:15.000Z</time>
      </trkpt>
      <trkpt lat="46.33049" lon="4.84442">
        <ele>177.080072</ele>
        <time>2021-09-13T06:06:16.000Z</time>
      </trkpt>
      <trkpt lat="46.33045" lon="4.84433">
        <ele>177.080072</ele>
        <time>2021-09-13T06:06:18.000Z</time>
      </trkpt>
      <trkpt lat="46.33036" lon="4.84417">
        <ele>177.080072</ele>
        <time>2021-09-13T06:06:22.000Z</time>
      </trkpt>
      <trkpt lat="46.33033" lon="4.8441">
        <ele>177.080072</ele>
        <time>2021-09-13T06:06:24.000Z</time>
      </trkpt>
      <trkpt lat="46.33034" lon="4.84411">
        <ele>177.080072</ele>
        <time>2021-09-13T06:06:25.000Z</time>
      </trkpt>
      <trkpt lat="46.33037" lon="4.844">
        <ele>177.093651</ele>
        <time>2021-09-13T06:06:29.000Z</time>
      </trkpt>
      <trkpt lat="46.3304" lon="4.84391">
        <ele>177.120561</ele>
        <time>2021-09-13T06:06:32.000Z</time>
      </trkpt>
      <trkpt lat="46.33041" lon="4.84386">
        <ele>177.138562</ele>
        <time>2021-09-13T06:06:34.000Z</time>
      </trkpt>
      <trkpt lat="46.33045" lon="4.84373">
        <ele>177.182463</ele>
        <time>2021-09-13T06:06:38.000Z</time>
      </trkpt>
      <trkpt lat="46.33048" lon="4.84365">
        <ele>177.20781</ele>
        <time>2021-09-13T06:06:40.000Z</time>
      </trkpt>
      <trkpt lat="46.3305" lon="4.84357">
        <ele>177.236741</ele>
        <time>2021-09-13T06:06:42.000Z</time>
      </trkpt>
      <trkpt lat="46.33076" lon="4.84358">
        <ele>177.350118</ele>
        <time>2021-09-13T06:06:47.000Z</time>
      </trkpt>
      <trkpt lat="46.33076" lon="4.84358">
        <ele>177.350118</ele>
        <time>2021-09-13T06:06:48.000Z</time>
      </trkpt>
      <trkpt lat="46.33067" lon="4.84333">
        <ele>177.434689</ele>
        <time>2021-09-13T06:06:52.000Z</time>
      </trkpt>
      <trkpt lat="46.33061" lon="4.84334">
        <ele>177.463402</ele>
        <time>2021-09-13T06:06:54.000Z</time>
      </trkpt>
      <trkpt lat="46.33038" lon="4.84326">
        <ele>177.565742</ele>
        <time>2021-09-13T06:06:59.000Z</time>
      </trkpt>
      <trkpt lat="46.33019" lon="4.84319">
        <ele>177.652711</ele>
        <time>2021-09-13T06:07:03.000Z</time>
      </trkpt>
      <trkpt lat="46.33014" lon="4.84318">
        <ele>177.673815</ele>
        <time>2021-09-13T06:07:05.000Z</time>
      </trkpt>
      <trkpt lat="46.32977" lon="4.84329">
        <ele>177.839805</ele>
        <time>2021-09-13T06:07:12.000Z</time>
      </trkpt>
      <trkpt lat="46.32943" lon="4.84339">
        <ele>177.950376</ele>
        <time>2021-09-13T06:07:18.000Z</time>
      </trkpt>
      <trkpt lat="46.32919" lon="4.84338">
        <ele>178.01999</ele>
        <time>2021-09-13T06:07:22.000Z</time>
      </trkpt>
      <trkpt lat="46.32908" lon="4.84335">
        <ele>178.053026</ele>
        <time>2021-09-13T06:07:24.000Z</time>
      </trkpt>
      <trkpt lat="46.32855" lon="4.84314">
        <ele>178.21375</ele>
        <time>2021-09-13T06:07:34.000Z</time>
      </trkpt>
      <trkpt lat="46.32843" lon="4.8431">
        <ele>178.248688</ele>
        <time>2021-09-13T06:07:36.000Z</time>
      </trkpt>
      <trkpt lat="46.32819" lon="4.843">
        <ele>178.321745</ele>
        <time>2021-09-13T06:07:40.000Z</time>
      </trkpt>
      <trkpt lat="46.32769" lon="4.84281">
        <ele>178.373543</ele>
        <time>2021-09-13T06:07:48.000Z</time>
      </trkpt>
      <trkpt lat="46.32718" lon="4.8426">
        <ele>178.338765</ele>
        <time>2021-09-13T06:07:56.000Z</time>
      </trkpt>
      <trkpt lat="46.32678" lon="4.84244">
        <ele>178.311677</ele>
        <time>2021-09-13T06:08:02.000Z</time>
      </trkpt>
      <trkpt lat="46.32672" lon="4.84241">
        <ele>178.307187</ele>
        <time>2021-09-13T06:08:03.000Z</time>
      </trkpt>
      <trkpt lat="46.32619" lon="4.84218">
        <ele>178.270251</ele>
        <time>2021-09-13T06:08:11.000Z</time>
      </trkpt>
      <trkpt lat="46.32566" lon="4.84198">
        <ele>178.220237</ele>
        <time>2021-09-13T06:08:18.000Z</time>
      </trkpt>
      <trkpt lat="46.32554" lon="4.84193">
        <ele>178.208119</ele>
        <time>2021-09-13T06:08:21.000Z</time>
      </trkpt>
      <trkpt lat="46.32502" lon="4.84175">
        <ele>178.159555</ele>
        <time>2021-09-13T06:08:29.000Z</time>
      </trkpt>
      <trkpt lat="46.32492" lon="4.84166">
        <ele>178.148866</ele>
        <time>2021-09-13T06:08:32.000Z</time>
      </trkpt>
      <trkpt lat="46.32488" lon="4.84151">
        <ele>178.138343</ele>
        <time>2021-09-13T06:08:36.000Z</time>
      </trkpt>
      <trkpt lat="46.32482" lon="4.84123">
        <ele>178.119698</ele>
        <time>2021-09-13T06:08:41.000Z</time>
      </trkpt>
      <trkpt lat="46.32474" lon="4.84115">
        <ele>178.111506</ele>
        <time>2021-09-13T06:08:42.000Z</time>
      </trkpt>
      <trkpt lat="46.32453" lon="4.84111">
        <ele>178.084507</ele>
        <time>2021-09-13T06:08:47.000Z</time>
      </trkpt>
      <trkpt lat="46.32422" lon="4.84098">
        <ele>178.043238</ele>
        <time>2021-09-13T06:08:53.000Z</time>
      </trkpt>
      <trkpt lat="46.32413" lon="4.84094">
        <ele>178.030484</ele>
        <time>2021-09-13T06:08:55.000Z</time>
      </trkpt>
      <trkpt lat="46.32401" lon="4.8409">
        <ele>178.015045</ele>
        <time>2021-09-13T06:08:57.000Z</time>
      </trkpt>
      <trkpt lat="46.32344" lon="4.84067">
        <ele>177.937826</ele>
        <time>2021-09-13T06:09:06.000Z</time>
      </trkpt>
      <trkpt lat="46.32293" lon="4.84046">
        <ele>177.872942</ele>
        <time>2021-09-13T06:09:14.000Z</time>
      </trkpt>
      <trkpt lat="46.32264" lon="4.84035">
        <ele>177.852387</ele>
        <time>2021-09-13T06:09:19.000Z</time>
      </trkpt>
      <trkpt lat="46.32232" lon="4.84022">
        <ele>177.830226</ele>
        <time>2021-09-13T06:09:25.000Z</time>
      </trkpt>
      <trkpt lat="46.322" lon="4.84009">
        <ele>177.808064</ele>
        <time>2021-09-13T06:09:32.000Z</time>
      </trkpt>
      <trkpt lat="46.32182" lon="4.84002">
        <ele>177.795986</ele>
        <time>2021-09-13T06:09:37.000Z</time>
      </trkpt>
      <trkpt lat="46.32143" lon="4.83986">
        <ele>177.76895</ele>
        <time>2021-09-13T06:09:44.000Z</time>
      </trkpt>
      <trkpt lat="46.32133" lon="4.83982">
        <ele>177.761386</ele>
        <time>2021-09-13T06:09:46.000Z</time>
      </trkpt>
      <trkpt lat="46.32116" lon="4.83976">
        <ele>177.750144</ele>
        <time>2021-09-13T06:09:49.000Z</time>
      </trkpt>
      <trkpt lat="46.32076" lon="4.83959">
        <ele>177.722013</ele>
        <time>2021-09-13T06:09:56.000Z</time>
      </trkpt>
      <trkpt lat="46.32034" lon="4.83943">
        <ele>177.693216</ele>
        <time>2021-09-13T06:10:03.000Z</time>
      </trkpt>
      <trkpt lat="46.32005" lon="4.83931">
        <ele>177.673133</ele>
        <time>2021-09-13T06:10:08.000Z</time>
      </trkpt>
      <trkpt lat="46.32" lon="4.83928">
        <ele>177.669244</ele>
        <time>2021-09-13T06:10:09.000Z</time>
      </trkpt>
      <trkpt lat="46.31994" lon="4.83926">
        <ele>177.665561</ele>
        <time>2021-09-13T06:10:10.000Z</time>
      </trkpt>
      <trkpt lat="46.31984" lon="4.83922">
        <ele>177.658542</ele>
        <time>2021-09-13T06:10:12.000Z</time>
      </trkpt>
      <trkpt lat="46.31961" lon="4.83912">
        <ele>177.642412</ele>
        <time>2021-09-13T06:10:16.000Z</time>
      </trkpt>
      <trkpt lat="46.31925" lon="4.83897">
        <ele>177.661026</ele>
        <time>2021-09-13T06:10:22.000Z</time>
      </trkpt>
      <trkpt lat="46.31914" lon="4.83892">
        <ele>177.672634</ele>
        <time>2021-09-13T06:10:24.000Z</time>
      </trkpt>
      <trkpt lat="46.31897" lon="4.83894">
        <ele>177.688404</ele>
        <time>2021-09-13T06:10:27.000Z</time>
      </trkpt>
      <trkpt lat="46.31893" lon="4.83895">
        <ele>177.692697</ele>
        <time>2021-09-13T06:10:28.000Z</time>
      </trkpt>
      <trkpt lat="46.31885" lon="4.83874">
        <ele>177.708098</ele>
        <time>2021-09-13T06:10:30.000Z</time>
      </trkpt>
      <trkpt lat="46.31884" lon="4.83874">
        <ele>177.709146</ele>
        <time>2021-09-13T06:10:31.000Z</time>
      </trkpt>
      <trkpt lat="46.31882" lon="4.83869">
        <ele>177.713372</ele>
        <time>2021-09-13T06:10:32.000Z</time>
      </trkpt>
      <trkpt lat="46.31877" lon="4.83859">
        <ele>177.721335</ele>
        <time>2021-09-13T06:10:34.000Z</time>
      </trkpt>
      <trkpt lat="46.31848" lon="4.83895">
        <ele>177.757366</ele>
        <time>2021-09-13T06:10:38.000Z</time>
      </trkpt>
      <trkpt lat="46.31806" lon="4.83894">
        <ele>177.797872</ele>
        <time>2021-09-13T06:10:45.000Z</time>
      </trkpt>
      <trkpt lat="46.31774" lon="4.83897">
        <ele>177.806482</ele>
        <time>2021-09-13T06:10:51.000Z</time>
      </trkpt>
      <trkpt lat="46.31731" lon="4.8391">
        <ele>177.805633</ele>
        <time>2021-09-13T06:10:57.000Z</time>
      </trkpt>
      <trkpt lat="46.31687" lon="4.83925">
        <ele>177.804763</ele>
        <time>2021-09-13T06:11:04.000Z</time>
      </trkpt>
      <trkpt lat="46.31653" lon="4.83943">
        <ele>177.804058</ele>
        <time>2021-09-13T06:11:10.000Z</time>
      </trkpt>
      <trkpt lat="46.31648" lon="4.83948">
        <ele>177.803943</ele>
        <time>2021-09-13T06:11:11.000Z</time>
      </trkpt>
      <trkpt lat="46.31635" lon="4.83965">
        <ele>177.803601</ele>
        <time>2021-09-13T06:11:14.000Z</time>
      </trkpt>
      <trkpt lat="46.31625" lon="4.83974">
        <ele>177.778867</ele>
        <time>2021-09-13T06:11:16.000Z</time>
      </trkpt>
      <trkpt lat="46.31613" lon="4.83966">
        <ele>177.662847</ele>
        <time>2021-09-13T06:11:18.000Z</time>
      </trkpt>
      <trkpt lat="46.31602" lon="4.83969">
        <ele>177.570643</ele>
        <time>2021-09-13T06:11:20.000Z</time>
      </trkpt>
      <trkpt lat="46.31597" lon="4.83971">
        <ele>177.523927</ele>
        <time>2021-09-13T06:11:21.000Z</time>
      </trkpt>
      <trkpt lat="46.31586" lon="4.83975">
        <ele>177.42992</ele>
        <time>2021-09-13T06:11:23.000Z</time>
      </trkpt>
      <trkpt lat="46.31581" lon="4.83976">
        <ele>177.388305</ele>
        <time>2021-09-13T06:11:24.000Z</time>
      </trkpt>
      <trkpt lat="46.3157" lon="4.83968">
        <ele>177.282936</ele>
        <time>2021-09-13T06:11:26.000Z</time>
      </trkpt>
      <trkpt lat="46.31561" lon="4.83972">
        <ele>177.200791</ele>
        <time>2021-09-13T06:11:28.000Z</time>
      </trkpt>
      <trkpt lat="46.31552" lon="4.83976">
        <ele>177.120461</ele>
        <time>2021-09-13T06:11:30.000Z</time>
      </trkpt>
      <trkpt lat="46.3154" lon="4.83982">
        <ele>177.011267</ele>
        <time>2021-09-13T06:11:33.000Z</time>
      </trkpt>
      <trkpt lat="46.31521" lon="4.83991">
        <ele>176.84153</ele>
        <time>2021-09-13T06:11:38.000Z</time>
      </trkpt>
      <trkpt lat="46.31516" lon="4.83994">
        <ele>176.792695</ele>
        <time>2021-09-13T06:11:42.000Z</time>
      </trkpt>
      <trkpt lat="46.31509" lon="4.83998">
        <ele>176.723111</ele>
        <time>2021-09-13T06:12:28.000Z</time>
      </trkpt>
      <trkpt lat="46.31505" lon="4.84001">
        <ele>176.687283</ele>
        <time>2021-09-13T06:12:30.000Z</time>
      </trkpt>
      <trkpt lat="46.31492" lon="4.84011">
        <ele>176.559162</ele>
        <time>2021-09-13T06:12:35.000Z</time>
      </trkpt>
      <trkpt lat="46.31471" lon="4.84017">
        <ele>176.376317</ele>
        <time>2021-09-13T06:12:41.000Z</time>
      </trkpt>
      <trkpt lat="46.31462" lon="4.8402">
        <ele>176.296199</ele>
        <time>2021-09-13T06:12:44.000Z</time>
      </trkpt>
      <trkpt lat="46.31455" lon="4.84021">
        <ele>176.265933</ele>
        <time>2021-09-13T06:12:46.000Z</time>
      </trkpt>
      <trkpt lat="46.31446" lon="4.84022">
        <ele>176.292735</ele>
        <time>2021-09-13T06:12:49.000Z</time>
      </trkpt>
      <trkpt lat="46.31443" lon="4.84023">
        <ele>176.301567</ele>
        <time>2021-09-13T06:12:50.000Z</time>
      </trkpt>
      <trkpt lat="46.31436" lon="4.84021">
        <ele>176.319959</ele>
        <time>2021-09-13T06:12:53.000Z</time>
      </trkpt>
      <trkpt lat="46.31434" lon="4.84021">
        <ele>176.32602</ele>
        <time>2021-09-13T06:12:54.000Z</time>
      </trkpt>
      <trkpt lat="46.31428" lon="4.84019">
        <ele>176.343055</ele>
        <time>2021-09-13T06:12:59.000Z</time>
      </trkpt>
      <trkpt lat="46.3142" lon="4.84015">
        <ele>176.368617</ele>
        <time>2021-09-13T06:13:05.000Z</time>
      </trkpt>
      <trkpt lat="46.31406" lon="4.84008">
        <ele>176.410289</ele>
        <time>2021-09-13T06:13:11.000Z</time>
      </trkpt>
      <trkpt lat="46.31385" lon="4.84006">
        <ele>176.469361</ele>
        <time>2021-09-13T06:13:16.000Z</time>
      </trkpt>
      <trkpt lat="46.3135" lon="4.83992">
        <ele>176.572669</ele>
        <time>2021-09-13T06:13:24.000Z</time>
      </trkpt>
      <trkpt lat="46.31334" lon="4.83997">
        <ele>176.617596</ele>
        <time>2021-09-13T06:13:27.000Z</time>
      </trkpt>
      <trkpt lat="46.31324" lon="4.83993">
        <ele>176.647831</ele>
        <time>2021-09-13T06:13:29.000Z</time>
      </trkpt>
      <trkpt lat="46.3129" lon="4.83979">
        <ele>176.746732</ele>
        <time>2021-09-13T06:13:36.000Z</time>
      </trkpt>
      <trkpt lat="46.31282" lon="4.83975">
        <ele>176.769933</ele>
        <time>2021-09-13T06:13:38.000Z</time>
      </trkpt>
      <trkpt lat="46.31267" lon="4.83965">
        <ele>176.782497</ele>
        <time>2021-09-13T06:13:42.000Z</time>
      </trkpt>
      <trkpt lat="46.31238" lon="4.83943">
        <ele>176.807611</ele>
        <time>2021-09-13T06:13:50.000Z</time>
      </trkpt>
      <trkpt lat="46.31202" lon="4.83916">
        <ele>176.837679</ele>
        <time>2021-09-13T06:13:58.000Z</time>
      </trkpt>
      <trkpt lat="46.31172" lon="4.83893">
        <ele>176.863548</ele>
        <time>2021-09-13T06:14:05.000Z</time>
      </trkpt>
      <trkpt lat="46.31168" lon="4.8389">
        <ele>176.866782</ele>
        <time>2021-09-13T06:14:06.000Z</time>
      </trkpt>
      <trkpt lat="46.31151" lon="4.83875">
        <ele>176.882119</ele>
        <time>2021-09-13T06:14:11.000Z</time>
      </trkpt>
      <trkpt lat="46.31129" lon="4.8386">
        <ele>176.900768</ele>
        <time>2021-09-13T06:14:17.000Z</time>
      </trkpt>
      <trkpt lat="46.31115" lon="4.83854">
        <ele>176.911233</ele>
        <time>2021-09-13T06:14:20.000Z</time>
      </trkpt>
      <trkpt lat="46.31101" lon="4.83849">
        <ele>176.921252</ele>
        <time>2021-09-13T06:14:23.000Z</time>
      </trkpt>
      <trkpt lat="46.31097" lon="4.83847">
        <ele>176.924465</ele>
        <time>2021-09-13T06:14:24.000Z</time>
      </trkpt>
      <trkpt lat="46.31068" lon="4.83836">
        <ele>176.944993</ele>
        <time>2021-09-13T06:14:30.000Z</time>
      </trkpt>
      <trkpt lat="46.31028" lon="4.83821">
        <ele>176.974442</ele>
        <time>2021-09-13T06:14:38.000Z</time>
      </trkpt>
      <trkpt lat="46.31002" lon="4.8381">
        <ele>176.993587</ele>
        <time>2021-09-13T06:14:43.000Z</time>
      </trkpt>
      <trkpt lat="46.30997" lon="4.83808">
        <ele>176.99752</ele>
        <time>2021-09-13T06:14:44.000Z</time>
      </trkpt>
      <trkpt lat="46.30981" lon="4.83803">
        <ele>177.008556</ele>
        <time>2021-09-13T06:14:47.000Z</time>
      </trkpt>
      <trkpt lat="46.30971" lon="4.83803">
        <ele>177.015905</ele>
        <time>2021-09-13T06:14:49.000Z</time>
      </trkpt>
      <trkpt lat="46.30961" lon="4.83805">
        <ele>177.02308</ele>
        <time>2021-09-13T06:14:51.000Z</time>
      </trkpt>
      <trkpt lat="46.30946" lon="4.838">
        <ele>177.037153</ele>
        <time>2021-09-13T06:14:54.000Z</time>
      </trkpt>
      <trkpt lat="46.30917" lon="4.83788">
        <ele>177.089298</ele>
        <time>2021-09-13T06:15:00.000Z</time>
      </trkpt>
      <trkpt lat="46.30906" lon="4.83776">
        <ele>177.114861</ele>
        <time>2021-09-13T06:15:03.000Z</time>
      </trkpt>
      <trkpt lat="46.30897" lon="4.83771">
        <ele>177.131257</ele>
        <time>2021-09-13T06:15:05.000Z</time>
      </trkpt>
      <trkpt lat="46.30883" lon="4.83765">
        <ele>177.157396</ele>
        <time>2021-09-13T06:15:08.000Z</time>
      </trkpt>
      <trkpt lat="46.30868" lon="4.8376">
        <ele>177.18388</ele>
        <time>2021-09-13T06:15:11.000Z</time>
      </trkpt>
      <trkpt lat="46.30854" lon="4.83755">
        <ele>177.21091</ele>
        <time>2021-09-13T06:15:14.000Z</time>
      </trkpt>
      <trkpt lat="46.30838" lon="4.83749">
        <ele>177.239232</ele>
        <time>2021-09-13T06:15:17.000Z</time>
      </trkpt>
      <trkpt lat="46.30807" lon="4.83738">
        <ele>177.295533</ele>
        <time>2021-09-13T06:15:23.000Z</time>
      </trkpt>
      <trkpt lat="46.30777" lon="4.83726">
        <ele>177.353565</ele>
        <time>2021-09-13T06:15:29.000Z</time>
      </trkpt>
      <trkpt lat="46.30767" lon="4.83722">
        <ele>177.414347</ele>
        <time>2021-09-13T06:15:31.000Z</time>
      </trkpt>
      <trkpt lat="46.30749" lon="4.83714">
        <ele>177.522744</ele>
        <time>2021-09-13T06:15:35.000Z</time>
      </trkpt>
      <trkpt lat="46.30719" lon="4.83705">
        <ele>177.701939</ele>
        <time>2021-09-13T06:15:43.000Z</time>
      </trkpt>
      <trkpt lat="46.30696" lon="4.83696">
        <ele>177.844891</ele>
        <time>2021-09-13T06:15:50.000Z</time>
      </trkpt>
      <trkpt lat="46.30676" lon="4.83688">
        <ele>177.967771</ele>
        <time>2021-09-13T06:15:56.000Z</time>
      </trkpt>
      <trkpt lat="46.3065" lon="4.83678">
        <ele>178.123534</ele>
        <time>2021-09-13T06:16:04.000Z</time>
      </trkpt>
      <trkpt lat="46.30629" lon="4.8367">
        <ele>178.253997</ele>
        <time>2021-09-13T06:16:10.000Z</time>
      </trkpt>
      <trkpt lat="46.30614" lon="4.83662">
        <ele>178.345985</ele>
        <time>2021-09-13T06:16:14.000Z</time>
      </trkpt>
      <trkpt lat="46.30606" lon="4.83658">
        <ele>178.396885</ele>
        <time>2021-09-13T06:16:16.000Z</time>
      </trkpt>
      <trkpt lat="46.30599" lon="4.83652">
        <ele>178.433285</ele>
        <time>2021-09-13T06:16:18.000Z</time>
      </trkpt>
      <trkpt lat="46.3059" lon="4.83644">
        <ele>178.477864</ele>
        <time>2021-09-13T06:16:21.000Z</time>
      </trkpt>
      <trkpt lat="46.30566" lon="4.83624">
        <ele>178.588409</ele>
        <time>2021-09-13T06:16:29.000Z</time>
      </trkpt>
      <trkpt lat="46.30548" lon="4.83609">
        <ele>178.671958</ele>
        <time>2021-09-13T06:16:36.000Z</time>
      </trkpt>
      <trkpt lat="46.3054" lon="4.83602">
        <ele>178.708576</ele>
        <time>2021-09-13T06:16:41.000Z</time>
      </trkpt>
      <trkpt lat="46.30538" lon="4.83601">
        <ele>178.715568</ele>
        <time>2021-09-13T06:16:42.000Z</time>
      </trkpt>
      <trkpt lat="46.30532" lon="4.83596">
        <ele>178.742985</ele>
        <time>2021-09-13T06:16:47.000Z</time>
      </trkpt>
      <trkpt lat="46.30532" lon="4.8358">
        <ele>178.788295</ele>
        <time>2021-09-13T06:17:13.000Z</time>
      </trkpt>
      <trkpt lat="46.30534" lon="4.83571">
        <ele>178.812437</ele>
        <time>2021-09-13T06:17:19.000Z</time>
      </trkpt>
      <trkpt lat="46.30545" lon="4.83541">
        <ele>178.906575</ele>
        <time>2021-09-13T06:17:25.000Z</time>
      </trkpt>
      <trkpt lat="46.30552" lon="4.83524">
        <ele>178.963004</ele>
        <time>2021-09-13T06:17:28.000Z</time>
      </trkpt>
      <trkpt lat="46.30557" lon="4.83513">
        <ele>178.997823</ele>
        <time>2021-09-13T06:17:30.000Z</time>
      </trkpt>
      <trkpt lat="46.30559" lon="4.83508">
        <ele>179.015585</ele>
        <time>2021-09-13T06:17:31.000Z</time>
      </trkpt>
      <trkpt lat="46.30561" lon="4.83503">
        <ele>179.032412</ele>
        <time>2021-09-13T06:17:32.000Z</time>
      </trkpt>
      <trkpt lat="46.30562" lon="4.83495">
        <ele>179.0525</ele>
        <time>2021-09-13T06:17:34.000Z</time>
      </trkpt>
      <trkpt lat="46.30563" lon="4.83489">
        <ele>179.071166</ele>
        <time>2021-09-13T06:17:36.000Z</time>
      </trkpt>
      <trkpt lat="46.30563" lon="4.83481">
        <ele>179.093083</ele>
        <time>2021-09-13T06:17:38.000Z</time>
      </trkpt>
      <trkpt lat="46.30563" lon="4.83456">
        <ele>179.407818</ele>
        <time>2021-09-13T06:17:44.000Z</time>
      </trkpt>
      <trkpt lat="46.30563" lon="4.83442">
        <ele>179.787474</ele>
        <time>2021-09-13T06:17:48.000Z</time>
      </trkpt>
      <trkpt lat="46.30562" lon="4.83426">
        <ele>180.2262</ele>
        <time>2021-09-13T06:17:53.000Z</time>
      </trkpt>
      <trkpt lat="46.30561" lon="4.83396">
        <ele>181.012205</ele>
        <time>2021-09-13T06:18:00.000Z</time>
      </trkpt>
      <trkpt lat="46.30561" lon="4.83371">
        <ele>181.68825</ele>
        <time>2021-09-13T06:18:06.000Z</time>
      </trkpt>
      <trkpt lat="46.30561" lon="4.83353">
        <ele>182.166574</ele>
        <time>2021-09-13T06:18:10.000Z</time>
      </trkpt>
      <trkpt lat="46.3056" lon="4.83331">
        <ele>182.760888</ele>
        <time>2021-09-13T06:18:15.000Z</time>
      </trkpt>
      <trkpt lat="46.30557" lon="4.8331">
        <ele>183.328892</ele>
        <time>2021-09-13T06:18:20.000Z</time>
      </trkpt>
      <trkpt lat="46.3056" lon="4.83285">
        <ele>183.99761</ele>
        <time>2021-09-13T06:18:25.000Z</time>
      </trkpt>
      <trkpt lat="46.30566" lon="4.83262">
        <ele>184.662974</ele>
        <time>2021-09-13T06:18:30.000Z</time>
      </trkpt>
      <trkpt lat="46.30569" lon="4.83245">
        <ele>185.122979</ele>
        <time>2021-09-13T06:18:34.000Z</time>
      </trkpt>
      <trkpt lat="46.3057" lon="4.83236">
        <ele>185.380704</ele>
        <time>2021-09-13T06:18:36.000Z</time>
      </trkpt>
      <trkpt lat="46.30571" lon="4.8323">
        <ele>185.530054</ele>
        <time>2021-09-13T06:18:37.000Z</time>
      </trkpt>
      <trkpt lat="46.30573" lon="4.83225">
        <ele>185.699124</ele>
        <time>2021-09-13T06:18:39.000Z</time>
      </trkpt>
      <trkpt lat="46.30579" lon="4.83222">
        <ele>185.91309</ele>
        <time>2021-09-13T06:18:40.000Z</time>
      </trkpt>
      <trkpt lat="46.30576" lon="4.83208">
        <ele>186.327282</ele>
        <time>2021-09-13T06:18:45.000Z</time>
      </trkpt>
      <trkpt lat="46.30576" lon="4.83208">
        <ele>186.327282</ele>
        <time>2021-09-13T06:18:49.000Z</time>
      </trkpt>
      <trkpt lat="46.3059" lon="4.83155">
        <ele>187.884632</ele>
        <time>2021-09-13T06:18:54.000Z</time>
      </trkpt>
      <trkpt lat="46.30596" lon="4.83137">
        <ele>188.454195</ele>
        <time>2021-09-13T06:18:58.000Z</time>
      </trkpt>
      <trkpt lat="46.30601" lon="4.83121">
        <ele>188.955087</ele>
        <time>2021-09-13T06:19:02.000Z</time>
      </trkpt>
      <trkpt lat="46.30608" lon="4.83092">
        <ele>189.800486</ele>
        <time>2021-09-13T06:19:07.000Z</time>
      </trkpt>
      <trkpt lat="46.3061" lon="4.83081">
        <ele>190.133321</ele>
        <time>2021-09-13T06:19:09.000Z</time>
      </trkpt>
      <trkpt lat="46.30611" lon="4.83075">
        <ele>190.286848</ele>
        <time>2021-09-13T06:19:10.000Z</time>
      </trkpt>
      <trkpt lat="46.30616" lon="4.83049">
        <ele>191.043259</ele>
        <time>2021-09-13T06:19:14.000Z</time>
      </trkpt>
      <trkpt lat="46.30617" lon="4.83044">
        <ele>191.208344</ele>
        <time>2021-09-13T06:19:15.000Z</time>
      </trkpt>
      <trkpt lat="46.30623" lon="4.83016">
        <ele>192.000762</ele>
        <time>2021-09-13T06:19:20.000Z</time>
      </trkpt>
      <trkpt lat="46.30624" lon="4.83007">
        <ele>192.272055</ele>
        <time>2021-09-13T06:19:24.000Z</time>
      </trkpt>
      <trkpt lat="46.30624" lon="4.82977">
        <ele>193.116112</ele>
        <time>2021-09-13T06:19:50.000Z</time>
      </trkpt>
      <trkpt lat="46.30625" lon="4.82974">
        <ele>193.200706</ele>
        <time>2021-09-13T06:19:52.000Z</time>
      </trkpt>
      <trkpt lat="46.30625" lon="4.82974">
        <ele>193.200706</ele>
        <time>2021-09-13T06:19:58.000Z</time>
      </trkpt>
      <trkpt lat="46.30631" lon="4.8294">
        <ele>193.709411</ele>
        <time>2021-09-13T06:20:04.000Z</time>
      </trkpt>
      <trkpt lat="46.30631" lon="4.82939">
        <ele>193.720255</ele>
        <time>2021-09-13T06:20:07.000Z</time>
      </trkpt>
      <trkpt lat="46.30632" lon="4.82924">
        <ele>193.904405</ele>
        <time>2021-09-13T06:20:08.000Z</time>
      </trkpt>
      <trkpt lat="46.30631" lon="4.82936">
        <ele>194.05224</ele>
        <time>2021-09-13T06:20:09.000Z</time>
      </trkpt>
      <trkpt lat="46.30632" lon="4.8292">
        <ele>194.251671</ele>
        <time>2021-09-13T06:20:14.000Z</time>
      </trkpt>
      <trkpt lat="46.30625" lon="4.82918">
        <ele>194.388339</ele>
        <time>2021-09-13T06:20:40.000Z</time>
      </trkpt>
      <trkpt lat="46.30621" lon="4.82917">
        <ele>194.4467</ele>
        <time>2021-09-13T06:20:42.000Z</time>
      </trkpt>
      <trkpt lat="46.30608" lon="4.82914">
        <ele>194.685307</ele>
        <time>2021-09-13T06:20:48.000Z</time>
      </trkpt>
      <trkpt lat="46.30593" lon="4.82904">
        <ele>194.972279</ele>
        <time>2021-09-13T06:20:53.000Z</time>
      </trkpt>
      <trkpt lat="46.30573" lon="4.82888">
        <ele>195.373724</ele>
        <time>2021-09-13T06:20:59.000Z</time>
      </trkpt>
      <trkpt lat="46.30559" lon="4.82877">
        <ele>195.646398</ele>
        <time>2021-09-13T06:21:03.000Z</time>
      </trkpt>
      <trkpt lat="46.30555" lon="4.82874">
        <ele>195.722479</ele>
        <time>2021-09-13T06:21:04.000Z</time>
      </trkpt>
      <trkpt lat="46.30531" lon="4.82855">
        <ele>196.199242</ele>
        <time>2021-09-13T06:21:10.000Z</time>
      </trkpt>
      <trkpt lat="46.30514" lon="4.8284">
        <ele>196.550707</ele>
        <time>2021-09-13T06:21:15.000Z</time>
      </trkpt>
      <trkpt lat="46.30496" lon="4.82824">
        <ele>196.991727</ele>
        <time>2021-09-13T06:21:21.000Z</time>
      </trkpt>
      <trkpt lat="46.30493" lon="4.82821">
        <ele>197.053327</ele>
        <time>2021-09-13T06:21:22.000Z</time>
      </trkpt>
      <trkpt lat="46.30488" lon="4.82817">
        <ele>197.177263</ele>
        <time>2021-09-13T06:21:24.000Z</time>
      </trkpt>
      <trkpt lat="46.30472" lon="4.82802">
        <ele>197.556682</ele>
        <time>2021-09-13T06:21:29.000Z</time>
      </trkpt>
      <trkpt lat="46.30451" lon="4.82784">
        <ele>198.052673</ele>
        <time>2021-09-13T06:21:35.000Z</time>
      </trkpt>
      <trkpt lat="46.30435" lon="4.8277">
        <ele>198.428652</ele>
        <time>2021-09-13T06:21:39.000Z</time>
      </trkpt>
      <trkpt lat="46.30423" lon="4.82759">
        <ele>198.707946</ele>
        <time>2021-09-13T06:21:42.000Z</time>
      </trkpt>
      <trkpt lat="46.30399" lon="4.82737">
        <ele>199.280757</ele>
        <time>2021-09-13T06:21:48.000Z</time>
      </trkpt>
      <trkpt lat="46.30384" lon="4.82723">
        <ele>199.657475</ele>
        <time>2021-09-13T06:21:52.000Z</time>
      </trkpt>
      <trkpt lat="46.30377" lon="4.82717">
        <ele>199.818238</ele>
        <time>2021-09-13T06:21:55.000Z</time>
      </trkpt>
      <trkpt lat="46.3037" lon="4.82711">
        <ele>199.984877</ele>
        <time>2021-09-13T06:21:57.000Z</time>
      </trkpt>
      <trkpt lat="46.3036" lon="4.82698">
        <ele>200.161377</ele>
        <time>2021-09-13T06:21:59.000Z</time>
      </trkpt>
      <trkpt lat="46.30354" lon="4.82686">
        <ele>200.20196</ele>
        <time>2021-09-13T06:22:01.000Z</time>
      </trkpt>
      <trkpt lat="46.30353" lon="4.82684">
        <ele>200.209036</ele>
        <time>2021-09-13T06:22:03.000Z</time>
      </trkpt>
      <trkpt lat="46.30348" lon="4.82658">
        <ele>200.286307</ele>
        <time>2021-09-13T06:22:04.000Z</time>
      </trkpt>
      <trkpt lat="46.30338" lon="4.82666">
        <ele>200.334856</ele>
        <time>2021-09-13T06:22:05.000Z</time>
      </trkpt>
      <trkpt lat="46.3034" lon="4.82686">
        <ele>200.392142</ele>
        <time>2021-09-13T06:22:07.000Z</time>
      </trkpt>
      <trkpt lat="46.30337" lon="4.82696">
        <ele>200.424775</ele>
        <time>2021-09-13T06:22:09.000Z</time>
      </trkpt>
      <trkpt lat="46.30334" lon="4.82708">
        <ele>200.459675</ele>
        <time>2021-09-13T06:22:11.000Z</time>
      </trkpt>
      <trkpt lat="46.30332" lon="4.82713">
        <ele>200.477471</ele>
        <time>2021-09-13T06:22:12.000Z</time>
      </trkpt>
      <trkpt lat="46.3032" lon="4.82756">
        <ele>200.60977</ele>
        <time>2021-09-13T06:22:18.000Z</time>
      </trkpt>
      <trkpt lat="46.30301" lon="4.82817">
        <ele>200.800062</ele>
        <time>2021-09-13T06:22:25.000Z</time>
      </trkpt>
      <trkpt lat="46.30278" lon="4.82892">
        <ele>199.54571</ele>
        <time>2021-09-13T06:22:33.000Z</time>
      </trkpt>
      <trkpt lat="46.3027" lon="4.82919">
        <ele>198.824042</ele>
        <time>2021-09-13T06:22:36.000Z</time>
      </trkpt>
      <trkpt lat="46.30264" lon="4.82936">
        <ele>198.353189</ele>
        <time>2021-09-13T06:22:38.000Z</time>
      </trkpt>
      <trkpt lat="46.30249" lon="4.82986">
        <ele>196.999911</ele>
        <time>2021-09-13T06:22:44.000Z</time>
      </trkpt>
      <trkpt lat="46.30238" lon="4.83027">
        <ele>195.915933</ele>
        <time>2021-09-13T06:22:50.000Z</time>
      </trkpt>
      <trkpt lat="46.30221" lon="4.83064">
        <ele>194.799301</ele>
        <time>2021-09-13T06:22:58.000Z</time>
      </trkpt>
      <trkpt lat="46.30219" lon="4.83067">
        <ele>194.714045</ele>
        <time>2021-09-13T06:23:02.000Z</time>
      </trkpt>
      <trkpt lat="46.3022" lon="4.83067">
        <ele>194.680888</ele>
        <time>2021-09-13T06:23:05.000Z</time>
      </trkpt>
      <trkpt lat="46.30221" lon="4.83064">
        <ele>194.602035</ele>
        <time>2021-09-13T06:23:06.000Z</time>
      </trkpt>
      <trkpt lat="46.30227" lon="4.83045">
        <ele>193.306034</ele>
        <time>2021-09-13T06:23:11.000Z</time>
      </trkpt>
      <trkpt lat="46.30232" lon="4.83026">
        <ele>191.675257</ele>
        <time>2021-09-13T06:23:18.000Z</time>
      </trkpt>
      <trkpt lat="46.30234" lon="4.83014">
        <ele>190.704517</ele>
        <time>2021-09-13T06:23:20.000Z</time>
      </trkpt>
      <trkpt lat="46.30232" lon="4.83009">
        <ele>190.226232</ele>
        <time>2021-09-13T06:23:22.000Z</time>
      </trkpt>
      <trkpt lat="46.30231" lon="4.83006">
        <ele>189.904414</ele>
        <time>2021-09-13T06:23:25.000Z</time>
      </trkpt>
      <trkpt lat="46.30226" lon="4.83007">
        <ele>189.321846</ele>
        <time>2021-09-13T06:23:33.000Z</time>
      </trkpt>
      <trkpt lat="46.30218" lon="4.83002">
        <ele>188.363797</ele>
        <time>2021-09-13T06:23:37.000Z</time>
      </trkpt>
      <trkpt lat="46.30216" lon="4.83001">
        <ele>188.12079</ele>
        <time>2021-09-13T06:23:38.000Z</time>
      </trkpt>
      <trkpt lat="46.30214" lon="4.83">
        <ele>187.839072</ele>
        <time>2021-09-13T06:23:39.000Z</time>
      </trkpt>
      <trkpt lat="46.30208" lon="4.8299">
        <ele>186.822469</ele>
        <time>2021-09-13T06:23:41.000Z</time>
      </trkpt>
      <trkpt lat="46.30196" lon="4.82974">
        <ele>184.876668</ele>
        <time>2021-09-13T06:23:45.000Z</time>
      </trkpt>
      <trkpt lat="46.3019" lon="4.82965">
        <ele>183.889694</ele>
        <time>2021-09-13T06:23:47.000Z</time>
      </trkpt>
      <trkpt lat="46.30173" lon="4.82941">
        <ele>181.04948</ele>
        <time>2021-09-13T06:23:54.000Z</time>
      </trkpt>
      <trkpt lat="46.3017" lon="4.82936">
        <ele>180.570932</ele>
        <time>2021-09-13T06:23:59.000Z</time>
      </trkpt>
      <trkpt lat="46.30169" lon="4.82935">
        <ele>180.416058</ele>
        <time>2021-09-13T06:26:04.000Z</time>
      </trkpt>
      <trkpt lat="46.30165" lon="4.82929">
        <ele>179.763714</ele>
        <time>2021-09-13T06:26:06.000Z</time>
      </trkpt>
      <trkpt lat="46.30154" lon="4.82914">
        <ele>177.963957</ele>
        <time>2021-09-13T06:26:11.000Z</time>
      </trkpt>
      <trkpt lat="46.30144" lon="4.82896">
        <ele>176.060766</ele>
        <time>2021-09-13T06:26:16.000Z</time>
      </trkpt>
      <trkpt lat="46.30132" lon="4.82877">
        <ele>174.008259</ele>
        <time>2021-09-13T06:26:21.000Z</time>
      </trkpt>
      <trkpt lat="46.30104" lon="4.82826">
        <ele>173.820098</ele>
        <time>2021-09-13T06:26:31.000Z</time>
      </trkpt>
      <trkpt lat="46.30081" lon="4.82784">
        <ele>174.273421</ele>
        <time>2021-09-13T06:26:39.000Z</time>
      </trkpt>
      <trkpt lat="46.3006" lon="4.82748">
        <ele>174.671664</ele>
        <time>2021-09-13T06:26:46.000Z</time>
      </trkpt>
      <trkpt lat="46.30043" lon="4.82715">
        <ele>175.015714</ele>
        <time>2021-09-13T06:26:52.000Z</time>
      </trkpt>
      <trkpt lat="46.30022" lon="4.82675">
        <ele>175.444482</ele>
        <time>2021-09-13T06:26:59.000Z</time>
      </trkpt>
      <trkpt lat="46.30006" lon="4.82642">
        <ele>175.83744</ele>
        <time>2021-09-13T06:27:05.000Z</time>
      </trkpt>
      <trkpt lat="46.2999" lon="4.8261">
        <ele>176.232001</ele>
        <time>2021-09-13T06:27:12.000Z</time>
      </trkpt>
      <trkpt lat="46.29978" lon="4.82585">
        <ele>176.540179</ele>
        <time>2021-09-13T06:27:19.000Z</time>
      </trkpt>
      <trkpt lat="46.29969" lon="4.82581">
        <ele>176.676356</ele>
        <time>2021-09-13T06:27:24.000Z</time>
      </trkpt>
      <trkpt lat="46.29964" lon="4.82592">
        <ele>176.800175</ele>
        <time>2021-09-13T06:27:28.000Z</time>
      </trkpt>
      <trkpt lat="46.29959" lon="4.82604">
        <ele>176.953916</ele>
        <time>2021-09-13T06:27:31.000Z</time>
      </trkpt>
      <trkpt lat="46.29954" lon="4.82615">
        <ele>177.078584</ele>
        <time>2021-09-13T06:27:33.000Z</time>
      </trkpt>
      <trkpt lat="46.29938" lon="4.8265">
        <ele>177.502318</ele>
        <time>2021-09-13T06:27:40.000Z</time>
      </trkpt>
      <trkpt lat="46.29924" lon="4.82666">
        <ele>177.767672</ele>
        <time>2021-09-13T06:27:45.000Z</time>
      </trkpt>
      <trkpt lat="46.2992" lon="4.82669">
        <ele>177.833918</ele>
        <time>2021-09-13T06:27:49.000Z</time>
      </trkpt>
      <trkpt lat="46.29908" lon="4.82672">
        <ele>178.0038</ele>
        <time>2021-09-13T06:27:54.000Z</time>
      </trkpt>
      <trkpt lat="46.29897" lon="4.82671">
        <ele>178.160766</ele>
        <time>2021-09-13T06:27:57.000Z</time>
      </trkpt>
      <trkpt lat="46.29889" lon="4.82672">
        <ele>178.094348</ele>
        <time>2021-09-13T06:27:59.000Z</time>
      </trkpt>
      <trkpt lat="46.29882" lon="4.82679">
        <ele>178.018433</ele>
        <time>2021-09-13T06:28:01.000Z</time>
      </trkpt>
      <trkpt lat="46.29878" lon="4.82692">
        <ele>177.936282</ele>
        <time>2021-09-13T06:28:03.000Z</time>
      </trkpt>
      <trkpt lat="46.29876" lon="4.82707">
        <ele>177.844054</ele>
        <time>2021-09-13T06:28:05.000Z</time>
      </trkpt>
      <trkpt lat="46.29879" lon="4.8272">
        <ele>177.761958</ele>
        <time>2021-09-13T06:28:07.000Z</time>
      </trkpt>
      <trkpt lat="46.29878" lon="4.8275">
        <ele>177.579666</ele>
        <time>2021-09-13T06:28:11.000Z</time>
      </trkpt>
      <trkpt lat="46.29877" lon="4.82758">
        <ele>177.531607</ele>
        <time>2021-09-13T06:28:12.000Z</time>
      </trkpt>
      <trkpt lat="46.29872" lon="4.82773">
        <ele>177.433754</ele>
        <time>2021-09-13T06:28:14.000Z</time>
      </trkpt>
      <trkpt lat="46.29866" lon="4.82788">
        <ele>177.329419</ele>
        <time>2021-09-13T06:28:16.000Z</time>
      </trkpt>
      <trkpt lat="46.29853" lon="4.82818">
        <ele>177.11642</ele>
        <time>2021-09-13T06:28:20.000Z</time>
      </trkpt>
      <trkpt lat="46.2984" lon="4.82845">
        <ele>176.92125</ele>
        <time>2021-09-13T06:28:24.000Z</time>
      </trkpt>
      <trkpt lat="46.29837" lon="4.82852">
        <ele>176.870985</ele>
        <time>2021-09-13T06:28:25.000Z</time>
      </trkpt>
      <trkpt lat="46.29825" lon="4.82877">
        <ele>176.69011</ele>
        <time>2021-09-13T06:28:29.000Z</time>
      </trkpt>
      <trkpt lat="46.2981" lon="4.82909">
        <ele>176.669529</ele>
        <time>2021-09-13T06:28:34.000Z</time>
      </trkpt>
      <trkpt lat="46.29807" lon="4.82916">
        <ele>176.688725</ele>
        <time>2021-09-13T06:28:35.000Z</time>
      </trkpt>
      <trkpt lat="46.29785" lon="4.82959">
        <ele>176.821049</ele>
        <time>2021-09-13T06:28:42.000Z</time>
      </trkpt>
      <trkpt lat="46.29764" lon="4.83003">
        <ele>176.954389</ele>
        <time>2021-09-13T06:28:49.000Z</time>
      </trkpt>
      <trkpt lat="46.29762" lon="4.83009">
        <ele>176.971203</ele>
        <time>2021-09-13T06:28:50.000Z</time>
      </trkpt>
      <trkpt lat="46.29753" lon="4.83016">
        <ele>177.007081</ele>
        <time>2021-09-13T06:28:52.000Z</time>
      </trkpt>
      <trkpt lat="46.29745" lon="4.83021">
        <ele>177.03819</ele>
        <time>2021-09-13T06:28:54.000Z</time>
      </trkpt>
      <trkpt lat="46.29741" lon="4.83025">
        <ele>177.055506</ele>
        <time>2021-09-13T06:28:55.000Z</time>
      </trkpt>
      <trkpt lat="46.29744" lon="4.83034">
        <ele>177.080187</ele>
        <time>2021-09-13T06:28:57.000Z</time>
      </trkpt>
      <trkpt lat="46.29746" lon="4.83036">
        <ele>177.087946</ele>
        <time>2021-09-13T06:28:58.000Z</time>
      </trkpt>
      <trkpt lat="46.29747" lon="4.83044">
        <ele>177.108922</ele>
        <time>2021-09-13T06:29:01.000Z</time>
      </trkpt>
      <trkpt lat="46.29747" lon="4.8306">
        <ele>177.146663</ele>
        <time>2021-09-13T06:29:06.000Z</time>
      </trkpt>
      <trkpt lat="46.29745" lon="4.83091">
        <ele>177.226227</ele>
        <time>2021-09-13T06:29:14.000Z</time>
      </trkpt>
      <trkpt lat="46.29743" lon="4.83115">
        <ele>177.353358</ele>
        <time>2021-09-13T06:29:20.000Z</time>
      </trkpt>
      <trkpt lat="46.2974" lon="4.83139">
        <ele>177.538998</ele>
        <time>2021-09-13T06:29:26.000Z</time>
      </trkpt>
      <trkpt lat="46.29737" lon="4.83178">
        <ele>177.84307</ele>
        <time>2021-09-13T06:29:35.000Z</time>
      </trkpt>
      <trkpt lat="46.29734" lon="4.83214">
        <ele>178.116893</ele>
        <time>2021-09-13T06:29:42.000Z</time>
      </trkpt>
      <trkpt lat="46.2973" lon="4.8326">
        <ele>178.475854</ele>
        <time>2021-09-13T06:29:50.000Z</time>
      </trkpt>
      <trkpt lat="46.29725" lon="4.83311">
        <ele>178.869492</ele>
        <time>2021-09-13T06:29:58.000Z</time>
      </trkpt>
      <trkpt lat="46.29719" lon="4.83366">
        <ele>179.252063</ele>
        <time>2021-09-13T06:30:05.000Z</time>
      </trkpt>
      <trkpt lat="46.29715" lon="4.834">
        <ele>179.263416</ele>
        <time>2021-09-13T06:30:10.000Z</time>
      </trkpt>
      <trkpt lat="46.29704" lon="4.83409">
        <ele>179.269455</ele>
        <time>2021-09-13T06:30:15.000Z</time>
      </trkpt>
      <trkpt lat="46.29703" lon="4.83408">
        <ele>179.269983</ele>
        <time>2021-09-13T06:30:16.000Z</time>
      </trkpt>
      <trkpt lat="46.29702" lon="4.83406">
        <ele>179.270924</ele>
        <time>2021-09-13T06:30:18.000Z</time>
      </trkpt>
      <trkpt lat="46.29702" lon="4.83406">
        <ele>179.270924</ele>
        <time>2021-09-13T06:30:20.000Z</time>
      </trkpt>
      <trkpt lat="46.29704" lon="4.83409">
        <ele>179.272393</ele>
        <time>2021-09-13T06:30:29.000Z</time>
      </trkpt>
      <trkpt lat="46.29705" lon="4.83408">
        <ele>179.273188</ele>
        <time>2021-09-13T06:30:30.000Z</time>
      </trkpt>
      <trkpt lat="46.29708" lon="4.83405">
        <ele>179.27451</ele>
        <time>2021-09-13T06:30:32.000Z</time>
      </trkpt>
      <trkpt lat="46.29715" lon="4.834">
        <ele>179.278462</ele>
        <time>2021-09-13T06:30:33.000Z</time>
      </trkpt>
      <trkpt lat="46.297" lon="4.83419">
        <ele>179.288135</ele>
        <time>2021-09-13T06:30:36.000Z</time>
      </trkpt>
      <trkpt lat="46.29699" lon="4.83425">
        <ele>179.290091</ele>
        <time>2021-09-13T06:30:37.000Z</time>
      </trkpt>
      <trkpt lat="46.29696" lon="4.8344">
        <ele>179.295288</ele>
        <time>2021-09-13T06:30:38.000Z</time>
      </trkpt>
      <trkpt lat="46.29687" lon="4.83443">
        <ele>179.299879</ele>
        <time>2021-09-13T06:30:40.000Z</time>
      </trkpt>
      <trkpt lat="46.29652" lon="4.83453">
        <ele>179.316723</ele>
        <time>2021-09-13T06:30:46.000Z</time>
      </trkpt>
      <trkpt lat="46.29605" lon="4.83469">
        <ele>179.420755</ele>
        <time>2021-09-13T06:30:53.000Z</time>
      </trkpt>
      <trkpt lat="46.29571" lon="4.83481">
        <ele>179.775283</ele>
        <time>2021-09-13T06:30:59.000Z</time>
      </trkpt>
      <trkpt lat="46.29545" lon="4.83491">
        <ele>180.051703</ele>
        <time>2021-09-13T06:31:05.000Z</time>
      </trkpt>
      <trkpt lat="46.29519" lon="4.83502">
        <ele>180.331347</ele>
        <time>2021-09-13T06:31:12.000Z</time>
      </trkpt>
      <trkpt lat="46.29483" lon="4.83525">
        <ele>180.733427</ele>
        <time>2021-09-13T06:31:22.000Z</time>
      </trkpt>
      <trkpt lat="46.29445" lon="4.83555">
        <ele>181.17644</ele>
        <time>2021-09-13T06:31:32.000Z</time>
      </trkpt>
      <trkpt lat="46.29414" lon="4.8358">
        <ele>181.446608</ele>
        <time>2021-09-13T06:31:40.000Z</time>
      </trkpt>
      <trkpt lat="46.29385" lon="4.83603">
        <ele>181.698627</ele>
        <time>2021-09-13T06:31:47.000Z</time>
      </trkpt>
      <trkpt lat="46.29353" lon="4.83629">
        <ele>181.974728</ele>
        <time>2021-09-13T06:31:54.000Z</time>
      </trkpt>
      <trkpt lat="46.29325" lon="4.83652">
        <ele>182.217853</ele>
        <time>2021-09-13T06:32:00.000Z</time>
      </trkpt>
      <trkpt lat="46.29297" lon="4.83676">
        <ele>182.46753</ele>
        <time>2021-09-13T06:32:06.000Z</time>
      </trkpt>
      <trkpt lat="46.29253" lon="4.8371">
        <ele>182.209929</ele>
        <time>2021-09-13T06:32:14.000Z</time>
      </trkpt>
      <trkpt lat="46.29214" lon="4.83728">
        <ele>181.867671</ele>
        <time>2021-09-13T06:32:20.000Z</time>
      </trkpt>
      <trkpt lat="46.29168" lon="4.83732">
        <ele>181.483664</ele>
        <time>2021-09-13T06:32:26.000Z</time>
      </trkpt>
      <trkpt lat="46.29152" lon="4.8373">
        <ele>181.349095</ele>
        <time>2021-09-13T06:32:28.000Z</time>
      </trkpt>
      <trkpt lat="46.29128" lon="4.83722">
        <ele>181.145151</ele>
        <time>2021-09-13T06:32:31.000Z</time>
      </trkpt>
      <trkpt lat="46.2909" lon="4.837">
        <ele>180.694156</ele>
        <time>2021-09-13T06:32:36.000Z</time>
      </trkpt>
      <trkpt lat="46.29059" lon="4.83667">
        <ele>180.229796</ele>
        <time>2021-09-13T06:32:41.000Z</time>
      </trkpt>
      <trkpt lat="46.2903" lon="4.83619">
        <ele>179.698538</ele>
        <time>2021-09-13T06:32:47.000Z</time>
      </trkpt>
      <trkpt lat="46.29011" lon="4.83567">
        <ele>179.206966</ele>
        <time>2021-09-13T06:32:53.000Z</time>
      </trkpt>
      <trkpt lat="46.28988" lon="4.83491">
        <ele>178.573524</ele>
        <time>2021-09-13T06:33:02.000Z</time>
      </trkpt>
      <trkpt lat="46.28965" lon="4.83417">
        <ele>178.013847</ele>
        <time>2021-09-13T06:33:11.000Z</time>
      </trkpt>
      <trkpt lat="46.28957" lon="4.83393">
        <ele>177.828262</ele>
        <time>2021-09-13T06:33:14.000Z</time>
      </trkpt>
      <trkpt lat="46.28936" lon="4.83327">
        <ele>177.329038</ele>
        <time>2021-09-13T06:33:22.000Z</time>
      </trkpt>
      <trkpt lat="46.28913" lon="4.83285">
        <ele>176.993924</ele>
        <time>2021-09-13T06:33:28.000Z</time>
      </trkpt>
      <trkpt lat="46.28881" lon="4.83242">
        <ele>176.699533</ele>
        <time>2021-09-13T06:33:35.000Z</time>
      </trkpt>
      <trkpt lat="46.28846" lon="4.8321">
        <ele>176.414857</ele>
        <time>2021-09-13T06:33:42.000Z</time>
      </trkpt>
      <trkpt lat="46.28805" lon="4.8319">
        <ele>176.124426</ele>
        <time>2021-09-13T06:33:49.000Z</time>
      </trkpt>
      <trkpt lat="46.28753" lon="4.8317">
        <ele>175.786204</ele>
        <time>2021-09-13T06:33:58.000Z</time>
      </trkpt>
      <trkpt lat="46.28708" lon="4.83152">
        <ele>175.576545</ele>
        <time>2021-09-13T06:34:06.000Z</time>
      </trkpt>
      <trkpt lat="46.2867" lon="4.83134">
        <ele>175.395394</ele>
        <time>2021-09-13T06:34:13.000Z</time>
      </trkpt>
      <trkpt lat="46.28659" lon="4.83126">
        <ele>175.343061</ele>
        <time>2021-09-13T06:34:15.000Z</time>
      </trkpt>
      <trkpt lat="46.28644" lon="4.83111">
        <ele>175.261761</ele>
        <time>2021-09-13T06:34:18.000Z</time>
      </trkpt>
      <trkpt lat="46.28625" lon="4.83091">
        <ele>175.155592</ele>
        <time>2021-09-13T06:34:22.000Z</time>
      </trkpt>
      <trkpt lat="46.28615" lon="4.83081">
        <ele>175.101695</ele>
        <time>2021-09-13T06:34:24.000Z</time>
      </trkpt>
      <trkpt lat="46.28587" lon="4.83065">
        <ele>174.981661</ele>
        <time>2021-09-13T06:34:29.000Z</time>
      </trkpt>
      <trkpt lat="46.28581" lon="4.83063">
        <ele>174.96092</ele>
        <time>2021-09-13T06:34:30.000Z</time>
      </trkpt>
      <trkpt lat="46.28557" lon="4.8306">
        <ele>174.877847</ele>
        <time>2021-09-13T06:34:34.000Z</time>
      </trkpt>
      <trkpt lat="46.28513" lon="4.83063">
        <ele>174.728035</ele>
        <time>2021-09-13T06:34:41.000Z</time>
      </trkpt>
      <trkpt lat="46.28495" lon="4.83064">
        <ele>174.662801</ele>
        <time>2021-09-13T06:34:44.000Z</time>
      </trkpt>
      <trkpt lat="46.2847" lon="4.83062">
        <ele>174.577191</ele>
        <time>2021-09-13T06:34:48.000Z</time>
      </trkpt>
      <trkpt lat="46.28422" lon="4.83048">
        <ele>174.416674</ele>
        <time>2021-09-13T06:34:56.000Z</time>
      </trkpt>
      <trkpt lat="46.2837" lon="4.83032">
        <ele>174.367391</ele>
        <time>2021-09-13T06:35:05.000Z</time>
      </trkpt>
      <trkpt lat="46.28324" lon="4.83017">
        <ele>174.323603</ele>
        <time>2021-09-13T06:35:13.000Z</time>
      </trkpt>
      <trkpt lat="46.28267" lon="4.82999">
        <ele>174.270157</ele>
        <time>2021-09-13T06:35:23.000Z</time>
      </trkpt>
      <trkpt lat="46.28212" lon="4.82984">
        <ele>174.228185</ele>
        <time>2021-09-13T06:35:33.000Z</time>
      </trkpt>
      <trkpt lat="46.28167" lon="4.82974">
        <ele>174.199109</ele>
        <time>2021-09-13T06:35:41.000Z</time>
      </trkpt>
      <trkpt lat="46.28122" lon="4.82964">
        <ele>174.169313</ele>
        <time>2021-09-13T06:35:49.000Z</time>
      </trkpt>
      <trkpt lat="46.28078" lon="4.82954">
        <ele>174.140044</ele>
        <time>2021-09-13T06:35:57.000Z</time>
      </trkpt>
      <trkpt lat="46.28031" lon="4.82944">
        <ele>174.098299</ele>
        <time>2021-09-13T06:36:05.000Z</time>
      </trkpt>
      <trkpt lat="46.27989" lon="4.82935">
        <ele>174.058722</ele>
        <time>2021-09-13T06:36:12.000Z</time>
      </trkpt>
      <trkpt lat="46.2794" lon="4.82925">
        <ele>174.012298</ele>
        <time>2021-09-13T06:36:20.000Z</time>
      </trkpt>
      <trkpt lat="46.2789" lon="4.82915">
        <ele>173.964863</ele>
        <time>2021-09-13T06:36:28.000Z</time>
      </trkpt>
      <trkpt lat="46.27853" lon="4.82908">
        <ele>173.922076</ele>
        <time>2021-09-13T06:36:34.000Z</time>
      </trkpt>
      <trkpt lat="46.27812" lon="4.82899">
        <ele>173.873187</ele>
        <time>2021-09-13T06:36:41.000Z</time>
      </trkpt>
      <trkpt lat="46.27764" lon="4.82889">
        <ele>173.81759</ele>
        <time>2021-09-13T06:36:49.000Z</time>
      </trkpt>
      <trkpt lat="46.27754" lon="4.82896">
        <ele>173.804683</ele>
        <time>2021-09-13T06:36:51.000Z</time>
      </trkpt>
      <trkpt lat="46.2775" lon="4.829">
        <ele>173.798701</ele>
        <time>2021-09-13T06:36:52.000Z</time>
      </trkpt>
      <trkpt lat="46.27743" lon="4.82909">
        <ele>173.787541</ele>
        <time>2021-09-13T06:36:54.000Z</time>
      </trkpt>
      <trkpt lat="46.27732" lon="4.8291">
        <ele>173.775313</ele>
        <time>2021-09-13T06:36:56.000Z</time>
      </trkpt>
      <trkpt lat="46.27726" lon="4.82899">
        <ele>173.763924</ele>
        <time>2021-09-13T06:36:58.000Z</time>
      </trkpt>
      <trkpt lat="46.27722" lon="4.82893">
        <ele>173.75675</ele>
        <time>2021-09-13T06:36:59.000Z</time>
      </trkpt>
      <trkpt lat="46.27693" lon="4.82882">
        <ele>173.709882</ele>
        <time>2021-09-13T06:37:04.000Z</time>
      </trkpt>
      <trkpt lat="46.27681" lon="4.8288">
        <ele>173.691454</ele>
        <time>2021-09-13T06:37:06.000Z</time>
      </trkpt>
      <trkpt lat="46.27668" lon="4.82875">
        <ele>173.672342</ele>
        <time>2021-09-13T06:37:08.000Z</time>
      </trkpt>
      <trkpt lat="46.2764" lon="4.82864">
        <ele>173.627605</ele>
        <time>2021-09-13T06:37:13.000Z</time>
      </trkpt>
      <trkpt lat="46.27635" lon="4.82861">
        <ele>173.61937</ele>
        <time>2021-09-13T06:37:14.000Z</time>
      </trkpt>
      <trkpt lat="46.2763" lon="4.82859">
        <ele>173.611105</ele>
        <time>2021-09-13T06:37:15.000Z</time>
      </trkpt>
      <trkpt lat="46.27613" lon="4.82851">
        <ele>173.583833</ele>
        <time>2021-09-13T06:37:18.000Z</time>
      </trkpt>
      <trkpt lat="46.27568" lon="4.82827">
        <ele>173.511114</ele>
        <time>2021-09-13T06:37:26.000Z</time>
      </trkpt>
      <trkpt lat="46.27556" lon="4.8282">
        <ele>173.492101</ele>
        <time>2021-09-13T06:37:28.000Z</time>
      </trkpt>
      <trkpt lat="46.27539" lon="4.82809">
        <ele>173.496115</ele>
        <time>2021-09-13T06:37:31.000Z</time>
      </trkpt>
      <trkpt lat="46.27534" lon="4.82805">
        <ele>173.500198</ele>
        <time>2021-09-13T06:37:32.000Z</time>
      </trkpt>
      <trkpt lat="46.27523" lon="4.82795">
        <ele>173.508077</ele>
        <time>2021-09-13T06:37:34.000Z</time>
      </trkpt>
      <trkpt lat="46.27519" lon="4.8279">
        <ele>173.511751</ele>
        <time>2021-09-13T06:37:35.000Z</time>
      </trkpt>
      <trkpt lat="46.27513" lon="4.82785">
        <ele>173.515929</ele>
        <time>2021-09-13T06:37:36.000Z</time>
      </trkpt>
      <trkpt lat="46.2749" lon="4.82771">
        <ele>173.531866</ele>
        <time>2021-09-13T06:37:40.000Z</time>
      </trkpt>
      <trkpt lat="46.27484" lon="4.82766">
        <ele>173.535672</ele>
        <time>2021-09-13T06:37:41.000Z</time>
      </trkpt>
      <trkpt lat="46.27464" lon="4.82745">
        <ele>173.551634</ele>
        <time>2021-09-13T06:37:45.000Z</time>
      </trkpt>
      <trkpt lat="46.27433" lon="4.82716">
        <ele>173.574887</ele>
        <time>2021-09-13T06:37:51.000Z</time>
      </trkpt>
      <trkpt lat="46.27427" lon="4.82713">
        <ele>173.578677</ele>
        <time>2021-09-13T06:37:52.000Z</time>
      </trkpt>
      <trkpt lat="46.27393" lon="4.82693">
        <ele>173.600449</ele>
        <time>2021-09-13T06:37:58.000Z</time>
      </trkpt>
      <trkpt lat="46.27382" lon="4.82687">
        <ele>173.602207</ele>
        <time>2021-09-13T06:38:00.000Z</time>
      </trkpt>
      <trkpt lat="46.27371" lon="4.82682">
        <ele>173.603874</ele>
        <time>2021-09-13T06:38:02.000Z</time>
      </trkpt>
      <trkpt lat="46.27365" lon="4.8268">
        <ele>173.604675</ele>
        <time>2021-09-13T06:38:03.000Z</time>
      </trkpt>
      <trkpt lat="46.27341" lon="4.82675">
        <ele>173.60823</ele>
        <time>2021-09-13T06:38:07.000Z</time>
      </trkpt>
      <trkpt lat="46.27336" lon="4.82673">
        <ele>173.609091</ele>
        <time>2021-09-13T06:38:08.000Z</time>
      </trkpt>
      <trkpt lat="46.27313" lon="4.82665">
        <ele>173.612465</ele>
        <time>2021-09-13T06:38:12.000Z</time>
      </trkpt>
      <trkpt lat="46.27303" lon="4.82657">
        <ele>173.614105</ele>
        <time>2021-09-13T06:38:14.000Z</time>
      </trkpt>
      <trkpt lat="46.27288" lon="4.82646">
        <ele>173.616623</ele>
        <time>2021-09-13T06:38:17.000Z</time>
      </trkpt>
      <trkpt lat="46.27246" lon="4.82615">
        <ele>173.623488</ele>
        <time>2021-09-13T06:38:25.000Z</time>
      </trkpt>
      <trkpt lat="46.27236" lon="4.82607">
        <ele>173.625199</ele>
        <time>2021-09-13T06:38:27.000Z</time>
      </trkpt>
      <trkpt lat="46.27225" lon="4.82599">
        <ele>173.629012</ele>
        <time>2021-09-13T06:38:29.000Z</time>
      </trkpt>
      <trkpt lat="46.2722" lon="4.82595">
        <ele>173.632664</ele>
        <time>2021-09-13T06:38:30.000Z</time>
      </trkpt>
      <trkpt lat="46.27204" lon="4.82583">
        <ele>173.643819</ele>
        <time>2021-09-13T06:38:33.000Z</time>
      </trkpt>
      <trkpt lat="46.27194" lon="4.82573">
        <ele>173.650972</ele>
        <time>2021-09-13T06:38:35.000Z</time>
      </trkpt>
      <trkpt lat="46.27165" lon="4.82543">
        <ele>173.672676</ele>
        <time>2021-09-13T06:38:41.000Z</time>
      </trkpt>
      <trkpt lat="46.2716" lon="4.82539">
        <ele>173.67624</ele>
        <time>2021-09-13T06:38:42.000Z</time>
      </trkpt>
      <trkpt lat="46.27147" lon="4.82525">
        <ele>173.686536</ele>
        <time>2021-09-13T06:38:45.000Z</time>
      </trkpt>
      <trkpt lat="46.27122" lon="4.825">
        <ele>173.705073</ele>
        <time>2021-09-13T06:38:50.000Z</time>
      </trkpt>
      <trkpt lat="46.27117" lon="4.82494">
        <ele>173.708884</ele>
        <time>2021-09-13T06:38:51.000Z</time>
      </trkpt>
      <trkpt lat="46.27096" lon="4.82476">
        <ele>173.723694</ele>
        <time>2021-09-13T06:38:55.000Z</time>
      </trkpt>
      <trkpt lat="46.2709" lon="4.82472">
        <ele>173.727381</ele>
        <time>2021-09-13T06:38:56.000Z</time>
      </trkpt>
      <trkpt lat="46.27069" lon="4.82458">
        <ele>173.739</ele>
        <time>2021-09-13T06:39:00.000Z</time>
      </trkpt>
      <trkpt lat="46.27036" lon="4.82435">
        <ele>173.750179</ele>
        <time>2021-09-13T06:39:06.000Z</time>
      </trkpt>
      <trkpt lat="46.26993" lon="4.82402">
        <ele>173.765097</ele>
        <time>2021-09-13T06:39:14.000Z</time>
      </trkpt>
      <trkpt lat="46.26956" lon="4.82372">
        <ele>173.778061</ele>
        <time>2021-09-13T06:39:21.000Z</time>
      </trkpt>
      <trkpt lat="46.26925" lon="4.82345">
        <ele>173.789059</ele>
        <time>2021-09-13T06:39:27.000Z</time>
      </trkpt>
      <trkpt lat="46.26915" lon="4.82336">
        <ele>173.789246</ele>
        <time>2021-09-13T06:39:29.000Z</time>
      </trkpt>
      <trkpt lat="46.269" lon="4.82322">
        <ele>173.782411</ele>
        <time>2021-09-13T06:39:32.000Z</time>
      </trkpt>
      <trkpt lat="46.26865" lon="4.82288">
        <ele>173.7664</ele>
        <time>2021-09-13T06:39:39.000Z</time>
      </trkpt>
      <trkpt lat="46.26832" lon="4.82256">
        <ele>173.751087</ele>
        <time>2021-09-13T06:39:46.000Z</time>
      </trkpt>
      <trkpt lat="46.26818" lon="4.82243">
        <ele>173.744634</ele>
        <time>2021-09-13T06:39:49.000Z</time>
      </trkpt>
      <trkpt lat="46.26809" lon="4.82233">
        <ele>173.740215</ele>
        <time>2021-09-13T06:39:51.000Z</time>
      </trkpt>
      <trkpt lat="46.26791" lon="4.82212">
        <ele>173.731535</ele>
        <time>2021-09-13T06:39:55.000Z</time>
      </trkpt>
      <trkpt lat="46.26756" lon="4.8217">
        <ele>173.737137</ele>
        <time>2021-09-13T06:40:03.000Z</time>
      </trkpt>
      <trkpt lat="46.26715" lon="4.82122">
        <ele>173.773625</ele>
        <time>2021-09-13T06:40:12.000Z</time>
      </trkpt>
      <trkpt lat="46.26686" lon="4.82089">
        <ele>173.798703</ele>
        <time>2021-09-13T06:40:18.000Z</time>
      </trkpt>
      <trkpt lat="46.26657" lon="4.82058">
        <ele>173.823244</ele>
        <time>2021-09-13T06:40:24.000Z</time>
      </trkpt>
      <trkpt lat="46.26633" lon="4.82031">
        <ele>173.844567</ele>
        <time>2021-09-13T06:40:30.000Z</time>
      </trkpt>
      <trkpt lat="46.26607" lon="4.81996">
        <ele>173.815584</ele>
        <time>2021-09-13T06:40:36.000Z</time>
      </trkpt>
      <trkpt lat="46.26573" lon="4.81949">
        <ele>173.772052</ele>
        <time>2021-09-13T06:40:44.000Z</time>
      </trkpt>
      <trkpt lat="46.26541" lon="4.81905">
        <ele>173.73186</ele>
        <time>2021-09-13T06:40:51.000Z</time>
      </trkpt>
      <trkpt lat="46.26536" lon="4.81899">
        <ele>173.726212</ele>
        <time>2021-09-13T06:40:52.000Z</time>
      </trkpt>
      <trkpt lat="46.26509" lon="4.81864">
        <ele>173.692883</ele>
        <time>2021-09-13T06:40:58.000Z</time>
      </trkpt>
      <trkpt lat="46.26483" lon="4.81831">
        <ele>173.642864</ele>
        <time>2021-09-13T06:41:04.000Z</time>
      </trkpt>
      <trkpt lat="46.26475" lon="4.81821">
        <ele>173.624773</ele>
        <time>2021-09-13T06:41:06.000Z</time>
      </trkpt>
      <trkpt lat="46.26466" lon="4.8182">
        <ele>173.608286</ele>
        <time>2021-09-13T06:41:08.000Z</time>
      </trkpt>
      <trkpt lat="46.2646" lon="4.81829">
        <ele>173.59418</ele>
        <time>2021-09-13T06:41:10.000Z</time>
      </trkpt>
      <trkpt lat="46.26457" lon="4.81834">
        <ele>173.585938</ele>
        <time>2021-09-13T06:41:11.000Z</time>
      </trkpt>
      <trkpt lat="46.26437" lon="4.81865">
        <ele>173.535876</ele>
        <time>2021-09-13T06:41:17.000Z</time>
      </trkpt>
      <trkpt lat="46.26401" lon="4.81923">
        <ele>173.441821</ele>
        <time>2021-09-13T06:41:26.000Z</time>
      </trkpt>
      <trkpt lat="46.26389" lon="4.81941">
        <ele>173.411818</ele>
        <time>2021-09-13T06:41:29.000Z</time>
      </trkpt>
      <trkpt lat="46.26386" lon="4.81946">
        <ele>173.403577</ele>
        <time>2021-09-13T06:41:30.000Z</time>
      </trkpt>
      <trkpt lat="46.26376" lon="4.81949">
        <ele>173.386747</ele>
        <time>2021-09-13T06:41:31.000Z</time>
      </trkpt>
      <trkpt lat="46.26367" lon="4.81942">
        <ele>173.371557</ele>
        <time>2021-09-13T06:41:33.000Z</time>
      </trkpt>
      <trkpt lat="46.26345" lon="4.81926">
        <ele>173.409542</ele>
        <time>2021-09-13T06:41:37.000Z</time>
      </trkpt>
      <trkpt lat="46.26339" lon="4.81923">
        <ele>173.418899</ele>
        <time>2021-09-13T06:41:38.000Z</time>
      </trkpt>
      <trkpt lat="46.26321" lon="4.81918">
        <ele>173.447198</ele>
        <time>2021-09-13T06:41:41.000Z</time>
      </trkpt>
      <trkpt lat="46.26308" lon="4.81917">
        <ele>173.466368</ele>
        <time>2021-09-13T06:41:43.000Z</time>
      </trkpt>
      <trkpt lat="46.26284" lon="4.81915">
        <ele>173.502698</ele>
        <time>2021-09-13T06:41:47.000Z</time>
      </trkpt>
      <trkpt lat="46.26279" lon="4.81913">
        <ele>173.511233</ele>
        <time>2021-09-13T06:41:48.000Z</time>
      </trkpt>
      <trkpt lat="46.26274" lon="4.81909">
        <ele>173.520326</ele>
        <time>2021-09-13T06:41:49.000Z</time>
      </trkpt>
      <trkpt lat="46.26265" lon="4.81899">
        <ele>173.536905</ele>
        <time>2021-09-13T06:41:51.000Z</time>
      </trkpt>
      <trkpt lat="46.26262" lon="4.81893">
        <ele>173.545266</ele>
        <time>2021-09-13T06:41:52.000Z</time>
      </trkpt>
      <trkpt lat="46.26256" lon="4.81879">
        <ele>173.56242</ele>
        <time>2021-09-13T06:41:54.000Z</time>
      </trkpt>
      <trkpt lat="46.26253" lon="4.81872">
        <ele>173.571477</ele>
        <time>2021-09-13T06:41:55.000Z</time>
      </trkpt>
      <trkpt lat="46.2625" lon="4.81864">
        <ele>173.580536</ele>
        <time>2021-09-13T06:41:56.000Z</time>
      </trkpt>
      <trkpt lat="46.26242" lon="4.81822">
        <ele>173.627706</ele>
        <time>2021-09-13T06:42:01.000Z</time>
      </trkpt>
      <trkpt lat="46.2624" lon="4.81813">
        <ele>173.637059</ele>
        <time>2021-09-13T06:42:02.000Z</time>
      </trkpt>
      <trkpt lat="46.26238" lon="4.81796">
        <ele>173.649002</ele>
        <time>2021-09-13T06:42:04.000Z</time>
      </trkpt>
      <trkpt lat="46.26236" lon="4.81788">
        <ele>173.652495</ele>
        <time>2021-09-13T06:42:05.000Z</time>
      </trkpt>
      <trkpt lat="46.26234" lon="4.81771">
        <ele>173.659302</ele>
        <time>2021-09-13T06:42:07.000Z</time>
      </trkpt>
      <trkpt lat="46.26225" lon="4.81748">
        <ele>173.669297</ele>
        <time>2021-09-13T06:42:10.000Z</time>
      </trkpt>
      <trkpt lat="46.26222" lon="4.81741">
        <ele>173.672617</ele>
        <time>2021-09-13T06:42:11.000Z</time>
      </trkpt>
      <trkpt lat="46.2621" lon="4.81724">
        <ele>173.682402</ele>
        <time>2021-09-13T06:42:14.000Z</time>
      </trkpt>
      <trkpt lat="46.26206" lon="4.81719">
        <ele>173.685573</ele>
        <time>2021-09-13T06:42:15.000Z</time>
      </trkpt>
      <trkpt lat="46.26189" lon="4.81698">
        <ele>173.69809</ele>
        <time>2021-09-13T06:42:19.000Z</time>
      </trkpt>
      <trkpt lat="46.26185" lon="4.81695">
        <ele>173.700923</ele>
        <time>2021-09-13T06:42:20.000Z</time>
      </trkpt>
      <trkpt lat="46.26175" lon="4.81696">
        <ele>173.706767</ele>
        <time>2021-09-13T06:42:22.000Z</time>
      </trkpt>
      <trkpt lat="46.26164" lon="4.81704">
        <ele>173.713311</ele>
        <time>2021-09-13T06:42:24.000Z</time>
      </trkpt>
      <trkpt lat="46.26156" lon="4.81717">
        <ele>173.720184</ele>
        <time>2021-09-13T06:42:26.000Z</time>
      </trkpt>
      <trkpt lat="46.26142" lon="4.81761">
        <ele>173.739298</ele>
        <time>2021-09-13T06:42:31.000Z</time>
      </trkpt>
      <trkpt lat="46.2614" lon="4.81769">
        <ele>173.742997</ele>
        <time>2021-09-13T06:42:32.000Z</time>
      </trkpt>
      <trkpt lat="46.26134" lon="4.81785">
        <ele>173.726392</ele>
        <time>2021-09-13T06:42:34.000Z</time>
      </trkpt>
      <trkpt lat="46.26131" lon="4.81793">
        <ele>173.690446</ele>
        <time>2021-09-13T06:42:35.000Z</time>
      </trkpt>
      <trkpt lat="46.26126" lon="4.81798">
        <ele>173.654393</ele>
        <time>2021-09-13T06:42:36.000Z</time>
      </trkpt>
      <trkpt lat="46.26115" lon="4.81807">
        <ele>173.582564</ele>
        <time>2021-09-13T06:42:38.000Z</time>
      </trkpt>
      <trkpt lat="46.26091" lon="4.81818">
        <ele>173.434994</ele>
        <time>2021-09-13T06:42:42.000Z</time>
      </trkpt>
      <trkpt lat="46.2606" lon="4.81832">
        <ele>173.246011</ele>
        <time>2021-09-13T06:42:47.000Z</time>
      </trkpt>
      <trkpt lat="46.26054" lon="4.81835">
        <ele>173.207323</ele>
        <time>2021-09-13T06:42:48.000Z</time>
      </trkpt>
      <trkpt lat="46.26044" lon="4.81843">
        <ele>173.139843</ele>
        <time>2021-09-13T06:42:50.000Z</time>
      </trkpt>
      <trkpt lat="46.26041" lon="4.8185">
        <ele>173.107505</ele>
        <time>2021-09-13T06:42:51.000Z</time>
      </trkpt>
      <trkpt lat="46.26038" lon="4.81858">
        <ele>173.071852</ele>
        <time>2021-09-13T06:42:52.000Z</time>
      </trkpt>
      <trkpt lat="46.2603" lon="4.81883">
        <ele>172.959032</ele>
        <time>2021-09-13T06:42:55.000Z</time>
      </trkpt>
      <trkpt lat="46.26025" lon="4.81899">
        <ele>172.884923</ele>
        <time>2021-09-13T06:42:57.000Z</time>
      </trkpt>
      <trkpt lat="46.26011" lon="4.81939">
        <ele>172.705095</ele>
        <time>2021-09-13T06:43:02.000Z</time>
      </trkpt>
      <trkpt lat="46.25996" lon="4.81985">
        <ele>172.641856</ele>
        <time>2021-09-13T06:43:08.000Z</time>
      </trkpt>
      <trkpt lat="46.25993" lon="4.81992">
        <ele>172.632818</ele>
        <time>2021-09-13T06:43:09.000Z</time>
      </trkpt>
      <trkpt lat="46.25991" lon="4.82">
        <ele>172.62338</ele>
        <time>2021-09-13T06:43:10.000Z</time>
      </trkpt>
      <trkpt lat="46.25983" lon="4.82024">
        <ele>172.59355</ele>
        <time>2021-09-13T06:43:13.000Z</time>
      </trkpt>
      <trkpt lat="46.25968" lon="4.82069">
        <ele>172.538053</ele>
        <time>2021-09-13T06:43:19.000Z</time>
      </trkpt>
      <trkpt lat="46.25953" lon="4.82117">
        <ele>172.480075</ele>
        <time>2021-09-13T06:43:25.000Z</time>
      </trkpt>
      <trkpt lat="46.25949" lon="4.82132">
        <ele>172.462468</ele>
        <time>2021-09-13T06:43:27.000Z</time>
      </trkpt>
      <trkpt lat="46.25944" lon="4.82146">
        <ele>172.44453</ele>
        <time>2021-09-13T06:43:29.000Z</time>
      </trkpt>
      <trkpt lat="46.25933" lon="4.82184">
        <ele>172.362099</ele>
        <time>2021-09-13T06:43:34.000Z</time>
      </trkpt>
      <trkpt lat="46.25926" lon="4.82206">
        <ele>172.198038</ele>
        <time>2021-09-13T06:43:37.000Z</time>
      </trkpt>
      <trkpt lat="46.2592" lon="4.82216">
        <ele>172.107985</ele>
        <time>2021-09-13T06:43:39.000Z</time>
      </trkpt>
      <trkpt lat="46.25912" lon="4.8222">
        <ele>172.024369</ele>
        <time>2021-09-13T06:43:41.000Z</time>
      </trkpt>
      <trkpt lat="46.25907" lon="4.82219">
        <ele>171.975938</ele>
        <time>2021-09-13T06:43:42.000Z</time>
      </trkpt>
      <trkpt lat="46.25901" lon="4.82219">
        <ele>171.9247</ele>
        <time>2021-09-13T06:43:43.000Z</time>
      </trkpt>
      <trkpt lat="46.25884" lon="4.82216">
        <ele>171.759233</ele>
        <time>2021-09-13T06:43:46.000Z</time>
      </trkpt>
      <trkpt lat="46.25873" lon="4.82214">
        <ele>171.646983</ele>
        <time>2021-09-13T06:43:48.000Z</time>
      </trkpt>
      <trkpt lat="46.25856" lon="4.82211">
        <ele>171.482714</ele>
        <time>2021-09-13T06:43:51.000Z</time>
      </trkpt>
      <trkpt lat="46.25838" lon="4.82207">
        <ele>171.313492</ele>
        <time>2021-09-13T06:43:54.000Z</time>
      </trkpt>
      <trkpt lat="46.25821" lon="4.82204">
        <ele>171.142269</ele>
        <time>2021-09-13T06:43:57.000Z</time>
      </trkpt>
      <trkpt lat="46.25815" lon="4.82203">
        <ele>171.086907</ele>
        <time>2021-09-13T06:43:58.000Z</time>
      </trkpt>
      <trkpt lat="46.25793" lon="4.82198">
        <ele>170.871949</ele>
        <time>2021-09-13T06:44:02.000Z</time>
      </trkpt>
      <trkpt lat="46.25764" lon="4.82192">
        <ele>170.537793</ele>
        <time>2021-09-13T06:44:07.000Z</time>
      </trkpt>
      <trkpt lat="46.25753" lon="4.8219">
        <ele>170.354023</ele>
        <time>2021-09-13T06:44:09.000Z</time>
      </trkpt>
      <trkpt lat="46.25748" lon="4.82189">
        <ele>170.267042</ele>
        <time>2021-09-13T06:44:10.000Z</time>
      </trkpt>
      <trkpt lat="46.25727" lon="4.82184">
        <ele>169.920727</ele>
        <time>2021-09-13T06:44:14.000Z</time>
      </trkpt>
      <trkpt lat="46.25721" lon="4.82183">
        <ele>169.830529</ele>
        <time>2021-09-13T06:44:15.000Z</time>
      </trkpt>
      <trkpt lat="46.2571" lon="4.8218">
        <ele>169.642798</ele>
        <time>2021-09-13T06:44:17.000Z</time>
      </trkpt>
      <trkpt lat="46.25705" lon="4.82177">
        <ele>169.551349</ele>
        <time>2021-09-13T06:44:18.000Z</time>
      </trkpt>
      <trkpt lat="46.25683" lon="4.82168">
        <ele>169.180246</ele>
        <time>2021-09-13T06:44:22.000Z</time>
      </trkpt>
      <trkpt lat="46.25672" lon="4.82163">
        <ele>168.993915</ele>
        <time>2021-09-13T06:44:24.000Z</time>
      </trkpt>
      <trkpt lat="46.25639" lon="4.82149">
        <ele>168.440233</ele>
        <time>2021-09-13T06:44:30.000Z</time>
      </trkpt>
      <trkpt lat="46.25628" lon="4.82145">
        <ele>168.255777</ele>
        <time>2021-09-13T06:44:32.000Z</time>
      </trkpt>
      <trkpt lat="46.25618" lon="4.8214">
        <ele>168.08442</ele>
        <time>2021-09-13T06:44:34.000Z</time>
      </trkpt>
      <trkpt lat="46.25613" lon="4.82138">
        <ele>167.999839</ele>
        <time>2021-09-13T06:44:35.000Z</time>
      </trkpt>
      <trkpt lat="46.25581" lon="4.82125">
        <ele>167.684957</ele>
        <time>2021-09-13T06:44:41.000Z</time>
      </trkpt>
      <trkpt lat="46.25575" lon="4.82122">
        <ele>167.662673</ele>
        <time>2021-09-13T06:44:42.000Z</time>
      </trkpt>
      <trkpt lat="46.2557" lon="4.8212">
        <ele>167.640462</ele>
        <time>2021-09-13T06:44:43.000Z</time>
      </trkpt>
      <trkpt lat="46.25549" lon="4.82111">
        <ele>167.558592</ele>
        <time>2021-09-13T06:44:47.000Z</time>
      </trkpt>
      <trkpt lat="46.25544" lon="4.82109">
        <ele>167.539039</ele>
        <time>2021-09-13T06:44:48.000Z</time>
      </trkpt>
      <trkpt lat="46.25533" lon="4.82109">
        <ele>167.497845</ele>
        <time>2021-09-13T06:44:50.000Z</time>
      </trkpt>
      <trkpt lat="46.25523" lon="4.82118">
        <ele>167.456746</ele>
        <time>2021-09-13T06:44:52.000Z</time>
      </trkpt>
      <trkpt lat="46.25519" lon="4.82131">
        <ele>167.419574</ele>
        <time>2021-09-13T06:44:54.000Z</time>
      </trkpt>
      <trkpt lat="46.25515" lon="4.82143">
        <ele>167.383238</ele>
        <time>2021-09-13T06:44:56.000Z</time>
      </trkpt>
      <trkpt lat="46.25501" lon="4.82187">
        <ele>167.259429</ele>
        <time>2021-09-13T06:45:02.000Z</time>
      </trkpt>
      <trkpt lat="46.25496" lon="4.82201">
        <ele>167.220508</ele>
        <time>2021-09-13T06:45:04.000Z</time>
      </trkpt>
      <trkpt lat="46.2549" lon="4.82211">
        <ele>167.183415</ele>
        <time>2021-09-13T06:45:06.000Z</time>
      </trkpt>
      <trkpt lat="46.25473" lon="4.82224">
        <ele>167.112079</ele>
        <time>2021-09-13T06:45:10.000Z</time>
      </trkpt>
      <trkpt lat="46.25459" lon="4.82232">
        <ele>167.20136</ele>
        <time>2021-09-13T06:45:13.000Z</time>
      </trkpt>
      <trkpt lat="46.25444" lon="4.82242">
        <ele>167.493151</ele>
        <time>2021-09-13T06:45:16.000Z</time>
      </trkpt>
      <trkpt lat="46.25429" lon="4.82251">
        <ele>167.789226</ele>
        <time>2021-09-13T06:45:19.000Z</time>
      </trkpt>
      <trkpt lat="46.25418" lon="4.82255">
        <ele>167.987916</ele>
        <time>2021-09-13T06:45:21.000Z</time>
      </trkpt>
      <trkpt lat="46.25386" lon="4.82259">
        <ele>168.562255</ele>
        <time>2021-09-13T06:45:27.000Z</time>
      </trkpt>
      <trkpt lat="46.25347" lon="4.82259">
        <ele>169.265887</ele>
        <time>2021-09-13T06:45:34.000Z</time>
      </trkpt>
      <trkpt lat="46.25325" lon="4.82264">
        <ele>169.673511</ele>
        <time>2021-09-13T06:45:39.000Z</time>
      </trkpt>
      <trkpt lat="46.25325" lon="4.82267">
        <ele>169.709906</ele>
        <time>2021-09-13T06:45:42.000Z</time>
      </trkpt>
      <trkpt lat="46.25325" lon="4.82269">
        <ele>169.728866</ele>
        <time>2021-09-13T06:45:45.000Z</time>
      </trkpt>
      <trkpt lat="46.25326" lon="4.82274">
        <ele>169.795524</ele>
        <time>2021-09-13T06:46:04.000Z</time>
      </trkpt>
      <trkpt lat="46.25327" lon="4.82277">
        <ele>169.835362</ele>
        <time>2021-09-13T06:46:05.000Z</time>
      </trkpt>
      <trkpt lat="46.25336" lon="4.82297">
        <ele>170.129458</ele>
        <time>2021-09-13T06:46:10.000Z</time>
      </trkpt>
      <trkpt lat="46.25336" lon="4.82308">
        <ele>170.273479</ele>
        <time>2021-09-13T06:46:12.000Z</time>
      </trkpt>
      <trkpt lat="46.25332" lon="4.82313">
        <ele>170.38012</ele>
        <time>2021-09-13T06:46:14.000Z</time>
      </trkpt>
      <trkpt lat="46.25314" lon="4.82322">
        <ele>170.779114</ele>
        <time>2021-09-13T06:46:20.000Z</time>
      </trkpt>
      <trkpt lat="46.25294" lon="4.82333">
        <ele>171.214973</ele>
        <time>2021-09-13T06:46:26.000Z</time>
      </trkpt>
      <trkpt lat="46.25277" lon="4.82345">
        <ele>171.620051</ele>
        <time>2021-09-13T06:46:32.000Z</time>
      </trkpt>
      <trkpt lat="46.25257" lon="4.82359">
        <ele>172.08779</ele>
        <time>2021-09-13T06:46:39.000Z</time>
      </trkpt>
      <trkpt lat="46.25236" lon="4.82374">
        <ele>172.576417</ele>
        <time>2021-09-13T06:46:46.000Z</time>
      </trkpt>
      <trkpt lat="46.25224" lon="4.82382">
        <ele>172.854909</ele>
        <time>2021-09-13T06:46:50.000Z</time>
      </trkpt>
      <trkpt lat="46.25207" lon="4.82394">
        <ele>173.264418</ele>
        <time>2021-09-13T06:46:56.000Z</time>
      </trkpt>
      <trkpt lat="46.25195" lon="4.82402">
        <ele>173.54291</ele>
        <time>2021-09-13T06:47:00.000Z</time>
      </trkpt>
      <trkpt lat="46.25176" lon="4.82416">
        <ele>173.996725</ele>
        <time>2021-09-13T06:47:06.000Z</time>
      </trkpt>
      <trkpt lat="46.25145" lon="4.82437">
        <ele>174.330136</ele>
        <time>2021-09-13T06:47:16.000Z</time>
      </trkpt>
      <trkpt lat="46.2513" lon="4.82448">
        <ele>174.470646</ele>
        <time>2021-09-13T06:47:21.000Z</time>
      </trkpt>
      <trkpt lat="46.25113" lon="4.82459">
        <ele>174.615286</ele>
        <time>2021-09-13T06:47:26.000Z</time>
      </trkpt>
      <trkpt lat="46.25087" lon="4.82476">
        <ele>174.850077</ele>
        <time>2021-09-13T06:47:33.000Z</time>
      </trkpt>
      <trkpt lat="46.25064" lon="4.82487">
        <ele>175.037495</ele>
        <time>2021-09-13T06:47:39.000Z</time>
      </trkpt>
      <trkpt lat="46.2504" lon="4.82492">
        <ele>175.233868</ele>
        <time>2021-09-13T06:47:46.000Z</time>
      </trkpt>
      <trkpt lat="46.25021" lon="4.82496">
        <ele>175.39203</ele>
        <time>2021-09-13T06:47:52.000Z</time>
      </trkpt>
      <trkpt lat="46.25001" lon="4.82501">
        <ele>175.54635</ele>
        <time>2021-09-13T06:47:58.000Z</time>
      </trkpt>
      <trkpt lat="46.24981" lon="4.82512">
        <ele>175.579997</ele>
        <time>2021-09-13T06:48:04.000Z</time>
      </trkpt>
      <trkpt lat="46.24966" lon="4.82521">
        <ele>175.605083</ele>
        <time>2021-09-13T06:48:10.000Z</time>
      </trkpt>
      <trkpt lat="46.24958" lon="4.82525">
        <ele>175.619612</ele>
        <time>2021-09-13T06:48:16.000Z</time>
      </trkpt>
      <trkpt lat="46.24948" lon="4.82529">
        <ele>175.635833</ele>
        <time>2021-09-13T06:48:21.000Z</time>
      </trkpt>
      <trkpt lat="46.24933" lon="4.82534">
        <ele>175.660073</ele>
        <time>2021-09-13T06:48:25.000Z</time>
      </trkpt>
      <trkpt lat="46.249" lon="4.82541">
        <ele>175.713265</ele>
        <time>2021-09-13T06:48:32.000Z</time>
      </trkpt>
      <trkpt lat="46.24861" lon="4.82549">
        <ele>175.776209</ele>
        <time>2021-09-13T06:48:40.000Z</time>
      </trkpt>
      <trkpt lat="46.24823" lon="4.82559">
        <ele>175.823149</ele>
        <time>2021-09-13T06:48:48.000Z</time>
      </trkpt>
      <trkpt lat="46.2481" lon="4.82564">
        <ele>175.799994</ele>
        <time>2021-09-13T06:48:51.000Z</time>
      </trkpt>
      <trkpt lat="46.24799" lon="4.8256">
        <ele>175.778773</ele>
        <time>2021-09-13T06:48:53.000Z</time>
      </trkpt>
      <trkpt lat="46.24798" lon="4.82554">
        <ele>175.770949</ele>
        <time>2021-09-13T06:48:54.000Z</time>
      </trkpt>
      <trkpt lat="46.24795" lon="4.8254">
        <ele>175.753266</ele>
        <time>2021-09-13T06:48:56.000Z</time>
      </trkpt>
      <trkpt lat="46.2479" lon="4.82508">
        <ele>175.713467</ele>
        <time>2021-09-13T06:49:01.000Z</time>
      </trkpt>
      <trkpt lat="46.24787" lon="4.82497">
        <ele>175.698716</ele>
        <time>2021-09-13T06:49:03.000Z</time>
      </trkpt>
      <trkpt lat="46.24773" lon="4.82454">
        <ele>175.639626</ele>
        <time>2021-09-13T06:49:10.000Z</time>
      </trkpt>
      <trkpt lat="46.24766" lon="4.82435">
        <ele>175.613875</ele>
        <time>2021-09-13T06:49:14.000Z</time>
      </trkpt>
      <trkpt lat="46.24767" lon="4.82419">
        <ele>175.593887</ele>
        <time>2021-09-13T06:49:17.000Z</time>
      </trkpt>
      <trkpt lat="46.24769" lon="4.82415">
        <ele>175.588224</ele>
        <time>2021-09-13T06:49:18.000Z</time>
      </trkpt>
      <trkpt lat="46.24774" lon="4.82406">
        <ele>175.573454</ele>
        <time>2021-09-13T06:49:20.000Z</time>
      </trkpt>
      <trkpt lat="46.24782" lon="4.82388">
        <ele>175.548218</ele>
        <time>2021-09-13T06:49:23.000Z</time>
      </trkpt>
      <trkpt lat="46.24786" lon="4.82368">
        <ele>175.52185</ele>
        <time>2021-09-13T06:49:26.000Z</time>
      </trkpt>
      <trkpt lat="46.24787" lon="4.82361">
        <ele>175.513061</ele>
        <time>2021-09-13T06:49:27.000Z</time>
      </trkpt>
      <trkpt lat="46.24795" lon="4.82323">
        <ele>175.553284</ele>
        <time>2021-09-13T06:49:32.000Z</time>
      </trkpt>
      <trkpt lat="46.24803" lon="4.82279">
        <ele>175.603799</ele>
        <time>2021-09-13T06:49:38.000Z</time>
      </trkpt>
      <trkpt lat="46.2482" lon="4.82232">
        <ele>175.662873</ele>
        <time>2021-09-13T06:49:44.000Z</time>
      </trkpt>
      <trkpt lat="46.2485" lon="4.8216">
        <ele>175.755705</ele>
        <time>2021-09-13T06:49:53.000Z</time>
      </trkpt>
      <trkpt lat="46.24874" lon="4.82097">
        <ele>175.761677</ele>
        <time>2021-09-13T06:50:01.000Z</time>
      </trkpt>
      <trkpt lat="46.24894" lon="4.82042">
        <ele>175.69076</ele>
        <time>2021-09-13T06:50:08.000Z</time>
      </trkpt>
      <trkpt lat="46.24897" lon="4.82034">
        <ele>175.680032</ele>
        <time>2021-09-13T06:50:09.000Z</time>
      </trkpt>
      <trkpt lat="46.24909" lon="4.81999">
        <ele>175.635228</ele>
        <time>2021-09-13T06:50:13.000Z</time>
      </trkpt>
      <trkpt lat="46.24937" lon="4.81922">
        <ele>175.535201</ele>
        <time>2021-09-13T06:50:22.000Z</time>
      </trkpt>
      <trkpt lat="46.24957" lon="4.81863">
        <ele>175.388457</ele>
        <time>2021-09-13T06:50:29.000Z</time>
      </trkpt>
      <trkpt lat="46.2498" lon="4.81798">
        <ele>175.154878</ele>
        <time>2021-09-13T06:50:37.000Z</time>
      </trkpt>
      <trkpt lat="46.25005" lon="4.81725">
        <ele>174.896437</ele>
        <time>2021-09-13T06:50:46.000Z</time>
      </trkpt>
      <trkpt lat="46.25007" lon="4.81717">
        <ele>174.86819</ele>
        <time>2021-09-13T06:50:47.000Z</time>
      </trkpt>
      <trkpt lat="46.25024" lon="4.81671">
        <ele>174.702375</ele>
        <time>2021-09-13T06:50:53.000Z</time>
      </trkpt>
      <trkpt lat="46.25045" lon="4.81609">
        <ele>174.08756</ele>
        <time>2021-09-13T06:51:01.000Z</time>
      </trkpt>
      <trkpt lat="46.25053" lon="4.81587">
        <ele>173.836536</ele>
        <time>2021-09-13T06:51:04.000Z</time>
      </trkpt>
      <trkpt lat="46.25057" lon="4.81569">
        <ele>173.657257</ele>
        <time>2021-09-13T06:51:06.000Z</time>
      </trkpt>
      <trkpt lat="46.25052" lon="4.81534">
        <ele>173.303584</ele>
        <time>2021-09-13T06:51:10.000Z</time>
      </trkpt>
      <trkpt lat="46.2505" lon="4.81526">
        <ele>173.218354</ele>
        <time>2021-09-13T06:51:11.000Z</time>
      </trkpt>
      <trkpt lat="46.25044" lon="4.81502">
        <ele>172.969618</ele>
        <time>2021-09-13T06:51:14.000Z</time>
      </trkpt>
      <trkpt lat="46.25039" lon="4.81486">
        <ele>172.794708</ele>
        <time>2021-09-13T06:51:16.000Z</time>
      </trkpt>
      <trkpt lat="46.25034" lon="4.8147">
        <ele>172.619631</ele>
        <time>2021-09-13T06:51:18.000Z</time>
      </trkpt>
      <trkpt lat="46.25021" lon="4.8143">
        <ele>172.181493</ele>
        <time>2021-09-13T06:51:23.000Z</time>
      </trkpt>
      <trkpt lat="46.25015" lon="4.81415">
        <ele>172.115045</ele>
        <time>2021-09-13T06:51:25.000Z</time>
      </trkpt>
      <trkpt lat="46.25012" lon="4.81408">
        <ele>172.120021</ele>
        <time>2021-09-13T06:51:26.000Z</time>
      </trkpt>
      <trkpt lat="46.25007" lon="4.81395">
        <ele>172.128502</ele>
        <time>2021-09-13T06:51:28.000Z</time>
      </trkpt>
      <trkpt lat="46.25006" lon="4.81391">
        <ele>172.131361</ele>
        <time>2021-09-13T06:51:29.000Z</time>
      </trkpt>
      <trkpt lat="46.25005" lon="4.81389">
        <ele>172.133037</ele>
        <time>2021-09-13T06:51:30.000Z</time>
      </trkpt>
      <trkpt lat="46.25001" lon="4.81379">
        <ele>172.13974</ele>
        <time>2021-09-13T06:51:32.000Z</time>
      </trkpt>
      <trkpt lat="46.24992" lon="4.81378">
        <ele>172.14746</ele>
        <time>2021-09-13T06:51:36.000Z</time>
      </trkpt>
      <trkpt lat="46.2497" lon="4.81376">
        <ele>172.166458</ele>
        <time>2021-09-13T06:51:41.000Z</time>
      </trkpt>
      <trkpt lat="46.24944" lon="4.81373">
        <ele>172.188751</ele>
        <time>2021-09-13T06:51:46.000Z</time>
      </trkpt>
      <trkpt lat="46.24933" lon="4.81372">
        <ele>172.198119</ele>
        <time>2021-09-13T06:51:48.000Z</time>
      </trkpt>
      <trkpt lat="46.24917" lon="4.8137">
        <ele>172.212433</ele>
        <time>2021-09-13T06:51:51.000Z</time>
      </trkpt>
      <trkpt lat="46.24889" lon="4.81367">
        <ele>172.236374</ele>
        <time>2021-09-13T06:51:56.000Z</time>
      </trkpt>
      <trkpt lat="46.24878" lon="4.81365">
        <ele>172.246177</ele>
        <time>2021-09-13T06:51:58.000Z</time>
      </trkpt>
      <trkpt lat="46.24867" lon="4.81364">
        <ele>172.256067</ele>
        <time>2021-09-13T06:52:00.000Z</time>
      </trkpt>
      <trkpt lat="46.24848" lon="4.81361">
        <ele>172.322259</ele>
        <time>2021-09-13T06:52:03.000Z</time>
      </trkpt>
      <trkpt lat="46.2483" lon="4.81357">
        <ele>172.447</ele>
        <time>2021-09-13T06:52:06.000Z</time>
      </trkpt>
      <trkpt lat="46.24813" lon="4.81352">
        <ele>172.569011</ele>
        <time>2021-09-13T06:52:09.000Z</time>
      </trkpt>
      <trkpt lat="46.24779" lon="4.81344">
        <ele>172.805215</ele>
        <time>2021-09-13T06:52:15.000Z</time>
      </trkpt>
      <trkpt lat="46.24739" lon="4.81336">
        <ele>173.0843</ele>
        <time>2021-09-13T06:52:22.000Z</time>
      </trkpt>
      <trkpt lat="46.24718" lon="4.81332">
        <ele>173.236228</ele>
        <time>2021-09-13T06:52:27.000Z</time>
      </trkpt>
      <trkpt lat="46.24711" lon="4.81331">
        <ele>173.280928</ele>
        <time>2021-09-13T06:52:30.000Z</time>
      </trkpt>
      <trkpt lat="46.2471" lon="4.8133">
        <ele>173.292159</ele>
        <time>2021-09-13T06:52:31.000Z</time>
      </trkpt>
      <trkpt lat="46.24708" lon="4.8133">
        <ele>173.301201</ele>
        <time>2021-09-13T06:52:32.000Z</time>
      </trkpt>
      <trkpt lat="46.24704" lon="4.81329">
        <ele>173.333834</ele>
        <time>2021-09-13T06:52:35.000Z</time>
      </trkpt>
      <trkpt lat="46.24699" lon="4.81329">
        <ele>173.365138</ele>
        <time>2021-09-13T06:52:38.000Z</time>
      </trkpt>
      <trkpt lat="46.24698" lon="4.81328">
        <ele>173.37418</ele>
        <time>2021-09-13T06:52:39.000Z</time>
      </trkpt>
      <trkpt lat="46.24688" lon="4.81327">
        <ele>173.442568</ele>
        <time>2021-09-13T06:52:42.000Z</time>
      </trkpt>
      <trkpt lat="46.24684" lon="4.81326">
        <ele>173.470435</ele>
        <time>2021-09-13T06:52:43.000Z</time>
      </trkpt>
      <trkpt lat="46.2468" lon="4.81325">
        <ele>173.498365</ele>
        <time>2021-09-13T06:52:44.000Z</time>
      </trkpt>
      <trkpt lat="46.24667" lon="4.81323">
        <ele>173.518166</ele>
        <time>2021-09-13T06:52:47.000Z</time>
      </trkpt>
      <trkpt lat="46.24663" lon="4.81322">
        <ele>173.522109</ele>
        <time>2021-09-13T06:52:48.000Z</time>
      </trkpt>
      <trkpt lat="46.24626" lon="4.81314">
        <ele>173.553004</ele>
        <time>2021-09-13T06:52:55.000Z</time>
      </trkpt>
      <trkpt lat="46.24621" lon="4.81312">
        <ele>173.55756</ele>
        <time>2021-09-13T06:52:56.000Z</time>
      </trkpt>
      <trkpt lat="46.24593" lon="4.81302">
        <ele>173.581041</ele>
        <time>2021-09-13T06:53:01.000Z</time>
      </trkpt>
      <trkpt lat="46.24557" lon="4.81288">
        <ele>173.612662</ele>
        <time>2021-09-13T06:53:08.000Z</time>
      </trkpt>
      <trkpt lat="46.24543" lon="4.81283">
        <ele>173.624217</ele>
        <time>2021-09-13T06:53:11.000Z</time>
      </trkpt>
      <trkpt lat="46.24534" lon="4.81279">
        <ele>173.632</ele>
        <time>2021-09-13T06:53:13.000Z</time>
      </trkpt>
      <trkpt lat="46.24529" lon="4.81277">
        <ele>173.636234</ele>
        <time>2021-09-13T06:53:14.000Z</time>
      </trkpt>
      <trkpt lat="46.24519" lon="4.81273">
        <ele>173.645072</ele>
        <time>2021-09-13T06:53:17.000Z</time>
      </trkpt>
      <trkpt lat="46.24511" lon="4.8127">
        <ele>173.65172</ele>
        <time>2021-09-13T06:53:21.000Z</time>
      </trkpt>
      <trkpt lat="46.24499" lon="4.81265">
        <ele>173.6607</ele>
        <time>2021-09-13T06:53:24.000Z</time>
      </trkpt>
      <trkpt lat="46.24489" lon="4.81261">
        <ele>173.666118</ele>
        <time>2021-09-13T06:53:26.000Z</time>
      </trkpt>
      <trkpt lat="46.24447" lon="4.81247">
        <ele>173.688967</ele>
        <time>2021-09-13T06:53:34.000Z</time>
      </trkpt>
      <trkpt lat="46.24408" lon="4.81234">
        <ele>173.709784</ele>
        <time>2021-09-13T06:53:41.000Z</time>
      </trkpt>
      <trkpt lat="46.24369" lon="4.8122">
        <ele>173.730965</ele>
        <time>2021-09-13T06:53:48.000Z</time>
      </trkpt>
      <trkpt lat="46.2433" lon="4.81206">
        <ele>173.751986</ele>
        <time>2021-09-13T06:53:55.000Z</time>
      </trkpt>
      <trkpt lat="46.24302" lon="4.81196">
        <ele>174.00476</ele>
        <time>2021-09-13T06:54:00.000Z</time>
      </trkpt>
      <trkpt lat="46.24269" lon="4.81185">
        <ele>174.318364</ele>
        <time>2021-09-13T06:54:06.000Z</time>
      </trkpt>
      <trkpt lat="46.24227" lon="4.81175">
        <ele>174.707043</ele>
        <time>2021-09-13T06:54:14.000Z</time>
      </trkpt>
      <trkpt lat="46.24203" lon="4.81169">
        <ele>174.930051</ele>
        <time>2021-09-13T06:54:19.000Z</time>
      </trkpt>
      <trkpt lat="46.24188" lon="4.8116">
        <ele>175.082864</ele>
        <time>2021-09-13T06:54:23.000Z</time>
      </trkpt>
      <trkpt lat="46.24182" lon="4.81147">
        <ele>175.185044</ele>
        <time>2021-09-13T06:54:25.000Z</time>
      </trkpt>
      <trkpt lat="46.24175" lon="4.81138">
        <ele>175.263934</ele>
        <time>2021-09-13T06:54:27.000Z</time>
      </trkpt>
      <trkpt lat="46.24171" lon="4.81135">
        <ele>175.306254</ele>
        <time>2021-09-13T06:54:28.000Z</time>
      </trkpt>
      <trkpt lat="46.24162" lon="4.81134">
        <ele>175.396144</ele>
        <time>2021-09-13T06:54:30.000Z</time>
      </trkpt>
      <trkpt lat="46.24151" lon="4.81132">
        <ele>175.425414</ele>
        <time>2021-09-13T06:54:32.000Z</time>
      </trkpt>
      <trkpt lat="46.24135" lon="4.81139">
        <ele>175.455378</ele>
        <time>2021-09-13T06:54:35.000Z</time>
      </trkpt>
      <trkpt lat="46.24124" lon="4.81137">
        <ele>175.474857</ele>
        <time>2021-09-13T06:54:37.000Z</time>
      </trkpt>
      <trkpt lat="46.24113" lon="4.81135">
        <ele>175.49416</ele>
        <time>2021-09-13T06:54:39.000Z</time>
      </trkpt>
      <trkpt lat="46.24107" lon="4.81131">
        <ele>175.505781</ele>
        <time>2021-09-13T06:54:40.000Z</time>
      </trkpt>
      <trkpt lat="46.24102" lon="4.81125">
        <ele>175.517095</ele>
        <time>2021-09-13T06:54:41.000Z</time>
      </trkpt>
      <trkpt lat="46.24087" lon="4.81098">
        <ele>175.55953</ele>
        <time>2021-09-13T06:54:45.000Z</time>
      </trkpt>
      <trkpt lat="46.24079" lon="4.81086">
        <ele>175.579926</ele>
        <time>2021-09-13T06:54:47.000Z</time>
      </trkpt>
      <trkpt lat="46.24069" lon="4.81078">
        <ele>175.599987</ele>
        <time>2021-09-13T06:54:49.000Z</time>
      </trkpt>
      <trkpt lat="46.24064" lon="4.81076">
        <ele>175.61001</ele>
        <time>2021-09-13T06:54:50.000Z</time>
      </trkpt>
      <trkpt lat="46.24058" lon="4.81074">
        <ele>175.619815</ele>
        <time>2021-09-13T06:54:51.000Z</time>
      </trkpt>
      <trkpt lat="46.24047" lon="4.81073">
        <ele>175.639711</ele>
        <time>2021-09-13T06:54:53.000Z</time>
      </trkpt>
      <trkpt lat="46.24041" lon="4.81075">
        <ele>175.649969</ele>
        <time>2021-09-13T06:54:54.000Z</time>
      </trkpt>
      <trkpt lat="46.24031" lon="4.81079">
        <ele>175.668957</ele>
        <time>2021-09-13T06:54:56.000Z</time>
      </trkpt>
      <trkpt lat="46.24021" lon="4.81087">
        <ele>175.689538</ele>
        <time>2021-09-13T06:54:58.000Z</time>
      </trkpt>
      <trkpt lat="46.24014" lon="4.81097">
        <ele>175.707464</ele>
        <time>2021-09-13T06:55:00.000Z</time>
      </trkpt>
      <trkpt lat="46.24004" lon="4.81105">
        <ele>175.727554</ele>
        <time>2021-09-13T06:55:02.000Z</time>
      </trkpt>
      <trkpt lat="46.23992" lon="4.81105">
        <ele>175.70548</ele>
        <time>2021-09-13T06:55:04.000Z</time>
      </trkpt>
      <trkpt lat="46.23986" lon="4.81104">
        <ele>175.693966</ele>
        <time>2021-09-13T06:55:05.000Z</time>
      </trkpt>
      <trkpt lat="46.23945" lon="4.81094">
        <ele>175.612664</ele>
        <time>2021-09-13T06:55:12.000Z</time>
      </trkpt>
      <trkpt lat="46.2391" lon="4.81084">
        <ele>175.543025</ele>
        <time>2021-09-13T06:55:18.000Z</time>
      </trkpt>
      <trkpt lat="46.23885" lon="4.81079">
        <ele>175.494624</ele>
        <time>2021-09-13T06:55:22.000Z</time>
      </trkpt>
      <trkpt lat="46.23873" lon="4.81077">
        <ele>175.471001</ele>
        <time>2021-09-13T06:55:24.000Z</time>
      </trkpt>
      <trkpt lat="46.23845" lon="4.81068">
        <ele>175.41402</ele>
        <time>2021-09-13T06:55:29.000Z</time>
      </trkpt>
      <trkpt lat="46.23833" lon="4.81064">
        <ele>175.390329</ele>
        <time>2021-09-13T06:55:31.000Z</time>
      </trkpt>
      <trkpt lat="46.23797" lon="4.81051">
        <ele>175.394286</ele>
        <time>2021-09-13T06:55:37.000Z</time>
      </trkpt>
      <trkpt lat="46.23781" lon="4.81045">
        <ele>175.403837</ele>
        <time>2021-09-13T06:55:40.000Z</time>
      </trkpt>
      <trkpt lat="46.23775" lon="4.81042">
        <ele>175.407194</ele>
        <time>2021-09-13T06:55:41.000Z</time>
      </trkpt>
      <trkpt lat="46.23741" lon="4.81024">
        <ele>175.42736</ele>
        <time>2021-09-13T06:55:47.000Z</time>
      </trkpt>
      <trkpt lat="46.23713" lon="4.8101">
        <ele>175.443959</ele>
        <time>2021-09-13T06:55:52.000Z</time>
      </trkpt>
      <trkpt lat="46.23681" lon="4.80989">
        <ele>175.463376</ele>
        <time>2021-09-13T06:55:58.000Z</time>
      </trkpt>
      <trkpt lat="46.23671" lon="4.80982">
        <ele>175.469522</ele>
        <time>2021-09-13T06:56:00.000Z</time>
      </trkpt>
      <trkpt lat="46.23655" lon="4.80971">
        <ele>175.472755</ele>
        <time>2021-09-13T06:56:03.000Z</time>
      </trkpt>
      <trkpt lat="46.23624" lon="4.80951">
        <ele>175.420166</ele>
        <time>2021-09-13T06:56:09.000Z</time>
      </trkpt>
      <trkpt lat="46.23606" lon="4.80939">
        <ele>175.389232</ele>
        <time>2021-09-13T06:56:13.000Z</time>
      </trkpt>
      <trkpt lat="46.23584" lon="4.80921">
        <ele>175.351692</ele>
        <time>2021-09-13T06:56:17.000Z</time>
      </trkpt>
      <trkpt lat="46.23558" lon="4.80899">
        <ele>175.303915</ele>
        <time>2021-09-13T06:56:22.000Z</time>
      </trkpt>
      <trkpt lat="46.23548" lon="4.8089">
        <ele>175.285628</ele>
        <time>2021-09-13T06:56:24.000Z</time>
      </trkpt>
      <trkpt lat="46.23528" lon="4.8087">
        <ele>175.247892</ele>
        <time>2021-09-13T06:56:28.000Z</time>
      </trkpt>
      <trkpt lat="46.23522" lon="4.80865">
        <ele>175.238422</ele>
        <time>2021-09-13T06:56:29.000Z</time>
      </trkpt>
      <trkpt lat="46.23478" lon="4.80829">
        <ele>175.198454</ele>
        <time>2021-09-13T06:56:38.000Z</time>
      </trkpt>
      <trkpt lat="46.23455" lon="4.80806">
        <ele>175.196742</ele>
        <time>2021-09-13T06:56:43.000Z</time>
      </trkpt>
      <trkpt lat="46.2345" lon="4.80801">
        <ele>175.196383</ele>
        <time>2021-09-13T06:56:44.000Z</time>
      </trkpt>
      <trkpt lat="46.23445" lon="4.80796">
        <ele>175.196036</ele>
        <time>2021-09-13T06:56:45.000Z</time>
      </trkpt>
      <trkpt lat="46.23427" lon="4.80777">
        <ele>175.194693</ele>
        <time>2021-09-13T06:56:49.000Z</time>
      </trkpt>
      <trkpt lat="46.2341" lon="4.8076">
        <ele>175.19345</ele>
        <time>2021-09-13T06:56:53.000Z</time>
      </trkpt>
      <trkpt lat="46.23387" lon="4.80736">
        <ele>175.191708</ele>
        <time>2021-09-13T06:56:58.000Z</time>
      </trkpt>
      <trkpt lat="46.23352" lon="4.80701">
        <ele>175.187988</ele>
        <time>2021-09-13T06:57:05.000Z</time>
      </trkpt>
      <trkpt lat="46.2332" lon="4.80665">
        <ele>175.074659</ele>
        <time>2021-09-13T06:57:12.000Z</time>
      </trkpt>
      <trkpt lat="46.23292" lon="4.80633">
        <ele>174.976681</ele>
        <time>2021-09-13T06:57:18.000Z</time>
      </trkpt>
      <trkpt lat="46.23266" lon="4.80604">
        <ele>174.883581</ele>
        <time>2021-09-13T06:57:24.000Z</time>
      </trkpt>
      <trkpt lat="46.23257" lon="4.80594">
        <ele>174.853715</ele>
        <time>2021-09-13T06:57:26.000Z</time>
      </trkpt>
      <trkpt lat="46.23246" lon="4.8058">
        <ele>174.811842</ele>
        <time>2021-09-13T06:57:29.000Z</time>
      </trkpt>
      <trkpt lat="46.2323" lon="4.80562">
        <ele>174.754578</ele>
        <time>2021-09-13T06:57:33.000Z</time>
      </trkpt>
      <trkpt lat="46.23226" lon="4.80557">
        <ele>174.740999</ele>
        <time>2021-09-13T06:57:34.000Z</time>
      </trkpt>
      <trkpt lat="46.23202" lon="4.8053">
        <ele>174.620914</ele>
        <time>2021-09-13T06:57:39.000Z</time>
      </trkpt>
      <trkpt lat="46.23169" lon="4.80491">
        <ele>174.372289</ele>
        <time>2021-09-13T06:57:46.000Z</time>
      </trkpt>
      <trkpt lat="46.23138" lon="4.80455">
        <ele>174.143095</ele>
        <time>2021-09-13T06:57:53.000Z</time>
      </trkpt>
      <trkpt lat="46.23112" lon="4.80422">
        <ele>173.93999</ele>
        <time>2021-09-13T06:57:59.000Z</time>
      </trkpt>
      <trkpt lat="46.23099" lon="4.80405">
        <ele>173.841339</ele>
        <time>2021-09-13T06:58:02.000Z</time>
      </trkpt>
      <trkpt lat="46.2309" lon="4.80395">
        <ele>173.77333</ele>
        <time>2021-09-13T06:58:04.000Z</time>
      </trkpt>
      <trkpt lat="46.23071" lon="4.80375">
        <ele>173.640719</ele>
        <time>2021-09-13T06:58:08.000Z</time>
      </trkpt>
      <trkpt lat="46.23067" lon="4.8037">
        <ele>173.635442</ele>
        <time>2021-09-13T06:58:09.000Z</time>
      </trkpt>
      <trkpt lat="46.23062" lon="4.80365">
        <ele>173.630165</ele>
        <time>2021-09-13T06:58:10.000Z</time>
      </trkpt>
      <trkpt lat="46.23044" lon="4.80346">
        <ele>173.607955</ele>
        <time>2021-09-13T06:58:14.000Z</time>
      </trkpt>
      <trkpt lat="46.2302" lon="4.80322">
        <ele>173.579916</ele>
        <time>2021-09-13T06:58:19.000Z</time>
      </trkpt>
      <trkpt lat="46.23015" lon="4.80318">
        <ele>173.57433</ele>
        <time>2021-09-13T06:58:20.000Z</time>
      </trkpt>
      <trkpt lat="46.2298" lon="4.80289">
        <ele>173.535293</ele>
        <time>2021-09-13T06:58:27.000Z</time>
      </trkpt>
      <trkpt lat="46.2295" lon="4.80267">
        <ele>173.502246</ele>
        <time>2021-09-13T06:58:33.000Z</time>
      </trkpt>
      <trkpt lat="46.22928" lon="4.80253">
        <ele>173.479225</ele>
        <time>2021-09-13T06:58:38.000Z</time>
      </trkpt>
      <trkpt lat="46.22903" lon="4.80238">
        <ele>173.516062</ele>
        <time>2021-09-13T06:58:43.000Z</time>
      </trkpt>
      <trkpt lat="46.22898" lon="4.80234">
        <ele>173.535796</ele>
        <time>2021-09-13T06:58:44.000Z</time>
      </trkpt>
      <trkpt lat="46.22888" lon="4.80225">
        <ele>173.574459</ele>
        <time>2021-09-13T06:58:46.000Z</time>
      </trkpt>
      <trkpt lat="46.22878" lon="4.80217">
        <ele>173.612837</ele>
        <time>2021-09-13T06:58:48.000Z</time>
      </trkpt>
      <trkpt lat="46.22873" lon="4.80212">
        <ele>173.632091</ele>
        <time>2021-09-13T06:58:49.000Z</time>
      </trkpt>
      <trkpt lat="46.22868" lon="4.80207">
        <ele>173.650808</ele>
        <time>2021-09-13T06:58:50.000Z</time>
      </trkpt>
      <trkpt lat="46.22859" lon="4.80198">
        <ele>173.688106</ele>
        <time>2021-09-13T06:58:52.000Z</time>
      </trkpt>
      <trkpt lat="46.22855" lon="4.80193">
        <ele>173.706553</ele>
        <time>2021-09-13T06:58:53.000Z</time>
      </trkpt>
      <trkpt lat="46.2283" lon="4.80174">
        <ele>173.800001</ele>
        <time>2021-09-13T06:58:58.000Z</time>
      </trkpt>
      <trkpt lat="46.22796" lon="4.8015">
        <ele>173.926123</ele>
        <time>2021-09-13T06:59:05.000Z</time>
      </trkpt>
      <trkpt lat="46.22764" lon="4.80132">
        <ele>174.040108</ele>
        <time>2021-09-13T06:59:11.000Z</time>
      </trkpt>
      <trkpt lat="46.22739" lon="4.80117">
        <ele>174.10579</ele>
        <time>2021-09-13T06:59:16.000Z</time>
      </trkpt>
      <trkpt lat="46.22698" lon="4.80093">
        <ele>174.198126</ele>
        <time>2021-09-13T06:59:24.000Z</time>
      </trkpt>
      <trkpt lat="46.22667" lon="4.80078">
        <ele>174.266933</ele>
        <time>2021-09-13T06:59:30.000Z</time>
      </trkpt>
      <trkpt lat="46.22656" lon="4.80074">
        <ele>174.290016</ele>
        <time>2021-09-13T06:59:32.000Z</time>
      </trkpt>
      <trkpt lat="46.22619" lon="4.80058">
        <ele>174.37141</ele>
        <time>2021-09-13T06:59:39.000Z</time>
      </trkpt>
      <trkpt lat="46.22585" lon="4.80044">
        <ele>174.439923</ele>
        <time>2021-09-13T06:59:46.000Z</time>
      </trkpt>
      <trkpt lat="46.22553" lon="4.8003">
        <ele>174.4144</ele>
        <time>2021-09-13T06:59:53.000Z</time>
      </trkpt>
      <trkpt lat="46.22521" lon="4.80014">
        <ele>174.388803</ele>
        <time>2021-09-13T07:00:01.000Z</time>
      </trkpt>
      <trkpt lat="46.22502" lon="4.80005">
        <ele>174.373843</ele>
        <time>2021-09-13T07:00:06.000Z</time>
      </trkpt>
      <trkpt lat="46.2249" lon="4.79999">
        <ele>174.364394</ele>
        <time>2021-09-13T07:00:10.000Z</time>
      </trkpt>
      <trkpt lat="46.22469" lon="4.7999">
        <ele>174.347377</ele>
        <time>2021-09-13T07:00:16.000Z</time>
      </trkpt>
      <trkpt lat="46.22447" lon="4.79979">
        <ele>174.329963</ele>
        <time>2021-09-13T07:00:22.000Z</time>
      </trkpt>
      <trkpt lat="46.2243" lon="4.79972">
        <ele>174.316751</ele>
        <time>2021-09-13T07:00:27.000Z</time>
      </trkpt>
      <trkpt lat="46.22412" lon="4.79963">
        <ele>174.294489</ele>
        <time>2021-09-13T07:00:32.000Z</time>
      </trkpt>
      <trkpt lat="46.22389" lon="4.79952">
        <ele>174.219637</ele>
        <time>2021-09-13T07:00:39.000Z</time>
      </trkpt>
      <trkpt lat="46.22369" lon="4.79943">
        <ele>174.156217</ele>
        <time>2021-09-13T07:00:45.000Z</time>
      </trkpt>
      <trkpt lat="46.22341" lon="4.7993">
        <ele>174.069933</ele>
        <time>2021-09-13T07:00:53.000Z</time>
      </trkpt>
      <trkpt lat="46.22325" lon="4.79923">
        <ele>174.019511</ele>
        <time>2021-09-13T07:00:57.000Z</time>
      </trkpt>
      <trkpt lat="46.22317" lon="4.79919">
        <ele>173.993868</ele>
        <time>2021-09-13T07:00:59.000Z</time>
      </trkpt>
      <trkpt lat="46.22294" lon="4.79909">
        <ele>173.920293</ele>
        <time>2021-09-13T07:01:05.000Z</time>
      </trkpt>
      <trkpt lat="46.2229" lon="4.79907">
        <ele>173.907231</ele>
        <time>2021-09-13T07:01:06.000Z</time>
      </trkpt>
      <trkpt lat="46.22282" lon="4.79903">
        <ele>173.881237</ele>
        <time>2021-09-13T07:01:08.000Z</time>
      </trkpt>
      <trkpt lat="46.22278" lon="4.79901">
        <ele>173.869805</ele>
        <time>2021-09-13T07:01:09.000Z</time>
      </trkpt>
      <trkpt lat="46.2226" lon="4.79892">
        <ele>173.811014</ele>
        <time>2021-09-13T07:01:14.000Z</time>
      </trkpt>
      <trkpt lat="46.22251" lon="4.79888">
        <ele>173.782687</ele>
        <time>2021-09-13T07:01:16.000Z</time>
      </trkpt>
      <trkpt lat="46.22231" lon="4.79879">
        <ele>173.73241</ele>
        <time>2021-09-13T07:01:20.000Z</time>
      </trkpt>
      <trkpt lat="46.22218" lon="4.79872">
        <ele>173.70245</ele>
        <time>2021-09-13T07:01:23.000Z</time>
      </trkpt>
      <trkpt lat="46.2221" lon="4.79868">
        <ele>173.6822</ele>
        <time>2021-09-13T07:01:25.000Z</time>
      </trkpt>
      <trkpt lat="46.22205" lon="4.79866">
        <ele>173.671867</ele>
        <time>2021-09-13T07:01:26.000Z</time>
      </trkpt>
      <trkpt lat="46.22165" lon="4.79845">
        <ele>173.579493</ele>
        <time>2021-09-13T07:01:34.000Z</time>
      </trkpt>
      <trkpt lat="46.22129" lon="4.79825">
        <ele>173.493521</ele>
        <time>2021-09-13T07:01:41.000Z</time>
      </trkpt>
      <trkpt lat="46.22092" lon="4.79803">
        <ele>173.406934</ele>
        <time>2021-09-13T07:01:48.000Z</time>
      </trkpt>
      <trkpt lat="46.22061" lon="4.79783">
        <ele>173.356757</ele>
        <time>2021-09-13T07:01:54.000Z</time>
      </trkpt>
      <trkpt lat="46.22021" lon="4.79757">
        <ele>173.323117</ele>
        <time>2021-09-13T07:02:02.000Z</time>
      </trkpt>
      <trkpt lat="46.21982" lon="4.7973">
        <ele>173.289753</ele>
        <time>2021-09-13T07:02:10.000Z</time>
      </trkpt>
      <trkpt lat="46.21951" lon="4.79711">
        <ele>173.264278</ele>
        <time>2021-09-13T07:02:16.000Z</time>
      </trkpt>
      <trkpt lat="46.21924" lon="4.79694">
        <ele>173.241378</ele>
        <time>2021-09-13T07:02:21.000Z</time>
      </trkpt>
      <trkpt lat="46.21897" lon="4.79677">
        <ele>173.228931</ele>
        <time>2021-09-13T07:02:26.000Z</time>
      </trkpt>
      <trkpt lat="46.21886" lon="4.7967">
        <ele>173.227097</ele>
        <time>2021-09-13T07:02:28.000Z</time>
      </trkpt>
      <trkpt lat="46.2187" lon="4.7966">
        <ele>173.224268</ele>
        <time>2021-09-13T07:02:31.000Z</time>
      </trkpt>
      <trkpt lat="46.21854" lon="4.7965">
        <ele>173.221404</ele>
        <time>2021-09-13T07:02:34.000Z</time>
      </trkpt>
      <trkpt lat="46.21826" lon="4.79636">
        <ele>173.21673</ele>
        <time>2021-09-13T07:02:39.000Z</time>
      </trkpt>
      <trkpt lat="46.21821" lon="4.79634">
        <ele>173.215829</ele>
        <time>2021-09-13T07:02:40.000Z</time>
      </trkpt>
      <trkpt lat="46.21793" lon="4.79623">
        <ele>173.211297</ele>
        <time>2021-09-13T07:02:45.000Z</time>
      </trkpt>
      <trkpt lat="46.21766" lon="4.79612">
        <ele>173.206795</ele>
        <time>2021-09-13T07:02:50.000Z</time>
      </trkpt>
      <trkpt lat="46.21733" lon="4.79599">
        <ele>173.247329</ele>
        <time>2021-09-13T07:02:56.000Z</time>
      </trkpt>
      <trkpt lat="46.21699" lon="4.79588">
        <ele>173.404866</ele>
        <time>2021-09-13T07:03:02.000Z</time>
      </trkpt>
      <trkpt lat="46.21676" lon="4.79581">
        <ele>173.507977</ele>
        <time>2021-09-13T07:03:06.000Z</time>
      </trkpt>
      <trkpt lat="46.21666" lon="4.79577">
        <ele>173.556359</ele>
        <time>2021-09-13T07:03:08.000Z</time>
      </trkpt>
      <trkpt lat="46.21628" lon="4.79565">
        <ele>173.731824</ele>
        <time>2021-09-13T07:03:15.000Z</time>
      </trkpt>
      <trkpt lat="46.21577" lon="4.79548">
        <ele>173.967147</ele>
        <time>2021-09-13T07:03:24.000Z</time>
      </trkpt>
      <trkpt lat="46.21526" lon="4.79528">
        <ele>174.104847</ele>
        <time>2021-09-13T07:03:33.000Z</time>
      </trkpt>
      <trkpt lat="46.21486" lon="4.79516">
        <ele>174.195246</ele>
        <time>2021-09-13T07:03:40.000Z</time>
      </trkpt>
      <trkpt lat="46.21439" lon="4.79501">
        <ele>174.301822</ele>
        <time>2021-09-13T07:03:48.000Z</time>
      </trkpt>
      <trkpt lat="46.21385" lon="4.79486">
        <ele>174.416177</ele>
        <time>2021-09-13T07:03:57.000Z</time>
      </trkpt>
      <trkpt lat="46.21343" lon="4.79482">
        <ele>174.469187</ele>
        <time>2021-09-13T07:04:04.000Z</time>
      </trkpt>
      <trkpt lat="46.2131" lon="4.79479">
        <ele>174.511243</ele>
        <time>2021-09-13T07:04:10.000Z</time>
      </trkpt>
      <trkpt lat="46.21276" lon="4.79476">
        <ele>174.555208</ele>
        <time>2021-09-13T07:04:17.000Z</time>
      </trkpt>
      <trkpt lat="46.21271" lon="4.79475">
        <ele>174.561455</ele>
        <time>2021-09-13T07:04:18.000Z</time>
      </trkpt>
      <trkpt lat="46.21247" lon="4.79473">
        <ele>174.592546</ele>
        <time>2021-09-13T07:04:23.000Z</time>
      </trkpt>
      <trkpt lat="46.21208" lon="4.7947">
        <ele>174.635475</ele>
        <time>2021-09-13T07:04:31.000Z</time>
      </trkpt>
      <trkpt lat="46.21171" lon="4.79468">
        <ele>174.627721</ele>
        <time>2021-09-13T07:04:39.000Z</time>
      </trkpt>
      <trkpt lat="46.21139" lon="4.79466">
        <ele>174.620986</ele>
        <time>2021-09-13T07:04:46.000Z</time>
      </trkpt>
      <trkpt lat="46.21103" lon="4.79464">
        <ele>174.613647</ele>
        <time>2021-09-13T07:04:54.000Z</time>
      </trkpt>
      <trkpt lat="46.21066" lon="4.79462">
        <ele>174.60581</ele>
        <time>2021-09-13T07:05:02.000Z</time>
      </trkpt>
      <trkpt lat="46.21035" lon="4.7946">
        <ele>174.59949</ele>
        <time>2021-09-13T07:05:09.000Z</time>
      </trkpt>
      <trkpt lat="46.21027" lon="4.7946">
        <ele>174.582895</ele>
        <time>2021-09-13T07:05:11.000Z</time>
      </trkpt>
      <trkpt lat="46.21011" lon="4.79461">
        <ele>174.534128</ele>
        <time>2021-09-13T07:05:15.000Z</time>
      </trkpt>
      <trkpt lat="46.20991" lon="4.79463">
        <ele>174.472221</ele>
        <time>2021-09-13T07:05:20.000Z</time>
      </trkpt>
      <trkpt lat="46.20968" lon="4.79465">
        <ele>174.402983</ele>
        <time>2021-09-13T07:05:25.000Z</time>
      </trkpt>
      <trkpt lat="46.20959" lon="4.79466">
        <ele>174.375543</ele>
        <time>2021-09-13T07:05:27.000Z</time>
      </trkpt>
      <trkpt lat="46.2095" lon="4.79466">
        <ele>174.348091</ele>
        <time>2021-09-13T07:05:29.000Z</time>
      </trkpt>
      <trkpt lat="46.20932" lon="4.79468">
        <ele>174.291983</ele>
        <time>2021-09-13T07:05:33.000Z</time>
      </trkpt>
      <trkpt lat="46.20918" lon="4.79469">
        <ele>174.248361</ele>
        <time>2021-09-13T07:05:36.000Z</time>
      </trkpt>
      <trkpt lat="46.20904" lon="4.7947">
        <ele>174.208411</ele>
        <time>2021-09-13T07:05:39.000Z</time>
      </trkpt>
      <trkpt lat="46.20883" lon="4.79472">
        <ele>174.144061</ele>
        <time>2021-09-13T07:05:45.000Z</time>
      </trkpt>
      <trkpt lat="46.20861" lon="4.79474">
        <ele>174.074835</ele>
        <time>2021-09-13T07:05:51.000Z</time>
      </trkpt>
      <trkpt lat="46.20833" lon="4.79478">
        <ele>174.110244</ele>
        <time>2021-09-13T07:05:58.000Z</time>
      </trkpt>
      <trkpt lat="46.20815" lon="4.79481">
        <ele>174.165113</ele>
        <time>2021-09-13T07:06:03.000Z</time>
      </trkpt>
      <trkpt lat="46.20796" lon="4.79484">
        <ele>174.222397</ele>
        <time>2021-09-13T07:06:08.000Z</time>
      </trkpt>
      <trkpt lat="46.20769" lon="4.79488">
        <ele>174.303961</ele>
        <time>2021-09-13T07:06:15.000Z</time>
      </trkpt>
      <trkpt lat="46.20744" lon="4.79489">
        <ele>174.37637</ele>
        <time>2021-09-13T07:06:21.000Z</time>
      </trkpt>
      <trkpt lat="46.20731" lon="4.79488">
        <ele>174.415452</ele>
        <time>2021-09-13T07:06:24.000Z</time>
      </trkpt>
      <trkpt lat="46.20722" lon="4.79487">
        <ele>174.441699</ele>
        <time>2021-09-13T07:06:26.000Z</time>
      </trkpt>
      <trkpt lat="46.20718" lon="4.79487">
        <ele>174.454524</ele>
        <time>2021-09-13T07:06:27.000Z</time>
      </trkpt>
      <trkpt lat="46.20714" lon="4.79487">
        <ele>174.465564</ele>
        <time>2021-09-13T07:06:28.000Z</time>
      </trkpt>
      <trkpt lat="46.20704" lon="4.79478">
        <ele>174.500663</ele>
        <time>2021-09-13T07:06:31.000Z</time>
      </trkpt>
      <trkpt lat="46.20701" lon="4.79475">
        <ele>174.512531</ele>
        <time>2021-09-13T07:06:32.000Z</time>
      </trkpt>
      <trkpt lat="46.20692" lon="4.79469">
        <ele>174.543502</ele>
        <time>2021-09-13T07:06:35.000Z</time>
      </trkpt>
      <trkpt lat="46.20677" lon="4.7947">
        <ele>174.588005</ele>
        <time>2021-09-13T07:06:39.000Z</time>
      </trkpt>
      <trkpt lat="46.20656" lon="4.79475">
        <ele>174.690972</ele>
        <time>2021-09-13T07:06:44.000Z</time>
      </trkpt>
      <trkpt lat="46.2064" lon="4.79483">
        <ele>174.779879</ele>
        <time>2021-09-13T07:06:49.000Z</time>
      </trkpt>
      <trkpt lat="46.2063" lon="4.79497">
        <ele>174.847809</ele>
        <time>2021-09-13T07:06:53.000Z</time>
      </trkpt>
      <trkpt lat="46.20612" lon="4.7952">
        <ele>174.966605</ele>
        <time>2021-09-13T07:06:58.000Z</time>
      </trkpt>
      <trkpt lat="46.20579" lon="4.79536">
        <ele>175.139984</ele>
        <time>2021-09-13T07:07:05.000Z</time>
      </trkpt>
      <trkpt lat="46.20564" lon="4.79543">
        <ele>175.2192</ele>
        <time>2021-09-13T07:07:08.000Z</time>
      </trkpt>
      <trkpt lat="46.20553" lon="4.79548">
        <ele>175.273221</ele>
        <time>2021-09-13T07:07:10.000Z</time>
      </trkpt>
      <trkpt lat="46.20511" lon="4.79563">
        <ele>175.483351</ele>
        <time>2021-09-13T07:07:18.000Z</time>
      </trkpt>
      <trkpt lat="46.20478" lon="4.79569">
        <ele>175.486305</ele>
        <time>2021-09-13T07:07:24.000Z</time>
      </trkpt>
      <trkpt lat="46.20435" lon="4.79581">
        <ele>175.490171</ele>
        <time>2021-09-13T07:07:32.000Z</time>
      </trkpt>
      <trkpt lat="46.20401" lon="4.79589">
        <ele>175.493256</ele>
        <time>2021-09-13T07:07:39.000Z</time>
      </trkpt>
      <trkpt lat="46.20387" lon="4.79591">
        <ele>175.49446</ele>
        <time>2021-09-13T07:07:42.000Z</time>
      </trkpt>
      <trkpt lat="46.20379" lon="4.79591">
        <ele>175.495214</ele>
        <time>2021-09-13T07:07:44.000Z</time>
      </trkpt>
      <trkpt lat="46.20365" lon="4.7959">
        <ele>175.496404</ele>
        <time>2021-09-13T07:07:47.000Z</time>
      </trkpt>
      <trkpt lat="46.20345" lon="4.79588">
        <ele>175.49821</ele>
        <time>2021-09-13T07:07:51.000Z</time>
      </trkpt>
      <trkpt lat="46.20334" lon="4.79587">
        <ele>175.499153</ele>
        <time>2021-09-13T07:07:53.000Z</time>
      </trkpt>
      <trkpt lat="46.20318" lon="4.79584">
        <ele>175.420833</ele>
        <time>2021-09-13T07:07:56.000Z</time>
      </trkpt>
      <trkpt lat="46.2029" lon="4.79578">
        <ele>175.28677</ele>
        <time>2021-09-13T07:08:01.000Z</time>
      </trkpt>
      <trkpt lat="46.20279" lon="4.79575">
        <ele>175.232892</ele>
        <time>2021-09-13T07:08:03.000Z</time>
      </trkpt>
      <trkpt lat="46.2025" lon="4.79567">
        <ele>175.090948</ele>
        <time>2021-09-13T07:08:09.000Z</time>
      </trkpt>
      <trkpt lat="46.20228" lon="4.79559">
        <ele>174.979577</ele>
        <time>2021-09-13T07:08:15.000Z</time>
      </trkpt>
      <trkpt lat="46.20216" lon="4.79546">
        <ele>174.910917</ele>
        <time>2021-09-13T07:08:18.000Z</time>
      </trkpt>
      <trkpt lat="46.20206" lon="4.79533">
        <ele>174.842493</ele>
        <time>2021-09-13T07:08:21.000Z</time>
      </trkpt>
      <trkpt lat="46.20198" lon="4.79524">
        <ele>174.795092</ele>
        <time>2021-09-13T07:08:23.000Z</time>
      </trkpt>
      <trkpt lat="46.20186" lon="4.79512">
        <ele>174.724529</ele>
        <time>2021-09-13T07:08:26.000Z</time>
      </trkpt>
      <trkpt lat="46.20178" lon="4.79507">
        <ele>174.682241</ele>
        <time>2021-09-13T07:08:28.000Z</time>
      </trkpt>
      <trkpt lat="46.20167" lon="4.79502">
        <ele>174.633426</ele>
        <time>2021-09-13T07:08:31.000Z</time>
      </trkpt>
      <trkpt lat="46.20162" lon="4.79498">
        <ele>174.62392</ele>
        <time>2021-09-13T07:08:32.000Z</time>
      </trkpt>
      <trkpt lat="46.20149" lon="4.79485">
        <ele>174.599432</ele>
        <time>2021-09-13T07:08:35.000Z</time>
      </trkpt>
      <trkpt lat="46.20141" lon="4.79476">
        <ele>174.582718</ele>
        <time>2021-09-13T07:08:37.000Z</time>
      </trkpt>
      <trkpt lat="46.20128" lon="4.79464">
        <ele>174.558034</ele>
        <time>2021-09-13T07:08:40.000Z</time>
      </trkpt>
      <trkpt lat="46.2012" lon="4.79454">
        <ele>174.541372</ele>
        <time>2021-09-13T07:08:42.000Z</time>
      </trkpt>
      <trkpt lat="46.20098" lon="4.79428">
        <ele>174.496136</ele>
        <time>2021-09-13T07:08:47.000Z</time>
      </trkpt>
      <trkpt lat="46.20071" lon="4.79397">
        <ele>174.441039</ele>
        <time>2021-09-13T07:08:53.000Z</time>
      </trkpt>
      <trkpt lat="46.20067" lon="4.79392">
        <ele>174.431953</ele>
        <time>2021-09-13T07:08:54.000Z</time>
      </trkpt>
      <trkpt lat="46.20038" lon="4.79358">
        <ele>174.372894</ele>
        <time>2021-09-13T07:09:01.000Z</time>
      </trkpt>
      <trkpt lat="46.20027" lon="4.79345">
        <ele>174.350109</ele>
        <time>2021-09-13T07:09:04.000Z</time>
      </trkpt>
      <trkpt lat="46.19997" lon="4.79311">
        <ele>174.268156</ele>
        <time>2021-09-13T07:09:11.000Z</time>
      </trkpt>
      <trkpt lat="46.19953" lon="4.7926">
        <ele>174.147189</ele>
        <time>2021-09-13T07:09:21.000Z</time>
      </trkpt>
      <trkpt lat="46.19919" lon="4.79218">
        <ele>174.051699</ele>
        <time>2021-09-13T07:09:29.000Z</time>
      </trkpt>
      <trkpt lat="46.19881" lon="4.79171">
        <ele>173.94609</ele>
        <time>2021-09-13T07:09:38.000Z</time>
      </trkpt>
      <trkpt lat="46.19843" lon="4.79124">
        <ele>173.851328</ele>
        <time>2021-09-13T07:09:47.000Z</time>
      </trkpt>
      <trkpt lat="46.19803" lon="4.7908">
        <ele>173.757011</ele>
        <time>2021-09-13T07:09:56.000Z</time>
      </trkpt>
      <trkpt lat="46.19774" lon="4.79044">
        <ele>173.684336</ele>
        <time>2021-09-13T07:10:03.000Z</time>
      </trkpt>
      <trkpt lat="46.19763" lon="4.79029">
        <ele>173.656122</ele>
        <time>2021-09-13T07:10:06.000Z</time>
      </trkpt>
      <trkpt lat="46.19754" lon="4.79015">
        <ele>173.630857</ele>
        <time>2021-09-13T07:10:09.000Z</time>
      </trkpt>
      <trkpt lat="46.19735" lon="4.78989">
        <ele>173.578179</ele>
        <time>2021-09-13T07:10:16.000Z</time>
      </trkpt>
      <trkpt lat="46.1973" lon="4.78981">
        <ele>173.562065</ele>
        <time>2021-09-13T07:10:21.000Z</time>
      </trkpt>
      <trkpt lat="46.19721" lon="4.78982">
        <ele>173.544687</ele>
        <time>2021-09-13T07:14:09.000Z</time>
      </trkpt>
      <trkpt lat="46.19718" lon="4.78987">
        <ele>173.534979</ele>
        <time>2021-09-13T07:14:11.000Z</time>
      </trkpt>
      <trkpt lat="46.19709" lon="4.78997">
        <ele>173.511299</ele>
        <time>2021-09-13T07:14:14.000Z</time>
      </trkpt>
      <trkpt lat="46.19705" lon="4.79002">
        <ele>173.500844</ele>
        <time>2021-09-13T07:14:15.000Z</time>
      </trkpt>
      <trkpt lat="46.19701" lon="4.79007">
        <ele>173.489456</ele>
        <time>2021-09-13T07:14:16.000Z</time>
      </trkpt>
      <trkpt lat="46.19682" lon="4.7903">
        <ele>173.438922</ele>
        <time>2021-09-13T07:14:20.000Z</time>
      </trkpt>
      <trkpt lat="46.19647" lon="4.79073">
        <ele>173.344453</ele>
        <time>2021-09-13T07:14:27.000Z</time>
      </trkpt>
      <trkpt lat="46.19616" lon="4.79111">
        <ele>173.259941</ele>
        <time>2021-09-13T07:14:33.000Z</time>
      </trkpt>
      <trkpt lat="46.19581" lon="4.79153">
        <ele>173.188081</ele>
        <time>2021-09-13T07:14:40.000Z</time>
      </trkpt>
      <trkpt lat="46.19567" lon="4.7917">
        <ele>173.161546</ele>
        <time>2021-09-13T07:14:43.000Z</time>
      </trkpt>
      <trkpt lat="46.19559" lon="4.7918">
        <ele>173.145018</ele>
        <time>2021-09-13T07:14:45.000Z</time>
      </trkpt>
      <trkpt lat="46.19536" lon="4.79208">
        <ele>173.098553</ele>
        <time>2021-09-13T07:14:50.000Z</time>
      </trkpt>
      <trkpt lat="46.19513" lon="4.79235">
        <ele>173.053638</ele>
        <time>2021-09-13T07:14:55.000Z</time>
      </trkpt>
      <trkpt lat="46.19485" lon="4.79268">
        <ele>172.997604</ele>
        <time>2021-09-13T07:15:01.000Z</time>
      </trkpt>
      <trkpt lat="46.19445" lon="4.79317">
        <ele>172.913759</ele>
        <time>2021-09-13T07:15:09.000Z</time>
      </trkpt>
      <trkpt lat="46.1944" lon="4.79323">
        <ele>172.90336</ele>
        <time>2021-09-13T07:15:10.000Z</time>
      </trkpt>
      <trkpt lat="46.19414" lon="4.79353">
        <ele>172.849517</ele>
        <time>2021-09-13T07:15:15.000Z</time>
      </trkpt>
      <trkpt lat="46.19369" lon="4.79407">
        <ele>172.75442</ele>
        <time>2021-09-13T07:15:24.000Z</time>
      </trkpt>
      <trkpt lat="46.19346" lon="4.79435">
        <ele>172.70415</ele>
        <time>2021-09-13T07:15:29.000Z</time>
      </trkpt>
      <trkpt lat="46.19316" lon="4.79471">
        <ele>172.816848</ele>
        <time>2021-09-13T07:15:35.000Z</time>
      </trkpt>
      <trkpt lat="46.19292" lon="4.795">
        <ele>172.973234</ele>
        <time>2021-09-13T07:15:40.000Z</time>
      </trkpt>
      <trkpt lat="46.19287" lon="4.79505">
        <ele>173.004986</ele>
        <time>2021-09-13T07:15:41.000Z</time>
      </trkpt>
      <trkpt lat="46.1925" lon="4.79541">
        <ele>173.227559</ele>
        <time>2021-09-13T07:15:48.000Z</time>
      </trkpt>
      <trkpt lat="46.19216" lon="4.79578">
        <ele>173.443137</ele>
        <time>2021-09-13T07:15:55.000Z</time>
      </trkpt>
      <trkpt lat="46.19182" lon="4.79617">
        <ele>173.688034</ele>
        <time>2021-09-13T07:16:02.000Z</time>
      </trkpt>
      <trkpt lat="46.19154" lon="4.79648">
        <ele>173.92804</ele>
        <time>2021-09-13T07:16:08.000Z</time>
      </trkpt>
      <trkpt lat="46.19132" lon="4.79673">
        <ele>174.121923</ele>
        <time>2021-09-13T07:16:13.000Z</time>
      </trkpt>
      <trkpt lat="46.19118" lon="4.79689">
        <ele>174.242344</ele>
        <time>2021-09-13T07:16:16.000Z</time>
      </trkpt>
      <trkpt lat="46.1911" lon="4.79699">
        <ele>174.320281</ele>
        <time>2021-09-13T07:16:18.000Z</time>
      </trkpt>
      <trkpt lat="46.19087" lon="4.79725">
        <ele>174.516131</ele>
        <time>2021-09-13T07:16:23.000Z</time>
      </trkpt>
      <trkpt lat="46.19052" lon="4.79765">
        <ele>174.827337</ele>
        <time>2021-09-13T07:16:31.000Z</time>
      </trkpt>
      <trkpt lat="46.19043" lon="4.79776">
        <ele>174.879939</ele>
        <time>2021-09-13T07:16:33.000Z</time>
      </trkpt>
      <trkpt lat="46.19029" lon="4.79791">
        <ele>174.95763</ele>
        <time>2021-09-13T07:16:36.000Z</time>
      </trkpt>
      <trkpt lat="46.18991" lon="4.79835">
        <ele>175.183083</ele>
        <time>2021-09-13T07:16:44.000Z</time>
      </trkpt>
      <trkpt lat="46.18961" lon="4.79869">
        <ele>175.355576</ele>
        <time>2021-09-13T07:16:50.000Z</time>
      </trkpt>
      <trkpt lat="46.18933" lon="4.79901">
        <ele>175.518582</ele>
        <time>2021-09-13T07:16:56.000Z</time>
      </trkpt>
      <trkpt lat="46.189" lon="4.79941">
        <ele>175.676964</ele>
        <time>2021-09-13T07:17:03.000Z</time>
      </trkpt>
      <trkpt lat="46.1887" lon="4.79976">
        <ele>175.746786</ele>
        <time>2021-09-13T07:17:09.000Z</time>
      </trkpt>
      <trkpt lat="46.18841" lon="4.80011">
        <ele>175.816143</ele>
        <time>2021-09-13T07:17:15.000Z</time>
      </trkpt>
      <trkpt lat="46.18814" lon="4.80043">
        <ele>175.881419</ele>
        <time>2021-09-13T07:17:21.000Z</time>
      </trkpt>
      <trkpt lat="46.18809" lon="4.80049">
        <ele>175.892222</ele>
        <time>2021-09-13T07:17:22.000Z</time>
      </trkpt>
      <trkpt lat="46.18785" lon="4.80075">
        <ele>175.947702</ele>
        <time>2021-09-13T07:17:27.000Z</time>
      </trkpt>
      <trkpt lat="46.1878" lon="4.80081">
        <ele>175.959173</ele>
        <time>2021-09-13T07:17:28.000Z</time>
      </trkpt>
      <trkpt lat="46.18755" lon="4.80109">
        <ele>175.983906</ele>
        <time>2021-09-13T07:17:33.000Z</time>
      </trkpt>
      <trkpt lat="46.18736" lon="4.80132">
        <ele>175.990163</ele>
        <time>2021-09-13T07:17:37.000Z</time>
      </trkpt>
      <trkpt lat="46.18726" lon="4.80143">
        <ele>175.993332</ele>
        <time>2021-09-13T07:17:39.000Z</time>
      </trkpt>
      <trkpt lat="46.18702" lon="4.8017">
        <ele>176.000842</ele>
        <time>2021-09-13T07:17:44.000Z</time>
      </trkpt>
      <trkpt lat="46.18664" lon="4.80215">
        <ele>176.013078</ele>
        <time>2021-09-13T07:17:52.000Z</time>
      </trkpt>
      <trkpt lat="46.18641" lon="4.80242">
        <ele>176.020397</ele>
        <time>2021-09-13T07:17:57.000Z</time>
      </trkpt>
      <trkpt lat="46.18614" lon="4.80275">
        <ele>176.058172</ele>
        <time>2021-09-13T07:18:03.000Z</time>
      </trkpt>
      <trkpt lat="46.18605" lon="4.80286">
        <ele>176.076161</ele>
        <time>2021-09-13T07:18:05.000Z</time>
      </trkpt>
      <trkpt lat="46.18596" lon="4.80297">
        <ele>176.094037</ele>
        <time>2021-09-13T07:18:07.000Z</time>
      </trkpt>
      <trkpt lat="46.18563" lon="4.80337">
        <ele>176.15821</ele>
        <time>2021-09-13T07:18:14.000Z</time>
      </trkpt>
      <trkpt lat="46.18524" lon="4.80384">
        <ele>176.233523</ele>
        <time>2021-09-13T07:18:22.000Z</time>
      </trkpt>
      <trkpt lat="46.18489" lon="4.80422">
        <ele>176.298822</ele>
        <time>2021-09-13T07:18:29.000Z</time>
      </trkpt>
      <trkpt lat="46.18455" lon="4.80461">
        <ele>176.367361</ele>
        <time>2021-09-13T07:18:36.000Z</time>
      </trkpt>
      <trkpt lat="46.1845" lon="4.80466">
        <ele>176.377115</ele>
        <time>2021-09-13T07:18:37.000Z</time>
      </trkpt>
      <trkpt lat="46.18434" lon="4.80472">
        <ele>176.402959</ele>
        <time>2021-09-13T07:18:40.000Z</time>
      </trkpt>
      <trkpt lat="46.18428" lon="4.80487">
        <ele>176.422368</ele>
        <time>2021-09-13T07:18:42.000Z</time>
      </trkpt>
      <trkpt lat="46.1842" lon="4.80499">
        <ele>176.440195</ele>
        <time>2021-09-13T07:18:44.000Z</time>
      </trkpt>
      <trkpt lat="46.18412" lon="4.80508">
        <ele>176.456323</ele>
        <time>2021-09-13T07:18:46.000Z</time>
      </trkpt>
      <trkpt lat="46.184" lon="4.80522">
        <ele>176.481063</ele>
        <time>2021-09-13T07:18:49.000Z</time>
      </trkpt>
      <trkpt lat="46.18378" lon="4.80548">
        <ele>176.525592</ele>
        <time>2021-09-13T07:18:54.000Z</time>
      </trkpt>
      <trkpt lat="46.18374" lon="4.80553">
        <ele>176.534589</ele>
        <time>2021-09-13T07:18:55.000Z</time>
      </trkpt>
      <trkpt lat="46.18343" lon="4.80589">
        <ele>176.61016</ele>
        <time>2021-09-13T07:19:02.000Z</time>
      </trkpt>
      <trkpt lat="46.18318" lon="4.80619">
        <ele>176.695882</ele>
        <time>2021-09-13T07:19:08.000Z</time>
      </trkpt>
      <trkpt lat="46.18288" lon="4.80655">
        <ele>176.801325</ele>
        <time>2021-09-13T07:19:15.000Z</time>
      </trkpt>
      <trkpt lat="46.18275" lon="4.80671">
        <ele>176.8476</ele>
        <time>2021-09-13T07:19:18.000Z</time>
      </trkpt>
      <trkpt lat="46.18262" lon="4.80689">
        <ele>176.893698</ele>
        <time>2021-09-13T07:19:21.000Z</time>
      </trkpt>
      <trkpt lat="46.18239" lon="4.80729">
        <ele>176.988953</ele>
        <time>2021-09-13T07:19:27.000Z</time>
      </trkpt>
      <trkpt lat="46.18213" lon="4.80775">
        <ele>177.102046</ele>
        <time>2021-09-13T07:19:34.000Z</time>
      </trkpt>
      <trkpt lat="46.18188" lon="4.80821">
        <ele>177.218596</ele>
        <time>2021-09-13T07:19:41.000Z</time>
      </trkpt>
      <trkpt lat="46.1816" lon="4.80873">
        <ele>177.349452</ele>
        <time>2021-09-13T07:19:49.000Z</time>
      </trkpt>
      <trkpt lat="46.18138" lon="4.80918">
        <ele>177.458813</ele>
        <time>2021-09-13T07:19:56.000Z</time>
      </trkpt>
      <trkpt lat="46.18134" lon="4.80924">
        <ele>177.473984</ele>
        <time>2021-09-13T07:19:57.000Z</time>
      </trkpt>
      <trkpt lat="46.18122" lon="4.80949">
        <ele>177.534982</ele>
        <time>2021-09-13T07:20:01.000Z</time>
      </trkpt>
      <trkpt lat="46.18103" lon="4.80985">
        <ele>177.640692</ele>
        <time>2021-09-13T07:20:07.000Z</time>
      </trkpt>
      <trkpt lat="46.18084" lon="4.81021">
        <ele>177.752251</ele>
        <time>2021-09-13T07:20:13.000Z</time>
      </trkpt>
      <trkpt lat="46.18056" lon="4.81072">
        <ele>177.914709</ele>
        <time>2021-09-13T07:20:21.000Z</time>
      </trkpt>
      <trkpt lat="46.18052" lon="4.81078">
        <ele>177.935886</ele>
        <time>2021-09-13T07:20:22.000Z</time>
      </trkpt>
      <trkpt lat="46.18033" lon="4.8111">
        <ele>178.040953</ele>
        <time>2021-09-13T07:20:27.000Z</time>
      </trkpt>
      <trkpt lat="46.18007" lon="4.81156">
        <ele>178.191139</ele>
        <time>2021-09-13T07:20:34.000Z</time>
      </trkpt>
      <trkpt lat="46.17978" lon="4.8121">
        <ele>178.363876</ele>
        <time>2021-09-13T07:20:42.000Z</time>
      </trkpt>
      <trkpt lat="46.17963" lon="4.81241">
        <ele>178.456718</ele>
        <time>2021-09-13T07:20:47.000Z</time>
      </trkpt>
      <trkpt lat="46.17961" lon="4.81247">
        <ele>178.472996</ele>
        <time>2021-09-13T07:20:48.000Z</time>
      </trkpt>
      <trkpt lat="46.17953" lon="4.81262">
        <ele>178.522206</ele>
        <time>2021-09-13T07:20:52.000Z</time>
      </trkpt>
      <trkpt lat="46.17952" lon="4.81264">
        <ele>178.528383</ele>
        <time>2021-09-13T07:20:55.000Z</time>
      </trkpt>
      <trkpt lat="46.17949" lon="4.8127">
        <ele>178.545274</ele>
        <time>2021-09-13T07:21:01.000Z</time>
      </trkpt>
      <trkpt lat="46.1794" lon="4.81288">
        <ele>178.601694</ele>
        <time>2021-09-13T07:21:05.000Z</time>
      </trkpt>
      <trkpt lat="46.17921" lon="4.81325">
        <ele>178.717623</ele>
        <time>2021-09-13T07:21:11.000Z</time>
      </trkpt>
      <trkpt lat="46.17894" lon="4.81376">
        <ele>178.8841</ele>
        <time>2021-09-13T07:21:19.000Z</time>
      </trkpt>
      <trkpt lat="46.17867" lon="4.81426">
        <ele>179.152068</ele>
        <time>2021-09-13T07:21:27.000Z</time>
      </trkpt>
      <trkpt lat="46.17847" lon="4.81463">
        <ele>179.347821</ele>
        <time>2021-09-13T07:21:33.000Z</time>
      </trkpt>
      <trkpt lat="46.17844" lon="4.81468">
        <ele>179.378164</ele>
        <time>2021-09-13T07:21:34.000Z</time>
      </trkpt>
      <trkpt lat="46.17832" lon="4.81492">
        <ele>179.503751</ele>
        <time>2021-09-13T07:21:38.000Z</time>
      </trkpt>
      <trkpt lat="46.17826" lon="4.81504">
        <ele>179.565854</ele>
        <time>2021-09-13T07:21:40.000Z</time>
      </trkpt>
      <trkpt lat="46.17808" lon="4.81537">
        <ele>179.744139</ele>
        <time>2021-09-13T07:21:46.000Z</time>
      </trkpt>
      <trkpt lat="46.17805" lon="4.81542">
        <ele>179.774146</ele>
        <time>2021-09-13T07:21:47.000Z</time>
      </trkpt>
      <trkpt lat="46.17802" lon="4.81548">
        <ele>179.804153</ele>
        <time>2021-09-13T07:21:48.000Z</time>
      </trkpt>
      <trkpt lat="46.17791" lon="4.8157">
        <ele>179.917405</ele>
        <time>2021-09-13T07:21:52.000Z</time>
      </trkpt>
      <trkpt lat="46.17789" lon="4.81576">
        <ele>179.944324</ele>
        <time>2021-09-13T07:21:53.000Z</time>
      </trkpt>
      <trkpt lat="46.17776" lon="4.81609">
        <ele>180.30866</ele>
        <time>2021-09-13T07:22:00.000Z</time>
      </trkpt>
      <trkpt lat="46.17765" lon="4.81615">
        <ele>180.482414</ele>
        <time>2021-09-13T07:22:04.000Z</time>
      </trkpt>
      <trkpt lat="46.17759" lon="4.81618">
        <ele>180.571017</ele>
        <time>2021-09-13T07:22:06.000Z</time>
      </trkpt>
      <trkpt lat="46.17759" lon="4.81622">
        <ele>180.61602</ele>
        <time>2021-09-13T07:22:07.000Z</time>
      </trkpt>
      <trkpt lat="46.17754" lon="4.81641">
        <ele>180.82517</ele>
        <time>2021-09-13T07:22:11.000Z</time>
      </trkpt>
      <trkpt lat="46.17753" lon="4.81647">
        <ele>180.888451</ele>
        <time>2021-09-13T07:22:12.000Z</time>
      </trkpt>
      <trkpt lat="46.17743" lon="4.81688">
        <ele>181.339811</ele>
        <time>2021-09-13T07:22:19.000Z</time>
      </trkpt>
      <trkpt lat="46.17741" lon="4.81693">
        <ele>181.406446</ele>
        <time>2021-09-13T07:22:20.000Z</time>
      </trkpt>
      <trkpt lat="46.17731" lon="4.81719">
        <ele>181.719471</ele>
        <time>2021-09-13T07:22:25.000Z</time>
      </trkpt>
      <trkpt lat="46.17729" lon="4.81724">
        <ele>181.777509</ele>
        <time>2021-09-13T07:22:26.000Z</time>
      </trkpt>
      <trkpt lat="46.17727" lon="4.81729">
        <ele>181.833707</ele>
        <time>2021-09-13T07:22:29.000Z</time>
      </trkpt>
      <trkpt lat="46.17728" lon="4.81728">
        <ele>181.841451</ele>
        <time>2021-09-13T07:22:34.000Z</time>
      </trkpt>
      <trkpt lat="46.17726" lon="4.81733">
        <ele>181.901869</ele>
        <time>2021-09-13T07:27:08.000Z</time>
      </trkpt>
      <trkpt lat="46.1772" lon="4.81748">
        <ele>182.076696</ele>
        <time>2021-09-13T07:27:12.000Z</time>
      </trkpt>
      <trkpt lat="46.17711" lon="4.81767">
        <ele>182.320335</ele>
        <time>2021-09-13T07:27:16.000Z</time>
      </trkpt>
      <trkpt lat="46.17705" lon="4.81776">
        <ele>182.451541</ele>
        <time>2021-09-13T07:27:18.000Z</time>
      </trkpt>
      <trkpt lat="46.17694" lon="4.81793">
        <ele>182.688645</ele>
        <time>2021-09-13T07:27:22.000Z</time>
      </trkpt>
      <trkpt lat="46.17691" lon="4.81804">
        <ele>182.675548</ele>
        <time>2021-09-13T07:27:24.000Z</time>
      </trkpt>
      <trkpt lat="46.1769" lon="4.81809">
        <ele>182.669196</ele>
        <time>2021-09-13T07:27:25.000Z</time>
      </trkpt>
      <trkpt lat="46.17688" lon="4.81833">
        <ele>182.642294</ele>
        <time>2021-09-13T07:27:30.000Z</time>
      </trkpt>
      <trkpt lat="46.17688" lon="4.81834">
        <ele>182.641051</ele>
        <time>2021-09-13T07:27:33.000Z</time>
      </trkpt>
      <trkpt lat="46.17683" lon="4.81841">
        <ele>182.630506</ele>
        <time>2021-09-13T07:27:38.000Z</time>
      </trkpt>
      <trkpt lat="46.17669" lon="4.81842">
        <ele>182.608108</ele>
        <time>2021-09-13T07:27:42.000Z</time>
      </trkpt>
      <trkpt lat="46.17646" lon="4.81846">
        <ele>182.570536</ele>
        <time>2021-09-13T07:27:47.000Z</time>
      </trkpt>
      <trkpt lat="46.17641" lon="4.81847">
        <ele>182.562217</ele>
        <time>2021-09-13T07:27:48.000Z</time>
      </trkpt>
      <trkpt lat="46.17603" lon="4.81854">
        <ele>182.499258</ele>
        <time>2021-09-13T07:27:56.000Z</time>
      </trkpt>
      <trkpt lat="46.17589" lon="4.81857">
        <ele>182.477849</ele>
        <time>2021-09-13T07:27:59.000Z</time>
      </trkpt>
      <trkpt lat="46.17577" lon="4.81859">
        <ele>182.457499</ele>
        <time>2021-09-13T07:28:02.000Z</time>
      </trkpt>
      <trkpt lat="46.17569" lon="4.8186">
        <ele>182.444477</ele>
        <time>2021-09-13T07:28:04.000Z</time>
      </trkpt>
      <trkpt lat="46.17553" lon="4.81863">
        <ele>182.417938</ele>
        <time>2021-09-13T07:28:08.000Z</time>
      </trkpt>
      <trkpt lat="46.17538" lon="4.81865">
        <ele>182.393856</ele>
        <time>2021-09-13T07:28:11.000Z</time>
      </trkpt>
      <trkpt lat="46.17523" lon="4.81867">
        <ele>182.366425</ele>
        <time>2021-09-13T07:28:14.000Z</time>
      </trkpt>
      <trkpt lat="46.17494" lon="4.81871">
        <ele>182.312347</ele>
        <time>2021-09-13T07:28:20.000Z</time>
      </trkpt>
      <trkpt lat="46.17453" lon="4.81875">
        <ele>182.236056</ele>
        <time>2021-09-13T07:28:27.000Z</time>
      </trkpt>
      <trkpt lat="46.17398" lon="4.81881">
        <ele>182.135117</ele>
        <time>2021-09-13T07:28:36.000Z</time>
      </trkpt>
      <trkpt lat="46.17363" lon="4.81891">
        <ele>182.068875</ele>
        <time>2021-09-13T07:28:42.000Z</time>
      </trkpt>
      <trkpt lat="46.17326" lon="4.81906">
        <ele>182.122638</ele>
        <time>2021-09-13T07:28:49.000Z</time>
      </trkpt>
      <trkpt lat="46.17291" lon="4.81924">
        <ele>182.177606</ele>
        <time>2021-09-13T07:28:56.000Z</time>
      </trkpt>
      <trkpt lat="46.17272" lon="4.81933">
        <ele>182.208411</ele>
        <time>2021-09-13T07:29:01.000Z</time>
      </trkpt>
      <trkpt lat="46.17256" lon="4.81942">
        <ele>182.234531</ele>
        <time>2021-09-13T07:29:05.000Z</time>
      </trkpt>
      <trkpt lat="46.17251" lon="4.81945">
        <ele>182.242523</ele>
        <time>2021-09-13T07:29:06.000Z</time>
      </trkpt>
      <trkpt lat="46.17217" lon="4.81965">
        <ele>182.297249</ele>
        <time>2021-09-13T07:29:12.000Z</time>
      </trkpt>
      <trkpt lat="46.17176" lon="4.81983">
        <ele>182.492589</ele>
        <time>2021-09-13T07:29:19.000Z</time>
      </trkpt>
      <trkpt lat="46.17158" lon="4.81988">
        <ele>182.657473</ele>
        <time>2021-09-13T07:29:22.000Z</time>
      </trkpt>
      <trkpt lat="46.17146" lon="4.8199">
        <ele>182.766925</ele>
        <time>2021-09-13T07:29:24.000Z</time>
      </trkpt>
      <trkpt lat="46.17117" lon="4.81992">
        <ele>183.033718</ele>
        <time>2021-09-13T07:29:29.000Z</time>
      </trkpt>
      <trkpt lat="46.17106" lon="4.81991">
        <ele>183.140354</ele>
        <time>2021-09-13T07:29:31.000Z</time>
      </trkpt>
      <trkpt lat="46.1706" lon="4.81987">
        <ele>183.558576</ele>
        <time>2021-09-13T07:29:39.000Z</time>
      </trkpt>
      <trkpt lat="46.17032" lon="4.81984">
        <ele>183.817892</ele>
        <time>2021-09-13T07:29:45.000Z</time>
      </trkpt>
      <trkpt lat="46.17001" lon="4.8198">
        <ele>184.149741</ele>
        <time>2021-09-13T07:29:52.000Z</time>
      </trkpt>
      <trkpt lat="46.16965" lon="4.81975">
        <ele>184.636352</ele>
        <time>2021-09-13T07:30:01.000Z</time>
      </trkpt>
      <trkpt lat="46.16948" lon="4.81971">
        <ele>184.871044</ele>
        <time>2021-09-13T07:30:06.000Z</time>
      </trkpt>
      <trkpt lat="46.16946" lon="4.81971">
        <ele>184.888621</ele>
        <time>2021-09-13T07:30:09.000Z</time>
      </trkpt>
      <trkpt lat="46.16943" lon="4.81958">
        <ele>185.017726</ele>
        <time>2021-09-13T07:30:20.000Z</time>
      </trkpt>
      <trkpt lat="46.16944" lon="4.81955">
        <ele>185.04768</ele>
        <time>2021-09-13T07:30:22.000Z</time>
      </trkpt>
      <trkpt lat="46.1693" lon="4.8193">
        <ele>185.344243</ele>
        <time>2021-09-13T07:30:27.000Z</time>
      </trkpt>
      <trkpt lat="46.16921" lon="4.81929">
        <ele>185.463589</ele>
        <time>2021-09-13T07:30:29.000Z</time>
      </trkpt>
      <trkpt lat="46.16916" lon="4.81931">
        <ele>185.526732</ele>
        <time>2021-09-13T07:30:30.000Z</time>
      </trkpt>
      <trkpt lat="46.16912" lon="4.81934">
        <ele>185.586083</ele>
        <time>2021-09-13T07:30:31.000Z</time>
      </trkpt>
      <trkpt lat="46.16898" lon="4.81938">
        <ele>185.784325</ele>
        <time>2021-09-13T07:30:34.000Z</time>
      </trkpt>
      <trkpt lat="46.16894" lon="4.81946">
        <ele>185.877068</ele>
        <time>2021-09-13T07:30:35.000Z</time>
      </trkpt>
      <trkpt lat="46.16879" lon="4.81935">
        <ele>186.093399</ele>
        <time>2021-09-13T07:30:38.000Z</time>
      </trkpt>
      <trkpt lat="46.16868" lon="4.81927">
        <ele>186.262766</ele>
        <time>2021-09-13T07:30:40.000Z</time>
      </trkpt>
      <trkpt lat="46.16834" lon="4.819">
        <ele>186.308093</ele>
        <time>2021-09-13T07:30:46.000Z</time>
      </trkpt>
      <trkpt lat="46.16787" lon="4.81871">
        <ele>186.164295</ele>
        <time>2021-09-13T07:30:53.000Z</time>
      </trkpt>
      <trkpt lat="46.1674" lon="4.81843">
        <ele>186.018169</ele>
        <time>2021-09-13T07:31:00.000Z</time>
      </trkpt>
      <trkpt lat="46.16693" lon="4.81816">
        <ele>185.868536</ele>
        <time>2021-09-13T07:31:07.000Z</time>
      </trkpt>
      <trkpt lat="46.16647" lon="4.81789">
        <ele>185.500202</ele>
        <time>2021-09-13T07:31:14.000Z</time>
      </trkpt>
      <trkpt lat="46.166" lon="4.81758">
        <ele>185.122077</ele>
        <time>2021-09-13T07:31:21.000Z</time>
      </trkpt>
      <trkpt lat="46.16558" lon="4.81724">
        <ele>184.769233</ele>
        <time>2021-09-13T07:31:27.000Z</time>
      </trkpt>
      <trkpt lat="46.16506" lon="4.81681">
        <ele>184.199812</ele>
        <time>2021-09-13T07:31:35.000Z</time>
      </trkpt>
      <trkpt lat="46.16468" lon="4.81651">
        <ele>183.713643</ele>
        <time>2021-09-13T07:31:41.000Z</time>
      </trkpt>
      <trkpt lat="46.16418" lon="4.81618">
        <ele>183.095202</ele>
        <time>2021-09-13T07:31:48.000Z</time>
      </trkpt>
      <trkpt lat="46.16361" lon="4.8159">
        <ele>182.457314</ele>
        <time>2021-09-13T07:31:56.000Z</time>
      </trkpt>
      <trkpt lat="46.16312" lon="4.81572">
        <ele>182.059108</ele>
        <time>2021-09-13T07:32:03.000Z</time>
      </trkpt>
      <trkpt lat="46.16256" lon="4.81561">
        <ele>181.61711</ele>
        <time>2021-09-13T07:32:11.000Z</time>
      </trkpt>
      <trkpt lat="46.16249" lon="4.8156">
        <ele>181.561804</ele>
        <time>2021-09-13T07:32:12.000Z</time>
      </trkpt>
      <trkpt lat="46.16194" lon="4.8155">
        <ele>181.122412</ele>
        <time>2021-09-13T07:32:20.000Z</time>
      </trkpt>
      <trkpt lat="46.16187" lon="4.8155">
        <ele>181.088452</ele>
        <time>2021-09-13T07:32:21.000Z</time>
      </trkpt>
      <trkpt lat="46.16146" lon="4.81554">
        <ele>180.886813</ele>
        <time>2021-09-13T07:32:27.000Z</time>
      </trkpt>
      <trkpt lat="46.16094" lon="4.81576">
        <ele>180.619455</ele>
        <time>2021-09-13T07:32:35.000Z</time>
      </trkpt>
      <trkpt lat="46.16087" lon="4.81579">
        <ele>180.586812</ele>
        <time>2021-09-13T07:32:36.000Z</time>
      </trkpt>
      <trkpt lat="46.16037" lon="4.81604">
        <ele>180.326481</ele>
        <time>2021-09-13T07:32:44.000Z</time>
      </trkpt>
      <trkpt lat="46.15997" lon="4.81623">
        <ele>180.204585</ele>
        <time>2021-09-13T07:32:51.000Z</time>
      </trkpt>
      <trkpt lat="46.15964" lon="4.81631">
        <ele>180.156982</ele>
        <time>2021-09-13T07:32:57.000Z</time>
      </trkpt>
      <trkpt lat="46.1592" lon="4.81639">
        <ele>180.094426</ele>
        <time>2021-09-13T07:33:05.000Z</time>
      </trkpt>
      <trkpt lat="46.15911" lon="4.81642">
        <ele>180.080533</ele>
        <time>2021-09-13T07:33:07.000Z</time>
      </trkpt>
      <trkpt lat="46.15891" lon="4.81647">
        <ele>180.051754</ele>
        <time>2021-09-13T07:33:11.000Z</time>
      </trkpt>
      <trkpt lat="46.15856" lon="4.81663">
        <ele>180.000044</ele>
        <time>2021-09-13T07:33:18.000Z</time>
      </trkpt>
      <trkpt lat="46.15831" lon="4.81674">
        <ele>180.090717</ele>
        <time>2021-09-13T07:33:23.000Z</time>
      </trkpt>
      <trkpt lat="46.15826" lon="4.81676">
        <ele>180.125914</ele>
        <time>2021-09-13T07:33:24.000Z</time>
      </trkpt>
      <trkpt lat="46.15796" lon="4.81679">
        <ele>180.348617</ele>
        <time>2021-09-13T07:33:30.000Z</time>
      </trkpt>
      <trkpt lat="46.15767" lon="4.81681">
        <ele>180.557395</ele>
        <time>2021-09-13T07:33:36.000Z</time>
      </trkpt>
      <trkpt lat="46.15746" lon="4.81683">
        <ele>180.707264</ele>
        <time>2021-09-13T07:33:40.000Z</time>
      </trkpt>
      <trkpt lat="46.15741" lon="4.81683">
        <ele>180.744362</ele>
        <time>2021-09-13T07:33:41.000Z</time>
      </trkpt>
      <trkpt lat="46.1572" lon="4.81685">
        <ele>180.897131</ele>
        <time>2021-09-13T07:33:45.000Z</time>
      </trkpt>
      <trkpt lat="46.1571" lon="4.81685">
        <ele>180.970518</ele>
        <time>2021-09-13T07:33:47.000Z</time>
      </trkpt>
      <trkpt lat="46.15688" lon="4.81684">
        <ele>181.129664</ele>
        <time>2021-09-13T07:33:51.000Z</time>
      </trkpt>
      <trkpt lat="46.15682" lon="4.81683">
        <ele>181.171819</ele>
        <time>2021-09-13T07:33:52.000Z</time>
      </trkpt>
      <trkpt lat="46.15676" lon="4.81683">
        <ele>181.216151</ele>
        <time>2021-09-13T07:33:53.000Z</time>
      </trkpt>
      <trkpt lat="46.15659" lon="4.81679">
        <ele>181.317867</ele>
        <time>2021-09-13T07:33:56.000Z</time>
      </trkpt>
      <trkpt lat="46.1563" lon="4.81671">
        <ele>181.430168</ele>
        <time>2021-09-13T07:34:01.000Z</time>
      </trkpt>
      <trkpt lat="46.15624" lon="4.81669">
        <ele>181.453632</ele>
        <time>2021-09-13T07:34:02.000Z</time>
      </trkpt>
      <trkpt lat="46.15605" lon="4.81663">
        <ele>181.524338</ele>
        <time>2021-09-13T07:34:05.000Z</time>
      </trkpt>
      <trkpt lat="46.15567" lon="4.81645">
        <ele>181.678062</ele>
        <time>2021-09-13T07:34:11.000Z</time>
      </trkpt>
      <trkpt lat="46.15518" lon="4.81618">
        <ele>181.876502</ele>
        <time>2021-09-13T07:34:19.000Z</time>
      </trkpt>
      <trkpt lat="46.15481" lon="4.81602">
        <ele>181.89414</ele>
        <time>2021-09-13T07:34:25.000Z</time>
      </trkpt>
      <trkpt lat="46.15445" lon="4.81588">
        <ele>181.67944</ele>
        <time>2021-09-13T07:34:31.000Z</time>
      </trkpt>
      <trkpt lat="46.15414" lon="4.81575">
        <ele>181.502889</ele>
        <time>2021-09-13T07:34:36.000Z</time>
      </trkpt>
      <trkpt lat="46.1539" lon="4.81561">
        <ele>181.353718</ele>
        <time>2021-09-13T07:34:40.000Z</time>
      </trkpt>
      <trkpt lat="46.15378" lon="4.81551">
        <ele>181.278627</ele>
        <time>2021-09-13T07:34:42.000Z</time>
      </trkpt>
      <trkpt lat="46.15337" lon="4.81516">
        <ele>181.01031</ele>
        <time>2021-09-13T07:34:49.000Z</time>
      </trkpt>
      <trkpt lat="46.15305" lon="4.81489">
        <ele>180.70704</ele>
        <time>2021-09-13T07:34:55.000Z</time>
      </trkpt>
      <trkpt lat="46.15283" lon="4.8147">
        <ele>180.477837</ele>
        <time>2021-09-13T07:34:59.000Z</time>
      </trkpt>
      <trkpt lat="46.15259" lon="4.8145">
        <ele>180.227727</ele>
        <time>2021-09-13T07:35:03.000Z</time>
      </trkpt>
      <trkpt lat="46.15215" lon="4.81412">
        <ele>179.768545</ele>
        <time>2021-09-13T07:35:10.000Z</time>
      </trkpt>
      <trkpt lat="46.15164" lon="4.81366">
        <ele>179.273227</ele>
        <time>2021-09-13T07:35:18.000Z</time>
      </trkpt>
      <trkpt lat="46.15122" lon="4.81322">
        <ele>179.015507</ele>
        <time>2021-09-13T07:35:25.000Z</time>
      </trkpt>
      <trkpt lat="46.15077" lon="4.81268">
        <ele>178.722766</ele>
        <time>2021-09-13T07:35:33.000Z</time>
      </trkpt>
      <trkpt lat="46.15029" lon="4.81211">
        <ele>178.445601</ele>
        <time>2021-09-13T07:35:42.000Z</time>
      </trkpt>
      <trkpt lat="46.15023" lon="4.81205">
        <ele>178.455913</ele>
        <time>2021-09-13T07:35:43.000Z</time>
      </trkpt>
      <trkpt lat="46.14978" lon="4.81158">
        <ele>178.537754</ele>
        <time>2021-09-13T07:35:51.000Z</time>
      </trkpt>
      <trkpt lat="46.14944" lon="4.81125">
        <ele>178.599385</ele>
        <time>2021-09-13T07:35:57.000Z</time>
      </trkpt>
      <trkpt lat="46.14897" lon="4.81085">
        <ele>178.678988</ele>
        <time>2021-09-13T07:36:05.000Z</time>
      </trkpt>
      <trkpt lat="46.14849" lon="4.81056">
        <ele>178.658167</ele>
        <time>2021-09-13T07:36:13.000Z</time>
      </trkpt>
      <trkpt lat="46.14807" lon="4.81031">
        <ele>178.600574</ele>
        <time>2021-09-13T07:36:20.000Z</time>
      </trkpt>
      <trkpt lat="46.14751" lon="4.80998">
        <ele>178.5253</ele>
        <time>2021-09-13T07:36:29.000Z</time>
      </trkpt>
      <trkpt lat="46.14702" lon="4.80967">
        <ele>178.480272</ele>
        <time>2021-09-13T07:36:37.000Z</time>
      </trkpt>
      <trkpt lat="46.1466" lon="4.80953">
        <ele>178.488718</ele>
        <time>2021-09-13T07:36:44.000Z</time>
      </trkpt>
      <trkpt lat="46.14608" lon="4.80938">
        <ele>178.498981</ele>
        <time>2021-09-13T07:36:53.000Z</time>
      </trkpt>
      <trkpt lat="46.1456" lon="4.80914">
        <ele>178.508679</ele>
        <time>2021-09-13T07:37:02.000Z</time>
      </trkpt>
      <trkpt lat="46.14513" lon="4.80889">
        <ele>178.723688</ele>
        <time>2021-09-13T07:37:11.000Z</time>
      </trkpt>
      <trkpt lat="46.14462" lon="4.80862">
        <ele>179.079761</ele>
        <time>2021-09-13T07:37:21.000Z</time>
      </trkpt>
      <trkpt lat="46.14457" lon="4.8086">
        <ele>179.116523</ele>
        <time>2021-09-13T07:37:22.000Z</time>
      </trkpt>
      <trkpt lat="46.14408" lon="4.80834">
        <ele>179.457984</ele>
        <time>2021-09-13T07:37:32.000Z</time>
      </trkpt>
      <trkpt lat="46.14354" lon="4.80807">
        <ele>179.996404</ele>
        <time>2021-09-13T07:37:43.000Z</time>
      </trkpt>
      <trkpt lat="46.14311" lon="4.80787">
        <ele>180.653385</ele>
        <time>2021-09-13T07:37:53.000Z</time>
      </trkpt>
      <trkpt lat="46.14278" lon="4.80772">
        <ele>181.14696</ele>
        <time>2021-09-13T07:38:01.000Z</time>
      </trkpt>
      <trkpt lat="46.14247" lon="4.80759">
        <ele>181.621249</ele>
        <time>2021-09-13T07:38:09.000Z</time>
      </trkpt>
      <trkpt lat="46.14206" lon="4.80743">
        <ele>182.233771</ele>
        <time>2021-09-13T07:38:19.000Z</time>
      </trkpt>
      <trkpt lat="46.14169" lon="4.80728">
        <ele>182.87151</ele>
        <time>2021-09-13T07:38:28.000Z</time>
      </trkpt>
      <trkpt lat="46.14136" lon="4.80715">
        <ele>183.451008</ele>
        <time>2021-09-13T07:38:36.000Z</time>
      </trkpt>
      <trkpt lat="46.14106" lon="4.80703">
        <ele>183.981591</ele>
        <time>2021-09-13T07:38:43.000Z</time>
      </trkpt>
      <trkpt lat="46.14072" lon="4.80689">
        <ele>184.566964</ele>
        <time>2021-09-13T07:38:50.000Z</time>
      </trkpt>
      <trkpt lat="46.14032" lon="4.80673">
        <ele>185.272125</ele>
        <time>2021-09-13T07:38:58.000Z</time>
      </trkpt>
      <trkpt lat="46.13995" lon="4.80652">
        <ele>185.482644</ele>
        <time>2021-09-13T07:39:05.000Z</time>
      </trkpt>
      <trkpt lat="46.13957" lon="4.8063">
        <ele>185.670325</ele>
        <time>2021-09-13T07:39:12.000Z</time>
      </trkpt>
      <trkpt lat="46.13918" lon="4.80605">
        <ele>185.864603</ele>
        <time>2021-09-13T07:39:19.000Z</time>
      </trkpt>
      <trkpt lat="46.13882" lon="4.80577">
        <ele>186.048569</ele>
        <time>2021-09-13T07:39:25.000Z</time>
      </trkpt>
      <trkpt lat="46.13867" lon="4.80559">
        <ele>186.128131</ele>
        <time>2021-09-13T07:39:28.000Z</time>
      </trkpt>
      <trkpt lat="46.13829" lon="4.80515">
        <ele>185.775215</ele>
        <time>2021-09-13T07:39:35.000Z</time>
      </trkpt>
      <trkpt lat="46.13801" lon="4.8048">
        <ele>185.501566</ele>
        <time>2021-09-13T07:39:40.000Z</time>
      </trkpt>
      <trkpt lat="46.13759" lon="4.80429">
        <ele>185.103202</ele>
        <time>2021-09-13T07:39:47.000Z</time>
      </trkpt>
      <trkpt lat="46.13753" lon="4.80422">
        <ele>185.046624</ele>
        <time>2021-09-13T07:39:48.000Z</time>
      </trkpt>
      <trkpt lat="46.13723" lon="4.80386">
        <ele>184.829519</ele>
        <time>2021-09-13T07:39:53.000Z</time>
      </trkpt>
      <trkpt lat="46.13693" lon="4.80352">
        <ele>184.851768</ele>
        <time>2021-09-13T07:39:58.000Z</time>
      </trkpt>
      <trkpt lat="46.13688" lon="4.80346">
        <ele>184.855845</ele>
        <time>2021-09-13T07:39:59.000Z</time>
      </trkpt>
      <trkpt lat="46.13656" lon="4.80309">
        <ele>184.880133</ele>
        <time>2021-09-13T07:40:05.000Z</time>
      </trkpt>
      <trkpt lat="46.13612" lon="4.80259">
        <ele>184.913194</ele>
        <time>2021-09-13T07:40:13.000Z</time>
      </trkpt>
      <trkpt lat="46.13571" lon="4.80206">
        <ele>184.898762</ele>
        <time>2021-09-13T07:40:21.000Z</time>
      </trkpt>
      <trkpt lat="46.13537" lon="4.80156">
        <ele>184.83592</ele>
        <time>2021-09-13T07:40:28.000Z</time>
      </trkpt>
      <trkpt lat="46.13508" lon="4.8011">
        <ele>184.780689</ele>
        <time>2021-09-13T07:40:34.000Z</time>
      </trkpt>
      <trkpt lat="46.13469" lon="4.8005">
        <ele>184.707592</ele>
        <time>2021-09-13T07:40:42.000Z</time>
      </trkpt>
      <trkpt lat="46.13464" lon="4.80042">
        <ele>184.696797</ele>
        <time>2021-09-13T07:40:43.000Z</time>
      </trkpt>
      <trkpt lat="46.13435" lon="4.79996">
        <ele>184.575807</ele>
        <time>2021-09-13T07:40:49.000Z</time>
      </trkpt>
      <trkpt lat="46.13394" lon="4.79933">
        <ele>184.410178</ele>
        <time>2021-09-13T07:40:57.000Z</time>
      </trkpt>
      <trkpt lat="46.13389" lon="4.79926">
        <ele>184.38998</ele>
        <time>2021-09-13T07:40:58.000Z</time>
      </trkpt>
      <trkpt lat="46.13355" lon="4.79873">
        <ele>184.250476</ele>
        <time>2021-09-13T07:41:05.000Z</time>
      </trkpt>
      <trkpt lat="46.13315" lon="4.79812">
        <ele>184.039386</ele>
        <time>2021-09-13T07:41:13.000Z</time>
      </trkpt>
      <trkpt lat="46.13279" lon="4.79758">
        <ele>183.834213</ele>
        <time>2021-09-13T07:41:20.000Z</time>
      </trkpt>
      <trkpt lat="46.13249" lon="4.79713">
        <ele>183.661305</ele>
        <time>2021-09-13T07:41:26.000Z</time>
      </trkpt>
      <trkpt lat="46.13209" lon="4.79654">
        <ele>183.414912</ele>
        <time>2021-09-13T07:41:34.000Z</time>
      </trkpt>
      <trkpt lat="46.13195" lon="4.79632">
        <ele>183.302987</ele>
        <time>2021-09-13T07:41:37.000Z</time>
      </trkpt>
      <trkpt lat="46.13155" lon="4.7958">
        <ele>183.013786</ele>
        <time>2021-09-13T07:41:45.000Z</time>
      </trkpt>
      <trkpt lat="46.13144" lon="4.79568">
        <ele>182.942271</ele>
        <time>2021-09-13T07:41:47.000Z</time>
      </trkpt>
      <trkpt lat="46.13098" lon="4.79516">
        <ele>182.628863</ele>
        <time>2021-09-13T07:41:56.000Z</time>
      </trkpt>
      <trkpt lat="46.13058" lon="4.79478">
        <ele>182.457176</ele>
        <time>2021-09-13T07:42:04.000Z</time>
      </trkpt>
      <trkpt lat="46.13008" lon="4.79433">
        <ele>182.332158</ele>
        <time>2021-09-13T07:42:14.000Z</time>
      </trkpt>
      <trkpt lat="46.12968" lon="4.79396">
        <ele>182.232911</ele>
        <time>2021-09-13T07:42:22.000Z</time>
      </trkpt>
      <trkpt lat="46.12921" lon="4.79353">
        <ele>182.181603</ele>
        <time>2021-09-13T07:42:32.000Z</time>
      </trkpt>
      <trkpt lat="46.12893" lon="4.79329">
        <ele>182.346354</ele>
        <time>2021-09-13T07:42:39.000Z</time>
      </trkpt>
      <trkpt lat="46.12863" lon="4.79304">
        <ele>182.521861</ele>
        <time>2021-09-13T07:42:47.000Z</time>
      </trkpt>
      <trkpt lat="46.12837" lon="4.79283">
        <ele>182.670902</ele>
        <time>2021-09-13T07:42:54.000Z</time>
      </trkpt>
      <trkpt lat="46.12813" lon="4.79264">
        <ele>182.806015</ele>
        <time>2021-09-13T07:43:01.000Z</time>
      </trkpt>
      <trkpt lat="46.12779" lon="4.79235">
        <ele>183.004765</ele>
        <time>2021-09-13T07:43:11.000Z</time>
      </trkpt>
      <trkpt lat="46.12747" lon="4.79206">
        <ele>183.107283</ele>
        <time>2021-09-13T07:43:19.000Z</time>
      </trkpt>
      <trkpt lat="46.1271" lon="4.79173">
        <ele>183.205248</ele>
        <time>2021-09-13T07:43:27.000Z</time>
      </trkpt>
      <trkpt lat="46.12666" lon="4.79136">
        <ele>183.318005</ele>
        <time>2021-09-13T07:43:35.000Z</time>
      </trkpt>
      <trkpt lat="46.1262" lon="4.79096">
        <ele>183.437977</ele>
        <time>2021-09-13T07:43:43.000Z</time>
      </trkpt>
      <trkpt lat="46.12574" lon="4.79057">
        <ele>183.369753</ele>
        <time>2021-09-13T07:43:51.000Z</time>
      </trkpt>
      <trkpt lat="46.12525" lon="4.79018">
        <ele>183.296868</ele>
        <time>2021-09-13T07:44:00.000Z</time>
      </trkpt>
      <trkpt lat="46.12481" lon="4.78983">
        <ele>183.230774</ele>
        <time>2021-09-13T07:44:08.000Z</time>
      </trkpt>
      <trkpt lat="46.12439" lon="4.78951">
        <ele>183.270573</ele>
        <time>2021-09-13T07:44:16.000Z</time>
      </trkpt>
      <trkpt lat="46.12408" lon="4.78926">
        <ele>183.362595</ele>
        <time>2021-09-13T07:44:22.000Z</time>
      </trkpt>
      <trkpt lat="46.12374" lon="4.789">
        <ele>183.459691</ele>
        <time>2021-09-13T07:44:28.000Z</time>
      </trkpt>
      <trkpt lat="46.12346" lon="4.78877">
        <ele>183.542173</ele>
        <time>2021-09-13T07:44:33.000Z</time>
      </trkpt>
      <trkpt lat="46.12318" lon="4.78857">
        <ele>183.621162</ele>
        <time>2021-09-13T07:44:38.000Z</time>
      </trkpt>
      <trkpt lat="46.12273" lon="4.78841">
        <ele>183.749539</ele>
        <time>2021-09-13T07:44:46.000Z</time>
      </trkpt>
      <trkpt lat="46.12227" lon="4.78826">
        <ele>183.883753</ele>
        <time>2021-09-13T07:44:54.000Z</time>
      </trkpt>
      <trkpt lat="46.12183" lon="4.78801">
        <ele>184.018809</ele>
        <time>2021-09-13T07:45:02.000Z</time>
      </trkpt>
      <trkpt lat="46.12145" lon="4.78777">
        <ele>184.137026</ele>
        <time>2021-09-13T07:45:10.000Z</time>
      </trkpt>
      <trkpt lat="46.12109" lon="4.78759">
        <ele>184.444709</ele>
        <time>2021-09-13T07:45:18.000Z</time>
      </trkpt>
      <trkpt lat="46.12077" lon="4.78744">
        <ele>184.80251</ele>
        <time>2021-09-13T07:45:25.000Z</time>
      </trkpt>
      <trkpt lat="46.12047" lon="4.78731">
        <ele>185.138654</ele>
        <time>2021-09-13T07:45:32.000Z</time>
      </trkpt>
      <trkpt lat="46.12043" lon="4.78729">
        <ele>185.183865</ele>
        <time>2021-09-13T07:45:33.000Z</time>
      </trkpt>
      <trkpt lat="46.12012" lon="4.7871">
        <ele>185.553138</ele>
        <time>2021-09-13T07:45:41.000Z</time>
      </trkpt>
      <trkpt lat="46.11986" lon="4.78692">
        <ele>185.864313</ele>
        <time>2021-09-13T07:45:48.000Z</time>
      </trkpt>
      <trkpt lat="46.1195" lon="4.78667">
        <ele>186.185154</ele>
        <time>2021-09-13T07:45:57.000Z</time>
      </trkpt>
      <trkpt lat="46.11915" lon="4.78644">
        <ele>186.348134</ele>
        <time>2021-09-13T07:46:04.000Z</time>
      </trkpt>
      <trkpt lat="46.11872" lon="4.78612">
        <ele>186.5519</ele>
        <time>2021-09-13T07:46:12.000Z</time>
      </trkpt>
      <trkpt lat="46.11857" lon="4.78598">
        <ele>186.627011</ele>
        <time>2021-09-13T07:46:15.000Z</time>
      </trkpt>
      <trkpt lat="46.11843" lon="4.78582">
        <ele>186.701876</ele>
        <time>2021-09-13T07:46:18.000Z</time>
      </trkpt>
      <trkpt lat="46.11834" lon="4.78571">
        <ele>186.752058</ele>
        <time>2021-09-13T07:46:20.000Z</time>
      </trkpt>
      <trkpt lat="46.11815" lon="4.78551">
        <ele>186.849487</ele>
        <time>2021-09-13T07:46:24.000Z</time>
      </trkpt>
      <trkpt lat="46.11774" lon="4.78513">
        <ele>187.001521</ele>
        <time>2021-09-13T07:46:33.000Z</time>
      </trkpt>
      <trkpt lat="46.11729" lon="4.78486">
        <ele>187.145621</ele>
        <time>2021-09-13T07:46:42.000Z</time>
      </trkpt>
      <trkpt lat="46.11681" lon="4.7846">
        <ele>187.295562</ele>
        <time>2021-09-13T07:46:51.000Z</time>
      </trkpt>
      <trkpt lat="46.11647" lon="4.78441">
        <ele>187.401981</ele>
        <time>2021-09-13T07:46:58.000Z</time>
      </trkpt>
      <trkpt lat="46.11602" lon="4.78414">
        <ele>187.268709</ele>
        <time>2021-09-13T07:47:07.000Z</time>
      </trkpt>
      <trkpt lat="46.11557" lon="4.78391">
        <ele>187.13884</ele>
        <time>2021-09-13T07:47:16.000Z</time>
      </trkpt>
      <trkpt lat="46.11517" lon="4.78374">
        <ele>187.026062</ele>
        <time>2021-09-13T07:47:24.000Z</time>
      </trkpt>
      <trkpt lat="46.11471" lon="4.78354">
        <ele>186.902319</ele>
        <time>2021-09-13T07:47:33.000Z</time>
      </trkpt>
      <trkpt lat="46.11423" lon="4.78331">
        <ele>186.829486</ele>
        <time>2021-09-13T07:47:42.000Z</time>
      </trkpt>
      <trkpt lat="46.11384" lon="4.78301">
        <ele>186.76648</ele>
        <time>2021-09-13T07:47:50.000Z</time>
      </trkpt>
      <trkpt lat="46.11345" lon="4.7827">
        <ele>186.701729</ele>
        <time>2021-09-13T07:47:58.000Z</time>
      </trkpt>
      <trkpt lat="46.11295" lon="4.78229">
        <ele>186.678952</ele>
        <time>2021-09-13T07:48:07.000Z</time>
      </trkpt>
      <trkpt lat="46.11253" lon="4.78191">
        <ele>186.735864</ele>
        <time>2021-09-13T07:48:15.000Z</time>
      </trkpt>
      <trkpt lat="46.11229" lon="4.78169">
        <ele>186.768697</ele>
        <time>2021-09-13T07:48:20.000Z</time>
      </trkpt>
      <trkpt lat="46.11185" lon="4.78127">
        <ele>186.829244</ele>
        <time>2021-09-13T07:48:29.000Z</time>
      </trkpt>
      <trkpt lat="46.11145" lon="4.78095">
        <ele>186.859194</ele>
        <time>2021-09-13T07:48:37.000Z</time>
      </trkpt>
      <trkpt lat="46.11115" lon="4.78077">
        <ele>186.859407</ele>
        <time>2021-09-13T07:48:43.000Z</time>
      </trkpt>
      <trkpt lat="46.1111" lon="4.78075">
        <ele>186.859441</ele>
        <time>2021-09-13T07:48:44.000Z</time>
      </trkpt>
      <trkpt lat="46.11079" lon="4.78056">
        <ele>186.859669</ele>
        <time>2021-09-13T07:48:50.000Z</time>
      </trkpt>
      <trkpt lat="46.11027" lon="4.78034">
        <ele>186.86003</ele>
        <time>2021-09-13T07:48:59.000Z</time>
      </trkpt>
      <trkpt lat="46.11021" lon="4.78032">
        <ele>186.860073</ele>
        <time>2021-09-13T07:49:00.000Z</time>
      </trkpt>
      <trkpt lat="46.10978" lon="4.78016">
        <ele>186.808286</ele>
        <time>2021-09-13T07:49:07.000Z</time>
      </trkpt>
      <trkpt lat="46.10924" lon="4.77997">
        <ele>186.62392</ele>
        <time>2021-09-13T07:49:16.000Z</time>
      </trkpt>
      <trkpt lat="46.10887" lon="4.77984">
        <ele>186.497492</ele>
        <time>2021-09-13T07:49:23.000Z</time>
      </trkpt>
      <trkpt lat="46.10851" lon="4.77972">
        <ele>186.376417</ele>
        <time>2021-09-13T07:49:30.000Z</time>
      </trkpt>
      <trkpt lat="46.10807" lon="4.77952">
        <ele>186.123077</ele>
        <time>2021-09-13T07:49:38.000Z</time>
      </trkpt>
      <trkpt lat="46.10784" lon="4.77938">
        <ele>185.838792</ele>
        <time>2021-09-13T07:49:42.000Z</time>
      </trkpt>
      <trkpt lat="46.10778" lon="4.77934">
        <ele>185.762938</ele>
        <time>2021-09-13T07:49:43.000Z</time>
      </trkpt>
      <trkpt lat="46.10741" lon="4.77897">
        <ele>185.252585</ele>
        <time>2021-09-13T07:49:49.000Z</time>
      </trkpt>
      <trkpt lat="46.10701" lon="4.77848">
        <ele>184.658548</ele>
        <time>2021-09-13T07:49:55.000Z</time>
      </trkpt>
      <trkpt lat="46.10663" lon="4.77794">
        <ele>184.144068</ele>
        <time>2021-09-13T07:50:01.000Z</time>
      </trkpt>
      <trkpt lat="46.10627" lon="4.77744">
        <ele>183.869034</ele>
        <time>2021-09-13T07:50:07.000Z</time>
      </trkpt>
      <trkpt lat="46.10593" lon="4.77704">
        <ele>183.620812</ele>
        <time>2021-09-13T07:50:13.000Z</time>
      </trkpt>
      <trkpt lat="46.10587" lon="4.77699">
        <ele>183.582047</ele>
        <time>2021-09-13T07:50:14.000Z</time>
      </trkpt>
      <trkpt lat="46.10563" lon="4.77683">
        <ele>183.434619</ele>
        <time>2021-09-13T07:50:18.000Z</time>
      </trkpt>
      <trkpt lat="46.10517" lon="4.77661">
        <ele>183.255888</ele>
        <time>2021-09-13T07:50:26.000Z</time>
      </trkpt>
      <trkpt lat="46.10483" lon="4.77648">
        <ele>183.341864</ele>
        <time>2021-09-13T07:50:33.000Z</time>
      </trkpt>
      <trkpt lat="46.10437" lon="4.77626">
        <ele>183.458942</ele>
        <time>2021-09-13T07:50:43.000Z</time>
      </trkpt>
      <trkpt lat="46.104" lon="4.77599">
        <ele>183.561646</ele>
        <time>2021-09-13T07:50:52.000Z</time>
      </trkpt>
      <trkpt lat="46.10369" lon="4.77572">
        <ele>183.648022</ele>
        <time>2021-09-13T07:51:00.000Z</time>
      </trkpt>
      <trkpt lat="46.10342" lon="4.77552">
        <ele>183.864717</ele>
        <time>2021-09-13T07:51:08.000Z</time>
      </trkpt>
      <trkpt lat="46.10333" lon="4.77545">
        <ele>183.960527</ele>
        <time>2021-09-13T07:51:12.000Z</time>
      </trkpt>
      <trkpt lat="46.10329" lon="4.77532">
        <ele>184.044424</ele>
        <time>2021-09-13T07:51:13.000Z</time>
      </trkpt>
      <trkpt lat="46.10331" lon="4.77509">
        <ele>184.182637</ele>
        <time>2021-09-13T07:51:18.000Z</time>
      </trkpt>
      <trkpt lat="46.1033" lon="4.77503">
        <ele>184.219126</ele>
        <time>2021-09-13T07:51:19.000Z</time>
      </trkpt>
      <trkpt lat="46.10325" lon="4.77485">
        <ele>184.339837</ele>
        <time>2021-09-13T07:51:23.000Z</time>
      </trkpt>
      <trkpt lat="46.10319" lon="4.77469">
        <ele>184.449177</ele>
        <time>2021-09-13T07:51:28.000Z</time>
      </trkpt>
      <trkpt lat="46.10311" lon="4.77456">
        <ele>184.553017</ele>
        <time>2021-09-13T07:51:34.000Z</time>
      </trkpt>
      <trkpt lat="46.10299" lon="4.77435">
        <ele>184.719165</ele>
        <time>2021-09-13T07:51:42.000Z</time>
      </trkpt>
      <trkpt lat="46.10292" lon="4.77423">
        <ele>184.813425</ele>
        <time>2021-09-13T07:51:46.000Z</time>
      </trkpt>
      <trkpt lat="46.10292" lon="4.77434">
        <ele>184.878061</ele>
        <time>2021-09-13T07:51:48.000Z</time>
      </trkpt>
      <trkpt lat="46.10301" lon="4.77437">
        <ele>184.955583</ele>
        <time>2021-09-13T07:51:51.000Z</time>
      </trkpt>
      <trkpt lat="46.10303" lon="4.77442">
        <ele>184.990502</ele>
        <time>2021-09-13T07:51:52.000Z</time>
      </trkpt>
      <trkpt lat="46.1032" lon="4.7747">
        <ele>185.213021</ele>
        <time>2021-09-13T07:51:58.000Z</time>
      </trkpt>
      <trkpt lat="46.10327" lon="4.77489">
        <ele>185.337289</ele>
        <time>2021-09-13T07:52:01.000Z</time>
      </trkpt>
      <trkpt lat="46.1033" lon="4.77504">
        <ele>185.427856</ele>
        <time>2021-09-13T07:52:03.000Z</time>
      </trkpt>
      <trkpt lat="46.10331" lon="4.77512">
        <ele>185.474859</ele>
        <time>2021-09-13T07:52:04.000Z</time>
      </trkpt>
      <trkpt lat="46.1033" lon="4.77528">
        <ele>185.565617</ele>
        <time>2021-09-13T07:52:06.000Z</time>
      </trkpt>
      <trkpt lat="46.10318" lon="4.77536">
        <ele>185.672948</ele>
        <time>2021-09-13T07:52:08.000Z</time>
      </trkpt>
      <trkpt lat="46.10304" lon="4.77528">
        <ele>185.799655</ele>
        <time>2021-09-13T07:52:11.000Z</time>
      </trkpt>
      <trkpt lat="46.10277" lon="4.77521">
        <ele>186.028725</ele>
        <time>2021-09-13T07:52:17.000Z</time>
      </trkpt>
      <trkpt lat="46.10247" lon="4.77516">
        <ele>186.275291</ele>
        <time>2021-09-13T07:52:24.000Z</time>
      </trkpt>
      <trkpt lat="46.10239" lon="4.77516">
        <ele>186.344631</ele>
        <time>2021-09-13T07:52:26.000Z</time>
      </trkpt>
      <trkpt lat="46.10226" lon="4.77515">
        <ele>186.447799</ele>
        <time>2021-09-13T07:52:29.000Z</time>
      </trkpt>
      <trkpt lat="46.10189" lon="4.77514">
        <ele>186.787677</ele>
        <time>2021-09-13T07:52:38.000Z</time>
      </trkpt>
      <trkpt lat="46.10156" lon="4.77512">
        <ele>187.258024</ele>
        <time>2021-09-13T07:52:46.000Z</time>
      </trkpt>
      <trkpt lat="46.10152" lon="4.77512">
        <ele>187.315896</ele>
        <time>2021-09-13T07:52:47.000Z</time>
      </trkpt>
      <trkpt lat="46.10113" lon="4.77504">
        <ele>187.886893</ele>
        <time>2021-09-13T07:52:56.000Z</time>
      </trkpt>
      <trkpt lat="46.10071" lon="4.77487">
        <ele>188.516805</ele>
        <time>2021-09-13T07:53:06.000Z</time>
      </trkpt>
      <trkpt lat="46.10039" lon="4.7747">
        <ele>189.005008</ele>
        <time>2021-09-13T07:53:14.000Z</time>
      </trkpt>
      <trkpt lat="46.10019" lon="4.77455">
        <ele>189.332355</ele>
        <time>2021-09-13T07:53:20.000Z</time>
      </trkpt>
      <trkpt lat="46.10014" lon="4.77445">
        <ele>189.465492</ele>
        <time>2021-09-13T07:53:23.000Z</time>
      </trkpt>
      <trkpt lat="46.1001" lon="4.77442">
        <ele>189.518519</ele>
        <time>2021-09-13T07:53:24.000Z</time>
      </trkpt>
      <trkpt lat="46.10007" lon="4.77443">
        <ele>189.560947</ele>
        <time>2021-09-13T07:53:25.000Z</time>
      </trkpt>
      <trkpt lat="46.09991" lon="4.77451">
        <ele>189.809609</ele>
        <time>2021-09-13T07:53:28.000Z</time>
      </trkpt>
      <trkpt lat="46.09983" lon="4.77445">
        <ele>189.935263</ele>
        <time>2021-09-13T07:53:30.000Z</time>
      </trkpt>
      <trkpt lat="46.09971" lon="4.77435">
        <ele>190.127594</ele>
        <time>2021-09-13T07:53:33.000Z</time>
      </trkpt>
      <trkpt lat="46.09927" lon="4.7741">
        <ele>190.810657</ele>
        <time>2021-09-13T07:53:43.000Z</time>
      </trkpt>
      <trkpt lat="46.09892" lon="4.77391">
        <ele>191.351318</ele>
        <time>2021-09-13T07:53:51.000Z</time>
      </trkpt>
      <trkpt lat="46.09841" lon="4.77363">
        <ele>192.137835</ele>
        <time>2021-09-13T07:54:02.000Z</time>
      </trkpt>
      <trkpt lat="46.09801" lon="4.77341">
        <ele>192.800319</ele>
        <time>2021-09-13T07:54:11.000Z</time>
      </trkpt>
      <trkpt lat="46.09748" lon="4.77312">
        <ele>193.673484</ele>
        <time>2021-09-13T07:54:23.000Z</time>
      </trkpt>
      <trkpt lat="46.09702" lon="4.77287">
        <ele>194.427834</ele>
        <time>2021-09-13T07:54:34.000Z</time>
      </trkpt>
      <trkpt lat="46.09698" lon="4.77285">
        <ele>194.495449</ele>
        <time>2021-09-13T07:54:35.000Z</time>
      </trkpt>
      <trkpt lat="46.09683" lon="4.77282">
        <ele>194.705006</ele>
        <time>2021-09-13T07:54:39.000Z</time>
      </trkpt>
      <trkpt lat="46.09677" lon="4.77273">
        <ele>194.794267</ele>
        <time>2021-09-13T07:54:40.000Z</time>
      </trkpt>
      <trkpt lat="46.09674" lon="4.77263">
        <ele>194.868184</ele>
        <time>2021-09-13T07:54:42.000Z</time>
      </trkpt>
      <trkpt lat="46.09665" lon="4.77254">
        <ele>194.979916</ele>
        <time>2021-09-13T07:54:44.000Z</time>
      </trkpt>
      <trkpt lat="46.0966" lon="4.77255">
        <ele>195.023752</ele>
        <time>2021-09-13T07:54:45.000Z</time>
      </trkpt>
      <trkpt lat="46.09646" lon="4.77261">
        <ele>195.173774</ele>
        <time>2021-09-13T07:54:48.000Z</time>
      </trkpt>
      <trkpt lat="46.09633" lon="4.77251">
        <ele>195.317837</ele>
        <time>2021-09-13T07:54:51.000Z</time>
      </trkpt>
      <trkpt lat="46.09596" lon="4.77226">
        <ele>195.718637</ele>
        <time>2021-09-13T07:54:59.000Z</time>
      </trkpt>
      <trkpt lat="46.09554" lon="4.77199">
        <ele>196.174953</ele>
        <time>2021-09-13T07:55:07.000Z</time>
      </trkpt>
      <trkpt lat="46.09504" lon="4.77166">
        <ele>196.520885</ele>
        <time>2021-09-13T07:55:16.000Z</time>
      </trkpt>
      <trkpt lat="46.09451" lon="4.77131">
        <ele>196.684181</ele>
        <time>2021-09-13T07:55:24.000Z</time>
      </trkpt>
      <trkpt lat="46.09397" lon="4.77095">
        <ele>196.847534</ele>
        <time>2021-09-13T07:55:32.000Z</time>
      </trkpt>
      <trkpt lat="46.09391" lon="4.77091">
        <ele>196.86625</ele>
        <time>2021-09-13T07:55:33.000Z</time>
      </trkpt>
      <trkpt lat="46.09353" lon="4.77066">
        <ele>197.314171</ele>
        <time>2021-09-13T07:55:40.000Z</time>
      </trkpt>
      <trkpt lat="46.09322" lon="4.77044">
        <ele>198.17382</ele>
        <time>2021-09-13T07:55:47.000Z</time>
      </trkpt>
      <trkpt lat="46.09297" lon="4.77026">
        <ele>198.890487</ele>
        <time>2021-09-13T07:55:55.000Z</time>
      </trkpt>
      <trkpt lat="46.09276" lon="4.7701">
        <ele>199.490744</ele>
        <time>2021-09-13T07:56:03.000Z</time>
      </trkpt>
      <trkpt lat="46.09256" lon="4.76996">
        <ele>200.065122</ele>
        <time>2021-09-13T07:56:11.000Z</time>
      </trkpt>
      <trkpt lat="46.09235" lon="4.76981">
        <ele>200.634186</ele>
        <time>2021-09-13T07:56:19.000Z</time>
      </trkpt>
      <trkpt lat="46.09218" lon="4.76969">
        <ele>201.134741</ele>
        <time>2021-09-13T07:56:26.000Z</time>
      </trkpt>
      <trkpt lat="46.09195" lon="4.76954">
        <ele>201.962131</ele>
        <time>2021-09-13T07:56:35.000Z</time>
      </trkpt>
      <trkpt lat="46.09178" lon="4.76943">
        <ele>202.771514</ele>
        <time>2021-09-13T07:56:42.000Z</time>
      </trkpt>
      <trkpt lat="46.09155" lon="4.76927">
        <ele>203.882463</ele>
        <time>2021-09-13T07:56:52.000Z</time>
      </trkpt>
      <trkpt lat="46.09131" lon="4.76911">
        <ele>204.998622</ele>
        <time>2021-09-13T07:57:02.000Z</time>
      </trkpt>
      <trkpt lat="46.09107" lon="4.76895">
        <ele>206.167014</ele>
        <time>2021-09-13T07:57:13.000Z</time>
      </trkpt>
      <trkpt lat="46.09087" lon="4.76882">
        <ele>207.144957</ele>
        <time>2021-09-13T07:57:22.000Z</time>
      </trkpt>
      <trkpt lat="46.0907" lon="4.76872">
        <ele>207.90193</ele>
        <time>2021-09-13T07:57:29.000Z</time>
      </trkpt>
      <trkpt lat="46.09052" lon="4.76861">
        <ele>208.79206</ele>
        <time>2021-09-13T07:57:37.000Z</time>
      </trkpt>
      <trkpt lat="46.0903" lon="4.76851">
        <ele>209.668834</ele>
        <time>2021-09-13T07:57:46.000Z</time>
      </trkpt>
      <trkpt lat="46.09014" lon="4.76845">
        <ele>210.271109</ele>
        <time>2021-09-13T07:57:53.000Z</time>
      </trkpt>
      <trkpt lat="46.08996" lon="4.7684">
        <ele>210.889501</ele>
        <time>2021-09-13T07:58:00.000Z</time>
      </trkpt>
      <trkpt lat="46.0897" lon="4.76832">
        <ele>211.81367</ele>
        <time>2021-09-13T07:58:09.000Z</time>
      </trkpt>
      <trkpt lat="46.08935" lon="4.76824">
        <ele>213.069151</ele>
        <time>2021-09-13T07:58:20.000Z</time>
      </trkpt>
      <trkpt lat="46.08907" lon="4.76817">
        <ele>214.052702</ele>
        <time>2021-09-13T07:58:28.000Z</time>
      </trkpt>
      <trkpt lat="46.08878" lon="4.76811">
        <ele>215.071804</ele>
        <time>2021-09-13T07:58:36.000Z</time>
      </trkpt>
      <trkpt lat="46.08849" lon="4.76805">
        <ele>216.034782</ele>
        <time>2021-09-13T07:58:44.000Z</time>
      </trkpt>
      <trkpt lat="46.08822" lon="4.76803">
        <ele>216.925952</ele>
        <time>2021-09-13T07:58:52.000Z</time>
      </trkpt>
      <trkpt lat="46.0879" lon="4.76805">
        <ele>217.928961</ele>
        <time>2021-09-13T07:59:01.000Z</time>
      </trkpt>
      <trkpt lat="46.08768" lon="4.76807">
        <ele>218.632257</ele>
        <time>2021-09-13T07:59:08.000Z</time>
      </trkpt>
      <trkpt lat="46.08746" lon="4.76808">
        <ele>219.334605</ele>
        <time>2021-09-13T07:59:16.000Z</time>
      </trkpt>
      <trkpt lat="46.08731" lon="4.76797">
        <ele>219.881944</ele>
        <time>2021-09-13T07:59:22.000Z</time>
      </trkpt>
      <trkpt lat="46.08717" lon="4.7678">
        <ele>220.458999</ele>
        <time>2021-09-13T07:59:28.000Z</time>
      </trkpt>
      <trkpt lat="46.08703" lon="4.76785">
        <ele>220.924235</ele>
        <time>2021-09-13T07:59:32.000Z</time>
      </trkpt>
      <trkpt lat="46.08692" lon="4.76813">
        <ele>221.49344</ele>
        <time>2021-09-13T07:59:37.000Z</time>
      </trkpt>
      <trkpt lat="46.08684" lon="4.76816">
        <ele>221.626697</ele>
        <time>2021-09-13T07:59:39.000Z</time>
      </trkpt>
      <trkpt lat="46.08677" lon="4.7682">
        <ele>221.763898</ele>
        <time>2021-09-13T07:59:41.000Z</time>
      </trkpt>
      <trkpt lat="46.08648" lon="4.76826">
        <ele>222.265419</ele>
        <time>2021-09-13T07:59:48.000Z</time>
      </trkpt>
      <trkpt lat="46.08613" lon="4.76833">
        <ele>222.856362</ele>
        <time>2021-09-13T07:59:56.000Z</time>
      </trkpt>
      <trkpt lat="46.086" lon="4.76835">
        <ele>223.09135</ele>
        <time>2021-09-13T07:59:59.000Z</time>
      </trkpt>
      <trkpt lat="46.0859" lon="4.76836">
        <ele>223.250785</ele>
        <time>2021-09-13T08:00:01.000Z</time>
      </trkpt>
      <trkpt lat="46.0858" lon="4.76838">
        <ele>223.420647</ele>
        <time>2021-09-13T08:00:03.000Z</time>
      </trkpt>
      <trkpt lat="46.08551" lon="4.76843">
        <ele>223.916418</ele>
        <time>2021-09-13T08:00:09.000Z</time>
      </trkpt>
      <trkpt lat="46.08506" lon="4.76851">
        <ele>224.333247</ele>
        <time>2021-09-13T08:00:18.000Z</time>
      </trkpt>
      <trkpt lat="46.08466" lon="4.76857">
        <ele>224.219597</ele>
        <time>2021-09-13T08:00:25.000Z</time>
      </trkpt>
      <trkpt lat="46.0842" lon="4.76864">
        <ele>224.091985</ele>
        <time>2021-09-13T08:00:32.000Z</time>
      </trkpt>
      <trkpt lat="46.08375" lon="4.7687">
        <ele>223.966095</ele>
        <time>2021-09-13T08:00:38.000Z</time>
      </trkpt>
      <trkpt lat="46.08324" lon="4.76877">
        <ele>223.464133</ele>
        <time>2021-09-13T08:00:44.000Z</time>
      </trkpt>
      <trkpt lat="46.08285" lon="4.76882">
        <ele>222.685226</ele>
        <time>2021-09-13T08:00:49.000Z</time>
      </trkpt>
      <trkpt lat="46.08241" lon="4.76887">
        <ele>221.808594</ele>
        <time>2021-09-13T08:00:55.000Z</time>
      </trkpt>
      <trkpt lat="46.08212" lon="4.76891">
        <ele>221.219429</ele>
        <time>2021-09-13T08:01:00.000Z</time>
      </trkpt>
      <trkpt lat="46.08188" lon="4.76894">
        <ele>220.75015</ele>
        <time>2021-09-13T08:01:06.000Z</time>
      </trkpt>
      <trkpt lat="46.08168" lon="4.76897">
        <ele>220.338195</ele>
        <time>2021-09-13T08:01:13.000Z</time>
      </trkpt>
      <trkpt lat="46.08143" lon="4.76901">
        <ele>219.504372</ele>
        <time>2021-09-13T08:01:21.000Z</time>
      </trkpt>
      <trkpt lat="46.08127" lon="4.76903">
        <ele>218.948246</ele>
        <time>2021-09-13T08:01:28.000Z</time>
      </trkpt>
      <trkpt lat="46.08106" lon="4.76907">
        <ele>218.22405</ele>
        <time>2021-09-13T08:01:35.000Z</time>
      </trkpt>
      <trkpt lat="46.08081" lon="4.7691">
        <ele>217.382947</ele>
        <time>2021-09-13T08:01:40.000Z</time>
      </trkpt>
      <trkpt lat="46.08047" lon="4.76915">
        <ele>216.199397</ele>
        <time>2021-09-13T08:01:45.000Z</time>
      </trkpt>
      <trkpt lat="46.08004" lon="4.76921">
        <ele>214.745626</ele>
        <time>2021-09-13T08:01:50.000Z</time>
      </trkpt>
      <trkpt lat="46.07946" lon="4.7693">
        <ele>212.920199</ele>
        <time>2021-09-13T08:01:56.000Z</time>
      </trkpt>
      <trkpt lat="46.07892" lon="4.76938">
        <ele>211.295569</ele>
        <time>2021-09-13T08:02:01.000Z</time>
      </trkpt>
      <trkpt lat="46.07858" lon="4.76943">
        <ele>210.286756</ele>
        <time>2021-09-13T08:02:04.000Z</time>
      </trkpt>
      <trkpt lat="46.07803" lon="4.7695">
        <ele>208.640945</ele>
        <time>2021-09-13T08:02:09.000Z</time>
      </trkpt>
      <trkpt lat="46.07782" lon="4.76953">
        <ele>208.010341</ele>
        <time>2021-09-13T08:02:11.000Z</time>
      </trkpt>
      <trkpt lat="46.07721" lon="4.76962">
        <ele>206.186889</ele>
        <time>2021-09-13T08:02:17.000Z</time>
      </trkpt>
      <trkpt lat="46.07701" lon="4.76965">
        <ele>205.601076</ele>
        <time>2021-09-13T08:02:19.000Z</time>
      </trkpt>
      <trkpt lat="46.07644" lon="4.76973">
        <ele>203.913941</ele>
        <time>2021-09-13T08:02:25.000Z</time>
      </trkpt>
      <trkpt lat="46.07635" lon="4.76974">
        <ele>203.640078</ele>
        <time>2021-09-13T08:02:26.000Z</time>
      </trkpt>
      <trkpt lat="46.07572" lon="4.76984">
        <ele>201.639979</ele>
        <time>2021-09-13T08:02:33.000Z</time>
      </trkpt>
      <trkpt lat="46.07564" lon="4.76985">
        <ele>201.359992</ele>
        <time>2021-09-13T08:02:34.000Z</time>
      </trkpt>
      <trkpt lat="46.07504" lon="4.76994">
        <ele>199.426458</ele>
        <time>2021-09-13T08:02:41.000Z</time>
      </trkpt>
      <trkpt lat="46.07495" lon="4.76995">
        <ele>199.152838</ele>
        <time>2021-09-13T08:02:42.000Z</time>
      </trkpt>
      <trkpt lat="46.07436" lon="4.77004">
        <ele>197.288069</ele>
        <time>2021-09-13T08:02:49.000Z</time>
      </trkpt>
      <trkpt lat="46.07378" lon="4.77012">
        <ele>195.592245</ele>
        <time>2021-09-13T08:02:56.000Z</time>
      </trkpt>
      <trkpt lat="46.07362" lon="4.77014">
        <ele>195.113184</ele>
        <time>2021-09-13T08:02:58.000Z</time>
      </trkpt>
      <trkpt lat="46.07307" lon="4.77023">
        <ele>193.496718</ele>
        <time>2021-09-13T08:03:05.000Z</time>
      </trkpt>
      <trkpt lat="46.07299" lon="4.77024">
        <ele>193.261551</ele>
        <time>2021-09-13T08:03:06.000Z</time>
      </trkpt>
      <trkpt lat="46.07245" lon="4.77032">
        <ele>191.758892</ele>
        <time>2021-09-13T08:03:13.000Z</time>
      </trkpt>
      <trkpt lat="46.07221" lon="4.77035">
        <ele>191.160129</ele>
        <time>2021-09-13T08:03:16.000Z</time>
      </trkpt>
      <trkpt lat="46.07163" lon="4.77044">
        <ele>189.644979</ele>
        <time>2021-09-13T08:03:24.000Z</time>
      </trkpt>
      <trkpt lat="46.07148" lon="4.77046">
        <ele>189.275906</ele>
        <time>2021-09-13T08:03:26.000Z</time>
      </trkpt>
      <trkpt lat="46.07093" lon="4.77054">
        <ele>187.84869</ele>
        <time>2021-09-13T08:03:34.000Z</time>
      </trkpt>
      <trkpt lat="46.07033" lon="4.77063">
        <ele>186.618935</ele>
        <time>2021-09-13T08:03:43.000Z</time>
      </trkpt>
      <trkpt lat="46.07026" lon="4.77064">
        <ele>186.482088</ele>
        <time>2021-09-13T08:03:44.000Z</time>
      </trkpt>
      <trkpt lat="46.06972" lon="4.77071">
        <ele>185.367062</ele>
        <time>2021-09-13T08:03:52.000Z</time>
      </trkpt>
      <trkpt lat="46.06915" lon="4.77074">
        <ele>184.213426</ele>
        <time>2021-09-13T08:04:00.000Z</time>
      </trkpt>
      <trkpt lat="46.06908" lon="4.77074">
        <ele>184.103897</ele>
        <time>2021-09-13T08:04:01.000Z</time>
      </trkpt>
      <trkpt lat="46.06862" lon="4.77079">
        <ele>183.445374</ele>
        <time>2021-09-13T08:04:08.000Z</time>
      </trkpt>
      <trkpt lat="46.06826" lon="4.77097">
        <ele>182.896942</ele>
        <time>2021-09-13T08:04:14.000Z</time>
      </trkpt>
      <trkpt lat="46.06782" lon="4.77135">
        <ele>182.174138</ele>
        <time>2021-09-13T08:04:22.000Z</time>
      </trkpt>
      <trkpt lat="46.06745" lon="4.77171">
        <ele>181.563152</ele>
        <time>2021-09-13T08:04:29.000Z</time>
      </trkpt>
      <trkpt lat="46.06709" lon="4.77193">
        <ele>181.205532</ele>
        <time>2021-09-13T08:04:35.000Z</time>
      </trkpt>
      <trkpt lat="46.06666" lon="4.772">
        <ele>180.814455</ele>
        <time>2021-09-13T08:04:42.000Z</time>
      </trkpt>
      <trkpt lat="46.06613" lon="4.77207">
        <ele>180.333789</ele>
        <time>2021-09-13T08:04:51.000Z</time>
      </trkpt>
      <trkpt lat="46.06567" lon="4.77207">
        <ele>179.931587</ele>
        <time>2021-09-13T08:04:59.000Z</time>
      </trkpt>
      <trkpt lat="46.06515" lon="4.77195">
        <ele>179.561035</ele>
        <time>2021-09-13T08:05:08.000Z</time>
      </trkpt>
      <trkpt lat="46.06462" lon="4.77178">
        <ele>179.171688</ele>
        <time>2021-09-13T08:05:17.000Z</time>
      </trkpt>
      <trkpt lat="46.06443" lon="4.77172">
        <ele>179.036574</ele>
        <time>2021-09-13T08:05:20.000Z</time>
      </trkpt>
      <trkpt lat="46.06383" lon="4.7715">
        <ele>178.636124</ele>
        <time>2021-09-13T08:05:29.000Z</time>
      </trkpt>
      <trkpt lat="46.0635" lon="4.77129">
        <ele>178.477197</ele>
        <time>2021-09-13T08:05:36.000Z</time>
      </trkpt>
      <trkpt lat="46.063" lon="4.77091">
        <ele>178.222673</ele>
        <time>2021-09-13T08:05:45.000Z</time>
      </trkpt>
      <trkpt lat="46.06259" lon="4.77071">
        <ele>178.032157</ele>
        <time>2021-09-13T08:05:53.000Z</time>
      </trkpt>
      <trkpt lat="46.06205" lon="4.77055">
        <ele>177.770166</ele>
        <time>2021-09-13T08:06:03.000Z</time>
      </trkpt>
      <trkpt lat="46.06151" lon="4.77051">
        <ele>177.497388</ele>
        <time>2021-09-13T08:06:13.000Z</time>
      </trkpt>
      <trkpt lat="46.06113" lon="4.77045">
        <ele>177.302362</ele>
        <time>2021-09-13T08:06:21.000Z</time>
      </trkpt>
      <trkpt lat="46.06064" lon="4.77028">
        <ele>177.050829</ele>
        <time>2021-09-13T08:06:29.000Z</time>
      </trkpt>
      <trkpt lat="46.06024" lon="4.7701">
        <ele>176.940605</ele>
        <time>2021-09-13T08:06:37.000Z</time>
      </trkpt>
      <trkpt lat="46.05973" lon="4.76988">
        <ele>176.847184</ele>
        <time>2021-09-13T08:06:47.000Z</time>
      </trkpt>
      <trkpt lat="46.05927" lon="4.76968">
        <ele>176.760537</ele>
        <time>2021-09-13T08:06:56.000Z</time>
      </trkpt>
      <trkpt lat="46.05875" lon="4.76946">
        <ele>176.686556</ele>
        <time>2021-09-13T08:07:06.000Z</time>
      </trkpt>
      <trkpt lat="46.05835" lon="4.76931">
        <ele>176.733361</ele>
        <time>2021-09-13T08:07:14.000Z</time>
      </trkpt>
      <trkpt lat="46.05781" lon="4.76924">
        <ele>176.794044</ele>
        <time>2021-09-13T08:07:24.000Z</time>
      </trkpt>
      <trkpt lat="46.05728" lon="4.76918">
        <ele>176.853771</ele>
        <time>2021-09-13T08:07:33.000Z</time>
      </trkpt>
      <trkpt lat="46.05685" lon="4.7691">
        <ele>177.181865</ele>
        <time>2021-09-13T08:07:41.000Z</time>
      </trkpt>
      <trkpt lat="46.05655" lon="4.76898">
        <ele>177.665602</ele>
        <time>2021-09-13T08:07:48.000Z</time>
      </trkpt>
      <trkpt lat="46.05616" lon="4.76883">
        <ele>178.295041</ele>
        <time>2021-09-13T08:07:58.000Z</time>
      </trkpt>
      <trkpt lat="46.05592" lon="4.76872">
        <ele>178.680402</ele>
        <time>2021-09-13T08:08:05.000Z</time>
      </trkpt>
      <trkpt lat="46.05565" lon="4.76861">
        <ele>179.116139</ele>
        <time>2021-09-13T08:08:14.000Z</time>
      </trkpt>
      <trkpt lat="46.05544" lon="4.76851">
        <ele>179.463072</ele>
        <time>2021-09-13T08:08:22.000Z</time>
      </trkpt>
      <trkpt lat="46.05518" lon="4.76837">
        <ele>180.166136</ele>
        <time>2021-09-13T08:08:32.000Z</time>
      </trkpt>
      <trkpt lat="46.05497" lon="4.76826">
        <ele>180.911142</ele>
        <time>2021-09-13T08:08:40.000Z</time>
      </trkpt>
      <trkpt lat="46.05478" lon="4.76816">
        <ele>181.615209</ele>
        <time>2021-09-13T08:08:47.000Z</time>
      </trkpt>
      <trkpt lat="46.05456" lon="4.76803">
        <ele>182.426829</ele>
        <time>2021-09-13T08:08:55.000Z</time>
      </trkpt>
      <trkpt lat="46.05429" lon="4.76786">
        <ele>183.427691</ele>
        <time>2021-09-13T08:09:05.000Z</time>
      </trkpt>
      <trkpt lat="46.05404" lon="4.76768">
        <ele>184.390492</ele>
        <time>2021-09-13T08:09:15.000Z</time>
      </trkpt>
      <trkpt lat="46.05383" lon="4.76754">
        <ele>185.151509</ele>
        <time>2021-09-13T08:09:23.000Z</time>
      </trkpt>
      <trkpt lat="46.05364" lon="4.76741">
        <ele>185.885724</ele>
        <time>2021-09-13T08:09:31.000Z</time>
      </trkpt>
      <trkpt lat="46.05337" lon="4.76726">
        <ele>186.968602</ele>
        <time>2021-09-13T08:09:41.000Z</time>
      </trkpt>
      <trkpt lat="46.05313" lon="4.76715">
        <ele>187.922785</ele>
        <time>2021-09-13T08:09:49.000Z</time>
      </trkpt>
      <trkpt lat="46.05294" lon="4.76708">
        <ele>188.660125</ele>
        <time>2021-09-13T08:09:55.000Z</time>
      </trkpt>
      <trkpt lat="46.05292" lon="4.76707">
        <ele>188.733622</ele>
        <time>2021-09-13T08:09:56.000Z</time>
      </trkpt>
      <trkpt lat="46.05292" lon="4.76707">
        <ele>188.733622</ele>
        <time>2021-09-13T08:09:58.000Z</time>
      </trkpt>
      <trkpt lat="46.05289" lon="4.76706">
        <ele>188.830195</ele>
        <time>2021-09-13T08:11:04.000Z</time>
      </trkpt>
      <trkpt lat="46.05287" lon="4.76706">
        <ele>188.915229</ele>
        <time>2021-09-13T08:11:06.000Z</time>
      </trkpt>
      <trkpt lat="46.05267" lon="4.76698">
        <ele>189.67991</ele>
        <time>2021-09-13T08:11:11.000Z</time>
      </trkpt>
      <trkpt lat="46.05241" lon="4.76689">
        <ele>190.691166</ele>
        <time>2021-09-13T08:11:18.000Z</time>
      </trkpt>
      <trkpt lat="46.05213" lon="4.76676">
        <ele>191.80952</ele>
        <time>2021-09-13T08:11:24.000Z</time>
      </trkpt>
      <trkpt lat="46.05202" lon="4.76671">
        <ele>192.233557</ele>
        <time>2021-09-13T08:11:26.000Z</time>
      </trkpt>
      <trkpt lat="46.05181" lon="4.76657">
        <ele>192.631684</ele>
        <time>2021-09-13T08:11:30.000Z</time>
      </trkpt>
      <trkpt lat="46.05136" lon="4.76632">
        <ele>192.913454</ele>
        <time>2021-09-13T08:11:38.000Z</time>
      </trkpt>
      <trkpt lat="46.05113" lon="4.76622">
        <ele>193.055148</ele>
        <time>2021-09-13T08:11:43.000Z</time>
      </trkpt>
      <trkpt lat="46.05103" lon="4.76619">
        <ele>193.119304</ele>
        <time>2021-09-13T08:11:45.000Z</time>
      </trkpt>
      <trkpt lat="46.05071" lon="4.76607">
        <ele>193.314546</ele>
        <time>2021-09-13T08:11:51.000Z</time>
      </trkpt>
      <trkpt lat="46.0504" lon="4.76582">
        <ele>193.524538</ele>
        <time>2021-09-13T08:11:57.000Z</time>
      </trkpt>
      <trkpt lat="46.05031" lon="4.76576">
        <ele>193.579391</ele>
        <time>2021-09-13T08:11:59.000Z</time>
      </trkpt>
      <trkpt lat="46.05019" lon="4.76571">
        <ele>193.650081</ele>
        <time>2021-09-13T08:12:02.000Z</time>
      </trkpt>
      <trkpt lat="46.05015" lon="4.7657">
        <ele>193.672928</ele>
        <time>2021-09-13T08:12:03.000Z</time>
      </trkpt>
      <trkpt lat="46.0501" lon="4.76569">
        <ele>193.696525</ele>
        <time>2021-09-13T08:12:04.000Z</time>
      </trkpt>
      <trkpt lat="46.05006" lon="4.76567">
        <ele>193.718646</ele>
        <time>2021-09-13T08:12:06.000Z</time>
      </trkpt>
      <trkpt lat="46.05001" lon="4.76568">
        <ele>193.743423</ele>
        <time>2021-09-13T08:12:08.000Z</time>
      </trkpt>
      <trkpt lat="46.04969" lon="4.76575">
        <ele>193.917843</ele>
        <time>2021-09-13T08:12:15.000Z</time>
      </trkpt>
      <trkpt lat="46.04933" lon="4.7658">
        <ele>194.106286</ele>
        <time>2021-09-13T08:12:22.000Z</time>
      </trkpt>
      <trkpt lat="46.04891" lon="4.76586">
        <ele>194.329628</ele>
        <time>2021-09-13T08:12:30.000Z</time>
      </trkpt>
      <trkpt lat="46.04852" lon="4.76589">
        <ele>194.533847</ele>
        <time>2021-09-13T08:12:37.000Z</time>
      </trkpt>
      <trkpt lat="46.04815" lon="4.76582">
        <ele>194.347324</ele>
        <time>2021-09-13T08:12:43.000Z</time>
      </trkpt>
      <trkpt lat="46.04777" lon="4.76569">
        <ele>194.115205</ele>
        <time>2021-09-13T08:12:49.000Z</time>
      </trkpt>
      <trkpt lat="46.04734" lon="4.76544">
        <ele>193.83896</ele>
        <time>2021-09-13T08:12:56.000Z</time>
      </trkpt>
      <trkpt lat="46.04696" lon="4.76514">
        <ele>193.580629</ele>
        <time>2021-09-13T08:13:03.000Z</time>
      </trkpt>
      <trkpt lat="46.04669" lon="4.76482">
        <ele>193.336553</ele>
        <time>2021-09-13T08:13:09.000Z</time>
      </trkpt>
      <trkpt lat="46.04628" lon="4.76432">
        <ele>192.908386</ele>
        <time>2021-09-13T08:13:17.000Z</time>
      </trkpt>
      <trkpt lat="46.04585" lon="4.76376">
        <ele>192.441371</ele>
        <time>2021-09-13T08:13:25.000Z</time>
      </trkpt>
      <trkpt lat="46.04579" lon="4.76368">
        <ele>192.380084</ele>
        <time>2021-09-13T08:13:26.000Z</time>
      </trkpt>
      <trkpt lat="46.04535" lon="4.76305">
        <ele>191.906353</ele>
        <time>2021-09-13T08:13:34.000Z</time>
      </trkpt>
      <trkpt lat="46.04497" lon="4.76249">
        <ele>191.528506</ele>
        <time>2021-09-13T08:13:41.000Z</time>
      </trkpt>
      <trkpt lat="46.04463" lon="4.76198">
        <ele>191.1823</ele>
        <time>2021-09-13T08:13:48.000Z</time>
      </trkpt>
      <trkpt lat="46.04421" lon="4.76139">
        <ele>190.789902</ele>
        <time>2021-09-13T08:13:57.000Z</time>
      </trkpt>
      <trkpt lat="46.04398" lon="4.76108">
        <ele>190.761671</ele>
        <time>2021-09-13T08:14:02.000Z</time>
      </trkpt>
      <trkpt lat="46.04388" lon="4.76097">
        <ele>190.750635</ele>
        <time>2021-09-13T08:14:04.000Z</time>
      </trkpt>
      <trkpt lat="46.04363" lon="4.76073">
        <ele>190.723321</ele>
        <time>2021-09-13T08:14:09.000Z</time>
      </trkpt>
      <trkpt lat="46.04342" lon="4.76053">
        <ele>190.701432</ele>
        <time>2021-09-13T08:14:13.000Z</time>
      </trkpt>
      <trkpt lat="46.04321" lon="4.76033">
        <ele>190.67891</ele>
        <time>2021-09-13T08:14:17.000Z</time>
      </trkpt>
      <trkpt lat="46.04312" lon="4.76023">
        <ele>190.668694</ele>
        <time>2021-09-13T08:14:19.000Z</time>
      </trkpt>
      <trkpt lat="46.04271" lon="4.75983">
        <ele>190.653855</ele>
        <time>2021-09-13T08:14:28.000Z</time>
      </trkpt>
      <trkpt lat="46.04266" lon="4.75979">
        <ele>190.668975</ele>
        <time>2021-09-13T08:14:29.000Z</time>
      </trkpt>
      <trkpt lat="46.04249" lon="4.75962">
        <ele>190.729102</ele>
        <time>2021-09-13T08:14:33.000Z</time>
      </trkpt>
      <trkpt lat="46.04216" lon="4.75923">
        <ele>190.853065</ele>
        <time>2021-09-13T08:14:41.000Z</time>
      </trkpt>
      <trkpt lat="46.04188" lon="4.75881">
        <ele>190.968903</ele>
        <time>2021-09-13T08:14:48.000Z</time>
      </trkpt>
      <trkpt lat="46.04174" lon="4.75855">
        <ele>191.036027</ele>
        <time>2021-09-13T08:14:52.000Z</time>
      </trkpt>
      <trkpt lat="46.04163" lon="4.75834">
        <ele>191.086948</ele>
        <time>2021-09-13T08:14:55.000Z</time>
      </trkpt>
      <trkpt lat="46.04135" lon="4.75794">
        <ele>191.201739</ele>
        <time>2021-09-13T08:15:02.000Z</time>
      </trkpt>
      <trkpt lat="46.04108" lon="4.7577">
        <ele>191.292219</ele>
        <time>2021-09-13T08:15:08.000Z</time>
      </trkpt>
      <trkpt lat="46.04103" lon="4.75766">
        <ele>191.306527</ele>
        <time>2021-09-13T08:15:09.000Z</time>
      </trkpt>
      <trkpt lat="46.04067" lon="4.75738">
        <ele>191.423355</ele>
        <time>2021-09-13T08:15:17.000Z</time>
      </trkpt>
      <trkpt lat="46.04046" lon="4.75722">
        <ele>191.491603</ele>
        <time>2021-09-13T08:15:22.000Z</time>
      </trkpt>
      <trkpt lat="46.04013" lon="4.75697">
        <ele>191.595561</ele>
        <time>2021-09-13T08:15:30.000Z</time>
      </trkpt>
      <trkpt lat="46.03984" lon="4.75675">
        <ele>191.689212</ele>
        <time>2021-09-13T08:15:38.000Z</time>
      </trkpt>
      <trkpt lat="46.03959" lon="4.75658">
        <ele>191.771773</ele>
        <time>2021-09-13T08:15:45.000Z</time>
      </trkpt>
      <trkpt lat="46.0393" lon="4.75643">
        <ele>191.864037</ele>
        <time>2021-09-13T08:15:53.000Z</time>
      </trkpt>
      <trkpt lat="46.03889" lon="4.7563">
        <ele>191.988558</ele>
        <time>2021-09-13T08:16:03.000Z</time>
      </trkpt>
      <trkpt lat="46.03853" lon="4.75623">
        <ele>192.09629</ele>
        <time>2021-09-13T08:16:11.000Z</time>
      </trkpt>
      <trkpt lat="46.03803" lon="4.7562">
        <ele>192.167982</ele>
        <time>2021-09-13T08:16:21.000Z</time>
      </trkpt>
      <trkpt lat="46.03745" lon="4.75616">
        <ele>192.07574</ele>
        <time>2021-09-13T08:16:32.000Z</time>
      </trkpt>
      <trkpt lat="46.03689" lon="4.75611">
        <ele>191.986666</ele>
        <time>2021-09-13T08:16:42.000Z</time>
      </trkpt>
      <trkpt lat="46.03645" lon="4.75607">
        <ele>191.916344</ele>
        <time>2021-09-13T08:16:50.000Z</time>
      </trkpt>
      <trkpt lat="46.03586" lon="4.756">
        <ele>191.685691</ele>
        <time>2021-09-13T08:17:00.000Z</time>
      </trkpt>
      <trkpt lat="46.03544" lon="4.75601">
        <ele>191.512626</ele>
        <time>2021-09-13T08:17:07.000Z</time>
      </trkpt>
      <trkpt lat="46.03489" lon="4.75609">
        <ele>191.286206</ele>
        <time>2021-09-13T08:17:16.000Z</time>
      </trkpt>
      <trkpt lat="46.03434" lon="4.75621">
        <ele>191.095384</ele>
        <time>2021-09-13T08:17:25.000Z</time>
      </trkpt>
      <trkpt lat="46.03429" lon="4.75623">
        <ele>191.079131</ele>
        <time>2021-09-13T08:17:26.000Z</time>
      </trkpt>
      <trkpt lat="46.03387" lon="4.7563">
        <ele>190.966529</ele>
        <time>2021-09-13T08:17:33.000Z</time>
      </trkpt>
      <trkpt lat="46.03345" lon="4.75633">
        <ele>190.851034</ele>
        <time>2021-09-13T08:17:40.000Z</time>
      </trkpt>
      <trkpt lat="46.03296" lon="4.75627">
        <ele>190.720121</ele>
        <time>2021-09-13T08:17:48.000Z</time>
      </trkpt>
      <trkpt lat="46.03254" lon="4.75615">
        <ele>190.672996</ele>
        <time>2021-09-13T08:17:55.000Z</time>
      </trkpt>
      <trkpt lat="46.03204" lon="4.75584">
        <ele>190.65638</ele>
        <time>2021-09-13T08:18:04.000Z</time>
      </trkpt>
      <trkpt lat="46.03167" lon="4.75558">
        <ele>190.643996</ele>
        <time>2021-09-13T08:18:11.000Z</time>
      </trkpt>
      <trkpt lat="46.03115" lon="4.75523">
        <ele>190.606258</ele>
        <time>2021-09-13T08:18:21.000Z</time>
      </trkpt>
      <trkpt lat="46.0311" lon="4.7552">
        <ele>190.547676</ele>
        <time>2021-09-13T08:18:22.000Z</time>
      </trkpt>
      <trkpt lat="46.03059" lon="4.7549">
        <ele>189.999573</ele>
        <time>2021-09-13T08:18:31.000Z</time>
      </trkpt>
      <trkpt lat="46.03017" lon="4.7547">
        <ele>189.557553</ele>
        <time>2021-09-13T08:18:38.000Z</time>
      </trkpt>
      <trkpt lat="46.0296" lon="4.75443">
        <ele>188.956429</ele>
        <time>2021-09-13T08:18:47.000Z</time>
      </trkpt>
      <trkpt lat="46.02904" lon="4.75416">
        <ele>187.976081</ele>
        <time>2021-09-13T08:18:55.000Z</time>
      </trkpt>
      <trkpt lat="46.02853" lon="4.7539">
        <ele>186.955312</ele>
        <time>2021-09-13T08:19:02.000Z</time>
      </trkpt>
      <trkpt lat="46.02829" lon="4.75378">
        <ele>186.495027</ele>
        <time>2021-09-13T08:19:05.000Z</time>
      </trkpt>
      <trkpt lat="46.02773" lon="4.75351">
        <ele>185.427107</ele>
        <time>2021-09-13T08:19:12.000Z</time>
      </trkpt>
      <trkpt lat="46.02749" lon="4.75337">
        <ele>185.133728</ele>
        <time>2021-09-13T08:19:15.000Z</time>
      </trkpt>
      <trkpt lat="46.02705" lon="4.75314">
        <ele>184.594505</ele>
        <time>2021-09-13T08:19:21.000Z</time>
      </trkpt>
      <trkpt lat="46.02667" lon="4.75302">
        <ele>184.158583</ele>
        <time>2021-09-13T08:19:27.000Z</time>
      </trkpt>
      <trkpt lat="46.02636" lon="4.75294">
        <ele>183.795522</ele>
        <time>2021-09-13T08:19:33.000Z</time>
      </trkpt>
      <trkpt lat="46.02599" lon="4.75287">
        <ele>183.388023</ele>
        <time>2021-09-13T08:19:41.000Z</time>
      </trkpt>
      <trkpt lat="46.02552" lon="4.75282">
        <ele>183.050643</ele>
        <time>2021-09-13T08:19:51.000Z</time>
      </trkpt>
      <trkpt lat="46.02517" lon="4.75278">
        <ele>182.792518</ele>
        <time>2021-09-13T08:19:58.000Z</time>
      </trkpt>
      <trkpt lat="46.02477" lon="4.75275">
        <ele>182.500676</ele>
        <time>2021-09-13T08:20:05.000Z</time>
      </trkpt>
      <trkpt lat="46.02435" lon="4.75273">
        <ele>182.196039</ele>
        <time>2021-09-13T08:20:12.000Z</time>
      </trkpt>
      <trkpt lat="46.02393" lon="4.75272">
        <ele>182.206301</ele>
        <time>2021-09-13T08:20:19.000Z</time>
      </trkpt>
      <trkpt lat="46.02348" lon="4.75274">
        <ele>182.318203</ele>
        <time>2021-09-13T08:20:27.000Z</time>
      </trkpt>
      <trkpt lat="46.02306" lon="4.7528">
        <ele>182.42215</ele>
        <time>2021-09-13T08:20:35.000Z</time>
      </trkpt>
      <trkpt lat="46.02266" lon="4.75286">
        <ele>182.52324</ele>
        <time>2021-09-13T08:20:43.000Z</time>
      </trkpt>
      <trkpt lat="46.02223" lon="4.75297">
        <ele>182.556154</ele>
        <time>2021-09-13T08:20:52.000Z</time>
      </trkpt>
      <trkpt lat="46.02177" lon="4.75308">
        <ele>182.521377</ele>
        <time>2021-09-13T08:21:01.000Z</time>
      </trkpt>
      <trkpt lat="46.02135" lon="4.75319">
        <ele>182.48964</ele>
        <time>2021-09-13T08:21:08.000Z</time>
      </trkpt>
      <trkpt lat="46.02112" lon="4.75325">
        <ele>182.471761</ele>
        <time>2021-09-13T08:21:14.000Z</time>
      </trkpt>
      <trkpt lat="46.02063" lon="4.75335">
        <ele>182.388889</ele>
        <time>2021-09-13T08:21:21.000Z</time>
      </trkpt>
      <trkpt lat="46.02009" lon="4.75337">
        <ele>181.871161</ele>
        <time>2021-09-13T08:21:29.000Z</time>
      </trkpt>
      <trkpt lat="46.01952" lon="4.75338">
        <ele>181.319913</ele>
        <time>2021-09-13T08:21:36.000Z</time>
      </trkpt>
      <trkpt lat="46.01917" lon="4.7534">
        <ele>180.984416</ele>
        <time>2021-09-13T08:21:42.000Z</time>
      </trkpt>
      <trkpt lat="46.01868" lon="4.75343">
        <ele>180.572028</ele>
        <time>2021-09-13T08:21:49.000Z</time>
      </trkpt>
      <trkpt lat="46.01826" lon="4.75345">
        <ele>180.275876</ele>
        <time>2021-09-13T08:21:54.000Z</time>
      </trkpt>
      <trkpt lat="46.01784" lon="4.75346">
        <ele>179.986022</ele>
        <time>2021-09-13T08:22:00.000Z</time>
      </trkpt>
      <trkpt lat="46.01756" lon="4.75346">
        <ele>179.795548</ele>
        <time>2021-09-13T08:22:04.000Z</time>
      </trkpt>
      <trkpt lat="46.017" lon="4.75348">
        <ele>179.393758</ele>
        <time>2021-09-13T08:22:12.000Z</time>
      </trkpt>
      <trkpt lat="46.01647" lon="4.75342">
        <ele>178.925949</ele>
        <time>2021-09-13T08:22:20.000Z</time>
      </trkpt>
      <trkpt lat="46.01591" lon="4.75332">
        <ele>178.426523</ele>
        <time>2021-09-13T08:22:29.000Z</time>
      </trkpt>
      <trkpt lat="46.01585" lon="4.75331">
        <ele>178.370482</ele>
        <time>2021-09-13T08:22:30.000Z</time>
      </trkpt>
      <trkpt lat="46.01529" lon="4.7532">
        <ele>177.879596</ele>
        <time>2021-09-13T08:22:39.000Z</time>
      </trkpt>
      <trkpt lat="46.0147" lon="4.75308">
        <ele>177.567481</ele>
        <time>2021-09-13T08:22:49.000Z</time>
      </trkpt>
      <trkpt lat="46.01416" lon="4.75296">
        <ele>177.275327</ele>
        <time>2021-09-13T08:22:59.000Z</time>
      </trkpt>
      <trkpt lat="46.0141" lon="4.75295">
        <ele>177.245949</ele>
        <time>2021-09-13T08:23:00.000Z</time>
      </trkpt>
      <trkpt lat="46.01357" lon="4.75281">
        <ele>176.958913</ele>
        <time>2021-09-13T08:23:10.000Z</time>
      </trkpt>
      <trkpt lat="46.01351" lon="4.7528">
        <ele>176.935984</ele>
        <time>2021-09-13T08:23:11.000Z</time>
      </trkpt>
      <trkpt lat="46.01296" lon="4.75263">
        <ele>176.8811</ele>
        <time>2021-09-13T08:23:22.000Z</time>
      </trkpt>
      <trkpt lat="46.01254" lon="4.75249">
        <ele>176.839499</ele>
        <time>2021-09-13T08:23:30.000Z</time>
      </trkpt>
      <trkpt lat="46.01201" lon="4.75231">
        <ele>176.787093</ele>
        <time>2021-09-13T08:23:40.000Z</time>
      </trkpt>
      <trkpt lat="46.01149" lon="4.75214">
        <ele>176.716528</ele>
        <time>2021-09-13T08:23:50.000Z</time>
      </trkpt>
      <trkpt lat="46.01094" lon="4.75196">
        <ele>176.625976</ele>
        <time>2021-09-13T08:24:00.000Z</time>
      </trkpt>
      <trkpt lat="46.01089" lon="4.75194">
        <ele>176.617661</ele>
        <time>2021-09-13T08:24:01.000Z</time>
      </trkpt>
      <trkpt lat="46.01047" lon="4.75181">
        <ele>176.54684</ele>
        <time>2021-09-13T08:24:09.000Z</time>
      </trkpt>
      <trkpt lat="46.00994" lon="4.75165">
        <ele>176.4596</ele>
        <time>2021-09-13T08:24:19.000Z</time>
      </trkpt>
      <trkpt lat="46.00937" lon="4.75148">
        <ele>176.367743</ele>
        <time>2021-09-13T08:24:29.000Z</time>
      </trkpt>
      <trkpt lat="46.00888" lon="4.75133">
        <ele>176.286825</ele>
        <time>2021-09-13T08:24:37.000Z</time>
      </trkpt>
      <trkpt lat="46.00851" lon="4.75121">
        <ele>176.226956</ele>
        <time>2021-09-13T08:24:43.000Z</time>
      </trkpt>
      <trkpt lat="46.00834" lon="4.75116">
        <ele>176.198562</ele>
        <time>2021-09-13T08:24:46.000Z</time>
      </trkpt>
      <trkpt lat="46.00821" lon="4.75112">
        <ele>176.175657</ele>
        <time>2021-09-13T08:24:48.000Z</time>
      </trkpt>
      <trkpt lat="46.00778" lon="4.75099">
        <ele>176.083841</ele>
        <time>2021-09-13T08:24:55.000Z</time>
      </trkpt>
      <trkpt lat="46.00737" lon="4.75086">
        <ele>175.996272</ele>
        <time>2021-09-13T08:25:02.000Z</time>
      </trkpt>
      <trkpt lat="46.00695" lon="4.7508">
        <ele>175.908565</ele>
        <time>2021-09-13T08:25:09.000Z</time>
      </trkpt>
      <trkpt lat="46.00663" lon="4.75081">
        <ele>175.842658</ele>
        <time>2021-09-13T08:25:14.000Z</time>
      </trkpt>
      <trkpt lat="46.00618" lon="4.75083">
        <ele>175.744718</ele>
        <time>2021-09-13T08:25:21.000Z</time>
      </trkpt>
      <trkpt lat="46.00592" lon="4.75084">
        <ele>175.687645</ele>
        <time>2021-09-13T08:25:25.000Z</time>
      </trkpt>
      <trkpt lat="46.00573" lon="4.75085">
        <ele>175.645778</ele>
        <time>2021-09-13T08:25:28.000Z</time>
      </trkpt>
      <trkpt lat="46.0052" lon="4.75087">
        <ele>175.530091</ele>
        <time>2021-09-13T08:25:36.000Z</time>
      </trkpt>
      <trkpt lat="46.00468" lon="4.75089">
        <ele>175.415223</ele>
        <time>2021-09-13T08:25:44.000Z</time>
      </trkpt>
      <trkpt lat="46.00416" lon="4.7509">
        <ele>175.462468</ele>
        <time>2021-09-13T08:25:52.000Z</time>
      </trkpt>
      <trkpt lat="46.00379" lon="4.75092">
        <ele>175.496337</ele>
        <time>2021-09-13T08:25:58.000Z</time>
      </trkpt>
      <trkpt lat="46.00344" lon="4.75096">
        <ele>175.528726</ele>
        <time>2021-09-13T08:26:04.000Z</time>
      </trkpt>
      <trkpt lat="46.00338" lon="4.75097">
        <ele>175.533852</ele>
        <time>2021-09-13T08:26:05.000Z</time>
      </trkpt>
      <trkpt lat="46.00316" lon="4.751">
        <ele>175.554363</ele>
        <time>2021-09-13T08:26:09.000Z</time>
      </trkpt>
      <trkpt lat="46.00279" lon="4.75103">
        <ele>175.629375</ele>
        <time>2021-09-13T08:26:16.000Z</time>
      </trkpt>
      <trkpt lat="46.00246" lon="4.75106">
        <ele>175.79296</ele>
        <time>2021-09-13T08:26:22.000Z</time>
      </trkpt>
      <trkpt lat="46.00208" lon="4.75109">
        <ele>175.984737</ele>
        <time>2021-09-13T08:26:29.000Z</time>
      </trkpt>
      <trkpt lat="46.00177" lon="4.7511">
        <ele>176.142972</ele>
        <time>2021-09-13T08:26:34.000Z</time>
      </trkpt>
      <trkpt lat="46.00139" lon="4.7511">
        <ele>176.331438</ele>
        <time>2021-09-13T08:26:41.000Z</time>
      </trkpt>
      <trkpt lat="46.00134" lon="4.7511">
        <ele>176.359666</ele>
        <time>2021-09-13T08:26:44.000Z</time>
      </trkpt>
      <trkpt lat="46.00129" lon="4.75109">
        <ele>176.383857</ele>
        <time>2021-09-13T08:26:51.000Z</time>
      </trkpt>
      <trkpt lat="46.00126" lon="4.75109">
        <ele>176.397467</ele>
        <time>2021-09-13T08:26:52.000Z</time>
      </trkpt>
      <trkpt lat="46.00103" lon="4.75108">
        <ele>176.491574</ele>
        <time>2021-09-13T08:26:58.000Z</time>
      </trkpt>
      <trkpt lat="46.00068" lon="4.75108">
        <ele>176.526516</ele>
        <time>2021-09-13T08:27:05.000Z</time>
      </trkpt>
      <trkpt lat="46.00057" lon="4.75108">
        <ele>176.53687</ele>
        <time>2021-09-13T08:27:08.000Z</time>
      </trkpt>
      <trkpt lat="46.0003" lon="4.75111">
        <ele>176.563804</ele>
        <time>2021-09-13T08:27:12.000Z</time>
      </trkpt>
      <trkpt lat="46.00025" lon="4.75112">
        <ele>176.569215</ele>
        <time>2021-09-13T08:27:13.000Z</time>
      </trkpt>
      <trkpt lat="46.00014" lon="4.75113">
        <ele>176.579932</ele>
        <time>2021-09-13T08:27:15.000Z</time>
      </trkpt>
      <trkpt lat="46.00008" lon="4.75114">
        <ele>176.58564</ele>
        <time>2021-09-13T08:27:17.000Z</time>
      </trkpt>
      <trkpt lat="45.99992" lon="4.75121">
        <ele>176.602556</ele>
        <time>2021-09-13T08:27:20.000Z</time>
      </trkpt>
      <trkpt lat="45.99975" lon="4.75128">
        <ele>176.619855</ele>
        <time>2021-09-13T08:27:23.000Z</time>
      </trkpt>
      <trkpt lat="45.99924" lon="4.75151">
        <ele>176.66787</ele>
        <time>2021-09-13T08:27:31.000Z</time>
      </trkpt>
      <trkpt lat="45.99878" lon="4.75172">
        <ele>176.687011</ele>
        <time>2021-09-13T08:27:39.000Z</time>
      </trkpt>
      <trkpt lat="45.99849" lon="4.75185">
        <ele>176.698767</ele>
        <time>2021-09-13T08:27:44.000Z</time>
      </trkpt>
      <trkpt lat="45.99843" lon="4.75188">
        <ele>176.701148</ele>
        <time>2021-09-13T08:27:45.000Z</time>
      </trkpt>
      <trkpt lat="45.99791" lon="4.75212">
        <ele>176.722696</ele>
        <time>2021-09-13T08:27:54.000Z</time>
      </trkpt>
      <trkpt lat="45.99738" lon="4.75237">
        <ele>176.807504</ele>
        <time>2021-09-13T08:28:03.000Z</time>
      </trkpt>
      <trkpt lat="45.99686" lon="4.75261">
        <ele>176.972053</ele>
        <time>2021-09-13T08:28:12.000Z</time>
      </trkpt>
      <trkpt lat="45.99663" lon="4.75271">
        <ele>177.044619</ele>
        <time>2021-09-13T08:28:16.000Z</time>
      </trkpt>
      <trkpt lat="45.99646" lon="4.75276">
        <ele>177.098089</ele>
        <time>2021-09-13T08:28:19.000Z</time>
      </trkpt>
      <trkpt lat="45.99641" lon="4.75276">
        <ele>177.1147</ele>
        <time>2021-09-13T08:28:20.000Z</time>
      </trkpt>
      <trkpt lat="45.9962" lon="4.75274">
        <ele>177.177322</ele>
        <time>2021-09-13T08:28:25.000Z</time>
      </trkpt>
      <trkpt lat="45.99587" lon="4.75271">
        <ele>177.275933</ele>
        <time>2021-09-13T08:28:33.000Z</time>
      </trkpt>
      <trkpt lat="45.99576" lon="4.75264">
        <ele>177.314749</ele>
        <time>2021-09-13T08:28:38.000Z</time>
      </trkpt>
      <trkpt lat="45.99567" lon="4.75264">
        <ele>177.341398</ele>
        <time>2021-09-13T08:28:40.000Z</time>
      </trkpt>
      <trkpt lat="45.99559" lon="4.75269">
        <ele>177.369141</ele>
        <time>2021-09-13T08:28:42.000Z</time>
      </trkpt>
      <trkpt lat="45.99552" lon="4.7528">
        <ele>177.400032</ele>
        <time>2021-09-13T08:28:45.000Z</time>
      </trkpt>
      <trkpt lat="45.99546" lon="4.75298">
        <ele>177.441643</ele>
        <time>2021-09-13T08:28:46.000Z</time>
      </trkpt>
      <trkpt lat="45.99541" lon="4.75298">
        <ele>177.455755</ele>
        <time>2021-09-13T08:28:47.000Z</time>
      </trkpt>
      <trkpt lat="45.99531" lon="4.753">
        <ele>177.486472</ele>
        <time>2021-09-13T08:28:49.000Z</time>
      </trkpt>
      <trkpt lat="45.99479" lon="4.75306">
        <ele>177.646173</ele>
        <time>2021-09-13T08:28:58.000Z</time>
      </trkpt>
      <trkpt lat="45.99428" lon="4.75313">
        <ele>177.802495</ele>
        <time>2021-09-13T08:29:06.000Z</time>
      </trkpt>
      <trkpt lat="45.99409" lon="4.75319">
        <ele>177.791809</ele>
        <time>2021-09-13T08:29:09.000Z</time>
      </trkpt>
      <trkpt lat="45.99396" lon="4.75325">
        <ele>177.749616</ele>
        <time>2021-09-13T08:29:11.000Z</time>
      </trkpt>
      <trkpt lat="45.99385" lon="4.75334">
        <ele>177.709614</ele>
        <time>2021-09-13T08:29:13.000Z</time>
      </trkpt>
      <trkpt lat="45.9937" lon="4.75352">
        <ele>177.647501</ele>
        <time>2021-09-13T08:29:16.000Z</time>
      </trkpt>
      <trkpt lat="45.99352" lon="4.75397">
        <ele>177.534067</ele>
        <time>2021-09-13T08:29:22.000Z</time>
      </trkpt>
      <trkpt lat="45.99337" lon="4.75409">
        <ele>177.477538</ele>
        <time>2021-09-13T08:29:24.000Z</time>
      </trkpt>
      <trkpt lat="45.99342" lon="4.75431">
        <ele>177.426984</ele>
        <time>2021-09-13T08:29:26.000Z</time>
      </trkpt>
      <trkpt lat="45.99339" lon="4.75439">
        <ele>177.407924</ele>
        <time>2021-09-13T08:29:27.000Z</time>
      </trkpt>
      <trkpt lat="45.99328" lon="4.75463">
        <ele>177.346635</ele>
        <time>2021-09-13T08:29:30.000Z</time>
      </trkpt>
      <trkpt lat="45.99325" lon="4.7547">
        <ele>177.326272</ele>
        <time>2021-09-13T08:29:31.000Z</time>
      </trkpt>
      <trkpt lat="45.99309" lon="4.75497">
        <ele>177.262747</ele>
        <time>2021-09-13T08:29:35.000Z</time>
      </trkpt>
      <trkpt lat="45.99277" lon="4.75533">
        <ele>177.29961</ele>
        <time>2021-09-13T08:29:42.000Z</time>
      </trkpt>
      <trkpt lat="45.99243" lon="4.75558">
        <ele>177.334396</ele>
        <time>2021-09-13T08:29:49.000Z</time>
      </trkpt>
      <trkpt lat="45.99213" lon="4.75578">
        <ele>177.364268</ele>
        <time>2021-09-13T08:29:55.000Z</time>
      </trkpt>
      <trkpt lat="45.99165" lon="4.75607">
        <ele>177.411613</ele>
        <time>2021-09-13T08:30:05.000Z</time>
      </trkpt>
      <trkpt lat="45.9915" lon="4.75615">
        <ele>177.429121</ele>
        <time>2021-09-13T08:30:08.000Z</time>
      </trkpt>
      <trkpt lat="45.99142" lon="4.75618">
        <ele>177.446446</ele>
        <time>2021-09-13T08:30:10.000Z</time>
      </trkpt>
      <trkpt lat="45.99133" lon="4.75606">
        <ele>177.470793</ele>
        <time>2021-09-13T08:30:11.000Z</time>
      </trkpt>
      <trkpt lat="45.9912" lon="4.75614">
        <ele>177.500047</ele>
        <time>2021-09-13T08:30:13.000Z</time>
      </trkpt>
      <trkpt lat="45.99109" lon="4.75647">
        <ele>177.551124</ele>
        <time>2021-09-13T08:30:17.000Z</time>
      </trkpt>
      <trkpt lat="45.99104" lon="4.75651">
        <ele>177.562315</ele>
        <time>2021-09-13T08:30:18.000Z</time>
      </trkpt>
      <trkpt lat="45.99094" lon="4.75659">
        <ele>177.585838</ele>
        <time>2021-09-13T08:30:20.000Z</time>
      </trkpt>
      <trkpt lat="45.99088" lon="4.7566">
        <ele>177.597472</ele>
        <time>2021-09-13T08:30:21.000Z</time>
      </trkpt>
      <trkpt lat="45.99083" lon="4.75661">
        <ele>177.608466</ele>
        <time>2021-09-13T08:30:22.000Z</time>
      </trkpt>
      <trkpt lat="45.9906" lon="4.75662">
        <ele>177.653942</ele>
        <time>2021-09-13T08:30:26.000Z</time>
      </trkpt>
      <trkpt lat="45.99043" lon="4.7566">
        <ele>177.688421</ele>
        <time>2021-09-13T08:30:29.000Z</time>
      </trkpt>
      <trkpt lat="45.99031" lon="4.75659">
        <ele>177.712384</ele>
        <time>2021-09-13T08:30:31.000Z</time>
      </trkpt>
      <trkpt lat="45.98992" lon="4.75659">
        <ele>177.794183</ele>
        <time>2021-09-13T08:30:38.000Z</time>
      </trkpt>
      <trkpt lat="45.98956" lon="4.75669">
        <ele>177.905982</ele>
        <time>2021-09-13T08:30:44.000Z</time>
      </trkpt>
      <trkpt lat="45.98909" lon="4.7569">
        <ele>178.056331</ele>
        <time>2021-09-13T08:30:52.000Z</time>
      </trkpt>
      <trkpt lat="45.9887" lon="4.75707">
        <ele>178.180477</ele>
        <time>2021-09-13T08:30:59.000Z</time>
      </trkpt>
      <trkpt lat="45.98843" lon="4.75713">
        <ele>178.266524</ele>
        <time>2021-09-13T08:31:05.000Z</time>
      </trkpt>
      <trkpt lat="45.98788" lon="4.7572">
        <ele>178.414864</ele>
        <time>2021-09-13T08:31:14.000Z</time>
      </trkpt>
      <trkpt lat="45.98783" lon="4.75721">
        <ele>178.428145</ele>
        <time>2021-09-13T08:31:15.000Z</time>
      </trkpt>
      <trkpt lat="45.98778" lon="4.75722">
        <ele>178.439459</ele>
        <time>2021-09-13T08:31:16.000Z</time>
      </trkpt>
      <trkpt lat="45.98762" lon="4.75717">
        <ele>178.48014</ele>
        <time>2021-09-13T08:31:20.000Z</time>
      </trkpt>
      <trkpt lat="45.98749" lon="4.75725">
        <ele>178.517436</ele>
        <time>2021-09-13T08:31:24.000Z</time>
      </trkpt>
      <trkpt lat="45.98744" lon="4.75725">
        <ele>178.529134</ele>
        <time>2021-09-13T08:31:25.000Z</time>
      </trkpt>
      <trkpt lat="45.98704" lon="4.75728">
        <ele>178.62815</ele>
        <time>2021-09-13T08:31:33.000Z</time>
      </trkpt>
      <trkpt lat="45.98662" lon="4.7573">
        <ele>178.733779</ele>
        <time>2021-09-13T08:31:40.000Z</time>
      </trkpt>
      <trkpt lat="45.98622" lon="4.7573">
        <ele>178.781207</ele>
        <time>2021-09-13T08:31:47.000Z</time>
      </trkpt>
      <trkpt lat="45.98612" lon="4.7573">
        <ele>178.780983</ele>
        <time>2021-09-13T08:31:49.000Z</time>
      </trkpt>
      <trkpt lat="45.98603" lon="4.75731">
        <ele>178.780784</ele>
        <time>2021-09-13T08:31:51.000Z</time>
      </trkpt>
      <trkpt lat="45.98575" lon="4.75726">
        <ele>178.78012</ele>
        <time>2021-09-13T08:31:56.000Z</time>
      </trkpt>
      <trkpt lat="45.98569" lon="4.75725">
        <ele>178.779986</ele>
        <time>2021-09-13T08:31:57.000Z</time>
      </trkpt>
      <trkpt lat="45.98557" lon="4.75723">
        <ele>178.779723</ele>
        <time>2021-09-13T08:31:59.000Z</time>
      </trkpt>
      <trkpt lat="45.98546" lon="4.7572">
        <ele>178.779455</ele>
        <time>2021-09-13T08:32:01.000Z</time>
      </trkpt>
      <trkpt lat="45.98504" lon="4.75715">
        <ele>178.778487</ele>
        <time>2021-09-13T08:32:08.000Z</time>
      </trkpt>
      <trkpt lat="45.98498" lon="4.75714">
        <ele>178.778356</ele>
        <time>2021-09-13T08:32:09.000Z</time>
      </trkpt>
      <trkpt lat="45.98468" lon="4.75705">
        <ele>178.777664</ele>
        <time>2021-09-13T08:32:14.000Z</time>
      </trkpt>
      <trkpt lat="45.9844" lon="4.757">
        <ele>178.758557</ele>
        <time>2021-09-13T08:32:19.000Z</time>
      </trkpt>
      <trkpt lat="45.98396" lon="4.75693">
        <ele>178.723236</ele>
        <time>2021-09-13T08:32:27.000Z</time>
      </trkpt>
      <trkpt lat="45.98386" lon="4.75692">
        <ele>178.715202</ele>
        <time>2021-09-13T08:32:29.000Z</time>
      </trkpt>
      <trkpt lat="45.98377" lon="4.75688">
        <ele>178.707347</ele>
        <time>2021-09-13T08:32:31.000Z</time>
      </trkpt>
      <trkpt lat="45.98363" lon="4.75691">
        <ele>178.696235</ele>
        <time>2021-09-13T08:32:33.000Z</time>
      </trkpt>
      <trkpt lat="45.98344" lon="4.75689">
        <ele>178.680831</ele>
        <time>2021-09-13T08:32:36.000Z</time>
      </trkpt>
      <trkpt lat="45.98307" lon="4.75686">
        <ele>178.650826</ele>
        <time>2021-09-13T08:32:42.000Z</time>
      </trkpt>
      <trkpt lat="45.98261" lon="4.75681">
        <ele>178.525929</ele>
        <time>2021-09-13T08:32:50.000Z</time>
      </trkpt>
      <trkpt lat="45.98227" lon="4.75684">
        <ele>178.381674</ele>
        <time>2021-09-13T08:32:56.000Z</time>
      </trkpt>
      <trkpt lat="45.98222" lon="4.75686">
        <ele>178.358893</ele>
        <time>2021-09-13T08:32:57.000Z</time>
      </trkpt>
      <trkpt lat="45.98194" lon="4.75688">
        <ele>178.235863</ele>
        <time>2021-09-13T08:33:02.000Z</time>
      </trkpt>
      <trkpt lat="45.9815" lon="4.75691">
        <ele>178.045478</ele>
        <time>2021-09-13T08:33:10.000Z</time>
      </trkpt>
      <trkpt lat="45.98098" lon="4.75695">
        <ele>177.844664</ele>
        <time>2021-09-13T08:33:19.000Z</time>
      </trkpt>
      <trkpt lat="45.98041" lon="4.75704">
        <ele>177.801255</ele>
        <time>2021-09-13T08:33:29.000Z</time>
      </trkpt>
      <trkpt lat="45.98035" lon="4.75705">
        <ele>177.796815</ele>
        <time>2021-09-13T08:33:30.000Z</time>
      </trkpt>
      <trkpt lat="45.97991" lon="4.7572">
        <ele>177.762674</ele>
        <time>2021-09-13T08:33:38.000Z</time>
      </trkpt>
      <trkpt lat="45.97971" lon="4.75728">
        <ele>177.746256</ele>
        <time>2021-09-13T08:33:42.000Z</time>
      </trkpt>
      <trkpt lat="45.9796" lon="4.7573">
        <ele>177.737948</ele>
        <time>2021-09-13T08:33:44.000Z</time>
      </trkpt>
      <trkpt lat="45.9794" lon="4.75727">
        <ele>177.722602</ele>
        <time>2021-09-13T08:33:48.000Z</time>
      </trkpt>
      <trkpt lat="45.97935" lon="4.75724">
        <ele>177.718555</ele>
        <time>2021-09-13T08:33:49.000Z</time>
      </trkpt>
      <trkpt lat="45.97897" lon="4.75701">
        <ele>177.574122</ele>
        <time>2021-09-13T08:33:56.000Z</time>
      </trkpt>
      <trkpt lat="45.97859" lon="4.75683">
        <ele>177.411689</ele>
        <time>2021-09-13T08:34:03.000Z</time>
      </trkpt>
      <trkpt lat="45.97817" lon="4.75675">
        <ele>177.243296</ele>
        <time>2021-09-13T08:34:10.000Z</time>
      </trkpt>
      <trkpt lat="45.97768" lon="4.7567">
        <ele>177.045296</ele>
        <time>2021-09-13T08:34:18.000Z</time>
      </trkpt>
      <trkpt lat="45.97724" lon="4.75668">
        <ele>176.862293</ele>
        <time>2021-09-13T08:34:25.000Z</time>
      </trkpt>
      <trkpt lat="45.97666" lon="4.7567">
        <ele>176.619914</ele>
        <time>2021-09-13T08:34:34.000Z</time>
      </trkpt>
      <trkpt lat="45.9766" lon="4.7567">
        <ele>176.593497</ele>
        <time>2021-09-13T08:34:35.000Z</time>
      </trkpt>
      <trkpt lat="45.97618" lon="4.75671">
        <ele>176.4178</ele>
        <time>2021-09-13T08:34:42.000Z</time>
      </trkpt>
      <trkpt lat="45.97606" lon="4.75673">
        <ele>176.367947</ele>
        <time>2021-09-13T08:34:44.000Z</time>
      </trkpt>
      <trkpt lat="45.9759" lon="4.75683">
        <ele>176.293589</ele>
        <time>2021-09-13T08:34:47.000Z</time>
      </trkpt>
      <trkpt lat="45.97577" lon="4.75686">
        <ele>176.241129</ele>
        <time>2021-09-13T08:34:49.000Z</time>
      </trkpt>
      <trkpt lat="45.97572" lon="4.75683">
        <ele>176.218116</ele>
        <time>2021-09-13T08:34:50.000Z</time>
      </trkpt>
      <trkpt lat="45.9757" lon="4.7567">
        <ele>176.185032</ele>
        <time>2021-09-13T08:34:51.000Z</time>
      </trkpt>
      <trkpt lat="45.97561" lon="4.75662">
        <ele>176.143445</ele>
        <time>2021-09-13T08:34:53.000Z</time>
      </trkpt>
      <trkpt lat="45.97539" lon="4.7566">
        <ele>176.064823</ele>
        <time>2021-09-13T08:34:56.000Z</time>
      </trkpt>
      <trkpt lat="45.97527" lon="4.75662">
        <ele>176.019051</ele>
        <time>2021-09-13T08:34:58.000Z</time>
      </trkpt>
      <trkpt lat="45.97521" lon="4.75664">
        <ele>175.994629</ele>
        <time>2021-09-13T08:34:59.000Z</time>
      </trkpt>
      <trkpt lat="45.97477" lon="4.75677">
        <ele>175.828646</ele>
        <time>2021-09-13T08:35:06.000Z</time>
      </trkpt>
      <trkpt lat="45.97436" lon="4.7568">
        <ele>175.677492</ele>
        <time>2021-09-13T08:35:13.000Z</time>
      </trkpt>
      <trkpt lat="45.97395" lon="4.7568">
        <ele>175.535174</ele>
        <time>2021-09-13T08:35:20.000Z</time>
      </trkpt>
      <trkpt lat="45.97354" lon="4.75679">
        <ele>175.41715</ele>
        <time>2021-09-13T08:35:27.000Z</time>
      </trkpt>
      <trkpt lat="45.97308" lon="4.75676">
        <ele>175.286097</ele>
        <time>2021-09-13T08:35:35.000Z</time>
      </trkpt>
      <trkpt lat="45.97255" lon="4.75667">
        <ele>175.132357</ele>
        <time>2021-09-13T08:35:44.000Z</time>
      </trkpt>
      <trkpt lat="45.97203" lon="4.75649">
        <ele>174.970577</ele>
        <time>2021-09-13T08:35:53.000Z</time>
      </trkpt>
      <trkpt lat="45.97157" lon="4.7563">
        <ele>174.817501</ele>
        <time>2021-09-13T08:36:01.000Z</time>
      </trkpt>
      <trkpt lat="45.97106" lon="4.75604">
        <ele>174.64524</ele>
        <time>2021-09-13T08:36:10.000Z</time>
      </trkpt>
      <trkpt lat="45.97094" lon="4.75599">
        <ele>174.60755</ele>
        <time>2021-09-13T08:36:12.000Z</time>
      </trkpt>
      <trkpt lat="45.97055" lon="4.75581">
        <ele>174.479968</ele>
        <time>2021-09-13T08:36:19.000Z</time>
      </trkpt>
      <trkpt lat="45.97" lon="4.75558">
        <ele>174.37384</ele>
        <time>2021-09-13T08:36:29.000Z</time>
      </trkpt>
      <trkpt lat="45.96968" lon="4.75544">
        <ele>174.311108</ele>
        <time>2021-09-13T08:36:35.000Z</time>
      </trkpt>
      <trkpt lat="45.96924" lon="4.75528">
        <ele>174.227125</ele>
        <time>2021-09-13T08:36:43.000Z</time>
      </trkpt>
      <trkpt lat="45.96871" lon="4.75508">
        <ele>174.143312</ele>
        <time>2021-09-13T08:36:53.000Z</time>
      </trkpt>
      <trkpt lat="45.96865" lon="4.75507">
        <ele>174.140331</ele>
        <time>2021-09-13T08:36:54.000Z</time>
      </trkpt>
      <trkpt lat="45.9681" lon="4.75487">
        <ele>174.110036</ele>
        <time>2021-09-13T08:37:04.000Z</time>
      </trkpt>
      <trkpt lat="45.96756" lon="4.7546">
        <ele>174.079037</ele>
        <time>2021-09-13T08:37:14.000Z</time>
      </trkpt>
      <trkpt lat="45.96724" lon="4.75443">
        <ele>174.061022</ele>
        <time>2021-09-13T08:37:20.000Z</time>
      </trkpt>
      <trkpt lat="45.96684" lon="4.75421">
        <ele>174.17584</ele>
        <time>2021-09-13T08:37:28.000Z</time>
      </trkpt>
      <trkpt lat="45.96652" lon="4.75404">
        <ele>174.315316</ele>
        <time>2021-09-13T08:37:35.000Z</time>
      </trkpt>
      <trkpt lat="45.96624" lon="4.75388">
        <ele>174.437638</ele>
        <time>2021-09-13T08:37:41.000Z</time>
      </trkpt>
      <trkpt lat="45.96586" lon="4.75367">
        <ele>174.602365</ele>
        <time>2021-09-13T08:37:49.000Z</time>
      </trkpt>
      <trkpt lat="45.96558" lon="4.7535">
        <ele>174.7262</ele>
        <time>2021-09-13T08:37:55.000Z</time>
      </trkpt>
      <trkpt lat="45.96512" lon="4.75324">
        <ele>175.511095</ele>
        <time>2021-09-13T08:38:05.000Z</time>
      </trkpt>
      <trkpt lat="45.96474" lon="4.75302">
        <ele>176.351581</ele>
        <time>2021-09-13T08:38:14.000Z</time>
      </trkpt>
      <trkpt lat="45.9644" lon="4.75282">
        <ele>177.090661</ele>
        <time>2021-09-13T08:38:23.000Z</time>
      </trkpt>
      <trkpt lat="45.9641" lon="4.75265">
        <ele>177.769624</ele>
        <time>2021-09-13T08:38:32.000Z</time>
      </trkpt>
      <trkpt lat="45.96387" lon="4.75253">
        <ele>178.272616</ele>
        <time>2021-09-13T08:38:39.000Z</time>
      </trkpt>
      <trkpt lat="45.96366" lon="4.75244">
        <ele>178.833034</ele>
        <time>2021-09-13T08:38:45.000Z</time>
      </trkpt>
      <trkpt lat="45.96345" lon="4.75236">
        <ele>179.481999</ele>
        <time>2021-09-13T08:38:51.000Z</time>
      </trkpt>
      <trkpt lat="45.96312" lon="4.75223">
        <ele>180.529622</ele>
        <time>2021-09-13T08:39:00.000Z</time>
      </trkpt>
      <trkpt lat="45.96285" lon="4.75213">
        <ele>181.363926</ele>
        <time>2021-09-13T08:39:07.000Z</time>
      </trkpt>
      <trkpt lat="45.96262" lon="4.75205">
        <ele>182.087252</ele>
        <time>2021-09-13T08:39:13.000Z</time>
      </trkpt>
      <trkpt lat="45.96236" lon="4.75193">
        <ele>182.902783</ele>
        <time>2021-09-13T08:39:20.000Z</time>
      </trkpt>
      <trkpt lat="45.96213" lon="4.7518">
        <ele>183.644897</ele>
        <time>2021-09-13T08:39:26.000Z</time>
      </trkpt>
      <trkpt lat="45.96186" lon="4.75159">
        <ele>184.536033</ele>
        <time>2021-09-13T08:39:34.000Z</time>
      </trkpt>
      <trkpt lat="45.96162" lon="4.75137">
        <ele>185.355762</ele>
        <time>2021-09-13T08:39:41.000Z</time>
      </trkpt>
      <trkpt lat="45.96143" lon="4.75118">
        <ele>186.00316</ele>
        <time>2021-09-13T08:39:47.000Z</time>
      </trkpt>
      <trkpt lat="45.96117" lon="4.75089">
        <ele>186.949488</ele>
        <time>2021-09-13T08:39:56.000Z</time>
      </trkpt>
      <trkpt lat="45.96088" lon="4.75065">
        <ele>187.887099</ele>
        <time>2021-09-13T08:40:05.000Z</time>
      </trkpt>
      <trkpt lat="45.96063" lon="4.75053">
        <ele>188.63992</ele>
        <time>2021-09-13T08:40:12.000Z</time>
      </trkpt>
      <trkpt lat="45.96033" lon="4.75054">
        <ele>189.327238</ele>
        <time>2021-09-13T08:40:19.000Z</time>
      </trkpt>
      <trkpt lat="45.96021" lon="4.75058">
        <ele>189.565413</ele>
        <time>2021-09-13T08:40:22.000Z</time>
      </trkpt>
      <trkpt lat="45.96008" lon="4.75063">
        <ele>189.800028</ele>
        <time>2021-09-13T08:40:25.000Z</time>
      </trkpt>
      <trkpt lat="45.95981" lon="4.75073">
        <ele>190.326687</ele>
        <time>2021-09-13T08:40:32.000Z</time>
      </trkpt>
      <trkpt lat="45.95945" lon="4.75086">
        <ele>190.993087</ele>
        <time>2021-09-13T08:40:42.000Z</time>
      </trkpt>
      <trkpt lat="45.95912" lon="4.751">
        <ele>191.638723</ele>
        <time>2021-09-13T08:40:52.000Z</time>
      </trkpt>
      <trkpt lat="45.9588" lon="4.75123">
        <ele>192.28528</ele>
        <time>2021-09-13T08:41:02.000Z</time>
      </trkpt>
      <trkpt lat="45.95856" lon="4.75149">
        <ele>192.622655</ele>
        <time>2021-09-13T08:41:10.000Z</time>
      </trkpt>
      <trkpt lat="45.9583" lon="4.75181">
        <ele>192.976796</ele>
        <time>2021-09-13T08:41:18.000Z</time>
      </trkpt>
      <trkpt lat="45.95795" lon="4.75229">
        <ele>193.473863</ele>
        <time>2021-09-13T08:41:28.000Z</time>
      </trkpt>
      <trkpt lat="45.95751" lon="4.75282">
        <ele>194.065517</ele>
        <time>2021-09-13T08:41:39.000Z</time>
      </trkpt>
      <trkpt lat="45.95712" lon="4.75324">
        <ele>194.177419</ele>
        <time>2021-09-13T08:41:48.000Z</time>
      </trkpt>
      <trkpt lat="45.9567" lon="4.75364">
        <ele>194.151629</ele>
        <time>2021-09-13T08:41:57.000Z</time>
      </trkpt>
      <trkpt lat="45.9562" lon="4.75405">
        <ele>194.122689</ele>
        <time>2021-09-13T08:42:06.000Z</time>
      </trkpt>
      <trkpt lat="45.9557" lon="4.75439">
        <ele>193.839484</ele>
        <time>2021-09-13T08:42:14.000Z</time>
      </trkpt>
      <trkpt lat="45.95549" lon="4.7545">
        <ele>193.528247</ele>
        <time>2021-09-13T08:42:18.000Z</time>
      </trkpt>
      <trkpt lat="45.95539" lon="4.75454">
        <ele>193.395481</ele>
        <time>2021-09-13T08:42:20.000Z</time>
      </trkpt>
      <trkpt lat="45.95524" lon="4.75447">
        <ele>193.176616</ele>
        <time>2021-09-13T08:42:23.000Z</time>
      </trkpt>
      <trkpt lat="45.95512" lon="4.75451">
        <ele>193.008874</ele>
        <time>2021-09-13T08:42:25.000Z</time>
      </trkpt>
      <trkpt lat="45.95507" lon="4.75458">
        <ele>192.914415</ele>
        <time>2021-09-13T08:42:26.000Z</time>
      </trkpt>
      <trkpt lat="45.955" lon="4.75478">
        <ele>192.705045</ele>
        <time>2021-09-13T08:42:28.000Z</time>
      </trkpt>
      <trkpt lat="45.95487" lon="4.75483">
        <ele>192.518636</ele>
        <time>2021-09-13T08:42:30.000Z</time>
      </trkpt>
      <trkpt lat="45.9545" lon="4.75497">
        <ele>191.998943</ele>
        <time>2021-09-13T08:42:35.000Z</time>
      </trkpt>
      <trkpt lat="45.95406" lon="4.7552">
        <ele>191.295232</ele>
        <time>2021-09-13T08:42:41.000Z</time>
      </trkpt>
      <trkpt lat="45.95368" lon="4.7556">
        <ele>190.493312</ele>
        <time>2021-09-13T08:42:47.000Z</time>
      </trkpt>
      <trkpt lat="45.95325" lon="4.75611">
        <ele>189.571132</ele>
        <time>2021-09-13T08:42:54.000Z</time>
      </trkpt>
      <trkpt lat="45.9532" lon="4.75618">
        <ele>189.447768</ele>
        <time>2021-09-13T08:42:55.000Z</time>
      </trkpt>
      <trkpt lat="45.95297" lon="4.75653">
        <ele>188.884013</ele>
        <time>2021-09-13T08:43:00.000Z</time>
      </trkpt>
      <trkpt lat="45.95273" lon="4.75688">
        <ele>188.403447</ele>
        <time>2021-09-13T08:43:06.000Z</time>
      </trkpt>
      <trkpt lat="45.95273" lon="4.75688">
        <ele>188.403447</ele>
        <time>2021-09-13T08:43:07.000Z</time>
      </trkpt>
      <trkpt lat="45.95259" lon="4.7571">
        <ele>188.162873</ele>
        <time>2021-09-13T08:43:12.000Z</time>
      </trkpt>
      <trkpt lat="45.95239" lon="4.75737">
        <ele>187.838519</ele>
        <time>2021-09-13T08:43:18.000Z</time>
      </trkpt>
      <trkpt lat="45.95224" lon="4.75755">
        <ele>187.612242</ele>
        <time>2021-09-13T08:43:22.000Z</time>
      </trkpt>
      <trkpt lat="45.95216" lon="4.75763">
        <ele>187.497447</ele>
        <time>2021-09-13T08:43:25.000Z</time>
      </trkpt>
      <trkpt lat="45.95169" lon="4.75811">
        <ele>186.816232</ele>
        <time>2021-09-13T08:43:35.000Z</time>
      </trkpt>
      <trkpt lat="45.95155" lon="4.7582">
        <ele>186.630999</ele>
        <time>2021-09-13T08:43:38.000Z</time>
      </trkpt>
      <trkpt lat="45.9514" lon="4.75827">
        <ele>186.571204</ele>
        <time>2021-09-13T08:43:41.000Z</time>
      </trkpt>
      <trkpt lat="45.95112" lon="4.75833">
        <ele>186.843703</ele>
        <time>2021-09-13T08:43:47.000Z</time>
      </trkpt>
      <trkpt lat="45.95086" lon="4.75836">
        <ele>187.100733</ele>
        <time>2021-09-13T08:43:54.000Z</time>
      </trkpt>
      <trkpt lat="45.95063" lon="4.75839">
        <ele>187.325727</ele>
        <time>2021-09-13T08:44:01.000Z</time>
      </trkpt>
      <trkpt lat="45.9504" lon="4.75843">
        <ele>187.552197</ele>
        <time>2021-09-13T08:44:08.000Z</time>
      </trkpt>
      <trkpt lat="45.95009" lon="4.75848">
        <ele>187.858738</ele>
        <time>2021-09-13T08:44:18.000Z</time>
      </trkpt>
      <trkpt lat="45.94988" lon="4.7585">
        <ele>188.068749</ele>
        <time>2021-09-13T08:44:25.000Z</time>
      </trkpt>
      <trkpt lat="45.94967" lon="4.75844">
        <ele>188.27897</ele>
        <time>2021-09-13T08:44:32.000Z</time>
      </trkpt>
      <trkpt lat="45.94947" lon="4.75831">
        <ele>188.777034</ele>
        <time>2021-09-13T08:44:40.000Z</time>
      </trkpt>
      <trkpt lat="45.94923" lon="4.75819">
        <ele>189.35797</ele>
        <time>2021-09-13T08:44:49.000Z</time>
      </trkpt>
      <trkpt lat="45.94901" lon="4.75813">
        <ele>189.865385</ele>
        <time>2021-09-13T08:44:56.000Z</time>
      </trkpt>
      <trkpt lat="45.94882" lon="4.7581">
        <ele>190.297523</ele>
        <time>2021-09-13T08:45:02.000Z</time>
      </trkpt>
      <trkpt lat="45.9486" lon="4.75812">
        <ele>190.792268</ele>
        <time>2021-09-13T08:45:09.000Z</time>
      </trkpt>
      <trkpt lat="45.94845" lon="4.75816">
        <ele>191.144913</ele>
        <time>2021-09-13T08:45:14.000Z</time>
      </trkpt>
      <trkpt lat="45.94822" lon="4.75823">
        <ele>191.677206</ele>
        <time>2021-09-13T08:45:20.000Z</time>
      </trkpt>
      <trkpt lat="45.94797" lon="4.75832">
        <ele>192.26013</ele>
        <time>2021-09-13T08:45:27.000Z</time>
      </trkpt>
      <trkpt lat="45.94788" lon="4.75835">
        <ele>192.384103</ele>
        <time>2021-09-13T08:45:29.000Z</time>
      </trkpt>
      <trkpt lat="45.94784" lon="4.75836">
        <ele>192.411594</ele>
        <time>2021-09-13T08:45:30.000Z</time>
      </trkpt>
      <trkpt lat="45.94761" lon="4.75844">
        <ele>192.582245</ele>
        <time>2021-09-13T08:45:36.000Z</time>
      </trkpt>
      <trkpt lat="45.94757" lon="4.75846">
        <ele>192.608253</ele>
        <time>2021-09-13T08:45:37.000Z</time>
      </trkpt>
      <trkpt lat="45.94731" lon="4.75858">
        <ele>192.800531</ele>
        <time>2021-09-13T08:45:44.000Z</time>
      </trkpt>
      <trkpt lat="45.94711" lon="4.75872">
        <ele>192.958775</ele>
        <time>2021-09-13T08:45:50.000Z</time>
      </trkpt>
      <trkpt lat="45.94682" lon="4.75899">
        <ele>193.2022</ele>
        <time>2021-09-13T08:45:58.000Z</time>
      </trkpt>
      <trkpt lat="45.94644" lon="4.75933">
        <ele>193.516897</ele>
        <time>2021-09-13T08:46:07.000Z</time>
      </trkpt>
      <trkpt lat="45.94615" lon="4.75953">
        <ele>193.45263</ele>
        <time>2021-09-13T08:46:13.000Z</time>
      </trkpt>
      <trkpt lat="45.9459" lon="4.75967">
        <ele>193.208688</ele>
        <time>2021-09-13T08:46:18.000Z</time>
      </trkpt>
      <trkpt lat="45.94559" lon="4.75984">
        <ele>192.913136</ele>
        <time>2021-09-13T08:46:24.000Z</time>
      </trkpt>
      <trkpt lat="45.94544" lon="4.75994">
        <ele>192.758263</ele>
        <time>2021-09-13T08:46:27.000Z</time>
      </trkpt>
      <trkpt lat="45.94534" lon="4.76">
        <ele>192.66196</ele>
        <time>2021-09-13T08:46:29.000Z</time>
      </trkpt>
      <trkpt lat="45.9453" lon="4.76003">
        <ele>192.616818</ele>
        <time>2021-09-13T08:46:30.000Z</time>
      </trkpt>
      <trkpt lat="45.94526" lon="4.76006">
        <ele>192.575202</ele>
        <time>2021-09-13T08:46:31.000Z</time>
      </trkpt>
      <trkpt lat="45.94517" lon="4.76011">
        <ele>192.49197</ele>
        <time>2021-09-13T08:46:33.000Z</time>
      </trkpt>
      <trkpt lat="45.94511" lon="4.7601">
        <ele>192.430439</ele>
        <time>2021-09-13T08:46:34.000Z</time>
      </trkpt>
      <trkpt lat="45.94505" lon="4.76008">
        <ele>192.374238</ele>
        <time>2021-09-13T08:46:35.000Z</time>
      </trkpt>
      <trkpt lat="45.94493" lon="4.76016">
        <ele>192.259043</ele>
        <time>2021-09-13T08:46:37.000Z</time>
      </trkpt>
      <trkpt lat="45.94489" lon="4.76036">
        <ele>192.127817</ele>
        <time>2021-09-13T08:46:39.000Z</time>
      </trkpt>
      <trkpt lat="45.94479" lon="4.76046">
        <ele>192.022132</ele>
        <time>2021-09-13T08:46:41.000Z</time>
      </trkpt>
      <trkpt lat="45.94455" lon="4.76072">
        <ele>191.804523</ele>
        <time>2021-09-13T08:46:46.000Z</time>
      </trkpt>
      <trkpt lat="45.9445" lon="4.76077">
        <ele>191.760536</ele>
        <time>2021-09-13T08:46:47.000Z</time>
      </trkpt>
      <trkpt lat="45.94425" lon="4.76104">
        <ele>191.542571</ele>
        <time>2021-09-13T08:46:52.000Z</time>
      </trkpt>
      <trkpt lat="45.94388" lon="4.76134">
        <ele>191.2539</ele>
        <time>2021-09-13T08:46:59.000Z</time>
      </trkpt>
      <trkpt lat="45.94341" lon="4.7617">
        <ele>190.884563</ele>
        <time>2021-09-13T08:47:08.000Z</time>
      </trkpt>
      <trkpt lat="45.94301" lon="4.76201">
        <ele>190.616613</ele>
        <time>2021-09-13T08:47:16.000Z</time>
      </trkpt>
      <trkpt lat="45.94264" lon="4.76232">
        <ele>190.40301</ele>
        <time>2021-09-13T08:47:23.000Z</time>
      </trkpt>
      <trkpt lat="45.94236" lon="4.76263">
        <ele>190.227781</ele>
        <time>2021-09-13T08:47:29.000Z</time>
      </trkpt>
      <trkpt lat="45.94213" lon="4.76303">
        <ele>190.048833</ele>
        <time>2021-09-13T08:47:35.000Z</time>
      </trkpt>
      <trkpt lat="45.94184" lon="4.76361">
        <ele>189.781884</ele>
        <time>2021-09-13T08:47:43.000Z</time>
      </trkpt>
      <trkpt lat="45.94178" lon="4.76374">
        <ele>189.699999</ele>
        <time>2021-09-13T08:47:45.000Z</time>
      </trkpt>
      <trkpt lat="45.94171" lon="4.76396">
        <ele>189.57225</ele>
        <time>2021-09-13T08:47:48.000Z</time>
      </trkpt>
      <trkpt lat="45.9416" lon="4.76438">
        <ele>189.336245</ele>
        <time>2021-09-13T08:47:53.000Z</time>
      </trkpt>
      <trkpt lat="45.94159" lon="4.7649">
        <ele>189.065574</ele>
        <time>2021-09-13T08:47:59.000Z</time>
      </trkpt>
      <trkpt lat="45.94163" lon="4.76554">
        <ele>188.728361</ele>
        <time>2021-09-13T08:48:06.000Z</time>
      </trkpt>
      <trkpt lat="45.94166" lon="4.76613">
        <ele>188.329997</ele>
        <time>2021-09-13T08:48:12.000Z</time>
      </trkpt>
      <trkpt lat="45.9417" lon="4.76674">
        <ele>187.609289</ele>
        <time>2021-09-13T08:48:18.000Z</time>
      </trkpt>
      <trkpt lat="45.94168" lon="4.76735">
        <ele>186.876794</ele>
        <time>2021-09-13T08:48:24.000Z</time>
      </trkpt>
      <trkpt lat="45.94157" lon="4.76763">
        <ele>186.507861</ele>
        <time>2021-09-13T08:48:27.000Z</time>
      </trkpt>
      <trkpt lat="45.94153" lon="4.76772">
        <ele>186.375684</ele>
        <time>2021-09-13T08:48:28.000Z</time>
      </trkpt>
      <trkpt lat="45.94121" lon="4.76836">
        <ele>185.449474</ele>
        <time>2021-09-13T08:48:35.000Z</time>
      </trkpt>
      <trkpt lat="45.9409" lon="4.76903">
        <ele>184.160735</ele>
        <time>2021-09-13T08:48:42.000Z</time>
      </trkpt>
      <trkpt lat="45.94085" lon="4.76911">
        <ele>183.983856</ele>
        <time>2021-09-13T08:48:43.000Z</time>
      </trkpt>
      <trkpt lat="45.94081" lon="4.7692">
        <ele>183.808273</ele>
        <time>2021-09-13T08:48:44.000Z</time>
      </trkpt>
      <trkpt lat="45.94073" lon="4.76936">
        <ele>183.48619</ele>
        <time>2021-09-13T08:48:46.000Z</time>
      </trkpt>
      <trkpt lat="45.94069" lon="4.76944">
        <ele>183.340986</ele>
        <time>2021-09-13T08:48:47.000Z</time>
      </trkpt>
      <trkpt lat="45.94065" lon="4.76951">
        <ele>183.188688</ele>
        <time>2021-09-13T08:48:48.000Z</time>
      </trkpt>
      <trkpt lat="45.94045" lon="4.7696">
        <ele>182.714301</ele>
        <time>2021-09-13T08:48:51.000Z</time>
      </trkpt>
      <trkpt lat="45.94043" lon="4.76977">
        <ele>182.438166</ele>
        <time>2021-09-13T08:48:53.000Z</time>
      </trkpt>
      <trkpt lat="45.9405" lon="4.77002">
        <ele>181.993113</ele>
        <time>2021-09-13T08:48:56.000Z</time>
      </trkpt>
      <trkpt lat="45.94049" lon="4.77011">
        <ele>181.86045</ele>
        <time>2021-09-13T08:48:57.000Z</time>
      </trkpt>
      <trkpt lat="45.94042" lon="4.77063">
        <ele>180.943092</ele>
        <time>2021-09-13T08:49:03.000Z</time>
      </trkpt>
      <trkpt lat="45.94034" lon="4.77123">
        <ele>179.775556</ele>
        <time>2021-09-13T08:49:10.000Z</time>
      </trkpt>
      <trkpt lat="45.94032" lon="4.7714">
        <ele>179.46095</ele>
        <time>2021-09-13T08:49:12.000Z</time>
      </trkpt>
      <trkpt lat="45.94032" lon="4.77147">
        <ele>179.315864</ele>
        <time>2021-09-13T08:49:13.000Z</time>
      </trkpt>
      <trkpt lat="45.94031" lon="4.77154">
        <ele>179.174103</ele>
        <time>2021-09-13T08:49:14.000Z</time>
      </trkpt>
      <trkpt lat="45.94022" lon="4.77225">
        <ele>177.807335</ele>
        <time>2021-09-13T08:49:23.000Z</time>
      </trkpt>
      <trkpt lat="45.94022" lon="4.7723">
        <ele>177.7122</ele>
        <time>2021-09-13T08:49:24.000Z</time>
      </trkpt>
      <trkpt lat="45.94016" lon="4.77229">
        <ele>177.563523</ele>
        <time>2021-09-13T08:49:25.000Z</time>
      </trkpt>
      <trkpt lat="45.94018" lon="4.77225">
        <ele>177.471537</ele>
        <time>2021-09-13T08:49:29.000Z</time>
      </trkpt>
      <trkpt lat="45.94015" lon="4.77234">
        <ele>177.295068</ele>
        <time>2021-09-13T08:58:47.000Z</time>
      </trkpt>
      <trkpt lat="45.9402" lon="4.7724">
        <ele>177.113531</ele>
        <time>2021-09-13T08:58:49.000Z</time>
      </trkpt>
      <trkpt lat="45.94018" lon="4.7726">
        <ele>176.723434</ele>
        <time>2021-09-13T08:58:54.000Z</time>
      </trkpt>
      <trkpt lat="45.94015" lon="4.77291">
        <ele>176.249331</ele>
        <time>2021-09-13T08:59:00.000Z</time>
      </trkpt>
      <trkpt lat="45.94012" lon="4.77345">
        <ele>175.835446</ele>
        <time>2021-09-13T08:59:06.000Z</time>
      </trkpt>
      <trkpt lat="45.94008" lon="4.7739">
        <ele>175.488457</ele>
        <time>2021-09-13T08:59:11.000Z</time>
      </trkpt>
      <trkpt lat="45.94" lon="4.77456">
        <ele>174.976561</ele>
        <time>2021-09-13T08:59:18.000Z</time>
      </trkpt>
      <trkpt lat="45.93994" lon="4.77501">
        <ele>174.622579</ele>
        <time>2021-09-13T08:59:23.000Z</time>
      </trkpt>
      <trkpt lat="45.93979" lon="4.77591">
        <ele>174.30873</ele>
        <time>2021-09-13T08:59:33.000Z</time>
      </trkpt>
      <trkpt lat="45.93974" lon="4.77615">
        <ele>174.289269</ele>
        <time>2021-09-13T08:59:36.000Z</time>
      </trkpt>
      <trkpt lat="45.9397" lon="4.77632">
        <ele>174.275895</ele>
        <time>2021-09-13T08:59:38.000Z</time>
      </trkpt>
      <trkpt lat="45.9396" lon="4.77673">
        <ele>174.242694</ele>
        <time>2021-09-13T08:59:43.000Z</time>
      </trkpt>
      <trkpt lat="45.93958" lon="4.77681">
        <ele>174.236077</ele>
        <time>2021-09-13T08:59:44.000Z</time>
      </trkpt>
      <trkpt lat="45.93955" lon="4.77688">
        <ele>174.229356</ele>
        <time>2021-09-13T08:59:45.000Z</time>
      </trkpt>
      <trkpt lat="45.93943" lon="4.77718">
        <ele>174.202657</ele>
        <time>2021-09-13T08:59:49.000Z</time>
      </trkpt>
      <trkpt lat="45.93925" lon="4.77766">
        <ele>174.160686</ele>
        <time>2021-09-13T08:59:55.000Z</time>
      </trkpt>
      <trkpt lat="45.93914" lon="4.77788">
        <ele>174.240092</ele>
        <time>2021-09-13T08:59:58.000Z</time>
      </trkpt>
      <trkpt lat="45.93906" lon="4.77811">
        <ele>174.368318</ele>
        <time>2021-09-13T09:00:01.000Z</time>
      </trkpt>
      <trkpt lat="45.93892" lon="4.77852">
        <ele>174.597356</ele>
        <time>2021-09-13T09:00:07.000Z</time>
      </trkpt>
      <trkpt lat="45.93881" lon="4.77898">
        <ele>174.839836</ele>
        <time>2021-09-13T09:00:14.000Z</time>
      </trkpt>
      <trkpt lat="45.93872" lon="4.77934">
        <ele>175.029712</ele>
        <time>2021-09-13T09:00:20.000Z</time>
      </trkpt>
      <trkpt lat="45.93869" lon="4.77946">
        <ele>175.092376</ele>
        <time>2021-09-13T09:00:22.000Z</time>
      </trkpt>
      <trkpt lat="45.93866" lon="4.77957">
        <ele>175.150589</ele>
        <time>2021-09-13T09:00:24.000Z</time>
      </trkpt>
      <trkpt lat="45.9386" lon="4.7798">
        <ele>175.26982</ele>
        <time>2021-09-13T09:00:28.000Z</time>
      </trkpt>
      <trkpt lat="45.93857" lon="4.77991">
        <ele>175.334147</ele>
        <time>2021-09-13T09:00:30.000Z</time>
      </trkpt>
      <trkpt lat="45.93852" lon="4.77994">
        <ele>175.371662</ele>
        <time>2021-09-13T09:00:31.000Z</time>
      </trkpt>
      <trkpt lat="45.93842" lon="4.77999">
        <ele>175.444468</ele>
        <time>2021-09-13T09:00:33.000Z</time>
      </trkpt>
      <trkpt lat="45.93837" lon="4.78012">
        <ele>175.565973</ele>
        <time>2021-09-13T09:00:35.000Z</time>
      </trkpt>
      <trkpt lat="45.93837" lon="4.7802">
        <ele>175.635494</ele>
        <time>2021-09-13T09:00:36.000Z</time>
      </trkpt>
      <trkpt lat="45.9384" lon="4.78027">
        <ele>175.693531</ele>
        <time>2021-09-13T09:00:37.000Z</time>
      </trkpt>
      <trkpt lat="45.93847" lon="4.78041">
        <ele>175.837909</ele>
        <time>2021-09-13T09:00:39.000Z</time>
      </trkpt>
      <trkpt lat="45.93847" lon="4.78051">
        <ele>175.915609</ele>
        <time>2021-09-13T09:00:40.000Z</time>
      </trkpt>
      <trkpt lat="45.93846" lon="4.78058">
        <ele>175.972457</ele>
        <time>2021-09-13T09:00:41.000Z</time>
      </trkpt>
      <trkpt lat="45.93843" lon="4.78079">
        <ele>176.149089</ele>
        <time>2021-09-13T09:00:44.000Z</time>
      </trkpt>
      <trkpt lat="45.93832" lon="4.78126">
        <ele>176.55742</ele>
        <time>2021-09-13T09:00:51.000Z</time>
      </trkpt>
      <trkpt lat="45.93816" lon="4.78188">
        <ele>177.094424</ele>
        <time>2021-09-13T09:01:00.000Z</time>
      </trkpt>
      <trkpt lat="45.93807" lon="4.78222">
        <ele>177.394982</ele>
        <time>2021-09-13T09:01:05.000Z</time>
      </trkpt>
      <trkpt lat="45.93802" lon="4.78235">
        <ele>177.514027</ele>
        <time>2021-09-13T09:01:07.000Z</time>
      </trkpt>
      <trkpt lat="45.93794" lon="4.78246">
        <ele>177.605482</ele>
        <time>2021-09-13T09:01:09.000Z</time>
      </trkpt>
      <trkpt lat="45.93792" lon="4.78261">
        <ele>177.678932</ele>
        <time>2021-09-13T09:01:11.000Z</time>
      </trkpt>
      <trkpt lat="45.93786" lon="4.78273">
        <ele>177.753986</ele>
        <time>2021-09-13T09:01:13.000Z</time>
      </trkpt>
      <trkpt lat="45.93785" lon="4.78297">
        <ele>177.872015</ele>
        <time>2021-09-13T09:01:16.000Z</time>
      </trkpt>
      <trkpt lat="45.93768" lon="4.78361">
        <ele>178.205762</ele>
        <time>2021-09-13T09:01:24.000Z</time>
      </trkpt>
      <trkpt lat="45.93748" lon="4.78438">
        <ele>178.604486</ele>
        <time>2021-09-13T09:01:33.000Z</time>
      </trkpt>
      <trkpt lat="45.93732" lon="4.78502">
        <ele>178.688858</ele>
        <time>2021-09-13T09:01:40.000Z</time>
      </trkpt>
      <trkpt lat="45.93715" lon="4.78566">
        <ele>178.363627</ele>
        <time>2021-09-13T09:01:47.000Z</time>
      </trkpt>
      <trkpt lat="45.93696" lon="4.7863">
        <ele>178.037973</ele>
        <time>2021-09-13T09:01:54.000Z</time>
      </trkpt>
      <trkpt lat="45.9367" lon="4.78694">
        <ele>177.687501</ele>
        <time>2021-09-13T09:02:01.000Z</time>
      </trkpt>
      <trkpt lat="45.93643" lon="4.7876">
        <ele>177.165007</ele>
        <time>2021-09-13T09:02:08.000Z</time>
      </trkpt>
      <trkpt lat="45.93615" lon="4.78823">
        <ele>176.590899</ele>
        <time>2021-09-13T09:02:15.000Z</time>
      </trkpt>
      <trkpt lat="45.93581" lon="4.78893">
        <ele>175.945651</ele>
        <time>2021-09-13T09:02:23.000Z</time>
      </trkpt>
      <trkpt lat="45.93577" lon="4.78901">
        <ele>175.870477</ele>
        <time>2021-09-13T09:02:24.000Z</time>
      </trkpt>
      <trkpt lat="45.93567" lon="4.78924">
        <ele>175.657289</ele>
        <time>2021-09-13T09:02:27.000Z</time>
      </trkpt>
      <trkpt lat="45.93561" lon="4.78939">
        <ele>175.545486</ele>
        <time>2021-09-13T09:02:29.000Z</time>
      </trkpt>
      <trkpt lat="45.93557" lon="4.78947">
        <ele>175.493521</ele>
        <time>2021-09-13T09:02:30.000Z</time>
      </trkpt>
      <trkpt lat="45.9355" lon="4.78959">
        <ele>175.394868</ele>
        <time>2021-09-13T09:02:32.000Z</time>
      </trkpt>
      <trkpt lat="45.93545" lon="4.78964">
        <ele>175.348961</ele>
        <time>2021-09-13T09:02:33.000Z</time>
      </trkpt>
      <trkpt lat="45.93538" lon="4.78963">
        <ele>175.285546</ele>
        <time>2021-09-13T09:02:34.000Z</time>
      </trkpt>
      <trkpt lat="45.93527" lon="4.78972">
        <ele>175.182909</ele>
        <time>2021-09-13T09:02:36.000Z</time>
      </trkpt>
      <trkpt lat="45.93527" lon="4.78992">
        <ele>175.064605</ele>
        <time>2021-09-13T09:02:38.000Z</time>
      </trkpt>
      <trkpt lat="45.93526" lon="4.78998">
        <ele>175.028982</ele>
        <time>2021-09-13T09:02:39.000Z</time>
      </trkpt>
      <trkpt lat="45.93524" lon="4.79005">
        <ele>174.983285</ele>
        <time>2021-09-13T09:02:40.000Z</time>
      </trkpt>
      <trkpt lat="45.93519" lon="4.7902">
        <ele>174.887097</ele>
        <time>2021-09-13T09:02:42.000Z</time>
      </trkpt>
      <trkpt lat="45.93516" lon="4.79028">
        <ele>174.835556</ele>
        <time>2021-09-13T09:02:43.000Z</time>
      </trkpt>
      <trkpt lat="45.93494" lon="4.7909">
        <ele>174.427953</ele>
        <time>2021-09-13T09:02:51.000Z</time>
      </trkpt>
      <trkpt lat="45.9347" lon="4.7916">
        <ele>174.003134</ele>
        <time>2021-09-13T09:03:00.000Z</time>
      </trkpt>
      <trkpt lat="45.93445" lon="4.79231">
        <ele>173.665383</ele>
        <time>2021-09-13T09:03:09.000Z</time>
      </trkpt>
      <trkpt lat="45.93428" lon="4.79285">
        <ele>173.409038</ele>
        <time>2021-09-13T09:03:16.000Z</time>
      </trkpt>
      <trkpt lat="45.93425" lon="4.79293">
        <ele>173.373505</ele>
        <time>2021-09-13T09:03:17.000Z</time>
      </trkpt>
      <trkpt lat="45.93418" lon="4.79314">
        <ele>173.271819</ele>
        <time>2021-09-13T09:03:20.000Z</time>
      </trkpt>
      <trkpt lat="45.93413" lon="4.79328">
        <ele>173.207474</ele>
        <time>2021-09-13T09:03:22.000Z</time>
      </trkpt>
      <trkpt lat="45.93397" lon="4.79378">
        <ele>172.993991</ele>
        <time>2021-09-13T09:03:29.000Z</time>
      </trkpt>
      <trkpt lat="45.93388" lon="4.79405">
        <ele>172.982915</ele>
        <time>2021-09-13T09:03:33.000Z</time>
      </trkpt>
      <trkpt lat="45.93383" lon="4.79418">
        <ele>172.977529</ele>
        <time>2021-09-13T09:03:35.000Z</time>
      </trkpt>
      <trkpt lat="45.93372" lon="4.79449">
        <ele>172.964422</ele>
        <time>2021-09-13T09:03:40.000Z</time>
      </trkpt>
      <trkpt lat="45.93356" lon="4.79497">
        <ele>172.944495</ele>
        <time>2021-09-13T09:03:48.000Z</time>
      </trkpt>
      <trkpt lat="45.93343" lon="4.79536">
        <ele>172.92854</ele>
        <time>2021-09-13T09:03:55.000Z</time>
      </trkpt>
      <trkpt lat="45.93326" lon="4.79583">
        <ele>172.909174</ele>
        <time>2021-09-13T09:04:03.000Z</time>
      </trkpt>
      <trkpt lat="45.93308" lon="4.79638">
        <ele>172.94018</ele>
        <time>2021-09-13T09:04:12.000Z</time>
      </trkpt>
      <trkpt lat="45.93289" lon="4.79694">
        <ele>173.006221</ele>
        <time>2021-09-13T09:04:20.000Z</time>
      </trkpt>
      <trkpt lat="45.93276" lon="4.7973">
        <ele>173.049464</ele>
        <time>2021-09-13T09:04:25.000Z</time>
      </trkpt>
      <trkpt lat="45.93271" lon="4.79745">
        <ele>173.067105</ele>
        <time>2021-09-13T09:04:27.000Z</time>
      </trkpt>
      <trkpt lat="45.9325" lon="4.79812">
        <ele>173.145301</ele>
        <time>2021-09-13T09:04:35.000Z</time>
      </trkpt>
      <trkpt lat="45.93226" lon="4.79876">
        <ele>173.045317</ele>
        <time>2021-09-13T09:04:42.000Z</time>
      </trkpt>
      <trkpt lat="45.93193" lon="4.7994">
        <ele>172.805515</ele>
        <time>2021-09-13T09:04:50.000Z</time>
      </trkpt>
      <trkpt lat="45.93179" lon="4.79973">
        <ele>172.690965</ele>
        <time>2021-09-13T09:04:54.000Z</time>
      </trkpt>
      <trkpt lat="45.93175" lon="4.79991">
        <ele>172.634304</ele>
        <time>2021-09-13T09:04:56.000Z</time>
      </trkpt>
      <trkpt lat="45.93167" lon="4.80028">
        <ele>172.519633</ele>
        <time>2021-09-13T09:05:00.000Z</time>
      </trkpt>
      <trkpt lat="45.93163" lon="4.80046">
        <ele>172.464385</ele>
        <time>2021-09-13T09:05:02.000Z</time>
      </trkpt>
      <trkpt lat="45.93158" lon="4.80073">
        <ele>172.380782</ele>
        <time>2021-09-13T09:05:05.000Z</time>
      </trkpt>
      <trkpt lat="45.93155" lon="4.80083">
        <ele>172.352757</ele>
        <time>2021-09-13T09:05:06.000Z</time>
      </trkpt>
      <trkpt lat="45.93136" lon="4.80155">
        <ele>172.135337</ele>
        <time>2021-09-13T09:05:14.000Z</time>
      </trkpt>
      <trkpt lat="45.93113" lon="4.8023">
        <ele>171.902858</ele>
        <time>2021-09-13T09:05:23.000Z</time>
      </trkpt>
      <trkpt lat="45.93089" lon="4.80301">
        <ele>171.679261</ele>
        <time>2021-09-13T09:05:32.000Z</time>
      </trkpt>
      <trkpt lat="45.93067" lon="4.80368">
        <ele>171.637019</ele>
        <time>2021-09-13T09:05:41.000Z</time>
      </trkpt>
      <trkpt lat="45.93044" lon="4.80438">
        <ele>171.596176</ele>
        <time>2021-09-13T09:05:51.000Z</time>
      </trkpt>
      <trkpt lat="45.93039" lon="4.80452">
        <ele>171.588081</ele>
        <time>2021-09-13T09:05:53.000Z</time>
      </trkpt>
      <trkpt lat="45.93014" lon="4.80529">
        <ele>171.543341</ele>
        <time>2021-09-13T09:06:04.000Z</time>
      </trkpt>
      <trkpt lat="45.92989" lon="4.80605">
        <ele>171.618409</ele>
        <time>2021-09-13T09:06:14.000Z</time>
      </trkpt>
      <trkpt lat="45.9297" lon="4.80662">
        <ele>171.683992</ele>
        <time>2021-09-13T09:06:21.000Z</time>
      </trkpt>
      <trkpt lat="45.92944" lon="4.80738">
        <ele>171.771756</ele>
        <time>2021-09-13T09:06:30.000Z</time>
      </trkpt>
      <trkpt lat="45.92939" lon="4.80755">
        <ele>171.790768</ele>
        <time>2021-09-13T09:06:32.000Z</time>
      </trkpt>
      <trkpt lat="45.92915" lon="4.80828">
        <ele>171.854259</ele>
        <time>2021-09-13T09:06:41.000Z</time>
      </trkpt>
      <trkpt lat="45.92909" lon="4.80844">
        <ele>171.867458</ele>
        <time>2021-09-13T09:06:43.000Z</time>
      </trkpt>
      <trkpt lat="45.92884" lon="4.8092">
        <ele>171.927743</ele>
        <time>2021-09-13T09:06:52.000Z</time>
      </trkpt>
      <trkpt lat="45.9286" lon="4.8099">
        <ele>171.983919</ele>
        <time>2021-09-13T09:07:00.000Z</time>
      </trkpt>
      <trkpt lat="45.9283" lon="4.81052">
        <ele>172.053111</ele>
        <time>2021-09-13T09:07:08.000Z</time>
      </trkpt>
      <trkpt lat="45.92796" lon="4.81105">
        <ele>172.124099</ele>
        <time>2021-09-13T09:07:16.000Z</time>
      </trkpt>
      <trkpt lat="45.92778" lon="4.81128">
        <ele>172.156807</ele>
        <time>2021-09-13T09:07:20.000Z</time>
      </trkpt>
      <trkpt lat="45.92773" lon="4.81131">
        <ele>172.164355</ele>
        <time>2021-09-13T09:07:21.000Z</time>
      </trkpt>
      <trkpt lat="45.92768" lon="4.81133">
        <ele>172.171752</ele>
        <time>2021-09-13T09:07:22.000Z</time>
      </trkpt>
      <trkpt lat="45.92757" lon="4.81134">
        <ele>172.187375</ele>
        <time>2021-09-13T09:07:24.000Z</time>
      </trkpt>
      <trkpt lat="45.92748" lon="4.81144">
        <ele>172.202767</ele>
        <time>2021-09-13T09:07:26.000Z</time>
      </trkpt>
      <trkpt lat="45.92744" lon="4.81149">
        <ele>172.210695</ele>
        <time>2021-09-13T09:07:27.000Z</time>
      </trkpt>
      <trkpt lat="45.92739" lon="4.81153">
        <ele>172.21836</ele>
        <time>2021-09-13T09:07:28.000Z</time>
      </trkpt>
      <trkpt lat="45.92722" lon="4.81159">
        <ele>172.242789</ele>
        <time>2021-09-13T09:07:31.000Z</time>
      </trkpt>
      <trkpt lat="45.92693" lon="4.81169">
        <ele>172.203342</ele>
        <time>2021-09-13T09:07:36.000Z</time>
      </trkpt>
      <trkpt lat="45.92681" lon="4.81171">
        <ele>172.186439</ele>
        <time>2021-09-13T09:07:38.000Z</time>
      </trkpt>
      <trkpt lat="45.92622" lon="4.81181">
        <ele>172.101089</ele>
        <time>2021-09-13T09:07:48.000Z</time>
      </trkpt>
      <trkpt lat="45.92568" lon="4.81184">
        <ele>172.024212</ele>
        <time>2021-09-13T09:07:57.000Z</time>
      </trkpt>
      <trkpt lat="45.92509" lon="4.81187">
        <ele>171.956177</ele>
        <time>2021-09-13T09:08:07.000Z</time>
      </trkpt>
      <trkpt lat="45.92503" lon="4.81188">
        <ele>171.950577</ele>
        <time>2021-09-13T09:08:08.000Z</time>
      </trkpt>
      <trkpt lat="45.92453" lon="4.8119">
        <ele>171.901522</ele>
        <time>2021-09-13T09:08:17.000Z</time>
      </trkpt>
      <trkpt lat="45.9242" lon="4.81196">
        <ele>171.869481</ele>
        <time>2021-09-13T09:08:23.000Z</time>
      </trkpt>
      <trkpt lat="45.92409" lon="4.81199">
        <ele>171.85903</ele>
        <time>2021-09-13T09:08:25.000Z</time>
      </trkpt>
      <trkpt lat="45.92369" lon="4.81214">
        <ele>171.819471</ele>
        <time>2021-09-13T09:08:32.000Z</time>
      </trkpt>
      <trkpt lat="45.92319" lon="4.81249">
        <ele>171.787695</ele>
        <time>2021-09-13T09:08:41.000Z</time>
      </trkpt>
      <trkpt lat="45.92269" lon="4.81285">
        <ele>171.758829</ele>
        <time>2021-09-13T09:08:50.000Z</time>
      </trkpt>
      <trkpt lat="45.92264" lon="4.8129">
        <ele>171.755678</ele>
        <time>2021-09-13T09:08:51.000Z</time>
      </trkpt>
      <trkpt lat="45.9223" lon="4.81322">
        <ele>171.734084</ele>
        <time>2021-09-13T09:08:58.000Z</time>
      </trkpt>
      <trkpt lat="45.92194" lon="4.81349">
        <ele>171.710601</ele>
        <time>2021-09-13T09:09:05.000Z</time>
      </trkpt>
      <trkpt lat="45.92189" lon="4.81352">
        <ele>171.706853</ele>
        <time>2021-09-13T09:09:06.000Z</time>
      </trkpt>
      <trkpt lat="45.9217" lon="4.81353">
        <ele>171.694583</ele>
        <time>2021-09-13T09:09:09.000Z</time>
      </trkpt>
      <trkpt lat="45.92166" lon="4.81357">
        <ele>171.691376</ele>
        <time>2021-09-13T09:09:10.000Z</time>
      </trkpt>
      <trkpt lat="45.92152" lon="4.8138">
        <ele>171.677191</ele>
        <time>2021-09-13T09:09:13.000Z</time>
      </trkpt>
      <trkpt lat="45.92147" lon="4.81381">
        <ele>171.673358</ele>
        <time>2021-09-13T09:09:14.000Z</time>
      </trkpt>
      <trkpt lat="45.92107" lon="4.81391">
        <ele>171.645956</ele>
        <time>2021-09-13T09:09:21.000Z</time>
      </trkpt>
      <trkpt lat="45.92101" lon="4.81394">
        <ele>171.641919</ele>
        <time>2021-09-13T09:09:22.000Z</time>
      </trkpt>
      <trkpt lat="45.92073" lon="4.81409">
        <ele>171.622009</ele>
        <time>2021-09-13T09:09:27.000Z</time>
      </trkpt>
      <trkpt lat="45.92017" lon="4.81435">
        <ele>171.604953</ele>
        <time>2021-09-13T09:09:37.000Z</time>
      </trkpt>
      <trkpt lat="45.91973" lon="4.81454">
        <ele>171.613924</ele>
        <time>2021-09-13T09:09:45.000Z</time>
      </trkpt>
      <trkpt lat="45.9192" lon="4.81476">
        <ele>171.624787</ele>
        <time>2021-09-13T09:09:55.000Z</time>
      </trkpt>
      <trkpt lat="45.91914" lon="4.81478">
        <ele>171.625859</ele>
        <time>2021-09-13T09:09:56.000Z</time>
      </trkpt>
      <trkpt lat="45.91859" lon="4.81501">
        <ele>171.625084</ele>
        <time>2021-09-13T09:10:06.000Z</time>
      </trkpt>
      <trkpt lat="45.91809" lon="4.8152">
        <ele>171.576204</ele>
        <time>2021-09-13T09:10:15.000Z</time>
      </trkpt>
      <trkpt lat="45.9176" lon="4.81538">
        <ele>171.528889</ele>
        <time>2021-09-13T09:10:24.000Z</time>
      </trkpt>
      <trkpt lat="45.91715" lon="4.81553">
        <ele>171.485719</ele>
        <time>2021-09-13T09:10:32.000Z</time>
      </trkpt>
      <trkpt lat="45.9167" lon="4.81564">
        <ele>171.458016</ele>
        <time>2021-09-13T09:10:40.000Z</time>
      </trkpt>
      <trkpt lat="45.91659" lon="4.81566">
        <ele>171.454212</ele>
        <time>2021-09-13T09:10:43.000Z</time>
      </trkpt>
      <trkpt lat="45.91643" lon="4.81569">
        <ele>171.448668</ele>
        <time>2021-09-13T09:10:46.000Z</time>
      </trkpt>
      <trkpt lat="45.9159" lon="4.81579">
        <ele>171.430019</ele>
        <time>2021-09-13T09:10:56.000Z</time>
      </trkpt>
      <trkpt lat="45.91584" lon="4.8158">
        <ele>171.428144</ele>
        <time>2021-09-13T09:10:57.000Z</time>
      </trkpt>
      <trkpt lat="45.91536" lon="4.81587">
        <ele>171.411371</ele>
        <time>2021-09-13T09:11:06.000Z</time>
      </trkpt>
      <trkpt lat="45.91494" lon="4.81593">
        <ele>171.389972</ele>
        <time>2021-09-13T09:11:14.000Z</time>
      </trkpt>
      <trkpt lat="45.91444" lon="4.816">
        <ele>171.35788</ele>
        <time>2021-09-13T09:11:23.000Z</time>
      </trkpt>
      <trkpt lat="45.91393" lon="4.81604">
        <ele>171.325673</ele>
        <time>2021-09-13T09:11:32.000Z</time>
      </trkpt>
      <trkpt lat="45.91338" lon="4.81607">
        <ele>171.290114</ele>
        <time>2021-09-13T09:11:42.000Z</time>
      </trkpt>
      <trkpt lat="45.91332" lon="4.81608">
        <ele>171.284619</ele>
        <time>2021-09-13T09:11:43.000Z</time>
      </trkpt>
      <trkpt lat="45.91277" lon="4.81609">
        <ele>171.225426</ele>
        <time>2021-09-13T09:11:53.000Z</time>
      </trkpt>
      <trkpt lat="45.91271" lon="4.81609">
        <ele>171.219529</ele>
        <time>2021-09-13T09:11:54.000Z</time>
      </trkpt>
      <trkpt lat="45.91217" lon="4.8161">
        <ele>171.161311</ele>
        <time>2021-09-13T09:12:04.000Z</time>
      </trkpt>
      <trkpt lat="45.91171" lon="4.8161">
        <ele>171.111456</ele>
        <time>2021-09-13T09:12:13.000Z</time>
      </trkpt>
      <trkpt lat="45.91129" lon="4.81609">
        <ele>171.053943</ele>
        <time>2021-09-13T09:12:21.000Z</time>
      </trkpt>
      <trkpt lat="45.91074" lon="4.81607">
        <ele>170.970651</ele>
        <time>2021-09-13T09:12:31.000Z</time>
      </trkpt>
      <trkpt lat="45.91027" lon="4.81602">
        <ele>170.899056</ele>
        <time>2021-09-13T09:12:39.000Z</time>
      </trkpt>
      <trkpt lat="45.91016" lon="4.816">
        <ele>170.881692</ele>
        <time>2021-09-13T09:12:41.000Z</time>
      </trkpt>
      <trkpt lat="45.91" lon="4.81597">
        <ele>170.856492</ele>
        <time>2021-09-13T09:12:44.000Z</time>
      </trkpt>
      <trkpt lat="45.90967" lon="4.81591">
        <ele>170.794653</ele>
        <time>2021-09-13T09:12:50.000Z</time>
      </trkpt>
      <trkpt lat="45.9092" lon="4.81584">
        <ele>170.666585</ele>
        <time>2021-09-13T09:12:59.000Z</time>
      </trkpt>
      <trkpt lat="45.90882" lon="4.81579">
        <ele>170.564213</ele>
        <time>2021-09-13T09:13:06.000Z</time>
      </trkpt>
      <trkpt lat="45.90866" lon="4.81579">
        <ele>170.521316</ele>
        <time>2021-09-13T09:13:09.000Z</time>
      </trkpt>
      <trkpt lat="45.9085" lon="4.8158">
        <ele>170.476797</ele>
        <time>2021-09-13T09:13:12.000Z</time>
      </trkpt>
      <trkpt lat="45.90798" lon="4.81581">
        <ele>170.337565</ele>
        <time>2021-09-13T09:13:22.000Z</time>
      </trkpt>
      <trkpt lat="45.90767" lon="4.81582">
        <ele>170.99901</ele>
        <time>2021-09-13T09:13:29.000Z</time>
      </trkpt>
      <trkpt lat="45.90734" lon="4.81583">
        <ele>171.700327</ele>
        <time>2021-09-13T09:13:38.000Z</time>
      </trkpt>
      <trkpt lat="45.90698" lon="4.81584">
        <ele>172.450351</ele>
        <time>2021-09-13T09:13:49.000Z</time>
      </trkpt>
      <trkpt lat="45.90673" lon="4.81585">
        <ele>172.999095</ele>
        <time>2021-09-13T09:13:58.000Z</time>
      </trkpt>
      <trkpt lat="45.90648" lon="4.81586">
        <ele>173.526698</ele>
        <time>2021-09-13T09:14:07.000Z</time>
      </trkpt>
      <trkpt lat="45.90623" lon="4.81587">
        <ele>174.041635</ele>
        <time>2021-09-13T09:14:16.000Z</time>
      </trkpt>
      <trkpt lat="45.90601" lon="4.81588">
        <ele>174.64798</ele>
        <time>2021-09-13T09:14:24.000Z</time>
      </trkpt>
      <trkpt lat="45.90575" lon="4.81589">
        <ele>175.393839</ele>
        <time>2021-09-13T09:14:34.000Z</time>
      </trkpt>
      <trkpt lat="45.90553" lon="4.81589">
        <ele>176.019609</ele>
        <time>2021-09-13T09:14:42.000Z</time>
      </trkpt>
      <trkpt lat="45.9054" lon="4.8159">
        <ele>176.39976</ele>
        <time>2021-09-13T09:14:48.000Z</time>
      </trkpt>
      <trkpt lat="45.90533" lon="4.8159">
        <ele>176.591336</ele>
        <time>2021-09-13T09:14:54.000Z</time>
      </trkpt>
      <trkpt lat="45.90531" lon="4.81591">
        <ele>176.657164</ele>
        <time>2021-09-13T09:15:02.000Z</time>
      </trkpt>
      <trkpt lat="45.90526" lon="4.81591">
        <ele>176.777301</ele>
        <time>2021-09-13T09:15:04.000Z</time>
      </trkpt>
      <trkpt lat="45.90503" lon="4.81592">
        <ele>177.432205</ele>
        <time>2021-09-13T09:15:11.000Z</time>
      </trkpt>
      <trkpt lat="45.90483" lon="4.81594">
        <ele>178.012563</ele>
        <time>2021-09-13T09:15:17.000Z</time>
      </trkpt>
      <trkpt lat="45.90444" lon="4.81596">
        <ele>179.144891</ele>
        <time>2021-09-13T09:15:24.000Z</time>
      </trkpt>
      <trkpt lat="45.90438" lon="4.81597">
        <ele>179.286515</ele>
        <time>2021-09-13T09:15:25.000Z</time>
      </trkpt>
      <trkpt lat="45.90434" lon="4.81597">
        <ele>179.310354</ele>
        <time>2021-09-13T09:15:26.000Z</time>
      </trkpt>
      <trkpt lat="45.90409" lon="4.81602">
        <ele>179.43151</ele>
        <time>2021-09-13T09:15:31.000Z</time>
      </trkpt>
      <trkpt lat="45.90364" lon="4.81609">
        <ele>179.651059</ele>
        <time>2021-09-13T09:15:40.000Z</time>
      </trkpt>
      <trkpt lat="45.90329" lon="4.81617">
        <ele>179.819681</ele>
        <time>2021-09-13T09:15:47.000Z</time>
      </trkpt>
      <trkpt lat="45.90315" lon="4.81618">
        <ele>179.889956</ele>
        <time>2021-09-13T09:15:50.000Z</time>
      </trkpt>
      <trkpt lat="45.90306" lon="4.81618">
        <ele>179.932496</ele>
        <time>2021-09-13T09:15:52.000Z</time>
      </trkpt>
      <trkpt lat="45.90302" lon="4.81617">
        <ele>179.953417</ele>
        <time>2021-09-13T09:15:53.000Z</time>
      </trkpt>
      <trkpt lat="45.90293" lon="4.81613">
        <ele>179.994864</ele>
        <time>2021-09-13T09:15:55.000Z</time>
      </trkpt>
      <trkpt lat="45.90283" lon="4.8161">
        <ele>180.04637</ele>
        <time>2021-09-13T09:15:57.000Z</time>
      </trkpt>
      <trkpt lat="45.90278" lon="4.81612">
        <ele>180.071371</ele>
        <time>2021-09-13T09:15:58.000Z</time>
      </trkpt>
      <trkpt lat="45.90246" lon="4.81625">
        <ele>180.132032</ele>
        <time>2021-09-13T09:16:04.000Z</time>
      </trkpt>
      <trkpt lat="45.90222" lon="4.81629">
        <ele>180.097749</ele>
        <time>2021-09-13T09:16:08.000Z</time>
      </trkpt>
      <trkpt lat="45.90217" lon="4.81629">
        <ele>180.090372</ele>
        <time>2021-09-13T09:16:09.000Z</time>
      </trkpt>
      <trkpt lat="45.90212" lon="4.8163">
        <ele>180.083722</ele>
        <time>2021-09-13T09:16:10.000Z</time>
      </trkpt>
      <trkpt lat="45.90191" lon="4.81633">
        <ele>180.052324</ele>
        <time>2021-09-13T09:16:14.000Z</time>
      </trkpt>
      <trkpt lat="45.90156" lon="4.81638">
        <ele>180.001692</ele>
        <time>2021-09-13T09:16:20.000Z</time>
      </trkpt>
      <trkpt lat="45.90145" lon="4.8164">
        <ele>179.986356</ele>
        <time>2021-09-13T09:16:22.000Z</time>
      </trkpt>
      <trkpt lat="45.90135" lon="4.81641">
        <ele>179.971261</ele>
        <time>2021-09-13T09:16:24.000Z</time>
      </trkpt>
      <trkpt lat="45.90114" lon="4.81646">
        <ele>179.940421</ele>
        <time>2021-09-13T09:16:28.000Z</time>
      </trkpt>
      <trkpt lat="45.90076" lon="4.81657">
        <ele>179.857726</ele>
        <time>2021-09-13T09:16:35.000Z</time>
      </trkpt>
      <trkpt lat="45.90032" lon="4.81675">
        <ele>179.618951</ele>
        <time>2021-09-13T09:16:43.000Z</time>
      </trkpt>
      <trkpt lat="45.89977" lon="4.81699">
        <ele>179.319897</ele>
        <time>2021-09-13T09:16:53.000Z</time>
      </trkpt>
      <trkpt lat="45.8996" lon="4.81707">
        <ele>179.230296</ele>
        <time>2021-09-13T09:16:56.000Z</time>
      </trkpt>
      <trkpt lat="45.8995" lon="4.81711">
        <ele>179.173668</ele>
        <time>2021-09-13T09:16:58.000Z</time>
      </trkpt>
      <trkpt lat="45.89938" lon="4.81708">
        <ele>179.110048</ele>
        <time>2021-09-13T09:17:00.000Z</time>
      </trkpt>
      <trkpt lat="45.89928" lon="4.81707">
        <ele>179.058193</ele>
        <time>2021-09-13T09:17:02.000Z</time>
      </trkpt>
      <trkpt lat="45.89918" lon="4.81713">
        <ele>179.00308</ele>
        <time>2021-09-13T09:17:04.000Z</time>
      </trkpt>
      <trkpt lat="45.89913" lon="4.81718">
        <ele>178.972368</ele>
        <time>2021-09-13T09:17:05.000Z</time>
      </trkpt>
      <trkpt lat="45.89912" lon="4.81724">
        <ele>178.944084</ele>
        <time>2021-09-13T09:17:06.000Z</time>
      </trkpt>
      <trkpt lat="45.89907" lon="4.81742">
        <ele>178.8549</ele>
        <time>2021-09-13T09:17:08.000Z</time>
      </trkpt>
      <trkpt lat="45.89904" lon="4.81749">
        <ele>178.813219</ele>
        <time>2021-09-13T09:17:09.000Z</time>
      </trkpt>
      <trkpt lat="45.899" lon="4.81757">
        <ele>178.767074</ele>
        <time>2021-09-13T09:17:10.000Z</time>
      </trkpt>
      <trkpt lat="45.89879" lon="4.8178">
        <ele>178.587706</ele>
        <time>2021-09-13T09:17:14.000Z</time>
      </trkpt>
      <trkpt lat="45.8984" lon="4.81823">
        <ele>178.250732</ele>
        <time>2021-09-13T09:17:22.000Z</time>
      </trkpt>
      <trkpt lat="45.89809" lon="4.81857">
        <ele>177.981298</ele>
        <time>2021-09-13T09:17:29.000Z</time>
      </trkpt>
      <trkpt lat="45.89766" lon="4.81898">
        <ele>177.593586</ele>
        <time>2021-09-13T09:17:38.000Z</time>
      </trkpt>
      <trkpt lat="45.89737" lon="4.81924">
        <ele>177.278235</ele>
        <time>2021-09-13T09:17:44.000Z</time>
      </trkpt>
      <trkpt lat="45.89702" lon="4.81952">
        <ele>176.912974</ele>
        <time>2021-09-13T09:17:51.000Z</time>
      </trkpt>
      <trkpt lat="45.89656" lon="4.8199">
        <ele>176.434377</ele>
        <time>2021-09-13T09:18:00.000Z</time>
      </trkpt>
      <trkpt lat="45.89643" lon="4.82001">
        <ele>176.291083</ele>
        <time>2021-09-13T09:18:03.000Z</time>
      </trkpt>
      <trkpt lat="45.89629" lon="4.82012">
        <ele>176.149756</ele>
        <time>2021-09-13T09:18:06.000Z</time>
      </trkpt>
      <trkpt lat="45.89589" lon="4.82042">
        <ele>175.85279</ele>
        <time>2021-09-13T09:18:15.000Z</time>
      </trkpt>
      <trkpt lat="45.8958" lon="4.82049">
        <ele>175.790909</ele>
        <time>2021-09-13T09:18:17.000Z</time>
      </trkpt>
      <trkpt lat="45.89561" lon="4.82058">
        <ele>175.665609</ele>
        <time>2021-09-13T09:18:21.000Z</time>
      </trkpt>
      <trkpt lat="45.89547" lon="4.82066">
        <ele>175.569606</ele>
        <time>2021-09-13T09:18:24.000Z</time>
      </trkpt>
      <trkpt lat="45.89537" lon="4.8207">
        <ele>175.50586</ele>
        <time>2021-09-13T09:18:26.000Z</time>
      </trkpt>
      <trkpt lat="45.89527" lon="4.82064">
        <ele>175.441672</ele>
        <time>2021-09-13T09:18:28.000Z</time>
      </trkpt>
      <trkpt lat="45.89524" lon="4.82069">
        <ele>175.413807</ele>
        <time>2021-09-13T09:18:29.000Z</time>
      </trkpt>
      <trkpt lat="45.8952" lon="4.82071">
        <ele>175.388285</ele>
        <time>2021-09-13T09:18:30.000Z</time>
      </trkpt>
      <trkpt lat="45.89514" lon="4.82078">
        <ele>175.336975</ele>
        <time>2021-09-13T09:18:32.000Z</time>
      </trkpt>
      <trkpt lat="45.89509" lon="4.82089">
        <ele>175.281926</ele>
        <time>2021-09-13T09:18:34.000Z</time>
      </trkpt>
      <trkpt lat="45.89507" lon="4.82111">
        <ele>175.187096</ele>
        <time>2021-09-13T09:18:37.000Z</time>
      </trkpt>
      <trkpt lat="45.89502" lon="4.82122">
        <ele>175.129682</ele>
        <time>2021-09-13T09:18:39.000Z</time>
      </trkpt>
      <trkpt lat="45.89498" lon="4.82127">
        <ele>175.099383</ele>
        <time>2021-09-13T09:18:40.000Z</time>
      </trkpt>
      <trkpt lat="45.89469" lon="4.82158">
        <ele>174.916059</ele>
        <time>2021-09-13T09:18:47.000Z</time>
      </trkpt>
      <trkpt lat="45.89439" lon="4.82198">
        <ele>174.756634</ele>
        <time>2021-09-13T09:18:55.000Z</time>
      </trkpt>
      <trkpt lat="45.89401" lon="4.82246">
        <ele>174.562055</ele>
        <time>2021-09-13T09:19:05.000Z</time>
      </trkpt>
      <trkpt lat="45.89376" lon="4.82278">
        <ele>174.43146</ele>
        <time>2021-09-13T09:19:12.000Z</time>
      </trkpt>
      <trkpt lat="45.89351" lon="4.8231">
        <ele>174.302911</ele>
        <time>2021-09-13T09:19:19.000Z</time>
      </trkpt>
      <trkpt lat="45.89316" lon="4.82349">
        <ele>174.201259</ele>
        <time>2021-09-13T09:19:28.000Z</time>
      </trkpt>
      <trkpt lat="45.89283" lon="4.82382">
        <ele>174.115104</ele>
        <time>2021-09-13T09:19:36.000Z</time>
      </trkpt>
      <trkpt lat="45.89255" lon="4.82408">
        <ele>174.043146</ele>
        <time>2021-09-13T09:19:43.000Z</time>
      </trkpt>
      <trkpt lat="45.89223" lon="4.82435">
        <ele>173.96321</ele>
        <time>2021-09-13T09:19:51.000Z</time>
      </trkpt>
      <trkpt lat="45.89193" lon="4.82456">
        <ele>173.905027</ele>
        <time>2021-09-13T09:19:58.000Z</time>
      </trkpt>
      <trkpt lat="45.89184" lon="4.82461">
        <ele>173.914987</ele>
        <time>2021-09-13T09:20:00.000Z</time>
      </trkpt>
      <trkpt lat="45.89166" lon="4.82471">
        <ele>173.934879</ele>
        <time>2021-09-13T09:20:04.000Z</time>
      </trkpt>
      <trkpt lat="45.89162" lon="4.82474">
        <ele>173.939817</ele>
        <time>2021-09-13T09:20:05.000Z</time>
      </trkpt>
      <trkpt lat="45.89142" lon="4.82489">
        <ele>173.963277</ele>
        <time>2021-09-13T09:20:10.000Z</time>
      </trkpt>
      <trkpt lat="45.89123" lon="4.82507">
        <ele>173.986294</ele>
        <time>2021-09-13T09:20:15.000Z</time>
      </trkpt>
      <trkpt lat="45.89116" lon="4.82513">
        <ele>173.995006</ele>
        <time>2021-09-13T09:20:17.000Z</time>
      </trkpt>
      <trkpt lat="45.89096" lon="4.82511">
        <ele>174.015655</ele>
        <time>2021-09-13T09:20:22.000Z</time>
      </trkpt>
      <trkpt lat="45.89094" lon="4.8251">
        <ele>174.018664</ele>
        <time>2021-09-13T09:20:23.000Z</time>
      </trkpt>
      <trkpt lat="45.8909" lon="4.8252">
        <ele>174.026801</ele>
        <time>2021-09-13T09:20:25.000Z</time>
      </trkpt>
      <trkpt lat="45.89077" lon="4.82536">
        <ele>174.044753</ele>
        <time>2021-09-13T09:20:31.000Z</time>
      </trkpt>
      <trkpt lat="45.89074" lon="4.82548">
        <ele>174.054328</ele>
        <time>2021-09-13T09:20:34.000Z</time>
      </trkpt>
      <trkpt lat="45.8907" lon="4.8256">
        <ele>174.063408</ele>
        <time>2021-09-13T09:20:36.000Z</time>
      </trkpt>
      <trkpt lat="45.89066" lon="4.82571">
        <ele>174.07295</ele>
        <time>2021-09-13T09:20:38.000Z</time>
      </trkpt>
      <trkpt lat="45.89052" lon="4.82575">
        <ele>174.087516</ele>
        <time>2021-09-13T09:20:40.000Z</time>
      </trkpt>
      <trkpt lat="45.89042" lon="4.82596">
        <ele>174.127182</ele>
        <time>2021-09-13T09:20:44.000Z</time>
      </trkpt>
      <trkpt lat="45.89022" lon="4.82637">
        <ele>174.203418</ele>
        <time>2021-09-13T09:20:51.000Z</time>
      </trkpt>
      <trkpt lat="45.89015" lon="4.82657">
        <ele>174.237772</ele>
        <time>2021-09-13T09:20:54.000Z</time>
      </trkpt>
      <trkpt lat="45.89008" lon="4.82669">
        <ele>174.261114</ele>
        <time>2021-09-13T09:20:56.000Z</time>
      </trkpt>
      <trkpt lat="45.88988" lon="4.82707">
        <ele>174.33448</ele>
        <time>2021-09-13T09:21:02.000Z</time>
      </trkpt>
      <trkpt lat="45.88977" lon="4.82725">
        <ele>174.369978</ele>
        <time>2021-09-13T09:21:05.000Z</time>
      </trkpt>
      <trkpt lat="45.88971" lon="4.82736">
        <ele>174.391171</ele>
        <time>2021-09-13T09:21:07.000Z</time>
      </trkpt>
      <trkpt lat="45.88948" lon="4.8277">
        <ele>174.463783</ele>
        <time>2021-09-13T09:21:14.000Z</time>
      </trkpt>
      <trkpt lat="45.88909" lon="4.82812">
        <ele>174.405839</ele>
        <time>2021-09-13T09:21:23.000Z</time>
      </trkpt>
      <trkpt lat="45.88875" lon="4.82851">
        <ele>174.323598</ele>
        <time>2021-09-13T09:21:31.000Z</time>
      </trkpt>
      <trkpt lat="45.88843" lon="4.8289">
        <ele>174.24582</ele>
        <time>2021-09-13T09:21:39.000Z</time>
      </trkpt>
      <trkpt lat="45.8881" lon="4.82931">
        <ele>174.163791</ele>
        <time>2021-09-13T09:21:48.000Z</time>
      </trkpt>
      <trkpt lat="45.88785" lon="4.82963">
        <ele>174.063171</ele>
        <time>2021-09-13T09:21:55.000Z</time>
      </trkpt>
      <trkpt lat="45.8877" lon="4.82982">
        <ele>173.996593</ele>
        <time>2021-09-13T09:21:59.000Z</time>
      </trkpt>
      <trkpt lat="45.88762" lon="4.82991">
        <ele>173.962029</ele>
        <time>2021-09-13T09:22:01.000Z</time>
      </trkpt>
      <trkpt lat="45.88739" lon="4.83021">
        <ele>173.855714</ele>
        <time>2021-09-13T09:22:07.000Z</time>
      </trkpt>
      <trkpt lat="45.88731" lon="4.83032">
        <ele>173.818563</ele>
        <time>2021-09-13T09:22:09.000Z</time>
      </trkpt>
      <trkpt lat="45.88719" lon="4.83048">
        <ele>173.762007</ele>
        <time>2021-09-13T09:22:12.000Z</time>
      </trkpt>
      <trkpt lat="45.88714" lon="4.83053">
        <ele>173.743055</ele>
        <time>2021-09-13T09:22:13.000Z</time>
      </trkpt>
      <trkpt lat="45.88698" lon="4.83072">
        <ele>173.672651</ele>
        <time>2021-09-13T09:22:17.000Z</time>
      </trkpt>
      <trkpt lat="45.88679" lon="4.83095">
        <ele>173.586184</ele>
        <time>2021-09-13T09:22:22.000Z</time>
      </trkpt>
      <trkpt lat="45.8865" lon="4.83131">
        <ele>173.446215</ele>
        <time>2021-09-13T09:22:29.000Z</time>
      </trkpt>
      <trkpt lat="45.8862" lon="4.83167">
        <ele>173.292612</ele>
        <time>2021-09-13T09:22:37.000Z</time>
      </trkpt>
      <trkpt lat="45.88594" lon="4.83197">
        <ele>173.164181</ele>
        <time>2021-09-13T09:22:44.000Z</time>
      </trkpt>
      <trkpt lat="45.88572" lon="4.83226">
        <ele>173.047474</ele>
        <time>2021-09-13T09:22:50.000Z</time>
      </trkpt>
      <trkpt lat="45.8856" lon="4.83241">
        <ele>172.984701</ele>
        <time>2021-09-13T09:22:53.000Z</time>
      </trkpt>
      <trkpt lat="45.88551" lon="4.83251">
        <ele>172.9432</ele>
        <time>2021-09-13T09:22:55.000Z</time>
      </trkpt>
      <trkpt lat="45.88543" lon="4.83261">
        <ele>172.901351</ele>
        <time>2021-09-13T09:22:57.000Z</time>
      </trkpt>
      <trkpt lat="45.88535" lon="4.83269">
        <ele>172.861735</ele>
        <time>2021-09-13T09:22:59.000Z</time>
      </trkpt>
      <trkpt lat="45.88503" lon="4.8329">
        <ele>172.686992</ele>
        <time>2021-09-13T09:23:06.000Z</time>
      </trkpt>
      <trkpt lat="45.88471" lon="4.83316">
        <ele>172.494281</ele>
        <time>2021-09-13T09:23:14.000Z</time>
      </trkpt>
      <trkpt lat="45.88453" lon="4.8332">
        <ele>172.396573</ele>
        <time>2021-09-13T09:23:18.000Z</time>
      </trkpt>
      <trkpt lat="45.88441" lon="4.83327">
        <ele>172.328898</ele>
        <time>2021-09-13T09:23:21.000Z</time>
      </trkpt>
      <trkpt lat="45.88408" lon="4.83345">
        <ele>172.143756</ele>
        <time>2021-09-13T09:23:29.000Z</time>
      </trkpt>
      <trkpt lat="45.88389" lon="4.83354">
        <ele>172.034763</ele>
        <time>2021-09-13T09:23:34.000Z</time>
      </trkpt>
      <trkpt lat="45.88379" lon="4.83357">
        <ele>171.982143</ele>
        <time>2021-09-13T09:23:36.000Z</time>
      </trkpt>
      <trkpt lat="45.88361" lon="4.83364">
        <ele>171.885228</ele>
        <time>2021-09-13T09:23:40.000Z</time>
      </trkpt>
      <trkpt lat="45.88357" lon="4.83366">
        <ele>171.862063</ele>
        <time>2021-09-13T09:23:41.000Z</time>
      </trkpt>
      <trkpt lat="45.88336" lon="4.83374">
        <ele>171.741276</ele>
        <time>2021-09-13T09:23:46.000Z</time>
      </trkpt>
      <trkpt lat="45.88332" lon="4.83376">
        <ele>171.719725</ele>
        <time>2021-09-13T09:23:47.000Z</time>
      </trkpt>
      <trkpt lat="45.88313" lon="4.83383">
        <ele>171.610391</ele>
        <time>2021-09-13T09:23:52.000Z</time>
      </trkpt>
      <trkpt lat="45.88289" lon="4.83393">
        <ele>171.473402</ele>
        <time>2021-09-13T09:23:58.000Z</time>
      </trkpt>
      <trkpt lat="45.88265" lon="4.83401">
        <ele>171.340444</ele>
        <time>2021-09-13T09:24:04.000Z</time>
      </trkpt>
      <trkpt lat="45.88247" lon="4.83408">
        <ele>171.236205</ele>
        <time>2021-09-13T09:24:09.000Z</time>
      </trkpt>
      <trkpt lat="45.88221" lon="4.83417">
        <ele>171.093582</ele>
        <time>2021-09-13T09:24:15.000Z</time>
      </trkpt>
      <trkpt lat="45.88202" lon="4.83424">
        <ele>170.984291</ele>
        <time>2021-09-13T09:24:21.000Z</time>
      </trkpt>
      <trkpt lat="45.88184" lon="4.83432">
        <ele>170.905602</ele>
        <time>2021-09-13T09:24:26.000Z</time>
      </trkpt>
      <trkpt lat="45.88171" lon="4.83441">
        <ele>170.933253</ele>
        <time>2021-09-13T09:24:30.000Z</time>
      </trkpt>
      <trkpt lat="45.88155" lon="4.8345">
        <ele>170.967114</ele>
        <time>2021-09-13T09:24:35.000Z</time>
      </trkpt>
      <trkpt lat="45.8813" lon="4.8347">
        <ele>171.021914</ele>
        <time>2021-09-13T09:24:42.000Z</time>
      </trkpt>
      <trkpt lat="45.8811" lon="4.83486">
        <ele>171.065408</ele>
        <time>2021-09-13T09:24:48.000Z</time>
      </trkpt>
      <trkpt lat="45.88096" lon="4.83507">
        <ele>171.104611</ele>
        <time>2021-09-13T09:24:53.000Z</time>
      </trkpt>
      <trkpt lat="45.88086" lon="4.83516">
        <ele>171.1276</ele>
        <time>2021-09-13T09:24:56.000Z</time>
      </trkpt>
      <trkpt lat="45.88079" lon="4.83522">
        <ele>171.143138</ele>
        <time>2021-09-13T09:24:58.000Z</time>
      </trkpt>
      <trkpt lat="45.88075" lon="4.83525">
        <ele>171.151527</ele>
        <time>2021-09-13T09:24:59.000Z</time>
      </trkpt>
      <trkpt lat="45.88056" lon="4.83543">
        <ele>171.196149</ele>
        <time>2021-09-13T09:25:05.000Z</time>
      </trkpt>
      <trkpt lat="45.88043" lon="4.83557">
        <ele>171.22729</ele>
        <time>2021-09-13T09:25:10.000Z</time>
      </trkpt>
      <trkpt lat="45.88033" lon="4.83566">
        <ele>171.244601</ele>
        <time>2021-09-13T09:25:14.000Z</time>
      </trkpt>
      <trkpt lat="45.8802" lon="4.83579">
        <ele>171.232481</ele>
        <time>2021-09-13T09:25:20.000Z</time>
      </trkpt>
      <trkpt lat="45.88018" lon="4.83581">
        <ele>171.230208</ele>
        <time>2021-09-13T09:25:23.000Z</time>
      </trkpt>
      <trkpt lat="45.88015" lon="4.83584">
        <ele>171.227905</ele>
        <time>2021-09-13T09:25:27.000Z</time>
      </trkpt>
      <trkpt lat="45.88014" lon="4.83586">
        <ele>171.226325</ele>
        <time>2021-09-13T09:25:28.000Z</time>
      </trkpt>
      <trkpt lat="45.88001" lon="4.83598">
        <ele>171.214111</ele>
        <time>2021-09-13T09:25:33.000Z</time>
      </trkpt>
      <trkpt lat="45.87981" lon="4.83618">
        <ele>171.195363</ele>
        <time>2021-09-13T09:25:39.000Z</time>
      </trkpt>
      <trkpt lat="45.87966" lon="4.83633">
        <ele>171.181508</ele>
        <time>2021-09-13T09:25:43.000Z</time>
      </trkpt>
      <trkpt lat="45.87962" lon="4.83637">
        <ele>171.177846</ele>
        <time>2021-09-13T09:25:44.000Z</time>
      </trkpt>
      <trkpt lat="45.87954" lon="4.83645">
        <ele>171.170271</ele>
        <time>2021-09-13T09:25:46.000Z</time>
      </trkpt>
      <trkpt lat="45.87939" lon="4.83658">
        <ele>171.15609</ele>
        <time>2021-09-13T09:25:50.000Z</time>
      </trkpt>
      <trkpt lat="45.87921" lon="4.83677">
        <ele>171.138889</ele>
        <time>2021-09-13T09:25:55.000Z</time>
      </trkpt>
      <trkpt lat="45.87904" lon="4.83695">
        <ele>171.122163</ele>
        <time>2021-09-13T09:25:59.000Z</time>
      </trkpt>
      <trkpt lat="45.87887" lon="4.83711">
        <ele>171.106692</ele>
        <time>2021-09-13T09:26:03.000Z</time>
      </trkpt>
      <trkpt lat="45.87865" lon="4.83732">
        <ele>170.74897</ele>
        <time>2021-09-13T09:26:08.000Z</time>
      </trkpt>
      <trkpt lat="45.87845" lon="4.83752">
        <ele>170.412162</ele>
        <time>2021-09-13T09:26:13.000Z</time>
      </trkpt>
      <trkpt lat="45.87837" lon="4.8376">
        <ele>170.275203</ele>
        <time>2021-09-13T09:26:15.000Z</time>
      </trkpt>
      <trkpt lat="45.87828" lon="4.83769">
        <ele>170.126999</ele>
        <time>2021-09-13T09:26:17.000Z</time>
      </trkpt>
      <trkpt lat="45.87812" lon="4.83784">
        <ele>169.85584</ele>
        <time>2021-09-13T09:26:21.000Z</time>
      </trkpt>
      <trkpt lat="45.87804" lon="4.83792">
        <ele>169.727835</ele>
        <time>2021-09-13T09:26:23.000Z</time>
      </trkpt>
      <trkpt lat="45.87793" lon="4.83803">
        <ele>169.542597</ele>
        <time>2021-09-13T09:26:26.000Z</time>
      </trkpt>
      <trkpt lat="45.87785" lon="4.8381">
        <ele>169.406175</ele>
        <time>2021-09-13T09:26:28.000Z</time>
      </trkpt>
      <trkpt lat="45.87777" lon="4.83818">
        <ele>169.27197</ele>
        <time>2021-09-13T09:26:30.000Z</time>
      </trkpt>
      <trkpt lat="45.87759" lon="4.83827">
        <ele>169.013521</ele>
        <time>2021-09-13T09:26:34.000Z</time>
      </trkpt>
      <trkpt lat="45.87729" lon="4.83836">
        <ele>168.618625</ele>
        <time>2021-09-13T09:26:41.000Z</time>
      </trkpt>
      <trkpt lat="45.8771" lon="4.83828">
        <ele>168.591499</ele>
        <time>2021-09-13T09:26:46.000Z</time>
      </trkpt>
      <trkpt lat="45.87695" lon="4.83833">
        <ele>168.570273</ele>
        <time>2021-09-13T09:26:50.000Z</time>
      </trkpt>
      <trkpt lat="45.87661" lon="4.83837">
        <ele>168.523457</ele>
        <time>2021-09-13T09:26:57.000Z</time>
      </trkpt>
      <trkpt lat="45.87641" lon="4.83842">
        <ele>168.494445</ele>
        <time>2021-09-13T09:27:01.000Z</time>
      </trkpt>
      <trkpt lat="45.87629" lon="4.83844">
        <ele>168.478987</ele>
        <time>2021-09-13T09:27:03.000Z</time>
      </trkpt>
      <trkpt lat="45.87592" lon="4.8385">
        <ele>168.426702</ele>
        <time>2021-09-13T09:27:10.000Z</time>
      </trkpt>
      <trkpt lat="45.87581" lon="4.83852">
        <ele>168.412618</ele>
        <time>2021-09-13T09:27:12.000Z</time>
      </trkpt>
      <trkpt lat="45.87556" lon="4.83859">
        <ele>168.376631</ele>
        <time>2021-09-13T09:27:17.000Z</time>
      </trkpt>
      <trkpt lat="45.87537" lon="4.83866">
        <ele>168.500913</ele>
        <time>2021-09-13T09:27:22.000Z</time>
      </trkpt>
      <trkpt lat="45.87526" lon="4.83872">
        <ele>168.579169</ele>
        <time>2021-09-13T09:27:27.000Z</time>
      </trkpt>
      <trkpt lat="45.87505" lon="4.83877">
        <ele>168.729303</ele>
        <time>2021-09-13T09:27:33.000Z</time>
      </trkpt>
      <trkpt lat="45.87472" lon="4.83886">
        <ele>168.963523</ele>
        <time>2021-09-13T09:27:40.000Z</time>
      </trkpt>
      <trkpt lat="45.87441" lon="4.83894">
        <ele>169.184098</ele>
        <time>2021-09-13T09:27:46.000Z</time>
      </trkpt>
      <trkpt lat="45.87398" lon="4.83906">
        <ele>169.494032</ele>
        <time>2021-09-13T09:27:54.000Z</time>
      </trkpt>
      <trkpt lat="45.87353" lon="4.83918">
        <ele>169.821543</ele>
        <time>2021-09-13T09:28:02.000Z</time>
      </trkpt>
      <trkpt lat="45.8732" lon="4.83927">
        <ele>170.076214</ele>
        <time>2021-09-13T09:28:08.000Z</time>
      </trkpt>
      <trkpt lat="45.87285" lon="4.83936">
        <ele>170.338545</ele>
        <time>2021-09-13T09:28:14.000Z</time>
      </trkpt>
      <trkpt lat="45.87242" lon="4.83948">
        <ele>170.662275</ele>
        <time>2021-09-13T09:28:22.000Z</time>
      </trkpt>
      <trkpt lat="45.87208" lon="4.83956">
        <ele>170.917854</ele>
        <time>2021-09-13T09:28:29.000Z</time>
      </trkpt>
      <trkpt lat="45.87172" lon="4.83965">
        <ele>171.062932</ele>
        <time>2021-09-13T09:28:36.000Z</time>
      </trkpt>
      <trkpt lat="45.87145" lon="4.83969">
        <ele>171.148677</ele>
        <time>2021-09-13T09:28:41.000Z</time>
      </trkpt>
      <trkpt lat="45.87134" lon="4.83971">
        <ele>171.183961</ele>
        <time>2021-09-13T09:28:43.000Z</time>
      </trkpt>
      <trkpt lat="45.87089" lon="4.83975">
        <ele>171.329007</ele>
        <time>2021-09-13T09:28:51.000Z</time>
      </trkpt>
      <trkpt lat="45.87032" lon="4.83978">
        <ele>171.510787</ele>
        <time>2021-09-13T09:29:01.000Z</time>
      </trkpt>
      <trkpt lat="45.86977" lon="4.8398">
        <ele>171.538221</ele>
        <time>2021-09-13T09:29:11.000Z</time>
      </trkpt>
      <trkpt lat="45.86928" lon="4.83977">
        <ele>171.53318</ele>
        <time>2021-09-13T09:29:20.000Z</time>
      </trkpt>
      <trkpt lat="45.86885" lon="4.83972">
        <ele>171.528787</ele>
        <time>2021-09-13T09:29:28.000Z</time>
      </trkpt>
      <trkpt lat="45.86852" lon="4.83968">
        <ele>171.525359</ele>
        <time>2021-09-13T09:29:34.000Z</time>
      </trkpt>
      <trkpt lat="45.86847" lon="4.83968">
        <ele>171.524815</ele>
        <time>2021-09-13T09:29:35.000Z</time>
      </trkpt>
      <trkpt lat="45.86839" lon="4.83954">
        <ele>171.467758</ele>
        <time>2021-09-13T09:29:37.000Z</time>
      </trkpt>
      <trkpt lat="45.86827" lon="4.83949">
        <ele>171.382138</ele>
        <time>2021-09-13T09:29:39.000Z</time>
      </trkpt>
      <trkpt lat="45.86811" lon="4.83955">
        <ele>171.268603</ele>
        <time>2021-09-13T09:29:42.000Z</time>
      </trkpt>
      <trkpt lat="45.86801" lon="4.83954">
        <ele>171.196271</ele>
        <time>2021-09-13T09:29:44.000Z</time>
      </trkpt>
      <trkpt lat="45.86795" lon="4.83954">
        <ele>171.159786</ele>
        <time>2021-09-13T09:29:45.000Z</time>
      </trkpt>
      <trkpt lat="45.8678" lon="4.83954">
        <ele>171.0517</ele>
        <time>2021-09-13T09:29:48.000Z</time>
      </trkpt>
      <trkpt lat="45.86747" lon="4.83953">
        <ele>170.823827</ele>
        <time>2021-09-13T09:29:54.000Z</time>
      </trkpt>
      <trkpt lat="45.86741" lon="4.83953">
        <ele>170.788031</ele>
        <time>2021-09-13T09:29:55.000Z</time>
      </trkpt>
      <trkpt lat="45.86709" lon="4.83952">
        <ele>170.568417</ele>
        <time>2021-09-13T09:30:01.000Z</time>
      </trkpt>
      <trkpt lat="45.86682" lon="4.83945">
        <ele>170.379212</ele>
        <time>2021-09-13T09:30:06.000Z</time>
      </trkpt>
      <trkpt lat="45.86672" lon="4.83945">
        <ele>170.308299</ele>
        <time>2021-09-13T09:30:08.000Z</time>
      </trkpt>
      <trkpt lat="45.86641" lon="4.83947">
        <ele>170.107849</ele>
        <time>2021-09-13T09:30:14.000Z</time>
      </trkpt>
      <trkpt lat="45.86626" lon="4.8395">
        <ele>170.014787</ele>
        <time>2021-09-13T09:30:17.000Z</time>
      </trkpt>
      <trkpt lat="45.86611" lon="4.83953">
        <ele>169.920474</ele>
        <time>2021-09-13T09:30:20.000Z</time>
      </trkpt>
      <trkpt lat="45.866" lon="4.83954">
        <ele>169.851438</ele>
        <time>2021-09-13T09:30:22.000Z</time>
      </trkpt>
      <trkpt lat="45.86585" lon="4.83957">
        <ele>169.756453</ele>
        <time>2021-09-13T09:30:25.000Z</time>
      </trkpt>
      <trkpt lat="45.8658" lon="4.83957">
        <ele>169.724194</ele>
        <time>2021-09-13T09:30:26.000Z</time>
      </trkpt>
      <trkpt lat="45.86527" lon="4.83971">
        <ele>169.383559</ele>
        <time>2021-09-13T09:30:36.000Z</time>
      </trkpt>
      <trkpt lat="45.8649" lon="4.83983">
        <ele>169.150731</ele>
        <time>2021-09-13T09:30:43.000Z</time>
      </trkpt>
      <trkpt lat="45.86454" lon="4.83997">
        <ele>169.066719</ele>
        <time>2021-09-13T09:30:50.000Z</time>
      </trkpt>
      <trkpt lat="45.86422" lon="4.84008">
        <ele>168.990312</ele>
        <time>2021-09-13T09:30:57.000Z</time>
      </trkpt>
      <trkpt lat="45.86391" lon="4.84017">
        <ele>168.918088</ele>
        <time>2021-09-13T09:31:04.000Z</time>
      </trkpt>
      <trkpt lat="45.8636" lon="4.84026">
        <ele>168.845471</ele>
        <time>2021-09-13T09:31:11.000Z</time>
      </trkpt>
      <trkpt lat="45.86333" lon="4.84033">
        <ele>168.784188</ele>
        <time>2021-09-13T09:31:17.000Z</time>
      </trkpt>
      <trkpt lat="45.863" lon="4.84042">
        <ele>168.800166</ele>
        <time>2021-09-13T09:31:25.000Z</time>
      </trkpt>
      <trkpt lat="45.86293" lon="4.84044">
        <ele>168.828049</ele>
        <time>2021-09-13T09:31:27.000Z</time>
      </trkpt>
      <trkpt lat="45.8628" lon="4.84047">
        <ele>168.875414</ele>
        <time>2021-09-13T09:31:30.000Z</time>
      </trkpt>
      <trkpt lat="45.86251" lon="4.84053">
        <ele>168.98306</ele>
        <time>2021-09-13T09:31:37.000Z</time>
      </trkpt>
      <trkpt lat="45.86243" lon="4.84055">
        <ele>169.012658</ele>
        <time>2021-09-13T09:31:39.000Z</time>
      </trkpt>
      <trkpt lat="45.86227" lon="4.84059">
        <ele>169.0737</ele>
        <time>2021-09-13T09:31:43.000Z</time>
      </trkpt>
      <trkpt lat="45.86196" lon="4.84066">
        <ele>169.18692</ele>
        <time>2021-09-13T09:31:50.000Z</time>
      </trkpt>
      <trkpt lat="45.86164" lon="4.84073">
        <ele>169.305314</ele>
        <time>2021-09-13T09:31:57.000Z</time>
      </trkpt>
      <trkpt lat="45.86132" lon="4.84081">
        <ele>169.403986</ele>
        <time>2021-09-13T09:32:04.000Z</time>
      </trkpt>
      <trkpt lat="45.86094" lon="4.84091">
        <ele>169.423718</ele>
        <time>2021-09-13T09:32:12.000Z</time>
      </trkpt>
      <trkpt lat="45.86084" lon="4.84093">
        <ele>169.428595</ele>
        <time>2021-09-13T09:32:14.000Z</time>
      </trkpt>
      <trkpt lat="45.86064" lon="4.84098">
        <ele>169.438609</ele>
        <time>2021-09-13T09:32:18.000Z</time>
      </trkpt>
      <trkpt lat="45.86025" lon="4.84108">
        <ele>169.458746</ele>
        <time>2021-09-13T09:32:26.000Z</time>
      </trkpt>
      <trkpt lat="45.85986" lon="4.84118">
        <ele>169.478472</ele>
        <time>2021-09-13T09:32:34.000Z</time>
      </trkpt>
      <trkpt lat="45.85946" lon="4.84126">
        <ele>169.423314</ele>
        <time>2021-09-13T09:32:42.000Z</time>
      </trkpt>
      <trkpt lat="45.85918" lon="4.84126">
        <ele>169.299386</ele>
        <time>2021-09-13T09:32:48.000Z</time>
      </trkpt>
      <trkpt lat="45.859" lon="4.84125">
        <ele>169.219942</ele>
        <time>2021-09-13T09:32:52.000Z</time>
      </trkpt>
      <trkpt lat="45.85887" lon="4.84123">
        <ele>169.163277</ele>
        <time>2021-09-13T09:32:55.000Z</time>
      </trkpt>
      <trkpt lat="45.85849" lon="4.84111">
        <ele>168.991278</ele>
        <time>2021-09-13T09:33:03.000Z</time>
      </trkpt>
      <trkpt lat="45.85812" lon="4.84094">
        <ele>168.822372</ele>
        <time>2021-09-13T09:33:11.000Z</time>
      </trkpt>
      <trkpt lat="45.85776" lon="4.84075">
        <ele>168.660364</ele>
        <time>2021-09-13T09:33:19.000Z</time>
      </trkpt>
      <trkpt lat="45.85743" lon="4.84059">
        <ele>168.540981</ele>
        <time>2021-09-13T09:33:26.000Z</time>
      </trkpt>
      <trkpt lat="45.85711" lon="4.84043">
        <ele>168.424452</ele>
        <time>2021-09-13T09:33:33.000Z</time>
      </trkpt>
      <trkpt lat="45.8568" lon="4.84029">
        <ele>168.311077</ele>
        <time>2021-09-13T09:33:40.000Z</time>
      </trkpt>
      <trkpt lat="45.85676" lon="4.84027">
        <ele>168.295689</ele>
        <time>2021-09-13T09:33:41.000Z</time>
      </trkpt>
      <trkpt lat="45.85637" lon="4.84008">
        <ele>168.150472</ele>
        <time>2021-09-13T09:33:50.000Z</time>
      </trkpt>
      <trkpt lat="45.85621" lon="4.84001">
        <ele>168.093011</ele>
        <time>2021-09-13T09:33:54.000Z</time>
      </trkpt>
      <trkpt lat="45.85594" lon="4.83987">
        <ele>168.02904</ele>
        <time>2021-09-13T09:34:01.000Z</time>
      </trkpt>
      <trkpt lat="45.85574" lon="4.83977">
        <ele>167.986532</ele>
        <time>2021-09-13T09:34:06.000Z</time>
      </trkpt>
      <trkpt lat="45.8557" lon="4.83975">
        <ele>167.977594</ele>
        <time>2021-09-13T09:34:07.000Z</time>
      </trkpt>
      <trkpt lat="45.85565" lon="4.83973">
        <ele>167.968612</ele>
        <time>2021-09-13T09:34:08.000Z</time>
      </trkpt>
      <trkpt lat="45.85544" lon="4.83962">
        <ele>167.924251</ele>
        <time>2021-09-13T09:34:13.000Z</time>
      </trkpt>
      <trkpt lat="45.85535" lon="4.83958">
        <ele>167.905081</ele>
        <time>2021-09-13T09:34:15.000Z</time>
      </trkpt>
      <trkpt lat="45.85522" lon="4.83951">
        <ele>167.877576</ele>
        <time>2021-09-13T09:34:18.000Z</time>
      </trkpt>
      <trkpt lat="45.85494" lon="4.83937">
        <ele>167.819001</ele>
        <time>2021-09-13T09:34:24.000Z</time>
      </trkpt>
      <trkpt lat="45.85489" lon="4.83935">
        <ele>167.810063</ele>
        <time>2021-09-13T09:34:25.000Z</time>
      </trkpt>
      <trkpt lat="45.85485" lon="4.83933">
        <ele>167.801311</ele>
        <time>2021-09-13T09:34:26.000Z</time>
      </trkpt>
      <trkpt lat="45.85477" lon="4.83928">
        <ele>167.783577</ele>
        <time>2021-09-13T09:34:28.000Z</time>
      </trkpt>
      <trkpt lat="45.85463" lon="4.83922">
        <ele>167.755053</ele>
        <time>2021-09-13T09:34:31.000Z</time>
      </trkpt>
      <trkpt lat="45.85433" lon="4.83906">
        <ele>167.754237</ele>
        <time>2021-09-13T09:34:38.000Z</time>
      </trkpt>
      <trkpt lat="45.85404" lon="4.83892">
        <ele>167.834783</ele>
        <time>2021-09-13T09:34:44.000Z</time>
      </trkpt>
      <trkpt lat="45.85395" lon="4.83888">
        <ele>167.860591</ele>
        <time>2021-09-13T09:34:46.000Z</time>
      </trkpt>
      <trkpt lat="45.8539" lon="4.83886">
        <ele>167.873214</ele>
        <time>2021-09-13T09:34:47.000Z</time>
      </trkpt>
      <trkpt lat="45.85371" lon="4.83876">
        <ele>167.926265</ele>
        <time>2021-09-13T09:34:51.000Z</time>
      </trkpt>
      <trkpt lat="45.85339" lon="4.83861">
        <ele>168.016059</ele>
        <time>2021-09-13T09:34:58.000Z</time>
      </trkpt>
      <trkpt lat="45.8531" lon="4.83846">
        <ele>168.099417</ele>
        <time>2021-09-13T09:35:05.000Z</time>
      </trkpt>
      <trkpt lat="45.85292" lon="4.83841">
        <ele>168.14739</ele>
        <time>2021-09-13T09:35:09.000Z</time>
      </trkpt>
      <trkpt lat="45.85283" lon="4.83838">
        <ele>168.170429</ele>
        <time>2021-09-13T09:35:11.000Z</time>
      </trkpt>
      <trkpt lat="45.85271" lon="4.83835">
        <ele>168.191407</ele>
        <time>2021-09-13T09:35:14.000Z</time>
      </trkpt>
      <trkpt lat="45.85262" lon="4.83832">
        <ele>168.179187</ele>
        <time>2021-09-13T09:35:16.000Z</time>
      </trkpt>
      <trkpt lat="45.85244" lon="4.83827">
        <ele>168.15305</ele>
        <time>2021-09-13T09:35:20.000Z</time>
      </trkpt>
      <trkpt lat="45.85235" lon="4.83824">
        <ele>168.140538</ele>
        <time>2021-09-13T09:35:22.000Z</time>
      </trkpt>
      <trkpt lat="45.85226" lon="4.83822">
        <ele>168.12746</ele>
        <time>2021-09-13T09:35:24.000Z</time>
      </trkpt>
      <trkpt lat="45.85203" lon="4.83815">
        <ele>168.095632</ele>
        <time>2021-09-13T09:35:29.000Z</time>
      </trkpt>
      <trkpt lat="45.85172" lon="4.83806">
        <ele>168.051721</ele>
        <time>2021-09-13T09:35:36.000Z</time>
      </trkpt>
      <trkpt lat="45.85168" lon="4.83805">
        <ele>168.04562</ele>
        <time>2021-09-13T09:35:37.000Z</time>
      </trkpt>
      <trkpt lat="45.85146" lon="4.83798">
        <ele>168.013929</ele>
        <time>2021-09-13T09:35:42.000Z</time>
      </trkpt>
      <trkpt lat="45.85129" lon="4.83793">
        <ele>167.989625</ele>
        <time>2021-09-13T09:35:46.000Z</time>
      </trkpt>
      <trkpt lat="45.85124" lon="4.83792">
        <ele>167.983232</ele>
        <time>2021-09-13T09:35:47.000Z</time>
      </trkpt>
      <trkpt lat="45.85084" lon="4.8378">
        <ele>167.963038</ele>
        <time>2021-09-13T09:35:56.000Z</time>
      </trkpt>
      <trkpt lat="45.85042" lon="4.83772">
        <ele>168.014472</ele>
        <time>2021-09-13T09:36:05.000Z</time>
      </trkpt>
      <trkpt lat="45.85025" lon="4.83766">
        <ele>168.036654</ele>
        <time>2021-09-13T09:36:09.000Z</time>
      </trkpt>
      <trkpt lat="45.85017" lon="4.83763">
        <ele>168.046643</ele>
        <time>2021-09-13T09:36:11.000Z</time>
      </trkpt>
      <trkpt lat="45.85013" lon="4.83761">
        <ele>168.051845</ele>
        <time>2021-09-13T09:36:12.000Z</time>
      </trkpt>
      <trkpt lat="45.84989" lon="4.83749">
        <ele>168.083328</ele>
        <time>2021-09-13T09:36:18.000Z</time>
      </trkpt>
      <trkpt lat="45.84984" lon="4.83737">
        <ele>168.095019</ele>
        <time>2021-09-13T09:36:20.000Z</time>
      </trkpt>
      <trkpt lat="45.84977" lon="4.83726">
        <ele>168.107167</ele>
        <time>2021-09-13T09:36:22.000Z</time>
      </trkpt>
      <trkpt lat="45.84962" lon="4.83732">
        <ele>168.126086</ele>
        <time>2021-09-13T09:36:25.000Z</time>
      </trkpt>
      <trkpt lat="45.84958" lon="4.83726">
        <ele>168.133316</ele>
        <time>2021-09-13T09:36:26.000Z</time>
      </trkpt>
      <trkpt lat="45.84954" lon="4.83727">
        <ele>168.138535</ele>
        <time>2021-09-13T09:36:27.000Z</time>
      </trkpt>
      <trkpt lat="45.84942" lon="4.8373">
        <ele>168.153916</ele>
        <time>2021-09-13T09:36:30.000Z</time>
      </trkpt>
      <trkpt lat="45.84938" lon="4.83728">
        <ele>168.158948</ele>
        <time>2021-09-13T09:36:31.000Z</time>
      </trkpt>
      <trkpt lat="45.84918" lon="4.83719">
        <ele>168.185175</ele>
        <time>2021-09-13T09:36:36.000Z</time>
      </trkpt>
      <trkpt lat="45.84902" lon="4.83712">
        <ele>168.205498</ele>
        <time>2021-09-13T09:36:40.000Z</time>
      </trkpt>
      <trkpt lat="45.84889" lon="4.83706">
        <ele>168.221909</ele>
        <time>2021-09-13T09:36:43.000Z</time>
      </trkpt>
      <trkpt lat="45.84851" lon="4.83684">
        <ele>168.27261</ele>
        <time>2021-09-13T09:36:52.000Z</time>
      </trkpt>
      <trkpt lat="45.84824" lon="4.83668">
        <ele>168.308773</ele>
        <time>2021-09-13T09:36:58.000Z</time>
      </trkpt>
      <trkpt lat="45.84819" lon="4.83665">
        <ele>168.314696</ele>
        <time>2021-09-13T09:36:59.000Z</time>
      </trkpt>
      <trkpt lat="45.84786" lon="4.83648">
        <ele>168.357559</ele>
        <time>2021-09-13T09:37:06.000Z</time>
      </trkpt>
      <trkpt lat="45.84747" lon="4.83628">
        <ele>168.386037</ele>
        <time>2021-09-13T09:37:15.000Z</time>
      </trkpt>
      <trkpt lat="45.84697" lon="4.83603">
        <ele>168.382346</ele>
        <time>2021-09-13T09:37:26.000Z</time>
      </trkpt>
      <trkpt lat="45.84656" lon="4.83586">
        <ele>168.379364</ele>
        <time>2021-09-13T09:37:35.000Z</time>
      </trkpt>
      <trkpt lat="45.8462" lon="4.83569">
        <ele>168.37675</ele>
        <time>2021-09-13T09:37:43.000Z</time>
      </trkpt>
      <trkpt lat="45.84575" lon="4.8355">
        <ele>168.563756</ele>
        <time>2021-09-13T09:37:53.000Z</time>
      </trkpt>
      <trkpt lat="45.84547" lon="4.83519">
        <ele>168.933097</ele>
        <time>2021-09-13T09:38:01.000Z</time>
      </trkpt>
      <trkpt lat="45.84513" lon="4.83499">
        <ele>169.317597</ele>
        <time>2021-09-13T09:38:10.000Z</time>
      </trkpt>
      <trkpt lat="45.84491" lon="4.83497">
        <ele>169.545674</ele>
        <time>2021-09-13T09:38:16.000Z</time>
      </trkpt>
      <trkpt lat="45.84488" lon="4.83497">
        <ele>169.584619</ele>
        <time>2021-09-13T09:38:21.000Z</time>
      </trkpt>
      <trkpt lat="45.84485" lon="4.83498">
        <ele>169.618351</ele>
        <time>2021-09-13T09:38:28.000Z</time>
      </trkpt>
      <trkpt lat="45.8448" lon="4.83498">
        <ele>169.6687</ele>
        <time>2021-09-13T09:38:30.000Z</time>
      </trkpt>
      <trkpt lat="45.84457" lon="4.8349">
        <ele>169.916873</ele>
        <time>2021-09-13T09:38:37.000Z</time>
      </trkpt>
      <trkpt lat="45.84434" lon="4.8348">
        <ele>170.169494</ele>
        <time>2021-09-13T09:38:43.000Z</time>
      </trkpt>
      <trkpt lat="45.84403" lon="4.83468">
        <ele>170.348899</ele>
        <time>2021-09-13T09:38:52.000Z</time>
      </trkpt>
      <trkpt lat="45.84381" lon="4.83459">
        <ele>170.433313</ele>
        <time>2021-09-13T09:38:58.000Z</time>
      </trkpt>
      <trkpt lat="45.84377" lon="4.83457">
        <ele>170.449523</ele>
        <time>2021-09-13T09:38:59.000Z</time>
      </trkpt>
      <trkpt lat="45.84341" lon="4.83443">
        <ele>170.593158</ele>
        <time>2021-09-13T09:39:08.000Z</time>
      </trkpt>
      <trkpt lat="45.8431" lon="4.8343">
        <ele>170.714007</ele>
        <time>2021-09-13T09:39:15.000Z</time>
      </trkpt>
      <trkpt lat="45.84306" lon="4.83428">
        <ele>170.731461</ele>
        <time>2021-09-13T09:39:16.000Z</time>
      </trkpt>
      <trkpt lat="45.84287" lon="4.8342">
        <ele>170.806749</ele>
        <time>2021-09-13T09:39:20.000Z</time>
      </trkpt>
      <trkpt lat="45.84282" lon="4.83418">
        <ele>170.825006</ele>
        <time>2021-09-13T09:39:21.000Z</time>
      </trkpt>
      <trkpt lat="45.84254" lon="4.83406">
        <ele>170.935125</ele>
        <time>2021-09-13T09:39:27.000Z</time>
      </trkpt>
      <trkpt lat="45.84245" lon="4.83403">
        <ele>170.956213</ele>
        <time>2021-09-13T09:39:29.000Z</time>
      </trkpt>
      <trkpt lat="45.84227" lon="4.83395">
        <ele>170.991752</ele>
        <time>2021-09-13T09:39:33.000Z</time>
      </trkpt>
      <trkpt lat="45.84193" lon="4.83383">
        <ele>171.055781</ele>
        <time>2021-09-13T09:39:40.000Z</time>
      </trkpt>
      <trkpt lat="45.8418" lon="4.83379">
        <ele>171.081226</ele>
        <time>2021-09-13T09:39:43.000Z</time>
      </trkpt>
      <trkpt lat="45.84175" lon="4.83379">
        <ele>171.089203</ele>
        <time>2021-09-13T09:39:44.000Z</time>
      </trkpt>
      <trkpt lat="45.8416" lon="4.83376">
        <ele>171.116838</ele>
        <time>2021-09-13T09:39:47.000Z</time>
      </trkpt>
      <trkpt lat="45.84147" lon="4.83374">
        <ele>171.142431</ele>
        <time>2021-09-13T09:39:50.000Z</time>
      </trkpt>
      <trkpt lat="45.84122" lon="4.83371">
        <ele>171.187151</ele>
        <time>2021-09-13T09:39:55.000Z</time>
      </trkpt>
      <trkpt lat="45.84077" lon="4.83371">
        <ele>171.271571</ele>
        <time>2021-09-13T09:40:04.000Z</time>
      </trkpt>
      <trkpt lat="45.84047" lon="4.83372">
        <ele>171.33427</ele>
        <time>2021-09-13T09:40:10.000Z</time>
      </trkpt>
      <trkpt lat="45.8404" lon="4.83373">
        <ele>171.34984</ele>
        <time>2021-09-13T09:40:12.000Z</time>
      </trkpt>
      <trkpt lat="45.84032" lon="4.83372">
        <ele>171.367133</ele>
        <time>2021-09-13T09:40:14.000Z</time>
      </trkpt>
      <trkpt lat="45.84024" lon="4.83372">
        <ele>171.384212</ele>
        <time>2021-09-13T09:40:16.000Z</time>
      </trkpt>
      <trkpt lat="45.84014" lon="4.83371">
        <ele>171.40428</ele>
        <time>2021-09-13T09:40:18.000Z</time>
      </trkpt>
      <trkpt lat="45.84009" lon="4.8337">
        <ele>171.41517</ele>
        <time>2021-09-13T09:40:19.000Z</time>
      </trkpt>
      <trkpt lat="45.8399" lon="4.83369">
        <ele>171.456371</ele>
        <time>2021-09-13T09:40:23.000Z</time>
      </trkpt>
      <trkpt lat="45.83962" lon="4.83367">
        <ele>171.515708</ele>
        <time>2021-09-13T09:40:28.000Z</time>
      </trkpt>
      <trkpt lat="45.83923" lon="4.83365">
        <ele>171.598928</ele>
        <time>2021-09-13T09:40:34.000Z</time>
      </trkpt>
      <trkpt lat="45.83889" lon="4.83364">
        <ele>171.615664</ele>
        <time>2021-09-13T09:40:40.000Z</time>
      </trkpt>
      <trkpt lat="45.83848" lon="4.83366">
        <ele>171.345761</ele>
        <time>2021-09-13T09:40:48.000Z</time>
      </trkpt>
      <trkpt lat="45.83843" lon="4.83367">
        <ele>171.313116</ele>
        <time>2021-09-13T09:40:49.000Z</time>
      </trkpt>
      <trkpt lat="45.83833" lon="4.83368">
        <ele>171.251002</ele>
        <time>2021-09-13T09:40:51.000Z</time>
      </trkpt>
      <trkpt lat="45.83823" lon="4.83369">
        <ele>171.186328</ele>
        <time>2021-09-13T09:40:53.000Z</time>
      </trkpt>
      <trkpt lat="45.83803" lon="4.83374">
        <ele>171.05066</ele>
        <time>2021-09-13T09:40:57.000Z</time>
      </trkpt>
      <trkpt lat="45.83793" lon="4.83379">
        <ele>170.986591</ele>
        <time>2021-09-13T09:40:59.000Z</time>
      </trkpt>
      <trkpt lat="45.8376" lon="4.83398">
        <ele>170.751984</ele>
        <time>2021-09-13T09:41:06.000Z</time>
      </trkpt>
      <trkpt lat="45.83738" lon="4.83414">
        <ele>170.595243</ele>
        <time>2021-09-13T09:41:11.000Z</time>
      </trkpt>
      <trkpt lat="45.83704" lon="4.83445">
        <ele>170.267092</ele>
        <time>2021-09-13T09:41:19.000Z</time>
      </trkpt>
      <trkpt lat="45.83674" lon="4.83476">
        <ele>169.928047</ele>
        <time>2021-09-13T09:41:26.000Z</time>
      </trkpt>
      <trkpt lat="45.83648" lon="4.83511">
        <ele>169.601377</ele>
        <time>2021-09-13T09:41:33.000Z</time>
      </trkpt>
      <trkpt lat="45.83625" lon="4.83546">
        <ele>169.293528</ele>
        <time>2021-09-13T09:41:40.000Z</time>
      </trkpt>
      <trkpt lat="45.83607" lon="4.8358">
        <ele>169.020709</ele>
        <time>2021-09-13T09:41:46.000Z</time>
      </trkpt>
      <trkpt lat="45.83605" lon="4.83586">
        <ele>168.977715</ele>
        <time>2021-09-13T09:41:47.000Z</time>
      </trkpt>
      <trkpt lat="45.83589" lon="4.8362">
        <ele>168.785832</ele>
        <time>2021-09-13T09:41:53.000Z</time>
      </trkpt>
      <trkpt lat="45.83586" lon="4.83625">
        <ele>168.767029</ele>
        <time>2021-09-13T09:41:54.000Z</time>
      </trkpt>
      <trkpt lat="45.83573" lon="4.83654">
        <ele>168.672987</ele>
        <time>2021-09-13T09:41:59.000Z</time>
      </trkpt>
      <trkpt lat="45.83565" lon="4.8367">
        <ele>168.620584</ele>
        <time>2021-09-13T09:42:02.000Z</time>
      </trkpt>
      <trkpt lat="45.83558" lon="4.83687">
        <ele>168.567068</ele>
        <time>2021-09-13T09:42:05.000Z</time>
      </trkpt>
      <trkpt lat="45.83545" lon="4.83715">
        <ele>168.474367</ele>
        <time>2021-09-13T09:42:10.000Z</time>
      </trkpt>
      <trkpt lat="45.8354" lon="4.83726">
        <ele>168.438095</ele>
        <time>2021-09-13T09:42:12.000Z</time>
      </trkpt>
      <trkpt lat="45.83521" lon="4.83773">
        <ele>168.290054</ele>
        <time>2021-09-13T09:42:20.000Z</time>
      </trkpt>
      <trkpt lat="45.83507" lon="4.83816">
        <ele>168.161975</ele>
        <time>2021-09-13T09:42:27.000Z</time>
      </trkpt>
      <trkpt lat="45.83493" lon="4.83861">
        <ele>168.170324</ele>
        <time>2021-09-13T09:42:34.000Z</time>
      </trkpt>
      <trkpt lat="45.83482" lon="4.83909">
        <ele>168.219672</ele>
        <time>2021-09-13T09:42:41.000Z</time>
      </trkpt>
      <trkpt lat="45.83471" lon="4.83956">
        <ele>168.267411</ele>
        <time>2021-09-13T09:42:48.000Z</time>
      </trkpt>
      <trkpt lat="45.83462" lon="4.83997">
        <ele>168.309504</ele>
        <time>2021-09-13T09:42:54.000Z</time>
      </trkpt>
      <trkpt lat="45.83449" lon="4.84052">
        <ele>168.36578</ele>
        <time>2021-09-13T09:43:02.000Z</time>
      </trkpt>
      <trkpt lat="45.83438" lon="4.841">
        <ele>168.689576</ele>
        <time>2021-09-13T09:43:09.000Z</time>
      </trkpt>
      <trkpt lat="45.83433" lon="4.8413">
        <ele>168.976891</ele>
        <time>2021-09-13T09:43:14.000Z</time>
      </trkpt>
      <trkpt lat="45.8343" lon="4.8415">
        <ele>169.173655</ele>
        <time>2021-09-13T09:43:20.000Z</time>
      </trkpt>
      <trkpt lat="45.83427" lon="4.84167">
        <ele>169.338511</ele>
        <time>2021-09-13T09:43:25.000Z</time>
      </trkpt>
      <trkpt lat="45.83423" lon="4.84191">
        <ele>169.576379</ele>
        <time>2021-09-13T09:43:31.000Z</time>
      </trkpt>
      <trkpt lat="45.8342" lon="4.84212">
        <ele>169.774347</ele>
        <time>2021-09-13T09:43:38.000Z</time>
      </trkpt>
      <trkpt lat="45.83417" lon="4.84236">
        <ele>170.003737</ele>
        <time>2021-09-13T09:43:45.000Z</time>
      </trkpt>
      <trkpt lat="45.83408" lon="4.84266">
        <ele>170.315543</ele>
        <time>2021-09-13T09:43:52.000Z</time>
      </trkpt>
      <trkpt lat="45.834" lon="4.8429">
        <ele>170.570472</ele>
        <time>2021-09-13T09:43:57.000Z</time>
      </trkpt>
      <trkpt lat="45.83385" lon="4.84337">
        <ele>170.918841</ele>
        <time>2021-09-13T09:44:05.000Z</time>
      </trkpt>
      <trkpt lat="45.83372" lon="4.8438">
        <ele>171.104549</ele>
        <time>2021-09-13T09:44:12.000Z</time>
      </trkpt>
      <trkpt lat="45.8336" lon="4.84424">
        <ele>171.291539</ele>
        <time>2021-09-13T09:44:19.000Z</time>
      </trkpt>
      <trkpt lat="45.83344" lon="4.8448">
        <ele>171.528387</ele>
        <time>2021-09-13T09:44:28.000Z</time>
      </trkpt>
      <trkpt lat="45.83334" lon="4.84518">
        <ele>171.687631</ele>
        <time>2021-09-13T09:44:34.000Z</time>
      </trkpt>
      <trkpt lat="45.83322" lon="4.84564">
        <ele>171.857382</ele>
        <time>2021-09-13T09:44:41.000Z</time>
      </trkpt>
      <trkpt lat="45.83313" lon="4.84595">
        <ele>171.906897</ele>
        <time>2021-09-13T09:44:46.000Z</time>
      </trkpt>
      <trkpt lat="45.83311" lon="4.84601">
        <ele>171.917674</ele>
        <time>2021-09-13T09:44:47.000Z</time>
      </trkpt>
      <trkpt lat="45.83299" lon="4.84645">
        <ele>171.989023</ele>
        <time>2021-09-13T09:44:53.000Z</time>
      </trkpt>
      <trkpt lat="45.83281" lon="4.84708">
        <ele>172.091038</ele>
        <time>2021-09-13T09:45:01.000Z</time>
      </trkpt>
      <trkpt lat="45.83269" lon="4.84749">
        <ele>172.15902</ele>
        <time>2021-09-13T09:45:07.000Z</time>
      </trkpt>
      <trkpt lat="45.8326" lon="4.84785">
        <ele>172.216834</ele>
        <time>2021-09-13T09:45:14.000Z</time>
      </trkpt>
      <trkpt lat="45.83253" lon="4.8481">
        <ele>172.252098</ele>
        <time>2021-09-13T09:45:20.000Z</time>
      </trkpt>
      <trkpt lat="45.83243" lon="4.84832">
        <ele>172.284433</ele>
        <time>2021-09-13T09:45:26.000Z</time>
      </trkpt>
      <trkpt lat="45.83238" lon="4.84859">
        <ele>172.319908</ele>
        <time>2021-09-13T09:45:33.000Z</time>
      </trkpt>
      <trkpt lat="45.83228" lon="4.84861">
        <ele>172.337598</ele>
        <time>2021-09-13T09:45:36.000Z</time>
      </trkpt>
      <trkpt lat="45.83208" lon="4.84841">
        <ele>172.380566</ele>
        <time>2021-09-13T09:45:45.000Z</time>
      </trkpt>
      <trkpt lat="45.83195" lon="4.84828">
        <ele>172.408707</ele>
        <time>2021-09-13T09:45:51.000Z</time>
      </trkpt>
      <trkpt lat="45.83182" lon="4.84815">
        <ele>172.436122</ele>
        <time>2021-09-13T09:45:57.000Z</time>
      </trkpt>
      <trkpt lat="45.83166" lon="4.84799">
        <ele>172.470627</ele>
        <time>2021-09-13T09:46:04.000Z</time>
      </trkpt>
      <trkpt lat="45.83148" lon="4.84781">
        <ele>172.510557</ele>
        <time>2021-09-13T09:46:10.000Z</time>
      </trkpt>
      <trkpt lat="45.83123" lon="4.84756">
        <ele>172.513496</ele>
        <time>2021-09-13T09:46:16.000Z</time>
      </trkpt>
      <trkpt lat="45.83118" lon="4.84751">
        <ele>172.486319</ele>
        <time>2021-09-13T09:46:17.000Z</time>
      </trkpt>
      <trkpt lat="45.83105" lon="4.84737">
        <ele>172.415981</ele>
        <time>2021-09-13T09:46:20.000Z</time>
      </trkpt>
      <trkpt lat="45.83105" lon="4.84737">
        <ele>172.415981</ele>
        <time>2021-09-13T09:46:21.000Z</time>
      </trkpt>
      <trkpt lat="45.83082" lon="4.84709">
        <ele>172.287097</ele>
        <time>2021-09-13T09:46:25.000Z</time>
      </trkpt>
      <trkpt lat="45.83077" lon="4.84728">
        <ele>172.22613</ele>
        <time>2021-09-13T09:46:27.000Z</time>
      </trkpt>
      <trkpt lat="45.83079" lon="4.84737">
        <ele>172.194773</ele>
        <time>2021-09-13T09:46:28.000Z</time>
      </trkpt>
      <trkpt lat="45.8308" lon="4.8474">
        <ele>172.187214</ele>
        <time>2021-09-13T09:46:29.000Z</time>
      </trkpt>
      <trkpt lat="45.83088" lon="4.84747">
        <ele>172.143058</ele>
        <time>2021-09-13T09:46:32.000Z</time>
      </trkpt>
      <trkpt lat="45.83072" lon="4.84759">
        <ele>172.062203</ele>
        <time>2021-09-13T09:46:36.000Z</time>
      </trkpt>
      <trkpt lat="45.83068" lon="4.84769">
        <ele>172.02611</ele>
        <time>2021-09-13T09:46:38.000Z</time>
      </trkpt>
      <trkpt lat="45.83057" lon="4.84791">
        <ele>171.943377</ele>
        <time>2021-09-13T09:46:42.000Z</time>
      </trkpt>
      <trkpt lat="45.8303" lon="4.84845">
        <ele>171.751655</ele>
        <time>2021-09-13T09:46:50.000Z</time>
      </trkpt>
      <trkpt lat="45.83004" lon="4.84893">
        <ele>171.647136</ele>
        <time>2021-09-13T09:46:57.000Z</time>
      </trkpt>
      <trkpt lat="45.82979" lon="4.84939">
        <ele>171.547142</ele>
        <time>2021-09-13T09:47:04.000Z</time>
      </trkpt>
      <trkpt lat="45.82945" lon="4.84984">
        <ele>171.433891</ele>
        <time>2021-09-13T09:47:12.000Z</time>
      </trkpt>
      <trkpt lat="45.82911" lon="4.85028">
        <ele>171.321252</ele>
        <time>2021-09-13T09:47:20.000Z</time>
      </trkpt>
      <trkpt lat="45.82881" lon="4.85061">
        <ele>171.263101</ele>
        <time>2021-09-13T09:47:27.000Z</time>
      </trkpt>
      <trkpt lat="45.82852" lon="4.85094">
        <ele>171.205885</ele>
        <time>2021-09-13T09:47:34.000Z</time>
      </trkpt>
      <trkpt lat="45.82812" lon="4.85131">
        <ele>171.133764</ele>
        <time>2021-09-13T09:47:43.000Z</time>
      </trkpt>
      <trkpt lat="45.82778" lon="4.85162">
        <ele>171.070768</ele>
        <time>2021-09-13T09:47:51.000Z</time>
      </trkpt>
      <trkpt lat="45.82738" lon="4.85192">
        <ele>170.92488</ele>
        <time>2021-09-13T09:47:59.000Z</time>
      </trkpt>
      <trkpt lat="45.82707" lon="4.85213">
        <ele>170.781305</ele>
        <time>2021-09-13T09:48:07.000Z</time>
      </trkpt>
      <trkpt lat="45.82672" lon="4.85238">
        <ele>170.613327</ele>
        <time>2021-09-13T09:48:15.000Z</time>
      </trkpt>
      <trkpt lat="45.82638" lon="4.85261">
        <ele>170.452672</ele>
        <time>2021-09-13T09:48:23.000Z</time>
      </trkpt>
      <trkpt lat="45.826" lon="4.85287">
        <ele>170.278603</ele>
        <time>2021-09-13T09:48:32.000Z</time>
      </trkpt>
      <trkpt lat="45.82575" lon="4.85304">
        <ele>170.321437</ele>
        <time>2021-09-13T09:48:38.000Z</time>
      </trkpt>
      <trkpt lat="45.82549" lon="4.85321">
        <ele>170.364408</ele>
        <time>2021-09-13T09:48:44.000Z</time>
      </trkpt>
      <trkpt lat="45.8254" lon="4.85327">
        <ele>170.379035</ele>
        <time>2021-09-13T09:48:46.000Z</time>
      </trkpt>
      <trkpt lat="45.8251" lon="4.85347">
        <ele>170.428501</ele>
        <time>2021-09-13T09:48:53.000Z</time>
      </trkpt>
      <trkpt lat="45.82468" lon="4.85375">
        <ele>170.499135</ele>
        <time>2021-09-13T09:49:03.000Z</time>
      </trkpt>
      <trkpt lat="45.82439" lon="4.85393">
        <ele>170.546058</ele>
        <time>2021-09-13T09:49:10.000Z</time>
      </trkpt>
      <trkpt lat="45.82418" lon="4.85403">
        <ele>170.529301</ele>
        <time>2021-09-13T09:49:16.000Z</time>
      </trkpt>
      <trkpt lat="45.82402" lon="4.8541">
        <ele>170.512984</ele>
        <time>2021-09-13T09:49:21.000Z</time>
      </trkpt>
      <trkpt lat="45.82389" lon="4.85416">
        <ele>170.499406</ele>
        <time>2021-09-13T09:49:25.000Z</time>
      </trkpt>
      <trkpt lat="45.82359" lon="4.8543">
        <ele>170.469213</ele>
        <time>2021-09-13T09:49:32.000Z</time>
      </trkpt>
      <trkpt lat="45.82324" lon="4.85445">
        <ele>170.433319</ele>
        <time>2021-09-13T09:49:40.000Z</time>
      </trkpt>
      <trkpt lat="45.82287" lon="4.85457">
        <ele>170.396971</ele>
        <time>2021-09-13T09:49:48.000Z</time>
      </trkpt>
      <trkpt lat="45.82251" lon="4.85468">
        <ele>170.401947</ele>
        <time>2021-09-13T09:49:56.000Z</time>
      </trkpt>
      <trkpt lat="45.8221" lon="4.85474">
        <ele>170.480504</ele>
        <time>2021-09-13T09:50:05.000Z</time>
      </trkpt>
      <trkpt lat="45.82173" lon="4.85479">
        <ele>170.552763</ele>
        <time>2021-09-13T09:50:13.000Z</time>
      </trkpt>
      <trkpt lat="45.8214" lon="4.85483">
        <ele>170.616352</ele>
        <time>2021-09-13T09:50:20.000Z</time>
      </trkpt>
      <trkpt lat="45.82104" lon="4.85481">
        <ele>170.685657</ele>
        <time>2021-09-13T09:50:28.000Z</time>
      </trkpt>
      <trkpt lat="45.82068" lon="4.85478">
        <ele>170.759002</ele>
        <time>2021-09-13T09:50:36.000Z</time>
      </trkpt>
      <trkpt lat="45.82035" lon="4.85474">
        <ele>170.828854</ele>
        <time>2021-09-13T09:50:43.000Z</time>
      </trkpt>
      <trkpt lat="45.81992" lon="4.85462">
        <ele>170.92239</ele>
        <time>2021-09-13T09:50:52.000Z</time>
      </trkpt>
      <trkpt lat="45.81978" lon="4.85457">
        <ele>170.952682</ele>
        <time>2021-09-13T09:50:55.000Z</time>
      </trkpt>
      <trkpt lat="45.8197" lon="4.85454">
        <ele>170.971356</ele>
        <time>2021-09-13T09:50:57.000Z</time>
      </trkpt>
      <trkpt lat="45.81966" lon="4.85452">
        <ele>170.980176</ele>
        <time>2021-09-13T09:50:58.000Z</time>
      </trkpt>
      <trkpt lat="45.81958" lon="4.85449">
        <ele>170.998222</ele>
        <time>2021-09-13T09:51:00.000Z</time>
      </trkpt>
      <trkpt lat="45.81945" lon="4.85443">
        <ele>171.027672</ele>
        <time>2021-09-13T09:51:03.000Z</time>
      </trkpt>
      <trkpt lat="45.81913" lon="4.85428">
        <ele>171.099425</ele>
        <time>2021-09-13T09:51:10.000Z</time>
      </trkpt>
      <trkpt lat="45.81876" lon="4.85406">
        <ele>171.23333</ele>
        <time>2021-09-13T09:51:18.000Z</time>
      </trkpt>
      <trkpt lat="45.81838" lon="4.85375">
        <ele>171.382328</ele>
        <time>2021-09-13T09:51:27.000Z</time>
      </trkpt>
      <trkpt lat="45.81806" lon="4.85344">
        <ele>171.516467</ele>
        <time>2021-09-13T09:51:35.000Z</time>
      </trkpt>
      <trkpt lat="45.81784" lon="4.85318">
        <ele>171.61463</ele>
        <time>2021-09-13T09:51:41.000Z</time>
      </trkpt>
      <trkpt lat="45.8176" lon="4.85285">
        <ele>171.722674</ele>
        <time>2021-09-13T09:51:48.000Z</time>
      </trkpt>
      <trkpt lat="45.81736" lon="4.85246">
        <ele>171.69684</ele>
        <time>2021-09-13T09:51:56.000Z</time>
      </trkpt>
      <trkpt lat="45.81711" lon="4.85201">
        <ele>171.668308</ele>
        <time>2021-09-13T09:52:05.000Z</time>
      </trkpt>
      <trkpt lat="45.81687" lon="4.85152">
        <ele>171.638808</ele>
        <time>2021-09-13T09:52:14.000Z</time>
      </trkpt>
      <trkpt lat="45.81667" lon="4.85107">
        <ele>171.612192</ele>
        <time>2021-09-13T09:52:22.000Z</time>
      </trkpt>
      <trkpt lat="45.81648" lon="4.85058">
        <ele>171.499653</ele>
        <time>2021-09-13T09:52:30.000Z</time>
      </trkpt>
      <trkpt lat="45.81632" lon="4.85017">
        <ele>171.297557</ele>
        <time>2021-09-13T09:52:38.000Z</time>
      </trkpt>
      <trkpt lat="45.81623" lon="4.84995">
        <ele>171.188477</ele>
        <time>2021-09-13T09:52:43.000Z</time>
      </trkpt>
      <trkpt lat="45.81621" lon="4.8499">
        <ele>171.163938</ele>
        <time>2021-09-13T09:52:44.000Z</time>
      </trkpt>
      <trkpt lat="45.81617" lon="4.84979">
        <ele>171.109213</ele>
        <time>2021-09-13T09:52:46.000Z</time>
      </trkpt>
      <trkpt lat="45.81608" lon="4.84958">
        <ele>171.00615</ele>
        <time>2021-09-13T09:52:50.000Z</time>
      </trkpt>
      <trkpt lat="45.81594" lon="4.84921">
        <ele>170.826277</ele>
        <time>2021-09-13T09:52:58.000Z</time>
      </trkpt>
      <trkpt lat="45.81587" lon="4.84905">
        <ele>170.746341</ele>
        <time>2021-09-13T09:53:02.000Z</time>
      </trkpt>
      <trkpt lat="45.81586" lon="4.84902">
        <ele>170.732659</ele>
        <time>2021-09-13T09:53:03.000Z</time>
      </trkpt>
      <trkpt lat="45.81583" lon="4.84895">
        <ele>170.698673</ele>
        <time>2021-09-13T09:53:06.000Z</time>
      </trkpt>
      <trkpt lat="45.81582" lon="4.84891">
        <ele>170.679042</ele>
        <time>2021-09-13T09:53:07.000Z</time>
      </trkpt>
      <trkpt lat="45.8157" lon="4.84862">
        <ele>170.535737</ele>
        <time>2021-09-13T09:53:14.000Z</time>
      </trkpt>
      <trkpt lat="45.8156" lon="4.84836">
        <ele>170.544437</ele>
        <time>2021-09-13T09:53:20.000Z</time>
      </trkpt>
      <trkpt lat="45.81546" lon="4.84801">
        <ele>170.634355</ele>
        <time>2021-09-13T09:53:28.000Z</time>
      </trkpt>
      <trkpt lat="45.81535" lon="4.84767">
        <ele>170.718872</ele>
        <time>2021-09-13T09:53:35.000Z</time>
      </trkpt>
      <trkpt lat="45.81529" lon="4.84745">
        <ele>170.772542</ele>
        <time>2021-09-13T09:53:40.000Z</time>
      </trkpt>
      <trkpt lat="45.81522" lon="4.84721">
        <ele>170.832515</ele>
        <time>2021-09-13T09:53:45.000Z</time>
      </trkpt>
      <trkpt lat="45.8152" lon="4.84715">
        <ele>170.845034</ele>
        <time>2021-09-13T09:53:46.000Z</time>
      </trkpt>
      <trkpt lat="45.81515" lon="4.84695">
        <ele>170.894952</ele>
        <time>2021-09-13T09:53:50.000Z</time>
      </trkpt>
      <trkpt lat="45.81507" lon="4.84667">
        <ele>170.96252</ele>
        <time>2021-09-13T09:53:56.000Z</time>
      </trkpt>
      <trkpt lat="45.815" lon="4.84654">
        <ele>170.998724</ele>
        <time>2021-09-13T09:54:01.000Z</time>
      </trkpt>
      <trkpt lat="45.81494" lon="4.84628">
        <ele>171.061426</ele>
        <time>2021-09-13T09:54:07.000Z</time>
      </trkpt>
      <trkpt lat="45.8149" lon="4.84619">
        <ele>171.088895</ele>
        <time>2021-09-13T09:54:12.000Z</time>
      </trkpt>
      <trkpt lat="45.81475" lon="4.84607">
        <ele>171.183693</ele>
        <time>2021-09-13T09:54:19.000Z</time>
      </trkpt>
      <trkpt lat="45.81465" lon="4.84591">
        <ele>171.269993</ele>
        <time>2021-09-13T09:54:24.000Z</time>
      </trkpt>
      <trkpt lat="45.81447" lon="4.8457">
        <ele>171.397536</ele>
        <time>2021-09-13T09:54:30.000Z</time>
      </trkpt>
      <trkpt lat="45.81433" lon="4.84553">
        <ele>171.502847</ele>
        <time>2021-09-13T09:54:34.000Z</time>
      </trkpt>
      <trkpt lat="45.81429" lon="4.84548">
        <ele>171.532838</ele>
        <time>2021-09-13T09:54:35.000Z</time>
      </trkpt>
      <trkpt lat="45.81409" lon="4.84524">
        <ele>171.680748</ele>
        <time>2021-09-13T09:54:40.000Z</time>
      </trkpt>
      <trkpt lat="45.81405" lon="4.84519">
        <ele>171.709807</ele>
        <time>2021-09-13T09:54:41.000Z</time>
      </trkpt>
      <trkpt lat="45.81378" lon="4.84487">
        <ele>171.905092</ele>
        <time>2021-09-13T09:54:48.000Z</time>
      </trkpt>
      <trkpt lat="45.81355" lon="4.8446">
        <ele>172.073486</ele>
        <time>2021-09-13T09:54:54.000Z</time>
      </trkpt>
      <trkpt lat="45.81329" lon="4.8443">
        <ele>172.01669</ele>
        <time>2021-09-13T09:55:01.000Z</time>
      </trkpt>
      <trkpt lat="45.81319" lon="4.84418">
        <ele>171.985237</ele>
        <time>2021-09-13T09:55:04.000Z</time>
      </trkpt>
      <trkpt lat="45.81313" lon="4.8441">
        <ele>171.96523</ele>
        <time>2021-09-13T09:55:06.000Z</time>
      </trkpt>
      <trkpt lat="45.813" lon="4.84394">
        <ele>171.92252</ele>
        <time>2021-09-13T09:55:11.000Z</time>
      </trkpt>
      <trkpt lat="45.81285" lon="4.84377">
        <ele>171.876184</ele>
        <time>2021-09-13T09:55:17.000Z</time>
      </trkpt>
      <trkpt lat="45.81283" lon="4.84375">
        <ele>171.870051</ele>
        <time>2021-09-13T09:55:18.000Z</time>
      </trkpt>
      <trkpt lat="45.81279" lon="4.84369">
        <ele>171.854979</ele>
        <time>2021-09-13T09:55:20.000Z</time>
      </trkpt>
      <trkpt lat="45.81272" lon="4.84361">
        <ele>171.833963</ele>
        <time>2021-09-13T09:55:22.000Z</time>
      </trkpt>
      <trkpt lat="45.81265" lon="4.84353">
        <ele>171.811638</ele>
        <time>2021-09-13T09:55:24.000Z</time>
      </trkpt>
      <trkpt lat="45.81238" lon="4.84326">
        <ele>171.730451</ele>
        <time>2021-09-13T09:55:32.000Z</time>
      </trkpt>
      <trkpt lat="45.81208" lon="4.84298">
        <ele>171.642375</ele>
        <time>2021-09-13T09:55:41.000Z</time>
      </trkpt>
      <trkpt lat="45.81186" lon="4.8428">
        <ele>171.582921</ele>
        <time>2021-09-13T09:55:47.000Z</time>
      </trkpt>
      <trkpt lat="45.81161" lon="4.84265">
        <ele>171.521514</ele>
        <time>2021-09-13T09:55:53.000Z</time>
      </trkpt>
      <trkpt lat="45.81121" lon="4.84241">
        <ele>171.421687</ele>
        <time>2021-09-13T09:56:02.000Z</time>
      </trkpt>
      <trkpt lat="45.81087" lon="4.84224">
        <ele>171.340484</ele>
        <time>2021-09-13T09:56:09.000Z</time>
      </trkpt>
      <trkpt lat="45.81042" lon="4.84208">
        <ele>171.235855</ele>
        <time>2021-09-13T09:56:18.000Z</time>
      </trkpt>
      <trkpt lat="45.81007" lon="4.84199">
        <ele>171.306977</ele>
        <time>2021-09-13T09:56:25.000Z</time>
      </trkpt>
      <trkpt lat="45.80973" lon="4.84194">
        <ele>171.374188</ele>
        <time>2021-09-13T09:56:32.000Z</time>
      </trkpt>
      <trkpt lat="45.80953" lon="4.84193">
        <ele>171.413176</ele>
        <time>2021-09-13T09:56:36.000Z</time>
      </trkpt>
      <trkpt lat="45.80944" lon="4.84192">
        <ele>171.431382</ele>
        <time>2021-09-13T09:56:38.000Z</time>
      </trkpt>
      <trkpt lat="45.80911" lon="4.84192">
        <ele>171.496648</ele>
        <time>2021-09-13T09:56:46.000Z</time>
      </trkpt>
      <trkpt lat="45.8088" lon="4.84192">
        <ele>171.557563</ele>
        <time>2021-09-13T09:56:54.000Z</time>
      </trkpt>
      <trkpt lat="45.80868" lon="4.84192">
        <ele>171.582482</ele>
        <time>2021-09-13T09:56:57.000Z</time>
      </trkpt>
      <trkpt lat="45.80859" lon="4.84192">
        <ele>171.587486</ele>
        <time>2021-09-13T09:56:59.000Z</time>
      </trkpt>
      <trkpt lat="45.80855" lon="4.84192">
        <ele>171.584085</ele>
        <time>2021-09-13T09:57:00.000Z</time>
      </trkpt>
      <trkpt lat="45.80842" lon="4.84192">
        <ele>171.573235</ele>
        <time>2021-09-13T09:57:03.000Z</time>
      </trkpt>
      <trkpt lat="45.80824" lon="4.84191">
        <ele>171.559146</ele>
        <time>2021-09-13T09:57:07.000Z</time>
      </trkpt>
      <trkpt lat="45.80794" lon="4.84187">
        <ele>171.534321</ele>
        <time>2021-09-13T09:57:14.000Z</time>
      </trkpt>
      <trkpt lat="45.80789" lon="4.84186">
        <ele>171.530482</ele>
        <time>2021-09-13T09:57:15.000Z</time>
      </trkpt>
      <trkpt lat="45.80761" lon="4.84181">
        <ele>171.507301</ele>
        <time>2021-09-13T09:57:21.000Z</time>
      </trkpt>
      <trkpt lat="45.80721" lon="4.84172">
        <ele>171.474696</ele>
        <time>2021-09-13T09:57:29.000Z</time>
      </trkpt>
      <trkpt lat="45.80687" lon="4.8416">
        <ele>171.446452</ele>
        <time>2021-09-13T09:57:36.000Z</time>
      </trkpt>
      <trkpt lat="45.80648" lon="4.84147">
        <ele>171.68024</ele>
        <time>2021-09-13T09:57:44.000Z</time>
      </trkpt>
      <trkpt lat="45.80598" lon="4.84123">
        <ele>172.007934</ele>
        <time>2021-09-13T09:57:55.000Z</time>
      </trkpt>
      <trkpt lat="45.80566" lon="4.84105">
        <ele>172.220272</ele>
        <time>2021-09-13T09:58:03.000Z</time>
      </trkpt>
      <trkpt lat="45.80539" lon="4.8409">
        <ele>172.39846</ele>
        <time>2021-09-13T09:58:10.000Z</time>
      </trkpt>
      <trkpt lat="45.8051" lon="4.84074">
        <ele>172.734597</ele>
        <time>2021-09-13T09:58:18.000Z</time>
      </trkpt>
      <trkpt lat="45.8049" lon="4.84063">
        <ele>173.347987</ele>
        <time>2021-09-13T09:58:25.000Z</time>
      </trkpt>
      <trkpt lat="45.80475" lon="4.84055">
        <ele>173.785533</ele>
        <time>2021-09-13T09:58:31.000Z</time>
      </trkpt>
      <trkpt lat="45.80474" lon="4.84054">
        <ele>173.831508</ele>
        <time>2021-09-13T09:58:32.000Z</time>
      </trkpt>
      <trkpt lat="45.80472" lon="4.84053">
        <ele>173.886961</ele>
        <time>2021-09-13T09:58:36.000Z</time>
      </trkpt>
      <trkpt lat="45.80471" lon="4.84052">
        <ele>173.914688</ele>
        <time>2021-09-13T09:58:42.000Z</time>
      </trkpt>
      <trkpt lat="45.80464" lon="4.8405">
        <ele>174.1252</ele>
        <time>2021-09-13T09:58:44.000Z</time>
      </trkpt>
      <trkpt lat="45.80461" lon="4.84048">
        <ele>174.216915</ele>
        <time>2021-09-13T09:58:46.000Z</time>
      </trkpt>
      <trkpt lat="45.80459" lon="4.84046">
        <ele>174.293163</ele>
        <time>2021-09-13T09:58:48.000Z</time>
      </trkpt>
      <trkpt lat="45.80443" lon="4.84029">
        <ele>174.868708</ele>
        <time>2021-09-13T09:58:54.000Z</time>
      </trkpt>
      <trkpt lat="45.80426" lon="4.84017">
        <ele>175.412133</ele>
        <time>2021-09-13T09:59:02.000Z</time>
      </trkpt>
      <trkpt lat="45.80407" lon="4.84009">
        <ele>175.96412</ele>
        <time>2021-09-13T09:59:09.000Z</time>
      </trkpt>
      <trkpt lat="45.80392" lon="4.83994">
        <ele>176.503426</ele>
        <time>2021-09-13T09:59:16.000Z</time>
      </trkpt>
      <trkpt lat="45.80377" lon="4.83981">
        <ele>177.011818</ele>
        <time>2021-09-13T09:59:23.000Z</time>
      </trkpt>
      <trkpt lat="45.80365" lon="4.8397">
        <ele>177.412534</ele>
        <time>2021-09-13T09:59:28.000Z</time>
      </trkpt>
      <trkpt lat="45.80352" lon="4.83958">
        <ele>177.828761</ele>
        <time>2021-09-13T09:59:34.000Z</time>
      </trkpt>
      <trkpt lat="45.80337" lon="4.83946">
        <ele>178.210314</ele>
        <time>2021-09-13T09:59:40.000Z</time>
      </trkpt>
      <trkpt lat="45.80319" lon="4.83926">
        <ele>178.729317</ele>
        <time>2021-09-13T09:59:47.000Z</time>
      </trkpt>
      <trkpt lat="45.80304" lon="4.83908">
        <ele>179.160218</ele>
        <time>2021-09-13T09:59:53.000Z</time>
      </trkpt>
      <trkpt lat="45.80299" lon="4.83903">
        <ele>179.307188</ele>
        <time>2021-09-13T09:59:55.000Z</time>
      </trkpt>
      <trkpt lat="45.80288" lon="4.8389">
        <ele>179.637035</ele>
        <time>2021-09-13T09:59:59.000Z</time>
      </trkpt>
      <trkpt lat="45.80278" lon="4.83879">
        <ele>179.905269</ele>
        <time>2021-09-13T10:00:02.000Z</time>
      </trkpt>
      <trkpt lat="45.80268" lon="4.83867">
        <ele>180.207452</ele>
        <time>2021-09-13T10:00:05.000Z</time>
      </trkpt>
      <trkpt lat="45.80265" lon="4.83864">
        <ele>180.291042</ele>
        <time>2021-09-13T10:00:06.000Z</time>
      </trkpt>
      <trkpt lat="45.80252" lon="4.8385">
        <ele>180.648197</ele>
        <time>2021-09-13T10:00:10.000Z</time>
      </trkpt>
      <trkpt lat="45.80249" lon="4.83846">
        <ele>180.753709</ele>
        <time>2021-09-13T10:00:11.000Z</time>
      </trkpt>
      <trkpt lat="45.80238" lon="4.83837">
        <ele>181.038897</ele>
        <time>2021-09-13T10:00:14.000Z</time>
      </trkpt>
      <trkpt lat="45.80234" lon="4.83834">
        <ele>181.13264</ele>
        <time>2021-09-13T10:00:15.000Z</time>
      </trkpt>
      <trkpt lat="45.80217" lon="4.83831">
        <ele>181.519618</ele>
        <time>2021-09-13T10:00:18.000Z</time>
      </trkpt>
      <trkpt lat="45.80207" lon="4.83832">
        <ele>181.750489</ele>
        <time>2021-09-13T10:00:20.000Z</time>
      </trkpt>
      <trkpt lat="45.80173" lon="4.83837">
        <ele>181.178955</ele>
        <time>2021-09-13T10:00:26.000Z</time>
      </trkpt>
      <trkpt lat="45.80167" lon="4.83836">
        <ele>181.062368</ele>
        <time>2021-09-13T10:00:27.000Z</time>
      </trkpt>
      <trkpt lat="45.80154" lon="4.83832">
        <ele>180.823741</ele>
        <time>2021-09-13T10:00:29.000Z</time>
      </trkpt>
      <trkpt lat="45.80147" lon="4.83829">
        <ele>180.689124</ele>
        <time>2021-09-13T10:00:30.000Z</time>
      </trkpt>
      <trkpt lat="45.80114" lon="4.83802">
        <ele>179.995434</ele>
        <time>2021-09-13T10:00:35.000Z</time>
      </trkpt>
      <trkpt lat="45.80083" lon="4.83768">
        <ele>179.268081</ele>
        <time>2021-09-13T10:00:40.000Z</time>
      </trkpt>
      <trkpt lat="45.80043" lon="4.83716">
        <ele>178.260383</ele>
        <time>2021-09-13T10:00:47.000Z</time>
      </trkpt>
      <trkpt lat="45.80021" lon="4.83678">
        <ele>177.556678</ele>
        <time>2021-09-13T10:00:52.000Z</time>
      </trkpt>
      <trkpt lat="45.79996" lon="4.83626">
        <ele>176.654166</ele>
        <time>2021-09-13T10:00:59.000Z</time>
      </trkpt>
      <trkpt lat="45.79989" lon="4.83612">
        <ele>176.406263</ele>
        <time>2021-09-13T10:01:01.000Z</time>
      </trkpt>
      <trkpt lat="45.79979" lon="4.83591">
        <ele>176.043814</ele>
        <time>2021-09-13T10:01:04.000Z</time>
      </trkpt>
      <trkpt lat="45.79962" lon="4.83538">
        <ele>175.217876</ele>
        <time>2021-09-13T10:01:11.000Z</time>
      </trkpt>
      <trkpt lat="45.79948" lon="4.83493">
        <ele>174.673525</ele>
        <time>2021-09-13T10:01:17.000Z</time>
      </trkpt>
      <trkpt lat="45.79944" lon="4.83478">
        <ele>174.575345</ele>
        <time>2021-09-13T10:01:19.000Z</time>
      </trkpt>
      <trkpt lat="45.79939" lon="4.83463">
        <ele>174.476604</ele>
        <time>2021-09-13T10:01:21.000Z</time>
      </trkpt>
      <trkpt lat="45.79935" lon="4.83448">
        <ele>174.3773</ele>
        <time>2021-09-13T10:01:23.000Z</time>
      </trkpt>
      <trkpt lat="45.79933" lon="4.83441">
        <ele>174.327648</ele>
        <time>2021-09-13T10:01:24.000Z</time>
      </trkpt>
      <trkpt lat="45.79913" lon="4.83373">
        <ele>173.881905</ele>
        <time>2021-09-13T10:01:33.000Z</time>
      </trkpt>
      <trkpt lat="45.79897" lon="4.8332">
        <ele>173.531068</ele>
        <time>2021-09-13T10:01:41.000Z</time>
      </trkpt>
      <trkpt lat="45.79886" lon="4.83284">
        <ele>173.285338</ele>
        <time>2021-09-13T10:01:47.000Z</time>
      </trkpt>
      <trkpt lat="45.79872" lon="4.83238">
        <ele>173.596139</ele>
        <time>2021-09-13T10:01:54.000Z</time>
      </trkpt>
      <trkpt lat="45.79855" lon="4.83186">
        <ele>174.152344</ele>
        <time>2021-09-13T10:02:02.000Z</time>
      </trkpt>
      <trkpt lat="45.79848" lon="4.83169">
        <ele>174.342129</ele>
        <time>2021-09-13T10:02:05.000Z</time>
      </trkpt>
      <trkpt lat="45.79841" lon="4.83152">
        <ele>174.527087</ele>
        <time>2021-09-13T10:02:08.000Z</time>
      </trkpt>
      <trkpt lat="45.79836" lon="4.83141">
        <ele>174.652</ele>
        <time>2021-09-13T10:02:10.000Z</time>
      </trkpt>
      <trkpt lat="45.79831" lon="4.8313">
        <ele>174.781635</ele>
        <time>2021-09-13T10:02:12.000Z</time>
      </trkpt>
      <trkpt lat="45.79817" lon="4.83096">
        <ele>175.16368</ele>
        <time>2021-09-13T10:02:18.000Z</time>
      </trkpt>
      <trkpt lat="45.79811" lon="4.83079">
        <ele>175.349007</ele>
        <time>2021-09-13T10:02:22.000Z</time>
      </trkpt>
      <trkpt lat="45.79804" lon="4.83062">
        <ele>175.540713</ele>
        <time>2021-09-13T10:02:28.000Z</time>
      </trkpt>
      <trkpt lat="45.79799" lon="4.83039">
        <ele>175.762111</ele>
        <time>2021-09-13T10:02:34.000Z</time>
      </trkpt>
      <trkpt lat="45.79797" lon="4.83021">
        <ele>175.915307</ele>
        <time>2021-09-13T10:02:39.000Z</time>
      </trkpt>
      <trkpt lat="45.79794" lon="4.83012">
        <ele>176.002675</ele>
        <time>2021-09-13T10:02:42.000Z</time>
      </trkpt>
      <trkpt lat="45.79792" lon="4.83007">
        <ele>176.050262</ele>
        <time>2021-09-13T10:02:44.000Z</time>
      </trkpt>
      <trkpt lat="45.79791" lon="4.83004">
        <ele>176.079385</ele>
        <time>2021-09-13T10:02:47.000Z</time>
      </trkpt>
      <trkpt lat="45.7979" lon="4.83003">
        <ele>176.094994</ele>
        <time>2021-09-13T10:02:51.000Z</time>
      </trkpt>
      <trkpt lat="45.79783" lon="4.82987">
        <ele>176.253577</ele>
        <time>2021-09-13T10:02:56.000Z</time>
      </trkpt>
      <trkpt lat="45.7977" lon="4.82972">
        <ele>176.463052</ele>
        <time>2021-09-13T10:03:01.000Z</time>
      </trkpt>
      <trkpt lat="45.79763" lon="4.82965">
        <ele>176.566289</ele>
        <time>2021-09-13T10:03:02.000Z</time>
      </trkpt>
      <trkpt lat="45.7976" lon="4.82961">
        <ele>176.616407</ele>
        <time>2021-09-13T10:03:04.000Z</time>
      </trkpt>
      <trkpt lat="45.79754" lon="4.82952">
        <ele>176.725942</ele>
        <time>2021-09-13T10:03:06.000Z</time>
      </trkpt>
      <trkpt lat="45.79734" lon="4.82911">
        <ele>177.151676</ele>
        <time>2021-09-13T10:03:14.000Z</time>
      </trkpt>
      <trkpt lat="45.79722" lon="4.82888">
        <ele>177.404105</ele>
        <time>2021-09-13T10:03:18.000Z</time>
      </trkpt>
      <trkpt lat="45.79716" lon="4.82877">
        <ele>177.522601</ele>
        <time>2021-09-13T10:03:20.000Z</time>
      </trkpt>
      <trkpt lat="45.79714" lon="4.82872">
        <ele>177.576885</ele>
        <time>2021-09-13T10:03:21.000Z</time>
      </trkpt>
      <trkpt lat="45.79709" lon="4.82862">
        <ele>177.677042</ele>
        <time>2021-09-13T10:03:23.000Z</time>
      </trkpt>
      <trkpt lat="45.79703" lon="4.82851">
        <ele>177.796225</ele>
        <time>2021-09-13T10:03:25.000Z</time>
      </trkpt>
      <trkpt lat="45.79693" lon="4.82833">
        <ele>177.931252</ele>
        <time>2021-09-13T10:03:28.000Z</time>
      </trkpt>
      <trkpt lat="45.79687" lon="4.82821">
        <ele>177.952278</ele>
        <time>2021-09-13T10:03:30.000Z</time>
      </trkpt>
      <trkpt lat="45.79678" lon="4.82805">
        <ele>177.981454</ele>
        <time>2021-09-13T10:03:33.000Z</time>
      </trkpt>
      <trkpt lat="45.79666" lon="4.82782">
        <ele>178.024214</ele>
        <time>2021-09-13T10:03:37.000Z</time>
      </trkpt>
      <trkpt lat="45.79639" lon="4.8273">
        <ele>178.115943</ele>
        <time>2021-09-13T10:03:45.000Z</time>
      </trkpt>
      <trkpt lat="45.79621" lon="4.82695">
        <ele>178.179093</ele>
        <time>2021-09-13T10:03:51.000Z</time>
      </trkpt>
      <trkpt lat="45.79619" lon="4.8269">
        <ele>178.188181</ele>
        <time>2021-09-13T10:03:52.000Z</time>
      </trkpt>
      <trkpt lat="45.796" lon="4.82653">
        <ele>178.25298</ele>
        <time>2021-09-13T10:03:58.000Z</time>
      </trkpt>
      <trkpt lat="45.79585" lon="4.82623">
        <ele>178.255367</ele>
        <time>2021-09-13T10:04:04.000Z</time>
      </trkpt>
      <trkpt lat="45.79572" lon="4.82598">
        <ele>178.171494</ele>
        <time>2021-09-13T10:04:09.000Z</time>
      </trkpt>
      <trkpt lat="45.79562" lon="4.82579">
        <ele>178.104721</ele>
        <time>2021-09-13T10:04:13.000Z</time>
      </trkpt>
      <trkpt lat="45.7956" lon="4.82574">
        <ele>178.086946</ele>
        <time>2021-09-13T10:04:14.000Z</time>
      </trkpt>
      <trkpt lat="45.7955" lon="4.82554">
        <ele>178.019673</ele>
        <time>2021-09-13T10:04:18.000Z</time>
      </trkpt>
      <trkpt lat="45.79538" lon="4.82534">
        <ele>177.946644</ele>
        <time>2021-09-13T10:04:23.000Z</time>
      </trkpt>
      <trkpt lat="45.79524" lon="4.82508">
        <ele>177.856019</ele>
        <time>2021-09-13T10:04:28.000Z</time>
      </trkpt>
      <trkpt lat="45.79521" lon="4.82502">
        <ele>177.835739</ele>
        <time>2021-09-13T10:04:29.000Z</time>
      </trkpt>
      <trkpt lat="45.79518" lon="4.82496">
        <ele>177.815455</ele>
        <time>2021-09-13T10:04:30.000Z</time>
      </trkpt>
      <trkpt lat="45.79512" lon="4.82484">
        <ele>177.773926</ele>
        <time>2021-09-13T10:04:32.000Z</time>
      </trkpt>
      <trkpt lat="45.79509" lon="4.82479">
        <ele>177.755894</ele>
        <time>2021-09-13T10:04:33.000Z</time>
      </trkpt>
      <trkpt lat="45.79495" lon="4.82453">
        <ele>177.663686</ele>
        <time>2021-09-13T10:04:38.000Z</time>
      </trkpt>
      <trkpt lat="45.79492" lon="4.82448">
        <ele>177.645654</ele>
        <time>2021-09-13T10:04:39.000Z</time>
      </trkpt>
      <trkpt lat="45.79478" lon="4.82422">
        <ele>177.570502</ele>
        <time>2021-09-13T10:04:44.000Z</time>
      </trkpt>
      <trkpt lat="45.79475" lon="4.82417">
        <ele>177.567599</ele>
        <time>2021-09-13T10:04:45.000Z</time>
      </trkpt>
      <trkpt lat="45.79472" lon="4.82411">
        <ele>177.564559</ele>
        <time>2021-09-13T10:04:46.000Z</time>
      </trkpt>
      <trkpt lat="45.79464" lon="4.82397">
        <ele>177.557196</ele>
        <time>2021-09-13T10:04:49.000Z</time>
      </trkpt>
      <trkpt lat="45.7945" lon="4.82372">
        <ele>177.543977</ele>
        <time>2021-09-13T10:04:54.000Z</time>
      </trkpt>
      <trkpt lat="45.79444" lon="4.82362">
        <ele>177.538806</ele>
        <time>2021-09-13T10:04:56.000Z</time>
      </trkpt>
      <trkpt lat="45.79436" lon="4.82347">
        <ele>177.531099</ele>
        <time>2021-09-13T10:04:59.000Z</time>
      </trkpt>
      <trkpt lat="45.79424" lon="4.82325">
        <ele>177.51947</ele>
        <time>2021-09-13T10:05:03.000Z</time>
      </trkpt>
      <trkpt lat="45.79407" lon="4.82296">
        <ele>177.503753</ele>
        <time>2021-09-13T10:05:08.000Z</time>
      </trkpt>
      <trkpt lat="45.79404" lon="4.8229">
        <ele>177.500808</ele>
        <time>2021-09-13T10:05:09.000Z</time>
      </trkpt>
      <trkpt lat="45.7939" lon="4.82265">
        <ele>177.487525</ele>
        <time>2021-09-13T10:05:14.000Z</time>
      </trkpt>
      <trkpt lat="45.79382" lon="4.82251">
        <ele>177.480089</ele>
        <time>2021-09-13T10:05:17.000Z</time>
      </trkpt>
      <trkpt lat="45.7938" lon="4.82247">
        <ele>177.47816</ele>
        <time>2021-09-13T10:05:18.000Z</time>
      </trkpt>
      <trkpt lat="45.79377" lon="4.82243">
        <ele>177.475927</ele>
        <time>2021-09-13T10:05:19.000Z</time>
      </trkpt>
      <trkpt lat="45.79372" lon="4.82233">
        <ele>177.470453</ele>
        <time>2021-09-13T10:05:21.000Z</time>
      </trkpt>
      <trkpt lat="45.79368" lon="4.82227">
        <ele>177.467407</ele>
        <time>2021-09-13T10:05:22.000Z</time>
      </trkpt>
      <trkpt lat="45.79351" lon="4.82199">
        <ele>177.702691</ele>
        <time>2021-09-13T10:05:27.000Z</time>
      </trkpt>
      <trkpt lat="45.79344" lon="4.82187">
        <ele>177.803305</ele>
        <time>2021-09-13T10:05:29.000Z</time>
      </trkpt>
      <trkpt lat="45.79324" lon="4.8216">
        <ele>178.060181</ele>
        <time>2021-09-13T10:05:34.000Z</time>
      </trkpt>
      <trkpt lat="45.7932" lon="4.82155">
        <ele>178.109455</ele>
        <time>2021-09-13T10:05:35.000Z</time>
      </trkpt>
      <trkpt lat="45.79305" lon="4.82136">
        <ele>178.291318</ele>
        <time>2021-09-13T10:05:39.000Z</time>
      </trkpt>
      <trkpt lat="45.79294" lon="4.82123">
        <ele>178.418751</ele>
        <time>2021-09-13T10:05:42.000Z</time>
      </trkpt>
      <trkpt lat="45.7929" lon="4.82118">
        <ele>178.467478</ele>
        <time>2021-09-13T10:05:43.000Z</time>
      </trkpt>
      <trkpt lat="45.79283" lon="4.8211">
        <ele>178.551507</ele>
        <time>2021-09-13T10:05:45.000Z</time>
      </trkpt>
      <trkpt lat="45.79271" lon="4.82096">
        <ele>178.692617</ele>
        <time>2021-09-13T10:05:48.000Z</time>
      </trkpt>
      <trkpt lat="45.7926" lon="4.82082">
        <ele>178.828141</ele>
        <time>2021-09-13T10:05:51.000Z</time>
      </trkpt>
      <trkpt lat="45.79253" lon="4.82073">
        <ele>178.914819</ele>
        <time>2021-09-13T10:05:53.000Z</time>
      </trkpt>
      <trkpt lat="45.79246" lon="4.82065">
        <ele>178.999678</ele>
        <time>2021-09-13T10:05:55.000Z</time>
      </trkpt>
      <trkpt lat="45.7923" lon="4.82045">
        <ele>179.286754</ele>
        <time>2021-09-13T10:06:00.000Z</time>
      </trkpt>
      <trkpt lat="45.79226" lon="4.8204">
        <ele>179.377234</ele>
        <time>2021-09-13T10:06:01.000Z</time>
      </trkpt>
      <trkpt lat="45.79214" lon="4.82026">
        <ele>179.69043</ele>
        <time>2021-09-13T10:06:04.000Z</time>
      </trkpt>
      <trkpt lat="45.79206" lon="4.82016">
        <ele>179.903755</ele>
        <time>2021-09-13T10:06:06.000Z</time>
      </trkpt>
      <trkpt lat="45.79189" lon="4.81995">
        <ele>180.354618</ele>
        <time>2021-09-13T10:06:11.000Z</time>
      </trkpt>
      <trkpt lat="45.79185" lon="4.81991">
        <ele>180.445706</ele>
        <time>2021-09-13T10:06:12.000Z</time>
      </trkpt>
      <trkpt lat="45.79181" lon="4.81986">
        <ele>180.547383</ele>
        <time>2021-09-13T10:06:13.000Z</time>
      </trkpt>
      <trkpt lat="45.79167" lon="4.81968">
        <ele>180.928345</ele>
        <time>2021-09-13T10:06:17.000Z</time>
      </trkpt>
      <trkpt lat="45.79163" lon="4.81964">
        <ele>181.025176</ele>
        <time>2021-09-13T10:06:18.000Z</time>
      </trkpt>
      <trkpt lat="45.79152" lon="4.8195">
        <ele>181.313247</ele>
        <time>2021-09-13T10:06:21.000Z</time>
      </trkpt>
      <trkpt lat="45.79145" lon="4.81942">
        <ele>181.494801</ele>
        <time>2021-09-13T10:06:23.000Z</time>
      </trkpt>
      <trkpt lat="45.79136" lon="4.8193">
        <ele>181.745986</ele>
        <time>2021-09-13T10:06:26.000Z</time>
      </trkpt>
      <trkpt lat="45.79126" lon="4.81917">
        <ele>182.013384</ele>
        <time>2021-09-13T10:06:29.000Z</time>
      </trkpt>
      <trkpt lat="45.7912" lon="4.81908">
        <ele>182.183145</ele>
        <time>2021-09-13T10:06:31.000Z</time>
      </trkpt>
      <trkpt lat="45.79105" lon="4.81888">
        <ele>182.593833</ele>
        <time>2021-09-13T10:06:36.000Z</time>
      </trkpt>
      <trkpt lat="45.79088" lon="4.81864">
        <ele>182.829637</ele>
        <time>2021-09-13T10:06:42.000Z</time>
      </trkpt>
      <trkpt lat="45.79078" lon="4.81848">
        <ele>182.932954</ele>
        <time>2021-09-13T10:06:47.000Z</time>
      </trkpt>
      <trkpt lat="45.79062" lon="4.81824">
        <ele>183.082362</ele>
        <time>2021-09-13T10:06:53.000Z</time>
      </trkpt>
      <trkpt lat="45.79048" lon="4.81804">
        <ele>183.214974</ele>
        <time>2021-09-13T10:06:58.000Z</time>
      </trkpt>
      <trkpt lat="45.79037" lon="4.81786">
        <ele>183.325497</ele>
        <time>2021-09-13T10:07:02.000Z</time>
      </trkpt>
      <trkpt lat="45.79034" lon="4.81782">
        <ele>183.35215</ele>
        <time>2021-09-13T10:07:03.000Z</time>
      </trkpt>
      <trkpt lat="45.79023" lon="4.81768">
        <ele>183.449671</ele>
        <time>2021-09-13T10:07:06.000Z</time>
      </trkpt>
      <trkpt lat="45.7901" lon="4.81749">
        <ele>183.570809</ele>
        <time>2021-09-13T10:07:09.000Z</time>
      </trkpt>
      <trkpt lat="45.79003" lon="4.81739">
        <ele>183.641356</ele>
        <time>2021-09-13T10:07:11.000Z</time>
      </trkpt>
      <trkpt lat="45.78995" lon="4.81728">
        <ele>183.709987</ele>
        <time>2021-09-13T10:07:13.000Z</time>
      </trkpt>
      <trkpt lat="45.78984" lon="4.81713">
        <ele>183.809101</ele>
        <time>2021-09-13T10:07:16.000Z</time>
      </trkpt>
      <trkpt lat="45.78975" lon="4.817">
        <ele>183.898162</ele>
        <time>2021-09-13T10:07:19.000Z</time>
      </trkpt>
      <trkpt lat="45.78968" lon="4.81691">
        <ele>183.811715</ele>
        <time>2021-09-13T10:07:21.000Z</time>
      </trkpt>
      <trkpt lat="45.78956" lon="4.81672">
        <ele>183.60239</ele>
        <time>2021-09-13T10:07:25.000Z</time>
      </trkpt>
      <trkpt lat="45.78949" lon="4.81664">
        <ele>183.500935</ele>
        <time>2021-09-13T10:07:27.000Z</time>
      </trkpt>
      <trkpt lat="45.78937" lon="4.81646">
        <ele>183.300236</ele>
        <time>2021-09-13T10:07:31.000Z</time>
      </trkpt>
      <trkpt lat="45.78934" lon="4.81642">
        <ele>183.251871</ele>
        <time>2021-09-13T10:07:32.000Z</time>
      </trkpt>
      <trkpt lat="45.78931" lon="4.81637">
        <ele>183.198217</ele>
        <time>2021-09-13T10:07:33.000Z</time>
      </trkpt>
      <trkpt lat="45.7892" lon="4.81623">
        <ele>183.031147</ele>
        <time>2021-09-13T10:07:36.000Z</time>
      </trkpt>
      <trkpt lat="45.78905" lon="4.81602">
        <ele>182.789216</ele>
        <time>2021-09-13T10:07:40.000Z</time>
      </trkpt>
      <trkpt lat="45.78886" lon="4.81578">
        <ele>182.494664</ele>
        <time>2021-09-13T10:07:45.000Z</time>
      </trkpt>
      <trkpt lat="45.78882" lon="4.81574">
        <ele>182.439214</ele>
        <time>2021-09-13T10:07:46.000Z</time>
      </trkpt>
      <trkpt lat="45.78864" lon="4.81556">
        <ele>182.184196</ele>
        <time>2021-09-13T10:07:51.000Z</time>
      </trkpt>
      <trkpt lat="45.7886" lon="4.81552">
        <ele>182.130753</ele>
        <time>2021-09-13T10:07:52.000Z</time>
      </trkpt>
      <trkpt lat="45.78839" lon="4.81531">
        <ele>181.842901</ele>
        <time>2021-09-13T10:07:57.000Z</time>
      </trkpt>
      <trkpt lat="45.78825" lon="4.81517">
        <ele>181.534209</ele>
        <time>2021-09-13T10:08:01.000Z</time>
      </trkpt>
      <trkpt lat="45.78821" lon="4.81513">
        <ele>181.453882</ele>
        <time>2021-09-13T10:08:02.000Z</time>
      </trkpt>
      <trkpt lat="45.78807" lon="4.815">
        <ele>181.148498</ele>
        <time>2021-09-13T10:08:06.000Z</time>
      </trkpt>
      <trkpt lat="45.78789" lon="4.81485">
        <ele>180.76731</ele>
        <time>2021-09-13T10:08:11.000Z</time>
      </trkpt>
      <trkpt lat="45.78785" lon="4.81482">
        <ele>180.682844</ele>
        <time>2021-09-13T10:08:12.000Z</time>
      </trkpt>
      <trkpt lat="45.78772" lon="4.81471">
        <ele>180.422905</ele>
        <time>2021-09-13T10:08:15.000Z</time>
      </trkpt>
      <trkpt lat="45.78768" lon="4.81468">
        <ele>180.336259</ele>
        <time>2021-09-13T10:08:16.000Z</time>
      </trkpt>
      <trkpt lat="45.78764" lon="4.81465">
        <ele>180.251793</ele>
        <time>2021-09-13T10:08:17.000Z</time>
      </trkpt>
      <trkpt lat="45.78747" lon="4.81452">
        <ele>179.916107</ele>
        <time>2021-09-13T10:08:21.000Z</time>
      </trkpt>
      <trkpt lat="45.78736" lon="4.81442">
        <ele>179.672378</ele>
        <time>2021-09-13T10:08:24.000Z</time>
      </trkpt>
      <trkpt lat="45.78727" lon="4.81436">
        <ele>179.498885</ele>
        <time>2021-09-13T10:08:26.000Z</time>
      </trkpt>
      <trkpt lat="45.78718" lon="4.8143">
        <ele>179.324905</ele>
        <time>2021-09-13T10:08:28.000Z</time>
      </trkpt>
      <trkpt lat="45.7871" lon="4.81424">
        <ele>179.154595</ele>
        <time>2021-09-13T10:08:30.000Z</time>
      </trkpt>
      <trkpt lat="45.78705" lon="4.81421">
        <ele>179.066469</ele>
        <time>2021-09-13T10:08:31.000Z</time>
      </trkpt>
      <trkpt lat="45.78688" lon="4.81411">
        <ele>178.737232</ele>
        <time>2021-09-13T10:08:35.000Z</time>
      </trkpt>
      <trkpt lat="45.78663" lon="4.81394">
        <ele>178.162538</ele>
        <time>2021-09-13T10:08:41.000Z</time>
      </trkpt>
      <trkpt lat="45.7865" lon="4.81385">
        <ele>177.867283</ele>
        <time>2021-09-13T10:08:44.000Z</time>
      </trkpt>
      <trkpt lat="45.78642" lon="4.8138">
        <ele>177.670446</ele>
        <time>2021-09-13T10:08:46.000Z</time>
      </trkpt>
      <trkpt lat="45.78638" lon="4.81377">
        <ele>177.574578</ele>
        <time>2021-09-13T10:08:47.000Z</time>
      </trkpt>
      <trkpt lat="45.78607" lon="4.81357">
        <ele>176.86966</ele>
        <time>2021-09-13T10:08:54.000Z</time>
      </trkpt>
      <trkpt lat="45.78603" lon="4.81355">
        <ele>176.776341</ele>
        <time>2021-09-13T10:08:55.000Z</time>
      </trkpt>
      <trkpt lat="45.78596" lon="4.8135">
        <ele>176.612723</ele>
        <time>2021-09-13T10:08:57.000Z</time>
      </trkpt>
      <trkpt lat="45.78588" lon="4.81345">
        <ele>176.417117</ele>
        <time>2021-09-13T10:08:59.000Z</time>
      </trkpt>
      <trkpt lat="45.78576" lon="4.81337">
        <ele>176.13461</ele>
        <time>2021-09-13T10:09:02.000Z</time>
      </trkpt>
      <trkpt lat="45.78557" lon="4.81324">
        <ele>175.695576</ele>
        <time>2021-09-13T10:09:07.000Z</time>
      </trkpt>
      <trkpt lat="45.78546" lon="4.81317">
        <ele>175.431609</ele>
        <time>2021-09-13T10:09:10.000Z</time>
      </trkpt>
      <trkpt lat="45.78539" lon="4.81312">
        <ele>175.273691</ele>
        <time>2021-09-13T10:09:12.000Z</time>
      </trkpt>
      <trkpt lat="45.78521" lon="4.81301">
        <ele>174.856297</ele>
        <time>2021-09-13T10:09:17.000Z</time>
      </trkpt>
      <trkpt lat="45.78492" lon="4.81279">
        <ele>174.568161</ele>
        <time>2021-09-13T10:09:25.000Z</time>
      </trkpt>
      <trkpt lat="45.78468" lon="4.81259">
        <ele>174.367028</ele>
        <time>2021-09-13T10:09:32.000Z</time>
      </trkpt>
      <trkpt lat="45.78445" lon="4.8124">
        <ele>174.178419</ele>
        <time>2021-09-13T10:09:40.000Z</time>
      </trkpt>
      <trkpt lat="45.78424" lon="4.81223">
        <ele>174.003822</ele>
        <time>2021-09-13T10:09:47.000Z</time>
      </trkpt>
      <trkpt lat="45.78412" lon="4.81213">
        <ele>173.906604</ele>
        <time>2021-09-13T10:09:53.000Z</time>
      </trkpt>
      <trkpt lat="45.78379" lon="4.81206">
        <ele>173.667528</ele>
        <time>2021-09-13T10:09:59.000Z</time>
      </trkpt>
      <trkpt lat="45.78366" lon="4.81195">
        <ele>173.559271</ele>
        <time>2021-09-13T10:10:03.000Z</time>
      </trkpt>
      <trkpt lat="45.78349" lon="4.81182">
        <ele>173.417095</ele>
        <time>2021-09-13T10:10:08.000Z</time>
      </trkpt>
      <trkpt lat="45.78336" lon="4.81171">
        <ele>173.299656</ele>
        <time>2021-09-13T10:10:12.000Z</time>
      </trkpt>
      <trkpt lat="45.78332" lon="4.81168">
        <ele>173.267455</ele>
        <time>2021-09-13T10:10:13.000Z</time>
      </trkpt>
      <trkpt lat="45.78312" lon="4.81151">
        <ele>173.085347</ele>
        <time>2021-09-13T10:10:19.000Z</time>
      </trkpt>
      <trkpt lat="45.78296" lon="4.81138">
        <ele>172.943017</ele>
        <time>2021-09-13T10:10:24.000Z</time>
      </trkpt>
      <trkpt lat="45.78276" lon="4.81121">
        <ele>172.759413</ele>
        <time>2021-09-13T10:10:30.000Z</time>
      </trkpt>
      <trkpt lat="45.78266" lon="4.81112">
        <ele>172.665912</ele>
        <time>2021-09-13T10:10:33.000Z</time>
      </trkpt>
      <trkpt lat="45.78262" lon="4.81109">
        <ele>172.635061</ele>
        <time>2021-09-13T10:10:34.000Z</time>
      </trkpt>
      <trkpt lat="45.78255" lon="4.81103">
        <ele>172.571739</ele>
        <time>2021-09-13T10:10:36.000Z</time>
      </trkpt>
      <trkpt lat="45.78252" lon="4.811">
        <ele>172.538043</ele>
        <time>2021-09-13T10:10:37.000Z</time>
      </trkpt>
      <trkpt lat="45.78249" lon="4.81092">
        <ele>172.486837</ele>
        <time>2021-09-13T10:10:38.000Z</time>
      </trkpt>
      <trkpt lat="45.78229" lon="4.81076">
        <ele>172.314201</ele>
        <time>2021-09-13T10:10:43.000Z</time>
      </trkpt>
      <trkpt lat="45.78197" lon="4.81049">
        <ele>172.044868</ele>
        <time>2021-09-13T10:10:52.000Z</time>
      </trkpt>
      <trkpt lat="45.78169" lon="4.81026">
        <ele>171.88692</ele>
        <time>2021-09-13T10:11:00.000Z</time>
      </trkpt>
      <trkpt lat="45.78149" lon="4.8101">
        <ele>171.778379</ele>
        <time>2021-09-13T10:11:06.000Z</time>
      </trkpt>
      <trkpt lat="45.78125" lon="4.8099">
        <ele>171.642004</ele>
        <time>2021-09-13T10:11:14.000Z</time>
      </trkpt>
      <trkpt lat="45.78095" lon="4.80961">
        <ele>171.465892</ele>
        <time>2021-09-13T10:11:24.000Z</time>
      </trkpt>
      <trkpt lat="45.78069" lon="4.80937">
        <ele>171.314468</ele>
        <time>2021-09-13T10:11:33.000Z</time>
      </trkpt>
      <trkpt lat="45.78052" lon="4.80924">
        <ele>171.220518</ele>
        <time>2021-09-13T10:11:39.000Z</time>
      </trkpt>
      <trkpt lat="45.78034" lon="4.80911">
        <ele>171.324332</ele>
        <time>2021-09-13T10:11:46.000Z</time>
      </trkpt>
      <trkpt lat="45.78014" lon="4.80895">
        <ele>171.470089</ele>
        <time>2021-09-13T10:11:53.000Z</time>
      </trkpt>
      <trkpt lat="45.77996" lon="4.80884">
        <ele>171.595655</ele>
        <time>2021-09-13T10:11:59.000Z</time>
      </trkpt>
      <trkpt lat="45.77979" lon="4.80873">
        <ele>171.71287</ele>
        <time>2021-09-13T10:12:05.000Z</time>
      </trkpt>
      <trkpt lat="45.77962" lon="4.80863">
        <ele>171.833538</ele>
        <time>2021-09-13T10:12:11.000Z</time>
      </trkpt>
      <trkpt lat="45.77943" lon="4.80851">
        <ele>171.966678</ele>
        <time>2021-09-13T10:12:17.000Z</time>
      </trkpt>
      <trkpt lat="45.77924" lon="4.80839">
        <ele>172.095603</ele>
        <time>2021-09-13T10:12:23.000Z</time>
      </trkpt>
      <trkpt lat="45.77907" lon="4.80829">
        <ele>172.215079</ele>
        <time>2021-09-13T10:12:29.000Z</time>
      </trkpt>
      <trkpt lat="45.77891" lon="4.8082">
        <ele>172.32495</ele>
        <time>2021-09-13T10:12:34.000Z</time>
      </trkpt>
      <trkpt lat="45.77877" lon="4.80812">
        <ele>172.557766</ele>
        <time>2021-09-13T10:12:39.000Z</time>
      </trkpt>
      <trkpt lat="45.77871" lon="4.80809">
        <ele>172.68007</ele>
        <time>2021-09-13T10:12:41.000Z</time>
      </trkpt>
      <trkpt lat="45.77868" lon="4.80807">
        <ele>172.735001</ele>
        <time>2021-09-13T10:12:42.000Z</time>
      </trkpt>
      <trkpt lat="45.77866" lon="4.80806">
        <ele>172.785786</ele>
        <time>2021-09-13T10:12:43.000Z</time>
      </trkpt>
      <trkpt lat="45.77853" lon="4.80806">
        <ele>173.026965</ele>
        <time>2021-09-13T10:12:45.000Z</time>
      </trkpt>
      <trkpt lat="45.77863" lon="4.80811">
        <ele>173.228091</ele>
        <time>2021-09-13T10:12:47.000Z</time>
      </trkpt>
      <trkpt lat="45.77852" lon="4.80813">
        <ele>173.445974</ele>
        <time>2021-09-13T10:12:50.000Z</time>
      </trkpt>
      <trkpt lat="45.7786" lon="4.80808">
        <ele>173.612222</ele>
        <time>2021-09-13T10:13:07.000Z</time>
      </trkpt>
      <trkpt lat="45.77858" lon="4.80807">
        <ele>173.649362</ele>
        <time>2021-09-13T10:13:09.000Z</time>
      </trkpt>
      <trkpt lat="45.77853" lon="4.80804">
        <ele>173.751302</ele>
        <time>2021-09-13T10:13:13.000Z</time>
      </trkpt>
      <trkpt lat="45.77854" lon="4.80804">
        <ele>173.765022</ele>
        <time>2021-09-13T10:13:14.000Z</time>
      </trkpt>
      <trkpt lat="45.77848" lon="4.80797">
        <ele>173.919018</ele>
        <time>2021-09-13T10:13:17.000Z</time>
      </trkpt>
      <trkpt lat="45.77846" lon="4.80797">
        <ele>173.95881</ele>
        <time>2021-09-13T10:13:18.000Z</time>
      </trkpt>
      <trkpt lat="45.77829" lon="4.80793">
        <ele>174.296816</ele>
        <time>2021-09-13T10:13:24.000Z</time>
      </trkpt>
      <trkpt lat="45.77813" lon="4.80791">
        <ele>174.603195</ele>
        <time>2021-09-13T10:13:29.000Z</time>
      </trkpt>
      <trkpt lat="45.77798" lon="4.80788">
        <ele>174.895792</ele>
        <time>2021-09-13T10:13:34.000Z</time>
      </trkpt>
      <trkpt lat="45.77785" lon="4.80785">
        <ele>175.152698</ele>
        <time>2021-09-13T10:13:39.000Z</time>
      </trkpt>
      <trkpt lat="45.77774" lon="4.80783">
        <ele>175.37409</ele>
        <time>2021-09-13T10:13:43.000Z</time>
      </trkpt>
      <trkpt lat="45.77753" lon="4.80779">
        <ele>175.783302</ele>
        <time>2021-09-13T10:13:50.000Z</time>
      </trkpt>
      <trkpt lat="45.77741" lon="4.80777">
        <ele>175.796164</ele>
        <time>2021-09-13T10:13:55.000Z</time>
      </trkpt>
      <trkpt lat="45.77739" lon="4.80777">
        <ele>175.777372</ele>
        <time>2021-09-13T10:13:56.000Z</time>
      </trkpt>
      <trkpt lat="45.77734" lon="4.80776">
        <ele>175.726826</ele>
        <time>2021-09-13T10:13:59.000Z</time>
      </trkpt>
      <trkpt lat="45.7773" lon="4.80775">
        <ele>175.677264</ele>
        <time>2021-09-13T10:14:23.000Z</time>
      </trkpt>
      <trkpt lat="45.77722" lon="4.80779">
        <ele>175.586608</ele>
        <time>2021-09-13T10:14:25.000Z</time>
      </trkpt>
      <trkpt lat="45.77722" lon="4.80779">
        <ele>175.584427</ele>
        <time>2021-09-13T10:14:26.000Z</time>
      </trkpt>
      <trkpt lat="45.77712" lon="4.80779">
        <ele>175.482935</ele>
        <time>2021-09-13T10:14:29.000Z</time>
      </trkpt>
      <trkpt lat="45.77706" lon="4.8078">
        <ele>175.418414</ele>
        <time>2021-09-13T10:14:32.000Z</time>
      </trkpt>
      <trkpt lat="45.77688" lon="4.80781">
        <ele>175.220447</ele>
        <time>2021-09-13T10:14:38.000Z</time>
      </trkpt>
      <trkpt lat="45.77677" lon="4.80783">
        <ele>175.095423</ele>
        <time>2021-09-13T10:14:42.000Z</time>
      </trkpt>
      <trkpt lat="45.77654" lon="4.80792">
        <ele>174.835358</ele>
        <time>2021-09-13T10:14:48.000Z</time>
      </trkpt>
      <trkpt lat="45.77643" lon="4.80796">
        <ele>174.714142</ele>
        <time>2021-09-13T10:14:51.000Z</time>
      </trkpt>
      <trkpt lat="45.77634" lon="4.808">
        <ele>174.614525</ele>
        <time>2021-09-13T10:14:54.000Z</time>
      </trkpt>
      <trkpt lat="45.77623" lon="4.80805">
        <ele>174.479882</ele>
        <time>2021-09-13T10:14:58.000Z</time>
      </trkpt>
      <trkpt lat="45.77607" lon="4.80811">
        <ele>174.303298</ele>
        <time>2021-09-13T10:15:03.000Z</time>
      </trkpt>
      <trkpt lat="45.77584" lon="4.8082">
        <ele>174.047439</ele>
        <time>2021-09-13T10:15:09.000Z</time>
      </trkpt>
      <trkpt lat="45.7757" lon="4.80826">
        <ele>173.879139</ele>
        <time>2021-09-13T10:15:13.000Z</time>
      </trkpt>
      <trkpt lat="45.77541" lon="4.80837">
        <ele>173.492022</ele>
        <time>2021-09-13T10:15:21.000Z</time>
      </trkpt>
      <trkpt lat="45.77527" lon="4.80844">
        <ele>173.303618</ele>
        <time>2021-09-13T10:15:26.000Z</time>
      </trkpt>
      <trkpt lat="45.77515" lon="4.80851">
        <ele>173.13494</ele>
        <time>2021-09-13T10:15:31.000Z</time>
      </trkpt>
      <trkpt lat="45.77506" lon="4.80858">
        <ele>173.00297</ele>
        <time>2021-09-13T10:15:35.000Z</time>
      </trkpt>
      <trkpt lat="45.77505" lon="4.80863">
        <ele>172.953763</ele>
        <time>2021-09-13T10:15:38.000Z</time>
      </trkpt>
      <trkpt lat="45.77502" lon="4.80861">
        <ele>172.911041</ele>
        <time>2021-09-13T10:16:05.000Z</time>
      </trkpt>
      <trkpt lat="45.77498" lon="4.80865">
        <ele>172.846507</ele>
        <time>2021-09-13T10:16:08.000Z</time>
      </trkpt>
      <trkpt lat="45.77496" lon="4.80865">
        <ele>172.821948</ele>
        <time>2021-09-13T10:16:09.000Z</time>
      </trkpt>
      <trkpt lat="45.77501" lon="4.80848">
        <ele>172.660196</ele>
        <time>2021-09-13T10:16:13.000Z</time>
      </trkpt>
      <trkpt lat="45.77504" lon="4.80825">
        <ele>172.444281</ele>
        <time>2021-09-13T10:16:17.000Z</time>
      </trkpt>
      <trkpt lat="45.77504" lon="4.80825">
        <ele>172.444281</ele>
        <time>2021-09-13T10:16:18.000Z</time>
      </trkpt>
      <trkpt lat="45.77504" lon="4.80822">
        <ele>172.42262</ele>
        <time>2021-09-13T10:16:21.000Z</time>
      </trkpt>
      <trkpt lat="45.77494" lon="4.80815">
        <ele>172.276845</ele>
        <time>2021-09-13T10:16:35.000Z</time>
      </trkpt>
      <trkpt lat="45.77489" lon="4.80818">
        <ele>172.205462</ele>
        <time>2021-09-13T10:16:39.000Z</time>
      </trkpt>
      <trkpt lat="45.77479" lon="4.80835">
        <ele>172.011811</ele>
        <time>2021-09-13T10:16:45.000Z</time>
      </trkpt>
      <trkpt lat="45.77465" lon="4.80846">
        <ele>171.800338</ele>
        <time>2021-09-13T10:16:51.000Z</time>
      </trkpt>
      <trkpt lat="45.77444" lon="4.80861">
        <ele>171.598928</ele>
        <time>2021-09-13T10:16:58.000Z</time>
      </trkpt>
      <trkpt lat="45.77429" lon="4.80872">
        <ele>171.591867</ele>
        <time>2021-09-13T10:17:04.000Z</time>
      </trkpt>
      <trkpt lat="45.77419" lon="4.8088">
        <ele>171.587103</ele>
        <time>2021-09-13T10:17:12.000Z</time>
      </trkpt>
      <trkpt lat="45.77406" lon="4.80892">
        <ele>171.580487</ele>
        <time>2021-09-13T10:17:18.000Z</time>
      </trkpt>
      <trkpt lat="45.77403" lon="4.80894">
        <ele>171.579328</ele>
        <time>2021-09-13T10:17:19.000Z</time>
      </trkpt>
      <trkpt lat="45.7739" lon="4.80892">
        <ele>171.573965</ele>
        <time>2021-09-13T10:17:22.000Z</time>
      </trkpt>
      <trkpt lat="45.77382" lon="4.80881">
        <ele>171.569189</ele>
        <time>2021-09-13T10:17:26.000Z</time>
      </trkpt>
      <trkpt lat="45.77367" lon="4.80854">
        <ele>171.559275</ele>
        <time>2021-09-13T10:17:33.000Z</time>
      </trkpt>
      <trkpt lat="45.77354" lon="4.80827">
        <ele>171.549631</ele>
        <time>2021-09-13T10:17:40.000Z</time>
      </trkpt>
      <trkpt lat="45.77341" lon="4.80802">
        <ele>171.540702</ele>
        <time>2021-09-13T10:17:47.000Z</time>
      </trkpt>
      <trkpt lat="45.77334" lon="4.80788">
        <ele>171.535516</ele>
        <time>2021-09-13T10:17:52.000Z</time>
      </trkpt>
      <trkpt lat="45.77322" lon="4.80764">
        <ele>171.527065</ele>
        <time>2021-09-13T10:17:59.000Z</time>
      </trkpt>
      <trkpt lat="45.77321" lon="4.80761">
        <ele>171.527045</ele>
        <time>2021-09-13T10:18:00.000Z</time>
      </trkpt>
      <trkpt lat="45.77317" lon="4.80754">
        <ele>171.527045</ele>
        <time>2021-09-13T10:18:02.000Z</time>
      </trkpt>
      <trkpt lat="45.77344" lon="4.80726">
        <ele>171.527045</ele>
        <time>2021-09-13T10:18:08.000Z</time>
      </trkpt>
      <trkpt lat="45.77362" lon="4.80708">
        <ele>171.527045</ele>
        <time>2021-09-13T10:18:14.000Z</time>
      </trkpt>
      <trkpt lat="45.77378" lon="4.80692">
        <ele>171.527045</ele>
        <time>2021-09-13T10:18:20.000Z</time>
      </trkpt>
      <trkpt lat="45.77392" lon="4.8068">
        <ele>171.527045</ele>
        <time>2021-09-13T10:18:26.000Z</time>
      </trkpt>
      <trkpt lat="45.77403" lon="4.80667">
        <ele>171.527045</ele>
        <time>2021-09-13T10:18:32.000Z</time>
      </trkpt>
      <trkpt lat="45.77414" lon="4.80645">
        <ele>171.527045</ele>
        <time>2021-09-13T10:18:39.000Z</time>
      </trkpt>
      <trkpt lat="45.7742" lon="4.80625">
        <ele>171.527045</ele>
        <time>2021-09-13T10:18:45.000Z</time>
      </trkpt>
      <trkpt lat="45.77432" lon="4.80619">
        <ele>171.527045</ele>
        <time>2021-09-13T10:18:50.000Z</time>
      </trkpt>
      <trkpt lat="45.77442" lon="4.80614">
        <ele>171.527045</ele>
        <time>2021-09-13T10:18:55.000Z</time>
      </trkpt>
      <trkpt lat="45.77444" lon="4.80613">
        <ele>171.527045</ele>
        <time>2021-09-13T10:18:56.000Z</time>
      </trkpt>
      <trkpt lat="45.77445" lon="4.80616">
        <ele>171.527045</ele>
        <time>2021-09-13T10:18:59.000Z</time>
      </trkpt>
      <trkpt lat="45.77448" lon="4.80631">
        <ele>171.527045</ele>
        <time>2021-09-13T10:19:06.000Z</time>
      </trkpt>
      <trkpt lat="45.77448" lon="4.80632">
        <ele>171.527045</ele>
        <time>2021-09-13T10:19:08.000Z</time>
      </trkpt>
    </trkseg>
  </trk>
</gpx>